<?xml version="1.0" encoding="UTF-8" standalone="no" ?>
<gpx xmlns="http://www.topografix.com/GPX/1/1" xmlns:xsi="http://www.w3.org/2001/XMLSchema-instance" xsi:schemaLocation="http://www.topografix.com/GPX/1/1 http://www.topografix.com/GPX/1/1/gpx.xsd" version="1.1" creator="VisuGPX - https://www.visugpx.com">
  <metadata>
    <name>La Morte le Taillefer</name>
    <desc><![CDATA[Belle rando avec LCV N3. Superbes points de vue. Un passage un peu aérien. Trace incomplète.]]></desc>
  </metadata>
  <trk>
    <name><![CDATA[La Morte le Taillefer_1]]></name>
    <trkseg>
      <trkpt lat="45.04646" lon="5.87259">
        <ele>1675</ele>
        <time>2015-09-06T08:22:56Z</time>
      </trkpt>
      <trkpt lat="45.04633" lon="5.87262">
        <ele>1677.3264</ele>
        <time>2015-09-06T08:23:01Z</time>
      </trkpt>
      <trkpt lat="45.04629" lon="5.8726">
        <ele>1677.3264</ele>
        <time>2015-09-06T08:23:11Z</time>
      </trkpt>
      <trkpt lat="45.04629" lon="5.8726">
        <ele>1677.3264</ele>
        <time>2015-09-06T08:23:16Z</time>
      </trkpt>
      <trkpt lat="45.04617" lon="5.8725">
        <ele>1682.7653</ele>
        <time>2015-09-06T08:23:26Z</time>
      </trkpt>
      <trkpt lat="45.04611" lon="5.8725">
        <ele>1682.7653</ele>
        <time>2015-09-06T08:23:31Z</time>
      </trkpt>
      <trkpt lat="45.04602" lon="5.87246">
        <ele>1690.5287</ele>
        <time>2015-09-06T08:23:41Z</time>
      </trkpt>
      <trkpt lat="45.04595" lon="5.87244">
        <ele>1690.5287</ele>
        <time>2015-09-06T08:23:46Z</time>
      </trkpt>
      <trkpt lat="45.04583" lon="5.87239">
        <ele>1698.4579</ele>
        <time>2015-09-06T08:23:56Z</time>
      </trkpt>
      <trkpt lat="45.04581" lon="5.87234">
        <ele>1698.4579</ele>
        <time>2015-09-06T08:24:01Z</time>
      </trkpt>
      <trkpt lat="45.04574" lon="5.87229">
        <ele>1706.124</ele>
        <time>2015-09-06T08:24:11Z</time>
      </trkpt>
      <trkpt lat="45.04571" lon="5.87223">
        <ele>1706.124</ele>
        <time>2015-09-06T08:24:16Z</time>
      </trkpt>
      <trkpt lat="45.04566" lon="5.87214">
        <ele>1712.821</ele>
        <time>2015-09-06T08:24:26Z</time>
      </trkpt>
      <trkpt lat="45.04561" lon="5.87213">
        <ele>1712.821</ele>
        <time>2015-09-06T08:24:31Z</time>
      </trkpt>
      <trkpt lat="45.04549" lon="5.87204">
        <ele>1718.3795</ele>
        <time>2015-09-06T08:24:41Z</time>
      </trkpt>
      <trkpt lat="45.04549" lon="5.87209">
        <ele>1718.3795</ele>
        <time>2015-09-06T08:24:46Z</time>
      </trkpt>
      <trkpt lat="45.04547" lon="5.87209">
        <ele>1718.3795</ele>
        <time>2015-09-06T08:24:56Z</time>
      </trkpt>
      <trkpt lat="45.04549" lon="5.87207">
        <ele>1718.3795</ele>
        <time>2015-09-06T08:25:01Z</time>
      </trkpt>
      <trkpt lat="45.04542" lon="5.87203">
        <ele>1721.9386</ele>
        <time>2015-09-06T08:25:16Z</time>
      </trkpt>
      <trkpt lat="45.04537" lon="5.87202">
        <ele>1721.9386</ele>
        <time>2015-09-06T08:25:21Z</time>
      </trkpt>
      <trkpt lat="45.04524" lon="5.8719">
        <ele>1724.4861</ele>
        <time>2015-09-06T08:25:31Z</time>
      </trkpt>
      <trkpt lat="45.04532" lon="5.87192">
        <ele>1725.2137</ele>
        <time>2015-09-06T08:25:36Z</time>
      </trkpt>
      <trkpt lat="45.04534" lon="5.8718">
        <ele>1725.9414</ele>
        <time>2015-09-06T08:25:46Z</time>
      </trkpt>
      <trkpt lat="45.0453" lon="5.87173">
        <ele>1726.3905</ele>
        <time>2015-09-06T08:25:51Z</time>
      </trkpt>
      <trkpt lat="45.04539" lon="5.87164">
        <ele>1726.8395</ele>
        <time>2015-09-06T08:26:01Z</time>
      </trkpt>
      <trkpt lat="45.04539" lon="5.87157">
        <ele>1726.8395</ele>
        <time>2015-09-06T08:26:06Z</time>
      </trkpt>
      <trkpt lat="45.04547" lon="5.87144">
        <ele>1727.7551</ele>
        <time>2015-09-06T08:26:16Z</time>
      </trkpt>
      <trkpt lat="45.04552" lon="5.87143">
        <ele>1727.7551</ele>
        <time>2015-09-06T08:26:21Z</time>
      </trkpt>
      <trkpt lat="45.0456" lon="5.87141">
        <ele>1727.9307</ele>
        <time>2015-09-06T08:26:31Z</time>
      </trkpt>
      <trkpt lat="45.04561" lon="5.87138">
        <ele>1727.9307</ele>
        <time>2015-09-06T08:26:36Z</time>
      </trkpt>
      <trkpt lat="45.04568" lon="5.8713">
        <ele>1727.864</ele>
        <time>2015-09-06T08:26:46Z</time>
      </trkpt>
      <trkpt lat="45.04571" lon="5.87121">
        <ele>1727.864</ele>
        <time>2015-09-06T08:26:51Z</time>
      </trkpt>
      <trkpt lat="45.04583" lon="5.8711">
        <ele>1727.5148</ele>
        <time>2015-09-06T08:27:01Z</time>
      </trkpt>
      <trkpt lat="45.04588" lon="5.87112">
        <ele>1727.5148</ele>
        <time>2015-09-06T08:27:06Z</time>
      </trkpt>
      <trkpt lat="45.04595" lon="5.871">
        <ele>1727.9946</ele>
        <time>2015-09-06T08:27:16Z</time>
      </trkpt>
      <trkpt lat="45.04598" lon="5.87097">
        <ele>1727.9946</ele>
        <time>2015-09-06T08:27:21Z</time>
      </trkpt>
      <trkpt lat="45.04599" lon="5.87085">
        <ele>1728.1492</ele>
        <time>2015-09-06T08:27:36Z</time>
      </trkpt>
      <trkpt lat="45.04603" lon="5.87079">
        <ele>1728.1492</ele>
        <time>2015-09-06T08:27:41Z</time>
      </trkpt>
      <trkpt lat="45.04612" lon="5.87066">
        <ele>1728.0746</ele>
        <time>2015-09-06T08:27:51Z</time>
      </trkpt>
      <trkpt lat="45.04601" lon="5.87062">
        <ele>1729.1199</ele>
        <time>2015-09-06T08:27:56Z</time>
      </trkpt>
      <trkpt lat="45.04603" lon="5.87043">
        <ele>1731.9745</ele>
        <time>2015-09-06T08:28:06Z</time>
      </trkpt>
      <trkpt lat="45.046" lon="5.87041">
        <ele>1731.9745</ele>
        <time>2015-09-06T08:28:11Z</time>
      </trkpt>
      <trkpt lat="45.04597" lon="5.87033">
        <ele>1734.4375</ele>
        <time>2015-09-06T08:28:21Z</time>
      </trkpt>
      <trkpt lat="45.04596" lon="5.87028">
        <ele>1734.4375</ele>
        <time>2015-09-06T08:28:26Z</time>
      </trkpt>
      <trkpt lat="45.04579" lon="5.87014">
        <ele>1736.4138</ele>
        <time>2015-09-06T08:28:36Z</time>
      </trkpt>
      <trkpt lat="45.04573" lon="5.87009">
        <ele>1736.4138</ele>
        <time>2015-09-06T08:28:41Z</time>
      </trkpt>
      <trkpt lat="45.04567" lon="5.87004">
        <ele>1738.2676</ele>
        <time>2015-09-06T08:28:51Z</time>
      </trkpt>
      <trkpt lat="45.04564" lon="5.86999">
        <ele>1738.2676</ele>
        <time>2015-09-06T08:28:56Z</time>
      </trkpt>
      <trkpt lat="45.04556" lon="5.86992">
        <ele>1739.8705</ele>
        <time>2015-09-06T08:29:06Z</time>
      </trkpt>
      <trkpt lat="45.0455" lon="5.86994">
        <ele>1739.8705</ele>
        <time>2015-09-06T08:29:11Z</time>
      </trkpt>
      <trkpt lat="45.0453" lon="5.86999">
        <ele>1741.6896</ele>
        <time>2015-09-06T08:29:21Z</time>
      </trkpt>
      <trkpt lat="45.04528" lon="5.86991">
        <ele>1741.6896</ele>
        <time>2015-09-06T08:29:26Z</time>
      </trkpt>
      <trkpt lat="45.04522" lon="5.8699">
        <ele>1743.1263</ele>
        <time>2015-09-06T08:29:36Z</time>
      </trkpt>
      <trkpt lat="45.04521" lon="5.86992">
        <ele>1743.1263</ele>
        <time>2015-09-06T08:29:41Z</time>
      </trkpt>
      <trkpt lat="45.04514" lon="5.86979">
        <ele>1744.5026</ele>
        <time>2015-09-06T08:29:51Z</time>
      </trkpt>
      <trkpt lat="45.04505" lon="5.86975">
        <ele>1745.9618</ele>
        <time>2015-09-06T08:29:56Z</time>
      </trkpt>
      <trkpt lat="45.04489" lon="5.8697">
        <ele>1747.913</ele>
        <time>2015-09-06T08:30:11Z</time>
      </trkpt>
      <trkpt lat="45.04486" lon="5.86961">
        <ele>1747.913</ele>
        <time>2015-09-06T08:30:16Z</time>
      </trkpt>
      <trkpt lat="45.04482" lon="5.86961">
        <ele>1749.3328</ele>
        <time>2015-09-06T08:30:26Z</time>
      </trkpt>
      <trkpt lat="45.0448" lon="5.86946">
        <ele>1750.2609</ele>
        <time>2015-09-06T08:30:31Z</time>
      </trkpt>
      <trkpt lat="45.04479" lon="5.86944">
        <ele>1750.2609</ele>
        <time>2015-09-06T08:30:41Z</time>
      </trkpt>
      <trkpt lat="45.04471" lon="5.86939">
        <ele>1750.7316</ele>
        <time>2015-09-06T08:30:46Z</time>
      </trkpt>
      <trkpt lat="45.04458" lon="5.86924">
        <ele>1751.8866</ele>
        <time>2015-09-06T08:30:56Z</time>
      </trkpt>
      <trkpt lat="45.04451" lon="5.86918">
        <ele>1751.8866</ele>
        <time>2015-09-06T08:31:01Z</time>
      </trkpt>
      <trkpt lat="45.0444" lon="5.86912">
        <ele>1752.4261</ele>
        <time>2015-09-06T08:31:11Z</time>
      </trkpt>
      <trkpt lat="45.04439" lon="5.86907">
        <ele>1752.4261</ele>
        <time>2015-09-06T08:31:16Z</time>
      </trkpt>
      <trkpt lat="45.04428" lon="5.86889">
        <ele>1752.8103</ele>
        <time>2015-09-06T08:31:26Z</time>
      </trkpt>
      <trkpt lat="45.04427" lon="5.86886">
        <ele>1752.8103</ele>
        <time>2015-09-06T08:31:31Z</time>
      </trkpt>
      <trkpt lat="45.04418" lon="5.86878">
        <ele>1752.9116</ele>
        <time>2015-09-06T08:31:41Z</time>
      </trkpt>
      <trkpt lat="45.04409" lon="5.86874">
        <ele>1752.8938</ele>
        <time>2015-09-06T08:31:46Z</time>
      </trkpt>
      <trkpt lat="45.04394" lon="5.86859">
        <ele>1753.0553</ele>
        <time>2015-09-06T08:32:01Z</time>
      </trkpt>
      <trkpt lat="45.04388" lon="5.86859">
        <ele>1753.0553</ele>
        <time>2015-09-06T08:32:06Z</time>
      </trkpt>
      <trkpt lat="45.04369" lon="5.86845">
        <ele>1752.8243</ele>
        <time>2015-09-06T08:32:16Z</time>
      </trkpt>
      <trkpt lat="45.04367" lon="5.86836">
        <ele>1752.8243</ele>
        <time>2015-09-06T08:32:21Z</time>
      </trkpt>
      <trkpt lat="45.04358" lon="5.86827">
        <ele>1752.6655</ele>
        <time>2015-09-06T08:32:31Z</time>
      </trkpt>
      <trkpt lat="45.04354" lon="5.86824">
        <ele>1752.6655</ele>
        <time>2015-09-06T08:32:36Z</time>
      </trkpt>
      <trkpt lat="45.04349" lon="5.86816">
        <ele>1751.2852</ele>
        <time>2015-09-06T08:32:46Z</time>
      </trkpt>
      <trkpt lat="45.04347" lon="5.86807">
        <ele>1751.2852</ele>
        <time>2015-09-06T08:32:51Z</time>
      </trkpt>
      <trkpt lat="45.04343" lon="5.86792">
        <ele>1749.9363</ele>
        <time>2015-09-06T08:33:01Z</time>
      </trkpt>
      <trkpt lat="45.0434" lon="5.86783">
        <ele>1749.9363</ele>
        <time>2015-09-06T08:33:06Z</time>
      </trkpt>
      <trkpt lat="45.04331" lon="5.86774">
        <ele>1749.8086</ele>
        <time>2015-09-06T08:33:16Z</time>
      </trkpt>
      <trkpt lat="45.04325" lon="5.86769">
        <ele>1749.8086</ele>
        <time>2015-09-06T08:33:21Z</time>
      </trkpt>
      <trkpt lat="45.04316" lon="5.86757">
        <ele>1749.3679</ele>
        <time>2015-09-06T08:33:31Z</time>
      </trkpt>
      <trkpt lat="45.04313" lon="5.86753">
        <ele>1749.3679</ele>
        <time>2015-09-06T08:33:36Z</time>
      </trkpt>
      <trkpt lat="45.04306" lon="5.86743">
        <ele>1749.0924</ele>
        <time>2015-09-06T08:33:46Z</time>
      </trkpt>
      <trkpt lat="45.04302" lon="5.86735">
        <ele>1749.0924</ele>
        <time>2015-09-06T08:33:51Z</time>
      </trkpt>
      <trkpt lat="45.04287" lon="5.86719">
        <ele>1748.5376</ele>
        <time>2015-09-06T08:34:01Z</time>
      </trkpt>
      <trkpt lat="45.04283" lon="5.86711">
        <ele>1748.5376</ele>
        <time>2015-09-06T08:34:06Z</time>
      </trkpt>
      <trkpt lat="45.0427" lon="5.86711">
        <ele>1747.2869</ele>
        <time>2015-09-06T08:34:21Z</time>
      </trkpt>
      <trkpt lat="45.04263" lon="5.8671">
        <ele>1747.2869</ele>
        <time>2015-09-06T08:34:26Z</time>
      </trkpt>
      <trkpt lat="45.04255" lon="5.8671">
        <ele>1746.0033</ele>
        <time>2015-09-06T08:34:36Z</time>
      </trkpt>
      <trkpt lat="45.04246" lon="5.86702">
        <ele>1744.5542</ele>
        <time>2015-09-06T08:34:41Z</time>
      </trkpt>
      <trkpt lat="45.04232" lon="5.86694">
        <ele>1743.4188</ele>
        <time>2015-09-06T08:34:51Z</time>
      </trkpt>
      <trkpt lat="45.04229" lon="5.8669">
        <ele>1743.4188</ele>
        <time>2015-09-06T08:34:56Z</time>
      </trkpt>
      <trkpt lat="45.0422" lon="5.86689">
        <ele>1742.889</ele>
        <time>2015-09-06T08:35:06Z</time>
      </trkpt>
      <trkpt lat="45.04216" lon="5.86689">
        <ele>1742.889</ele>
        <time>2015-09-06T08:35:11Z</time>
      </trkpt>
      <trkpt lat="45.04206" lon="5.86683">
        <ele>1742.6273</ele>
        <time>2015-09-06T08:35:21Z</time>
      </trkpt>
      <trkpt lat="45.04201" lon="5.8668">
        <ele>1742.6273</ele>
        <time>2015-09-06T08:35:26Z</time>
      </trkpt>
      <trkpt lat="45.04181" lon="5.86668">
        <ele>1742.621</ele>
        <time>2015-09-06T08:35:36Z</time>
      </trkpt>
      <trkpt lat="45.04176" lon="5.86668">
        <ele>1742.621</ele>
        <time>2015-09-06T08:35:41Z</time>
      </trkpt>
      <trkpt lat="45.04157" lon="5.86661">
        <ele>1741.4985</ele>
        <time>2015-09-06T08:35:51Z</time>
      </trkpt>
      <trkpt lat="45.04149" lon="5.8666">
        <ele>1741.4985</ele>
        <time>2015-09-06T08:35:56Z</time>
      </trkpt>
      <trkpt lat="45.04145" lon="5.86681">
        <ele>1740.262</ele>
        <time>2015-09-06T08:36:06Z</time>
      </trkpt>
      <trkpt lat="45.04138" lon="5.86684">
        <ele>1740.262</ele>
        <time>2015-09-06T08:36:11Z</time>
      </trkpt>
      <trkpt lat="45.04137" lon="5.86686">
        <ele>1740.262</ele>
        <time>2015-09-06T08:36:21Z</time>
      </trkpt>
      <trkpt lat="45.04131" lon="5.86694">
        <ele>1739.3817</ele>
        <time>2015-09-06T08:36:26Z</time>
      </trkpt>
      <trkpt lat="45.04123" lon="5.86692">
        <ele>1739.3817</ele>
        <time>2015-09-06T08:36:36Z</time>
      </trkpt>
      <trkpt lat="45.04117" lon="5.86699">
        <ele>1739.2877</ele>
        <time>2015-09-06T08:36:41Z</time>
      </trkpt>
      <trkpt lat="45.04103" lon="5.86712">
        <ele>1739.7712</ele>
        <time>2015-09-06T08:36:56Z</time>
      </trkpt>
      <trkpt lat="45.041" lon="5.8672">
        <ele>1739.7712</ele>
        <time>2015-09-06T08:37:01Z</time>
      </trkpt>
      <trkpt lat="45.0409" lon="5.86729">
        <ele>1739.441</ele>
        <time>2015-09-06T08:37:11Z</time>
      </trkpt>
      <trkpt lat="45.04087" lon="5.86734">
        <ele>1739.441</ele>
        <time>2015-09-06T08:37:16Z</time>
      </trkpt>
      <trkpt lat="45.04068" lon="5.86735">
        <ele>1738.5178</ele>
        <time>2015-09-06T08:37:26Z</time>
      </trkpt>
      <trkpt lat="45.04066" lon="5.86742">
        <ele>1738.5178</ele>
        <time>2015-09-06T08:37:31Z</time>
      </trkpt>
      <trkpt lat="45.04075" lon="5.86757">
        <ele>1737.9502</ele>
        <time>2015-09-06T08:37:41Z</time>
      </trkpt>
      <trkpt lat="45.04073" lon="5.86763">
        <ele>1737.9502</ele>
        <time>2015-09-06T08:37:46Z</time>
      </trkpt>
      <trkpt lat="45.04073" lon="5.86791">
        <ele>1737.2687</ele>
        <time>2015-09-06T08:37:56Z</time>
      </trkpt>
      <trkpt lat="45.04071" lon="5.86798">
        <ele>1737.2687</ele>
        <time>2015-09-06T08:38:01Z</time>
      </trkpt>
      <trkpt lat="45.04065" lon="5.86814">
        <ele>1736.7839</ele>
        <time>2015-09-06T08:38:11Z</time>
      </trkpt>
      <trkpt lat="45.04063" lon="5.86828">
        <ele>1736.4845</ele>
        <time>2015-09-06T08:38:16Z</time>
      </trkpt>
      <trkpt lat="45.04042" lon="5.86837">
        <ele>1736.5065</ele>
        <time>2015-09-06T08:38:26Z</time>
      </trkpt>
      <trkpt lat="45.04036" lon="5.8683">
        <ele>1736.5065</ele>
        <time>2015-09-06T08:38:31Z</time>
      </trkpt>
      <trkpt lat="45.04025" lon="5.86815">
        <ele>1736.2379</ele>
        <time>2015-09-06T08:38:46Z</time>
      </trkpt>
      <trkpt lat="45.04021" lon="5.86812">
        <ele>1736.2379</ele>
        <time>2015-09-06T08:38:51Z</time>
      </trkpt>
      <trkpt lat="45.04015" lon="5.86796">
        <ele>1736.1459</ele>
        <time>2015-09-06T08:39:01Z</time>
      </trkpt>
      <trkpt lat="45.04009" lon="5.86793">
        <ele>1736.1459</ele>
        <time>2015-09-06T08:39:06Z</time>
      </trkpt>
      <trkpt lat="45.03998" lon="5.86775">
        <ele>1736.8049</ele>
        <time>2015-09-06T08:39:16Z</time>
      </trkpt>
      <trkpt lat="45.03994" lon="5.86771">
        <ele>1736.8049</ele>
        <time>2015-09-06T08:39:21Z</time>
      </trkpt>
      <trkpt lat="45.03983" lon="5.86762">
        <ele>1737.4247</ele>
        <time>2015-09-06T08:39:31Z</time>
      </trkpt>
      <trkpt lat="45.03976" lon="5.86764">
        <ele>1737.4247</ele>
        <time>2015-09-06T08:39:36Z</time>
      </trkpt>
      <trkpt lat="45.03965" lon="5.86754">
        <ele>1738.4465</ele>
        <time>2015-09-06T08:39:46Z</time>
      </trkpt>
      <trkpt lat="45.03959" lon="5.86751">
        <ele>1738.4465</ele>
        <time>2015-09-06T08:39:51Z</time>
      </trkpt>
      <trkpt lat="45.03944" lon="5.86744">
        <ele>1739.6925</ele>
        <time>2015-09-06T08:40:01Z</time>
      </trkpt>
      <trkpt lat="45.03943" lon="5.8674">
        <ele>1739.6925</ele>
        <time>2015-09-06T08:40:06Z</time>
      </trkpt>
      <trkpt lat="45.03939" lon="5.86735">
        <ele>1739.6925</ele>
        <time>2015-09-06T08:40:11Z</time>
      </trkpt>
      <trkpt lat="45.03929" lon="5.86735">
        <ele>1740.4167</ele>
        <time>2015-09-06T08:40:16Z</time>
      </trkpt>
      <trkpt lat="45.03925" lon="5.86729">
        <ele>1740.4167</ele>
        <time>2015-09-06T08:40:21Z</time>
      </trkpt>
      <trkpt lat="45.03917" lon="5.86729">
        <ele>1740.3691</ele>
        <time>2015-09-06T08:40:26Z</time>
      </trkpt>
      <trkpt lat="45.0391" lon="5.86731">
        <ele>1740.3691</ele>
        <time>2015-09-06T08:40:31Z</time>
      </trkpt>
      <trkpt lat="45.03903" lon="5.8673">
        <ele>1739.756</ele>
        <time>2015-09-06T08:40:36Z</time>
      </trkpt>
      <trkpt lat="45.03899" lon="5.86726">
        <ele>1739.756</ele>
        <time>2015-09-06T08:40:41Z</time>
      </trkpt>
      <trkpt lat="45.03898" lon="5.86726">
        <ele>1739.756</ele>
        <time>2015-09-06T08:40:46Z</time>
      </trkpt>
      <trkpt lat="45.03889" lon="5.86728">
        <ele>1739.0585</ele>
        <time>2015-09-06T08:40:51Z</time>
      </trkpt>
      <trkpt lat="45.03883" lon="5.86726">
        <ele>1739.0585</ele>
        <time>2015-09-06T08:40:56Z</time>
      </trkpt>
      <trkpt lat="45.03878" lon="5.86723">
        <ele>1738.2858</ele>
        <time>2015-09-06T08:41:01Z</time>
      </trkpt>
      <trkpt lat="45.03869" lon="5.86725">
        <ele>1738.2858</ele>
        <time>2015-09-06T08:41:06Z</time>
      </trkpt>
      <trkpt lat="45.03856" lon="5.86719">
        <ele>1737.7358</ele>
        <time>2015-09-06T08:41:11Z</time>
      </trkpt>
      <trkpt lat="45.03846" lon="5.86725">
        <ele>1736.6718</ele>
        <time>2015-09-06T08:41:26Z</time>
      </trkpt>
      <trkpt lat="45.0384" lon="5.86727">
        <ele>1736.6718</ele>
        <time>2015-09-06T08:41:31Z</time>
      </trkpt>
      <trkpt lat="45.03824" lon="5.86715">
        <ele>1735.1359</ele>
        <time>2015-09-06T08:41:41Z</time>
      </trkpt>
      <trkpt lat="45.03822" lon="5.86713">
        <ele>1735.1359</ele>
        <time>2015-09-06T08:41:46Z</time>
      </trkpt>
      <trkpt lat="45.03814" lon="5.86707">
        <ele>1733.8898</ele>
        <time>2015-09-06T08:41:56Z</time>
      </trkpt>
      <trkpt lat="45.03803" lon="5.86713">
        <ele>1732.4828</ele>
        <time>2015-09-06T08:42:01Z</time>
      </trkpt>
      <trkpt lat="45.03791" lon="5.86711">
        <ele>1731.2196</ele>
        <time>2015-09-06T08:42:11Z</time>
      </trkpt>
      <trkpt lat="45.03786" lon="5.86703">
        <ele>1731.2196</ele>
        <time>2015-09-06T08:42:16Z</time>
      </trkpt>
      <trkpt lat="45.03774" lon="5.86708">
        <ele>1730.8142</ele>
        <time>2015-09-06T08:42:26Z</time>
      </trkpt>
      <trkpt lat="45.03768" lon="5.86707">
        <ele>1730.8142</ele>
        <time>2015-09-06T08:42:31Z</time>
      </trkpt>
      <trkpt lat="45.03758" lon="5.86708">
        <ele>1730.195</ele>
        <time>2015-09-06T08:42:41Z</time>
      </trkpt>
      <trkpt lat="45.03749" lon="5.86705">
        <ele>1729.3792</ele>
        <time>2015-09-06T08:42:46Z</time>
      </trkpt>
      <trkpt lat="45.0374" lon="5.86696">
        <ele>1728.9602</ele>
        <time>2015-09-06T08:42:56Z</time>
      </trkpt>
      <trkpt lat="45.0373" lon="5.867">
        <ele>1728.6211</ele>
        <time>2015-09-06T08:43:01Z</time>
      </trkpt>
      <trkpt lat="45.03721" lon="5.86698">
        <ele>1727.3474</ele>
        <time>2015-09-06T08:43:16Z</time>
      </trkpt>
      <trkpt lat="45.03717" lon="5.86697">
        <ele>1727.3474</ele>
        <time>2015-09-06T08:43:21Z</time>
      </trkpt>
      <trkpt lat="45.03714" lon="5.86696">
        <ele>1727.3474</ele>
        <time>2015-09-06T08:43:31Z</time>
      </trkpt>
      <trkpt lat="45.03702" lon="5.86694">
        <ele>1726.7966</ele>
        <time>2015-09-06T08:43:36Z</time>
      </trkpt>
      <trkpt lat="45.03683" lon="5.86687">
        <ele>1725.7631</ele>
        <time>2015-09-06T08:43:46Z</time>
      </trkpt>
      <trkpt lat="45.03675" lon="5.86686">
        <ele>1725.7631</ele>
        <time>2015-09-06T08:43:51Z</time>
      </trkpt>
      <trkpt lat="45.03646" lon="5.86689">
        <ele>1725.1492</ele>
        <time>2015-09-06T08:44:01Z</time>
      </trkpt>
      <trkpt lat="45.03647" lon="5.86683">
        <ele>1725.1492</ele>
        <time>2015-09-06T08:44:06Z</time>
      </trkpt>
      <trkpt lat="45.03638" lon="5.86681">
        <ele>1723.6273</ele>
        <time>2015-09-06T08:44:16Z</time>
      </trkpt>
      <trkpt lat="45.03628" lon="5.86683">
        <ele>1722.5651</ele>
        <time>2015-09-06T08:44:21Z</time>
      </trkpt>
      <trkpt lat="45.03619" lon="5.86673">
        <ele>1721.498</ele>
        <time>2015-09-06T08:44:31Z</time>
      </trkpt>
      <trkpt lat="45.03612" lon="5.86668">
        <ele>1721.498</ele>
        <time>2015-09-06T08:44:36Z</time>
      </trkpt>
      <trkpt lat="45.03601" lon="5.86654">
        <ele>1720.2839</ele>
        <time>2015-09-06T08:44:46Z</time>
      </trkpt>
      <trkpt lat="45.03594" lon="5.86649">
        <ele>1720.2839</ele>
        <time>2015-09-06T08:44:51Z</time>
      </trkpt>
      <trkpt lat="45.03582" lon="5.86647">
        <ele>1718.7915</ele>
        <time>2015-09-06T08:45:01Z</time>
      </trkpt>
      <trkpt lat="45.03575" lon="5.86646">
        <ele>1718.7915</ele>
        <time>2015-09-06T08:45:06Z</time>
      </trkpt>
      <trkpt lat="45.03556" lon="5.86646">
        <ele>1717.1881</ele>
        <time>2015-09-06T08:45:21Z</time>
      </trkpt>
      <trkpt lat="45.0355" lon="5.86647">
        <ele>1717.1881</ele>
        <time>2015-09-06T08:45:26Z</time>
      </trkpt>
      <trkpt lat="45.0354" lon="5.86649">
        <ele>1716.206</ele>
        <time>2015-09-06T08:45:36Z</time>
      </trkpt>
      <trkpt lat="45.03533" lon="5.86652">
        <ele>1716.206</ele>
        <time>2015-09-06T08:45:41Z</time>
      </trkpt>
      <trkpt lat="45.03521" lon="5.86652">
        <ele>1715.6566</ele>
        <time>2015-09-06T08:45:51Z</time>
      </trkpt>
      <trkpt lat="45.03518" lon="5.86647">
        <ele>1715.6566</ele>
        <time>2015-09-06T08:45:56Z</time>
      </trkpt>
      <trkpt lat="45.03511" lon="5.86632">
        <ele>1714.498</ele>
        <time>2015-09-06T08:46:06Z</time>
      </trkpt>
      <trkpt lat="45.03508" lon="5.86624">
        <ele>1714.498</ele>
        <time>2015-09-06T08:46:11Z</time>
      </trkpt>
      <trkpt lat="45.03501" lon="5.86611">
        <ele>1712.7766</ele>
        <time>2015-09-06T08:46:21Z</time>
      </trkpt>
      <trkpt lat="45.03496" lon="5.86607">
        <ele>1712.7766</ele>
        <time>2015-09-06T08:46:26Z</time>
      </trkpt>
      <trkpt lat="45.03491" lon="5.86595">
        <ele>1711.8347</ele>
        <time>2015-09-06T08:46:36Z</time>
      </trkpt>
      <trkpt lat="45.03489" lon="5.86587">
        <ele>1711.8347</ele>
        <time>2015-09-06T08:46:41Z</time>
      </trkpt>
      <trkpt lat="45.03479" lon="5.86565">
        <ele>1710.7504</ele>
        <time>2015-09-06T08:46:56Z</time>
      </trkpt>
      <trkpt lat="45.03475" lon="5.86555">
        <ele>1710.7504</ele>
        <time>2015-09-06T08:47:01Z</time>
      </trkpt>
      <trkpt lat="45.03468" lon="5.86544">
        <ele>1709.1022</ele>
        <time>2015-09-06T08:47:11Z</time>
      </trkpt>
      <trkpt lat="45.03462" lon="5.86537">
        <ele>1709.1022</ele>
        <time>2015-09-06T08:47:16Z</time>
      </trkpt>
      <trkpt lat="45.03455" lon="5.86526">
        <ele>1707.7997</ele>
        <time>2015-09-06T08:47:26Z</time>
      </trkpt>
      <trkpt lat="45.0345" lon="5.8652">
        <ele>1707.7997</ele>
        <time>2015-09-06T08:47:31Z</time>
      </trkpt>
      <trkpt lat="45.03442" lon="5.86505">
        <ele>1706.0975</ele>
        <time>2015-09-06T08:47:41Z</time>
      </trkpt>
      <trkpt lat="45.03439" lon="5.86504">
        <ele>1706.0975</ele>
        <time>2015-09-06T08:47:46Z</time>
      </trkpt>
      <trkpt lat="45.03428" lon="5.86504">
        <ele>1704.4604</ele>
        <time>2015-09-06T08:47:56Z</time>
      </trkpt>
      <trkpt lat="45.03427" lon="5.865">
        <ele>1704.4604</ele>
        <time>2015-09-06T08:48:01Z</time>
      </trkpt>
      <trkpt lat="45.03418" lon="5.8651">
        <ele>1703.1742</ele>
        <time>2015-09-06T08:48:11Z</time>
      </trkpt>
      <trkpt lat="45.03419" lon="5.86513">
        <ele>1703.1742</ele>
        <time>2015-09-06T08:48:16Z</time>
      </trkpt>
      <trkpt lat="45.03417" lon="5.86525">
        <ele>1701.9258</ele>
        <time>2015-09-06T08:48:26Z</time>
      </trkpt>
      <trkpt lat="45.03421" lon="5.86536">
        <ele>1701.9258</ele>
        <time>2015-09-06T08:48:31Z</time>
      </trkpt>
      <trkpt lat="45.03422" lon="5.8655">
        <ele>1700.4248</ele>
        <time>2015-09-06T08:48:41Z</time>
      </trkpt>
      <trkpt lat="45.03423" lon="5.86558">
        <ele>1700.4248</ele>
        <time>2015-09-06T08:48:46Z</time>
      </trkpt>
      <trkpt lat="45.03428" lon="5.86577">
        <ele>1698.5475</ele>
        <time>2015-09-06T08:49:01Z</time>
      </trkpt>
      <trkpt lat="45.03427" lon="5.86584">
        <ele>1698.5475</ele>
        <time>2015-09-06T08:49:06Z</time>
      </trkpt>
      <trkpt lat="45.03418" lon="5.86578">
        <ele>1697.3331</ele>
        <time>2015-09-06T08:49:16Z</time>
      </trkpt>
      <trkpt lat="45.0342" lon="5.86583">
        <ele>1697.3331</ele>
        <time>2015-09-06T08:49:21Z</time>
      </trkpt>
      <trkpt lat="45.03424" lon="5.86595">
        <ele>1696.013</ele>
        <time>2015-09-06T08:49:31Z</time>
      </trkpt>
      <trkpt lat="45.03427" lon="5.866">
        <ele>1696.013</ele>
        <time>2015-09-06T08:49:36Z</time>
      </trkpt>
      <trkpt lat="45.03429" lon="5.86604">
        <ele>1696.013</ele>
        <time>2015-09-06T08:49:46Z</time>
      </trkpt>
      <trkpt lat="45.03428" lon="5.86605">
        <ele>1696.013</ele>
        <time>2015-09-06T08:49:51Z</time>
      </trkpt>
      <trkpt lat="45.03428" lon="5.86606">
        <ele>1695.0281</ele>
        <time>2015-09-06T08:50:01Z</time>
      </trkpt>
      <trkpt lat="45.03428" lon="5.86606">
        <ele>1695.0281</ele>
        <time>2015-09-06T08:50:06Z</time>
      </trkpt>
      <trkpt lat="45.03428" lon="5.86606">
        <ele>1695.0281</ele>
        <time>2015-09-06T08:50:16Z</time>
      </trkpt>
      <trkpt lat="45.03428" lon="5.86606">
        <ele>1695.0281</ele>
        <time>2015-09-06T08:50:21Z</time>
      </trkpt>
      <trkpt lat="45.03429" lon="5.86606">
        <ele>1695.0281</ele>
        <time>2015-09-06T08:50:31Z</time>
      </trkpt>
      <trkpt lat="45.03429" lon="5.86609">
        <ele>1695.0281</ele>
        <time>2015-09-06T08:50:36Z</time>
      </trkpt>
      <trkpt lat="45.03431" lon="5.86644">
        <ele>1692.912</ele>
        <time>2015-09-06T08:50:51Z</time>
      </trkpt>
      <trkpt lat="45.03431" lon="5.86661">
        <ele>1691.3365</ele>
        <time>2015-09-06T08:50:56Z</time>
      </trkpt>
      <trkpt lat="45.03426" lon="5.86684">
        <ele>1689.687</ele>
        <time>2015-09-06T08:51:06Z</time>
      </trkpt>
      <trkpt lat="45.03428" lon="5.86694">
        <ele>1689.687</ele>
        <time>2015-09-06T08:51:11Z</time>
      </trkpt>
      <trkpt lat="45.03426" lon="5.86714">
        <ele>1686.6729</ele>
        <time>2015-09-06T08:51:21Z</time>
      </trkpt>
      <trkpt lat="45.03428" lon="5.86722">
        <ele>1686.6729</ele>
        <time>2015-09-06T08:51:26Z</time>
      </trkpt>
      <trkpt lat="45.03431" lon="5.86733">
        <ele>1683.1205</ele>
        <time>2015-09-06T08:51:36Z</time>
      </trkpt>
      <trkpt lat="45.03431" lon="5.86739">
        <ele>1683.1205</ele>
        <time>2015-09-06T08:51:41Z</time>
      </trkpt>
      <trkpt lat="45.03429" lon="5.86749">
        <ele>1679.2203</ele>
        <time>2015-09-06T08:51:51Z</time>
      </trkpt>
      <trkpt lat="45.03427" lon="5.86758">
        <ele>1679.2203</ele>
        <time>2015-09-06T08:51:56Z</time>
      </trkpt>
      <trkpt lat="45.03426" lon="5.86769">
        <ele>1674.7173</ele>
        <time>2015-09-06T08:52:06Z</time>
      </trkpt>
      <trkpt lat="45.03431" lon="5.86779">
        <ele>1674.7173</ele>
        <time>2015-09-06T08:52:11Z</time>
      </trkpt>
      <trkpt lat="45.03435" lon="5.86792">
        <ele>1668.3678</ele>
        <time>2015-09-06T08:52:21Z</time>
      </trkpt>
      <trkpt lat="45.03435" lon="5.86795">
        <ele>1668.3678</ele>
        <time>2015-09-06T08:52:26Z</time>
      </trkpt>
      <trkpt lat="45.03434" lon="5.86811">
        <ele>1663.2041</ele>
        <time>2015-09-06T08:52:36Z</time>
      </trkpt>
      <trkpt lat="45.03431" lon="5.8682">
        <ele>1663.2041</ele>
        <time>2015-09-06T08:52:41Z</time>
      </trkpt>
      <trkpt lat="45.03436" lon="5.86827">
        <ele>1657.4204</ele>
        <time>2015-09-06T08:52:51Z</time>
      </trkpt>
      <trkpt lat="45.03434" lon="5.86831">
        <ele>1657.4204</ele>
        <time>2015-09-06T08:52:56Z</time>
      </trkpt>
      <trkpt lat="45.03437" lon="5.86856">
        <ele>1652.6598</ele>
        <time>2015-09-06T08:53:06Z</time>
      </trkpt>
      <trkpt lat="45.03438" lon="5.86864">
        <ele>1652.6598</ele>
        <time>2015-09-06T08:53:11Z</time>
      </trkpt>
      <trkpt lat="45.03442" lon="5.86869">
        <ele>1646.8386</ele>
        <time>2015-09-06T08:53:26Z</time>
      </trkpt>
      <trkpt lat="45.03445" lon="5.86876">
        <ele>1646.8386</ele>
        <time>2015-09-06T08:53:31Z</time>
      </trkpt>
      <trkpt lat="45.03446" lon="5.86882">
        <ele>1641.7764</ele>
        <time>2015-09-06T08:53:41Z</time>
      </trkpt>
      <trkpt lat="45.03446" lon="5.86884">
        <ele>1641.7764</ele>
        <time>2015-09-06T08:53:46Z</time>
      </trkpt>
      <trkpt lat="45.03446" lon="5.86885">
        <ele>1641.7764</ele>
        <time>2015-09-06T08:53:56Z</time>
      </trkpt>
      <trkpt lat="45.03446" lon="5.86885">
        <ele>1641.7764</ele>
        <time>2015-09-06T08:54:01Z</time>
      </trkpt>
      <trkpt lat="45.03436" lon="5.86894">
        <ele>1636.8502</ele>
        <time>2015-09-06T08:54:11Z</time>
      </trkpt>
      <trkpt lat="45.03425" lon="5.86914">
        <ele>1632.0593</ele>
        <time>2015-09-06T08:54:16Z</time>
      </trkpt>
      <trkpt lat="45.03415" lon="5.86931">
        <ele>1627.9784</ele>
        <time>2015-09-06T08:54:26Z</time>
      </trkpt>
      <trkpt lat="45.03408" lon="5.86933">
        <ele>1627.9784</ele>
        <time>2015-09-06T08:54:31Z</time>
      </trkpt>
      <trkpt lat="45.034" lon="5.86929">
        <ele>1623.9851</ele>
        <time>2015-09-06T08:54:41Z</time>
      </trkpt>
      <trkpt lat="45.03391" lon="5.86931">
        <ele>1620.6549</ele>
        <time>2015-09-06T08:54:46Z</time>
      </trkpt>
      <trkpt lat="45.03384" lon="5.86932">
        <ele>1620.6549</ele>
        <time>2015-09-06T08:54:56Z</time>
      </trkpt>
      <trkpt lat="45.03388" lon="5.8693">
        <ele>1615.6368</ele>
        <time>2015-09-06T08:55:01Z</time>
      </trkpt>
      <trkpt lat="45.03387" lon="5.86929">
        <ele>1615.6368</ele>
        <time>2015-09-06T08:55:11Z</time>
      </trkpt>
      <trkpt lat="45.03388" lon="5.86929">
        <ele>1615.6368</ele>
        <time>2015-09-06T08:55:16Z</time>
      </trkpt>
      <trkpt lat="45.03391" lon="5.8692">
        <ele>1615.6368</ele>
        <time>2015-09-06T08:55:31Z</time>
      </trkpt>
      <trkpt lat="45.03391" lon="5.86914">
        <ele>1609.7836</ele>
        <time>2015-09-06T08:55:36Z</time>
      </trkpt>
      <trkpt lat="45.03394" lon="5.86922">
        <ele>1609.7836</ele>
        <time>2015-09-06T08:55:46Z</time>
      </trkpt>
      <trkpt lat="45.03401" lon="5.86921">
        <ele>1603.8868</ele>
        <time>2015-09-06T08:55:51Z</time>
      </trkpt>
      <trkpt lat="45.03398" lon="5.86924">
        <ele>1603.8868</ele>
        <time>2015-09-06T08:55:56Z</time>
      </trkpt>
      <trkpt lat="45.03397" lon="5.86923">
        <ele>1603.8868</ele>
        <time>2015-09-06T08:56:01Z</time>
      </trkpt>
      <trkpt lat="45.03397" lon="5.86924">
        <ele>1603.8868</ele>
        <time>2015-09-06T08:56:06Z</time>
      </trkpt>
      <trkpt lat="45.03397" lon="5.86923">
        <ele>1603.8868</ele>
        <time>2015-09-06T08:56:11Z</time>
      </trkpt>
      <trkpt lat="45.03397" lon="5.86923">
        <ele>1603.8868</ele>
        <time>2015-09-06T08:56:16Z</time>
      </trkpt>
      <trkpt lat="45.03397" lon="5.86923">
        <ele>1603.8868</ele>
        <time>2015-09-06T08:56:21Z</time>
      </trkpt>
      <trkpt lat="45.03397" lon="5.86923">
        <ele>1603.8868</ele>
        <time>2015-09-06T08:56:26Z</time>
      </trkpt>
      <trkpt lat="45.03397" lon="5.86923">
        <ele>1603.8868</ele>
        <time>2015-09-06T08:56:31Z</time>
      </trkpt>
      <trkpt lat="45.03397" lon="5.86923">
        <ele>1603.8868</ele>
        <time>2015-09-06T08:56:36Z</time>
      </trkpt>
      <trkpt lat="45.03397" lon="5.86924">
        <ele>1603.8868</ele>
        <time>2015-09-06T08:56:46Z</time>
      </trkpt>
      <trkpt lat="45.03397" lon="5.86924">
        <ele>1603.8868</ele>
        <time>2015-09-06T08:56:51Z</time>
      </trkpt>
      <trkpt lat="45.03397" lon="5.86924">
        <ele>1603.8868</ele>
        <time>2015-09-06T08:57:01Z</time>
      </trkpt>
      <trkpt lat="45.03397" lon="5.86924">
        <ele>1603.8868</ele>
        <time>2015-09-06T08:57:06Z</time>
      </trkpt>
      <trkpt lat="45.03397" lon="5.86924">
        <ele>1603.8868</ele>
        <time>2015-09-06T08:57:16Z</time>
      </trkpt>
      <trkpt lat="45.03397" lon="5.86924">
        <ele>1603.8868</ele>
        <time>2015-09-06T08:57:21Z</time>
      </trkpt>
      <trkpt lat="45.03396" lon="5.86924">
        <ele>1603.8868</ele>
        <time>2015-09-06T08:57:31Z</time>
      </trkpt>
      <trkpt lat="45.03396" lon="5.86924">
        <ele>1603.8868</ele>
        <time>2015-09-06T08:57:36Z</time>
      </trkpt>
      <trkpt lat="45.03396" lon="5.86924">
        <ele>1603.8868</ele>
        <time>2015-09-06T08:57:46Z</time>
      </trkpt>
      <trkpt lat="45.03396" lon="5.86924">
        <ele>1603.8868</ele>
        <time>2015-09-06T08:57:51Z</time>
      </trkpt>
      <trkpt lat="45.03396" lon="5.86924">
        <ele>1603.8868</ele>
        <time>2015-09-06T08:58:01Z</time>
      </trkpt>
      <trkpt lat="45.03396" lon="5.86924">
        <ele>1603.8868</ele>
        <time>2015-09-06T08:58:06Z</time>
      </trkpt>
      <trkpt lat="45.03396" lon="5.86924">
        <ele>1603.8868</ele>
        <time>2015-09-06T08:58:16Z</time>
      </trkpt>
      <trkpt lat="45.03396" lon="5.86924">
        <ele>1603.8868</ele>
        <time>2015-09-06T08:58:21Z</time>
      </trkpt>
      <trkpt lat="45.03396" lon="5.86924">
        <ele>1603.8868</ele>
        <time>2015-09-06T08:58:36Z</time>
      </trkpt>
      <trkpt lat="45.03396" lon="5.86924">
        <ele>1603.8868</ele>
        <time>2015-09-06T08:58:41Z</time>
      </trkpt>
      <trkpt lat="45.03396" lon="5.86924">
        <ele>1603.8868</ele>
        <time>2015-09-06T08:58:51Z</time>
      </trkpt>
      <trkpt lat="45.03398" lon="5.86936">
        <ele>1599.257</ele>
        <time>2015-09-06T08:58:56Z</time>
      </trkpt>
      <trkpt lat="45.034" lon="5.86969">
        <ele>1595.2305</ele>
        <time>2015-09-06T08:59:06Z</time>
      </trkpt>
      <trkpt lat="45.03404" lon="5.86977">
        <ele>1595.2305</ele>
        <time>2015-09-06T08:59:11Z</time>
      </trkpt>
      <trkpt lat="45.03407" lon="5.86988">
        <ele>1592.7759</ele>
        <time>2015-09-06T08:59:21Z</time>
      </trkpt>
      <trkpt lat="45.03413" lon="5.86996">
        <ele>1592.7759</ele>
        <time>2015-09-06T08:59:26Z</time>
      </trkpt>
      <trkpt lat="45.0342" lon="5.87006">
        <ele>1590.4802</ele>
        <time>2015-09-06T08:59:36Z</time>
      </trkpt>
      <trkpt lat="45.03419" lon="5.87009">
        <ele>1590.4802</ele>
        <time>2015-09-06T08:59:41Z</time>
      </trkpt>
      <trkpt lat="45.03414" lon="5.8702">
        <ele>1588.6189</ele>
        <time>2015-09-06T08:59:51Z</time>
      </trkpt>
      <trkpt lat="45.03417" lon="5.87029">
        <ele>1588.6189</ele>
        <time>2015-09-06T08:59:56Z</time>
      </trkpt>
      <trkpt lat="45.03413" lon="5.8704">
        <ele>1586.725</ele>
        <time>2015-09-06T09:00:06Z</time>
      </trkpt>
      <trkpt lat="45.03412" lon="5.87039">
        <ele>1586.725</ele>
        <time>2015-09-06T09:00:11Z</time>
      </trkpt>
      <trkpt lat="45.03411" lon="5.87042">
        <ele>1586.725</ele>
        <time>2015-09-06T09:00:21Z</time>
      </trkpt>
      <trkpt lat="45.03411" lon="5.87043">
        <ele>1586.725</ele>
        <time>2015-09-06T09:00:26Z</time>
      </trkpt>
      <trkpt lat="45.03411" lon="5.87043">
        <ele>1586.725</ele>
        <time>2015-09-06T09:00:36Z</time>
      </trkpt>
      <trkpt lat="45.03406" lon="5.87051">
        <ele>1585.2305</ele>
        <time>2015-09-06T09:00:41Z</time>
      </trkpt>
      <trkpt lat="45.0337" lon="5.87074">
        <ele>1584.5342</ele>
        <time>2015-09-06T09:00:51Z</time>
      </trkpt>
      <trkpt lat="45.03365" lon="5.87081">
        <ele>1584.5342</ele>
        <time>2015-09-06T09:00:56Z</time>
      </trkpt>
      <trkpt lat="45.03343" lon="5.87083">
        <ele>1582.6978</ele>
        <time>2015-09-06T09:01:11Z</time>
      </trkpt>
      <trkpt lat="45.03341" lon="5.87082">
        <ele>1582.6978</ele>
        <time>2015-09-06T09:01:16Z</time>
      </trkpt>
      <trkpt lat="45.03321" lon="5.87095">
        <ele>1582.2515</ele>
        <time>2015-09-06T09:01:26Z</time>
      </trkpt>
      <trkpt lat="45.03322" lon="5.87094">
        <ele>1582.2515</ele>
        <time>2015-09-06T09:01:31Z</time>
      </trkpt>
      <trkpt lat="45.03319" lon="5.87094">
        <ele>1582.2515</ele>
        <time>2015-09-06T09:01:41Z</time>
      </trkpt>
      <trkpt lat="45.03314" lon="5.87091">
        <ele>1582.2515</ele>
        <time>2015-09-06T09:01:46Z</time>
      </trkpt>
      <trkpt lat="45.03303" lon="5.87106">
        <ele>1581.933</ele>
        <time>2015-09-06T09:01:56Z</time>
      </trkpt>
      <trkpt lat="45.03305" lon="5.8711">
        <ele>1581.933</ele>
        <time>2015-09-06T09:02:01Z</time>
      </trkpt>
      <trkpt lat="45.03299" lon="5.87119">
        <ele>1581.8691</ele>
        <time>2015-09-06T09:02:11Z</time>
      </trkpt>
      <trkpt lat="45.03292" lon="5.87125">
        <ele>1581.8691</ele>
        <time>2015-09-06T09:02:16Z</time>
      </trkpt>
      <trkpt lat="45.03277" lon="5.8714">
        <ele>1581.8888</ele>
        <time>2015-09-06T09:02:26Z</time>
      </trkpt>
      <trkpt lat="45.03274" lon="5.8714">
        <ele>1581.8888</ele>
        <time>2015-09-06T09:02:31Z</time>
      </trkpt>
      <trkpt lat="45.03271" lon="5.87136">
        <ele>1581.8888</ele>
        <time>2015-09-06T09:02:41Z</time>
      </trkpt>
      <trkpt lat="45.03268" lon="5.87137">
        <ele>1582.121</ele>
        <time>2015-09-06T09:02:46Z</time>
      </trkpt>
      <trkpt lat="45.03273" lon="5.87153">
        <ele>1583.8378</ele>
        <time>2015-09-06T09:03:01Z</time>
      </trkpt>
      <trkpt lat="45.03275" lon="5.87158">
        <ele>1583.8378</ele>
        <time>2015-09-06T09:03:06Z</time>
      </trkpt>
      <trkpt lat="45.03278" lon="5.8717">
        <ele>1585.6199</ele>
        <time>2015-09-06T09:03:16Z</time>
      </trkpt>
      <trkpt lat="45.03275" lon="5.87172">
        <ele>1585.6199</ele>
        <time>2015-09-06T09:03:21Z</time>
      </trkpt>
      <trkpt lat="45.03272" lon="5.87183">
        <ele>1588.3134</ele>
        <time>2015-09-06T09:03:31Z</time>
      </trkpt>
      <trkpt lat="45.03269" lon="5.87189">
        <ele>1588.3134</ele>
        <time>2015-09-06T09:03:36Z</time>
      </trkpt>
      <trkpt lat="45.03266" lon="5.8719">
        <ele>1588.3134</ele>
        <time>2015-09-06T09:03:46Z</time>
      </trkpt>
      <trkpt lat="45.03267" lon="5.87194">
        <ele>1591.403</ele>
        <time>2015-09-06T09:03:51Z</time>
      </trkpt>
      <trkpt lat="45.03268" lon="5.87196">
        <ele>1591.403</ele>
        <time>2015-09-06T09:04:01Z</time>
      </trkpt>
      <trkpt lat="45.03268" lon="5.87196">
        <ele>1591.403</ele>
        <time>2015-09-06T09:04:06Z</time>
      </trkpt>
      <trkpt lat="45.03268" lon="5.87196">
        <ele>1591.403</ele>
        <time>2015-09-06T09:04:16Z</time>
      </trkpt>
      <trkpt lat="45.03268" lon="5.87203">
        <ele>1591.403</ele>
        <time>2015-09-06T09:04:21Z</time>
      </trkpt>
      <trkpt lat="45.03273" lon="5.87231">
        <ele>1594.4104</ele>
        <time>2015-09-06T09:04:31Z</time>
      </trkpt>
      <trkpt lat="45.0327" lon="5.87241">
        <ele>1594.4104</ele>
        <time>2015-09-06T09:04:36Z</time>
      </trkpt>
      <trkpt lat="45.0327" lon="5.87254">
        <ele>1598.6222</ele>
        <time>2015-09-06T09:04:51Z</time>
      </trkpt>
      <trkpt lat="45.0327" lon="5.87258">
        <ele>1598.6222</ele>
        <time>2015-09-06T09:04:56Z</time>
      </trkpt>
      <trkpt lat="45.03278" lon="5.8727">
        <ele>1602.6333</ele>
        <time>2015-09-06T09:05:06Z</time>
      </trkpt>
      <trkpt lat="45.0328" lon="5.87271">
        <ele>1602.6333</ele>
        <time>2015-09-06T09:05:11Z</time>
      </trkpt>
      <trkpt lat="45.03285" lon="5.87271">
        <ele>1602.6333</ele>
        <time>2015-09-06T09:05:21Z</time>
      </trkpt>
      <trkpt lat="45.03285" lon="5.87271">
        <ele>1602.6333</ele>
        <time>2015-09-06T09:05:26Z</time>
      </trkpt>
      <trkpt lat="45.03283" lon="5.87268">
        <ele>1608.4569</ele>
        <time>2015-09-06T09:05:36Z</time>
      </trkpt>
      <trkpt lat="45.03283" lon="5.87268">
        <ele>1608.4569</ele>
        <time>2015-09-06T09:05:41Z</time>
      </trkpt>
      <trkpt lat="45.03283" lon="5.87268">
        <ele>1608.4569</ele>
        <time>2015-09-06T09:05:51Z</time>
      </trkpt>
      <trkpt lat="45.03283" lon="5.87268">
        <ele>1608.4569</ele>
        <time>2015-09-06T09:05:56Z</time>
      </trkpt>
      <trkpt lat="45.03283" lon="5.87268">
        <ele>1608.4569</ele>
        <time>2015-09-06T09:06:06Z</time>
      </trkpt>
      <trkpt lat="45.03282" lon="5.87274">
        <ele>1608.4569</ele>
        <time>2015-09-06T09:06:11Z</time>
      </trkpt>
      <trkpt lat="45.0328" lon="5.87292">
        <ele>1613.6307</ele>
        <time>2015-09-06T09:06:21Z</time>
      </trkpt>
      <trkpt lat="45.03277" lon="5.87295">
        <ele>1613.6307</ele>
        <time>2015-09-06T09:06:26Z</time>
      </trkpt>
      <trkpt lat="45.0328" lon="5.87305">
        <ele>1618.6134</ele>
        <time>2015-09-06T09:06:36Z</time>
      </trkpt>
      <trkpt lat="45.03281" lon="5.87309">
        <ele>1618.6134</ele>
        <time>2015-09-06T09:06:41Z</time>
      </trkpt>
      <trkpt lat="45.03285" lon="5.87314">
        <ele>1618.6134</ele>
        <time>2015-09-06T09:06:51Z</time>
      </trkpt>
      <trkpt lat="45.03285" lon="5.87316">
        <ele>1622.966</ele>
        <time>2015-09-06T09:06:56Z</time>
      </trkpt>
      <trkpt lat="45.03284" lon="5.87318">
        <ele>1622.966</ele>
        <time>2015-09-06T09:07:06Z</time>
      </trkpt>
      <trkpt lat="45.03286" lon="5.87319">
        <ele>1622.966</ele>
        <time>2015-09-06T09:07:11Z</time>
      </trkpt>
      <trkpt lat="45.03286" lon="5.87319">
        <ele>1622.966</ele>
        <time>2015-09-06T09:07:21Z</time>
      </trkpt>
      <trkpt lat="45.03286" lon="5.87319">
        <ele>1622.966</ele>
        <time>2015-09-06T09:07:26Z</time>
      </trkpt>
      <trkpt lat="45.03286" lon="5.87319">
        <ele>1622.966</ele>
        <time>2015-09-06T09:07:36Z</time>
      </trkpt>
      <trkpt lat="45.03286" lon="5.87319">
        <ele>1622.966</ele>
        <time>2015-09-06T09:07:41Z</time>
      </trkpt>
      <trkpt lat="45.0329" lon="5.87346">
        <ele>1627.0049</ele>
        <time>2015-09-06T09:07:56Z</time>
      </trkpt>
      <trkpt lat="45.03293" lon="5.87355">
        <ele>1627.0049</ele>
        <time>2015-09-06T09:08:01Z</time>
      </trkpt>
      <trkpt lat="45.03289" lon="5.87354">
        <ele>1632.033</ele>
        <time>2015-09-06T09:08:11Z</time>
      </trkpt>
      <trkpt lat="45.03286" lon="5.87354">
        <ele>1632.033</ele>
        <time>2015-09-06T09:08:16Z</time>
      </trkpt>
      <trkpt lat="45.03286" lon="5.87354">
        <ele>1632.033</ele>
        <time>2015-09-06T09:08:26Z</time>
      </trkpt>
      <trkpt lat="45.03286" lon="5.87353">
        <ele>1632.033</ele>
        <time>2015-09-06T09:08:31Z</time>
      </trkpt>
      <trkpt lat="45.03286" lon="5.87353">
        <ele>1632.033</ele>
        <time>2015-09-06T09:08:41Z</time>
      </trkpt>
      <trkpt lat="45.03286" lon="5.87353">
        <ele>1632.033</ele>
        <time>2015-09-06T09:08:46Z</time>
      </trkpt>
      <trkpt lat="45.03286" lon="5.87353">
        <ele>1632.033</ele>
        <time>2015-09-06T09:08:56Z</time>
      </trkpt>
      <trkpt lat="45.03286" lon="5.87353">
        <ele>1632.033</ele>
        <time>2015-09-06T09:09:01Z</time>
      </trkpt>
      <trkpt lat="45.03286" lon="5.87353">
        <ele>1632.033</ele>
        <time>2015-09-06T09:09:11Z</time>
      </trkpt>
      <trkpt lat="45.03286" lon="5.87353">
        <ele>1632.033</ele>
        <time>2015-09-06T09:09:16Z</time>
      </trkpt>
      <trkpt lat="45.03286" lon="5.87354">
        <ele>1632.033</ele>
        <time>2015-09-06T09:09:26Z</time>
      </trkpt>
      <trkpt lat="45.03286" lon="5.87354">
        <ele>1632.033</ele>
        <time>2015-09-06T09:09:31Z</time>
      </trkpt>
      <trkpt lat="45.03293" lon="5.87369">
        <ele>1636.8055</ele>
        <time>2015-09-06T09:09:41Z</time>
      </trkpt>
      <trkpt lat="45.03294" lon="5.8738">
        <ele>1636.8055</ele>
        <time>2015-09-06T09:09:46Z</time>
      </trkpt>
      <trkpt lat="45.03292" lon="5.87404">
        <ele>1643.3407</ele>
        <time>2015-09-06T09:09:56Z</time>
      </trkpt>
      <trkpt lat="45.03292" lon="5.87408">
        <ele>1643.3407</ele>
        <time>2015-09-06T09:10:01Z</time>
      </trkpt>
      <trkpt lat="45.0329" lon="5.87414">
        <ele>1643.3407</ele>
        <time>2015-09-06T09:10:11Z</time>
      </trkpt>
      <trkpt lat="45.03289" lon="5.87418">
        <ele>1650.7661</ele>
        <time>2015-09-06T09:10:16Z</time>
      </trkpt>
      <trkpt lat="45.0329" lon="5.87419">
        <ele>1650.7661</ele>
        <time>2015-09-06T09:10:31Z</time>
      </trkpt>
      <trkpt lat="45.0329" lon="5.87419">
        <ele>1650.7661</ele>
        <time>2015-09-06T09:10:36Z</time>
      </trkpt>
      <trkpt lat="45.0329" lon="5.87419">
        <ele>1650.7661</ele>
        <time>2015-09-06T09:10:46Z</time>
      </trkpt>
      <trkpt lat="45.0329" lon="5.87419">
        <ele>1650.7661</ele>
        <time>2015-09-06T09:10:51Z</time>
      </trkpt>
      <trkpt lat="45.03291" lon="5.87421">
        <ele>1650.7661</ele>
        <time>2015-09-06T09:11:01Z</time>
      </trkpt>
      <trkpt lat="45.03289" lon="5.87426">
        <ele>1650.7661</ele>
        <time>2015-09-06T09:11:06Z</time>
      </trkpt>
      <trkpt lat="45.03292" lon="5.87428">
        <ele>1659.5682</ele>
        <time>2015-09-06T09:11:16Z</time>
      </trkpt>
      <trkpt lat="45.03292" lon="5.87428">
        <ele>1659.5682</ele>
        <time>2015-09-06T09:11:21Z</time>
      </trkpt>
      <trkpt lat="45.03292" lon="5.87428">
        <ele>1659.5682</ele>
        <time>2015-09-06T09:11:31Z</time>
      </trkpt>
      <trkpt lat="45.03293" lon="5.87431">
        <ele>1659.5682</ele>
        <time>2015-09-06T09:11:36Z</time>
      </trkpt>
      <trkpt lat="45.03309" lon="5.87456">
        <ele>1668.177</ele>
        <time>2015-09-06T09:11:46Z</time>
      </trkpt>
      <trkpt lat="45.03306" lon="5.87456">
        <ele>1668.177</ele>
        <time>2015-09-06T09:11:51Z</time>
      </trkpt>
      <trkpt lat="45.033" lon="5.87459">
        <ele>1676.4362</ele>
        <time>2015-09-06T09:12:01Z</time>
      </trkpt>
      <trkpt lat="45.033" lon="5.87459">
        <ele>1676.4362</ele>
        <time>2015-09-06T09:12:06Z</time>
      </trkpt>
      <trkpt lat="45.033" lon="5.8746">
        <ele>1676.4362</ele>
        <time>2015-09-06T09:12:16Z</time>
      </trkpt>
      <trkpt lat="45.033" lon="5.87459">
        <ele>1676.4362</ele>
        <time>2015-09-06T09:12:21Z</time>
      </trkpt>
      <trkpt lat="45.033" lon="5.87459">
        <ele>1676.4362</ele>
        <time>2015-09-06T09:12:31Z</time>
      </trkpt>
      <trkpt lat="45.033" lon="5.87459">
        <ele>1676.4362</ele>
        <time>2015-09-06T09:12:36Z</time>
      </trkpt>
      <trkpt lat="45.033" lon="5.8746">
        <ele>1676.4362</ele>
        <time>2015-09-06T09:12:46Z</time>
      </trkpt>
      <trkpt lat="45.033" lon="5.8746">
        <ele>1676.4362</ele>
        <time>2015-09-06T09:12:51Z</time>
      </trkpt>
      <trkpt lat="45.033" lon="5.8746">
        <ele>1676.4362</ele>
        <time>2015-09-06T09:13:01Z</time>
      </trkpt>
      <trkpt lat="45.033" lon="5.8746">
        <ele>1676.4362</ele>
        <time>2015-09-06T09:13:06Z</time>
      </trkpt>
      <trkpt lat="45.033" lon="5.8746">
        <ele>1676.4362</ele>
        <time>2015-09-06T09:13:21Z</time>
      </trkpt>
      <trkpt lat="45.033" lon="5.8746">
        <ele>1676.4362</ele>
        <time>2015-09-06T09:13:26Z</time>
      </trkpt>
      <trkpt lat="45.033" lon="5.8746">
        <ele>1676.4362</ele>
        <time>2015-09-06T09:13:36Z</time>
      </trkpt>
      <trkpt lat="45.033" lon="5.8746">
        <ele>1676.4362</ele>
        <time>2015-09-06T09:13:41Z</time>
      </trkpt>
      <trkpt lat="45.033" lon="5.8746">
        <ele>1676.4362</ele>
        <time>2015-09-06T09:13:51Z</time>
      </trkpt>
      <trkpt lat="45.033" lon="5.8746">
        <ele>1676.4362</ele>
        <time>2015-09-06T09:13:56Z</time>
      </trkpt>
      <trkpt lat="45.033" lon="5.8746">
        <ele>1676.4362</ele>
        <time>2015-09-06T09:14:06Z</time>
      </trkpt>
      <trkpt lat="45.033" lon="5.8746">
        <ele>1676.4362</ele>
        <time>2015-09-06T09:14:11Z</time>
      </trkpt>
      <trkpt lat="45.033" lon="5.8746">
        <ele>1676.4362</ele>
        <time>2015-09-06T09:14:21Z</time>
      </trkpt>
      <trkpt lat="45.033" lon="5.8746">
        <ele>1676.4362</ele>
        <time>2015-09-06T09:14:26Z</time>
      </trkpt>
      <trkpt lat="45.033" lon="5.8746">
        <ele>1676.4362</ele>
        <time>2015-09-06T09:14:36Z</time>
      </trkpt>
      <trkpt lat="45.033" lon="5.8746">
        <ele>1676.4362</ele>
        <time>2015-09-06T09:14:41Z</time>
      </trkpt>
      <trkpt lat="45.033" lon="5.8746">
        <ele>1676.4362</ele>
        <time>2015-09-06T09:14:51Z</time>
      </trkpt>
      <trkpt lat="45.033" lon="5.8746">
        <ele>1676.4362</ele>
        <time>2015-09-06T09:14:56Z</time>
      </trkpt>
      <trkpt lat="45.033" lon="5.8746">
        <ele>1676.4362</ele>
        <time>2015-09-06T09:15:06Z</time>
      </trkpt>
      <trkpt lat="45.033" lon="5.8746">
        <ele>1676.4362</ele>
        <time>2015-09-06T09:15:11Z</time>
      </trkpt>
      <trkpt lat="45.033" lon="5.8746">
        <ele>1676.4362</ele>
        <time>2015-09-06T09:15:21Z</time>
      </trkpt>
      <trkpt lat="45.033" lon="5.8746">
        <ele>1676.4362</ele>
        <time>2015-09-06T09:15:26Z</time>
      </trkpt>
      <trkpt lat="45.03299" lon="5.8746">
        <ele>1676.4362</ele>
        <time>2015-09-06T09:15:36Z</time>
      </trkpt>
      <trkpt lat="45.03299" lon="5.8746">
        <ele>1676.4362</ele>
        <time>2015-09-06T09:15:41Z</time>
      </trkpt>
      <trkpt lat="45.03299" lon="5.8746">
        <ele>1676.4362</ele>
        <time>2015-09-06T09:15:51Z</time>
      </trkpt>
      <trkpt lat="45.03299" lon="5.8746">
        <ele>1676.4362</ele>
        <time>2015-09-06T09:15:56Z</time>
      </trkpt>
      <trkpt lat="45.03299" lon="5.87461">
        <ele>1676.4362</ele>
        <time>2015-09-06T09:16:11Z</time>
      </trkpt>
      <trkpt lat="45.03299" lon="5.87461">
        <ele>1676.4362</ele>
        <time>2015-09-06T09:16:16Z</time>
      </trkpt>
      <trkpt lat="45.03299" lon="5.87461">
        <ele>1676.4362</ele>
        <time>2015-09-06T09:16:26Z</time>
      </trkpt>
      <trkpt lat="45.03299" lon="5.87461">
        <ele>1676.4362</ele>
        <time>2015-09-06T09:16:31Z</time>
      </trkpt>
      <trkpt lat="45.03299" lon="5.87461">
        <ele>1676.4362</ele>
        <time>2015-09-06T09:16:41Z</time>
      </trkpt>
      <trkpt lat="45.03299" lon="5.87461">
        <ele>1676.4362</ele>
        <time>2015-09-06T09:16:46Z</time>
      </trkpt>
      <trkpt lat="45.03299" lon="5.87461">
        <ele>1676.4362</ele>
        <time>2015-09-06T09:16:56Z</time>
      </trkpt>
      <trkpt lat="45.03299" lon="5.87461">
        <ele>1676.4362</ele>
        <time>2015-09-06T09:17:01Z</time>
      </trkpt>
      <trkpt lat="45.03305" lon="5.87481">
        <ele>1684.2019</ele>
        <time>2015-09-06T09:17:11Z</time>
      </trkpt>
      <trkpt lat="45.03313" lon="5.87492">
        <ele>1691.9203</ele>
        <time>2015-09-06T09:17:16Z</time>
      </trkpt>
      <trkpt lat="45.0332" lon="5.87516">
        <ele>1700.437</ele>
        <time>2015-09-06T09:17:26Z</time>
      </trkpt>
      <trkpt lat="45.03323" lon="5.87522">
        <ele>1700.437</ele>
        <time>2015-09-06T09:17:31Z</time>
      </trkpt>
      <trkpt lat="45.03325" lon="5.87525">
        <ele>1700.437</ele>
        <time>2015-09-06T09:17:41Z</time>
      </trkpt>
      <trkpt lat="45.03325" lon="5.87525">
        <ele>1700.437</ele>
        <time>2015-09-06T09:17:46Z</time>
      </trkpt>
      <trkpt lat="45.03325" lon="5.87525">
        <ele>1700.437</ele>
        <time>2015-09-06T09:17:56Z</time>
      </trkpt>
      <trkpt lat="45.03325" lon="5.87525">
        <ele>1700.437</ele>
        <time>2015-09-06T09:18:01Z</time>
      </trkpt>
      <trkpt lat="45.03325" lon="5.87525">
        <ele>1700.437</ele>
        <time>2015-09-06T09:18:11Z</time>
      </trkpt>
      <trkpt lat="45.03325" lon="5.87525">
        <ele>1700.437</ele>
        <time>2015-09-06T09:18:16Z</time>
      </trkpt>
      <trkpt lat="45.03312" lon="5.87531">
        <ele>1710.6788</ele>
        <time>2015-09-06T09:18:31Z</time>
      </trkpt>
      <trkpt lat="45.03309" lon="5.87532">
        <ele>1710.6788</ele>
        <time>2015-09-06T09:18:36Z</time>
      </trkpt>
      <trkpt lat="45.03308" lon="5.87533">
        <ele>1710.6788</ele>
        <time>2015-09-06T09:18:46Z</time>
      </trkpt>
      <trkpt lat="45.03308" lon="5.87533">
        <ele>1710.6788</ele>
        <time>2015-09-06T09:18:51Z</time>
      </trkpt>
      <trkpt lat="45.03308" lon="5.87533">
        <ele>1710.6788</ele>
        <time>2015-09-06T09:19:01Z</time>
      </trkpt>
      <trkpt lat="45.03308" lon="5.87533">
        <ele>1710.6788</ele>
        <time>2015-09-06T09:19:06Z</time>
      </trkpt>
      <trkpt lat="45.03309" lon="5.8754">
        <ele>1710.6788</ele>
        <time>2015-09-06T09:19:16Z</time>
      </trkpt>
      <trkpt lat="45.03314" lon="5.8755">
        <ele>1720.3293</ele>
        <time>2015-09-06T09:19:21Z</time>
      </trkpt>
      <trkpt lat="45.03317" lon="5.87568">
        <ele>1730.1274</ele>
        <time>2015-09-06T09:19:31Z</time>
      </trkpt>
      <trkpt lat="45.03308" lon="5.87574">
        <ele>1739.0283</ele>
        <time>2015-09-06T09:19:36Z</time>
      </trkpt>
      <trkpt lat="45.03307" lon="5.87576">
        <ele>1739.0283</ele>
        <time>2015-09-06T09:19:46Z</time>
      </trkpt>
      <trkpt lat="45.03305" lon="5.87577">
        <ele>1739.0283</ele>
        <time>2015-09-06T09:19:51Z</time>
      </trkpt>
      <trkpt lat="45.03305" lon="5.87577">
        <ele>1739.0283</ele>
        <time>2015-09-06T09:20:01Z</time>
      </trkpt>
      <trkpt lat="45.03305" lon="5.87577">
        <ele>1739.0283</ele>
        <time>2015-09-06T09:20:06Z</time>
      </trkpt>
      <trkpt lat="45.03304" lon="5.87575">
        <ele>1739.0283</ele>
        <time>2015-09-06T09:20:16Z</time>
      </trkpt>
      <trkpt lat="45.03296" lon="5.87571">
        <ele>1748.5173</ele>
        <time>2015-09-06T09:20:21Z</time>
      </trkpt>
      <trkpt lat="45.03282" lon="5.87566">
        <ele>1757.9523</ele>
        <time>2015-09-06T09:20:31Z</time>
      </trkpt>
      <trkpt lat="45.0328" lon="5.87563">
        <ele>1757.9523</ele>
        <time>2015-09-06T09:20:36Z</time>
      </trkpt>
      <trkpt lat="45.03277" lon="5.8756">
        <ele>1757.9523</ele>
        <time>2015-09-06T09:20:46Z</time>
      </trkpt>
      <trkpt lat="45.03277" lon="5.87561">
        <ele>1757.9523</ele>
        <time>2015-09-06T09:20:51Z</time>
      </trkpt>
      <trkpt lat="45.03277" lon="5.87561">
        <ele>1757.9523</ele>
        <time>2015-09-06T09:21:06Z</time>
      </trkpt>
      <trkpt lat="45.03277" lon="5.87561">
        <ele>1757.9523</ele>
        <time>2015-09-06T09:21:11Z</time>
      </trkpt>
      <trkpt lat="45.03277" lon="5.87562">
        <ele>1757.9523</ele>
        <time>2015-09-06T09:21:21Z</time>
      </trkpt>
      <trkpt lat="45.03277" lon="5.87562">
        <ele>1757.9523</ele>
        <time>2015-09-06T09:21:26Z</time>
      </trkpt>
      <trkpt lat="45.03277" lon="5.87562">
        <ele>1757.9523</ele>
        <time>2015-09-06T09:21:36Z</time>
      </trkpt>
      <trkpt lat="45.03277" lon="5.87562">
        <ele>1757.9523</ele>
        <time>2015-09-06T09:21:41Z</time>
      </trkpt>
      <trkpt lat="45.03277" lon="5.87562">
        <ele>1757.9523</ele>
        <time>2015-09-06T09:21:51Z</time>
      </trkpt>
      <trkpt lat="45.03277" lon="5.87562">
        <ele>1757.9523</ele>
        <time>2015-09-06T09:21:56Z</time>
      </trkpt>
      <trkpt lat="45.03277" lon="5.87562">
        <ele>1757.9523</ele>
        <time>2015-09-06T09:22:06Z</time>
      </trkpt>
      <trkpt lat="45.03277" lon="5.87562">
        <ele>1757.9523</ele>
        <time>2015-09-06T09:22:11Z</time>
      </trkpt>
      <trkpt lat="45.03277" lon="5.87562">
        <ele>1757.9523</ele>
        <time>2015-09-06T09:22:21Z</time>
      </trkpt>
      <trkpt lat="45.03277" lon="5.87562">
        <ele>1757.9523</ele>
        <time>2015-09-06T09:22:26Z</time>
      </trkpt>
      <trkpt lat="45.03277" lon="5.87562">
        <ele>1757.9523</ele>
        <time>2015-09-06T09:22:36Z</time>
      </trkpt>
      <trkpt lat="45.03277" lon="5.87562">
        <ele>1757.9523</ele>
        <time>2015-09-06T09:22:41Z</time>
      </trkpt>
      <trkpt lat="45.03278" lon="5.87567">
        <ele>1766.1627</ele>
        <time>2015-09-06T09:22:56Z</time>
      </trkpt>
      <trkpt lat="45.03284" lon="5.87589">
        <ele>1772.5006</ele>
        <time>2015-09-06T09:23:01Z</time>
      </trkpt>
      <trkpt lat="45.03288" lon="5.87603">
        <ele>1778.5332</ele>
        <time>2015-09-06T09:23:11Z</time>
      </trkpt>
      <trkpt lat="45.03288" lon="5.87607">
        <ele>1778.5332</ele>
        <time>2015-09-06T09:23:16Z</time>
      </trkpt>
      <trkpt lat="45.03289" lon="5.87611">
        <ele>1778.5332</ele>
        <time>2015-09-06T09:23:26Z</time>
      </trkpt>
      <trkpt lat="45.03289" lon="5.87611">
        <ele>1778.5332</ele>
        <time>2015-09-06T09:23:31Z</time>
      </trkpt>
      <trkpt lat="45.03289" lon="5.87612">
        <ele>1778.5332</ele>
        <time>2015-09-06T09:23:41Z</time>
      </trkpt>
      <trkpt lat="45.03277" lon="5.87617">
        <ele>1785.282</ele>
        <time>2015-09-06T09:23:46Z</time>
      </trkpt>
      <trkpt lat="45.03269" lon="5.87622">
        <ele>1792.9717</ele>
        <time>2015-09-06T09:23:56Z</time>
      </trkpt>
      <trkpt lat="45.03268" lon="5.87621">
        <ele>1792.9717</ele>
        <time>2015-09-06T09:24:01Z</time>
      </trkpt>
      <trkpt lat="45.03269" lon="5.87618">
        <ele>1792.9717</ele>
        <time>2015-09-06T09:24:11Z</time>
      </trkpt>
      <trkpt lat="45.03269" lon="5.87618">
        <ele>1792.9717</ele>
        <time>2015-09-06T09:24:16Z</time>
      </trkpt>
      <trkpt lat="45.03269" lon="5.87618">
        <ele>1792.9717</ele>
        <time>2015-09-06T09:24:26Z</time>
      </trkpt>
      <trkpt lat="45.03269" lon="5.87618">
        <ele>1792.9717</ele>
        <time>2015-09-06T09:24:31Z</time>
      </trkpt>
      <trkpt lat="45.03269" lon="5.87618">
        <ele>1792.9717</ele>
        <time>2015-09-06T09:24:41Z</time>
      </trkpt>
      <trkpt lat="45.03269" lon="5.87618">
        <ele>1792.9717</ele>
        <time>2015-09-06T09:24:46Z</time>
      </trkpt>
      <trkpt lat="45.03269" lon="5.87618">
        <ele>1792.9717</ele>
        <time>2015-09-06T09:24:56Z</time>
      </trkpt>
      <trkpt lat="45.03269" lon="5.87618">
        <ele>1792.9717</ele>
        <time>2015-09-06T09:25:01Z</time>
      </trkpt>
      <trkpt lat="45.03266" lon="5.87624">
        <ele>1800.9437</ele>
        <time>2015-09-06T09:25:11Z</time>
      </trkpt>
      <trkpt lat="45.03263" lon="5.87634">
        <ele>1800.9437</ele>
        <time>2015-09-06T09:25:16Z</time>
      </trkpt>
      <trkpt lat="45.03264" lon="5.87646">
        <ele>1807.8674</ele>
        <time>2015-09-06T09:25:31Z</time>
      </trkpt>
      <trkpt lat="45.03264" lon="5.87647">
        <ele>1807.8674</ele>
        <time>2015-09-06T09:25:36Z</time>
      </trkpt>
      <trkpt lat="45.03264" lon="5.87646">
        <ele>1807.8674</ele>
        <time>2015-09-06T09:25:46Z</time>
      </trkpt>
      <trkpt lat="45.03264" lon="5.87647">
        <ele>1807.8674</ele>
        <time>2015-09-06T09:25:51Z</time>
      </trkpt>
      <trkpt lat="45.03264" lon="5.87647">
        <ele>1807.8674</ele>
        <time>2015-09-06T09:26:01Z</time>
      </trkpt>
      <trkpt lat="45.03264" lon="5.87647">
        <ele>1807.8674</ele>
        <time>2015-09-06T09:26:06Z</time>
      </trkpt>
      <trkpt lat="45.03264" lon="5.87647">
        <ele>1807.8674</ele>
        <time>2015-09-06T09:26:16Z</time>
      </trkpt>
      <trkpt lat="45.03264" lon="5.87647">
        <ele>1807.8674</ele>
        <time>2015-09-06T09:26:21Z</time>
      </trkpt>
      <trkpt lat="45.03266" lon="5.87663">
        <ele>1814.2428</ele>
        <time>2015-09-06T09:26:31Z</time>
      </trkpt>
      <trkpt lat="45.03267" lon="5.87672">
        <ele>1814.2428</ele>
        <time>2015-09-06T09:26:36Z</time>
      </trkpt>
      <trkpt lat="45.0327" lon="5.8768">
        <ele>1820.6794</ele>
        <time>2015-09-06T09:26:46Z</time>
      </trkpt>
      <trkpt lat="45.03272" lon="5.87687">
        <ele>1820.6794</ele>
        <time>2015-09-06T09:26:51Z</time>
      </trkpt>
      <trkpt lat="45.03279" lon="5.87696">
        <ele>1828.3187</ele>
        <time>2015-09-06T09:27:06Z</time>
      </trkpt>
      <trkpt lat="45.03286" lon="5.87702">
        <ele>1828.3187</ele>
        <time>2015-09-06T09:27:11Z</time>
      </trkpt>
      <trkpt lat="45.03292" lon="5.87708">
        <ele>1834.9015</ele>
        <time>2015-09-06T09:27:21Z</time>
      </trkpt>
      <trkpt lat="45.03297" lon="5.87709">
        <ele>1834.9015</ele>
        <time>2015-09-06T09:27:26Z</time>
      </trkpt>
      <trkpt lat="45.03298" lon="5.87714">
        <ele>1834.9015</ele>
        <time>2015-09-06T09:27:36Z</time>
      </trkpt>
      <trkpt lat="45.03301" lon="5.87717">
        <ele>1841.22</ele>
        <time>2015-09-06T09:27:41Z</time>
      </trkpt>
      <trkpt lat="45.03295" lon="5.87721">
        <ele>1841.22</ele>
        <time>2015-09-06T09:27:51Z</time>
      </trkpt>
      <trkpt lat="45.03295" lon="5.87719">
        <ele>1841.22</ele>
        <time>2015-09-06T09:27:56Z</time>
      </trkpt>
      <trkpt lat="45.03296" lon="5.87718">
        <ele>1841.22</ele>
        <time>2015-09-06T09:28:06Z</time>
      </trkpt>
      <trkpt lat="45.03296" lon="5.87718">
        <ele>1841.22</ele>
        <time>2015-09-06T09:28:11Z</time>
      </trkpt>
      <trkpt lat="45.03296" lon="5.87718">
        <ele>1841.22</ele>
        <time>2015-09-06T09:28:21Z</time>
      </trkpt>
      <trkpt lat="45.03296" lon="5.87719">
        <ele>1841.22</ele>
        <time>2015-09-06T09:28:26Z</time>
      </trkpt>
      <trkpt lat="45.03296" lon="5.87719">
        <ele>1841.22</ele>
        <time>2015-09-06T09:28:36Z</time>
      </trkpt>
      <trkpt lat="45.03296" lon="5.87719">
        <ele>1841.22</ele>
        <time>2015-09-06T09:28:41Z</time>
      </trkpt>
      <trkpt lat="45.03309" lon="5.87727">
        <ele>1847.4327</ele>
        <time>2015-09-06T09:28:51Z</time>
      </trkpt>
      <trkpt lat="45.03312" lon="5.87733">
        <ele>1847.4327</ele>
        <time>2015-09-06T09:28:56Z</time>
      </trkpt>
      <trkpt lat="45.03315" lon="5.87737">
        <ele>1853.4</ele>
        <time>2015-09-06T09:29:06Z</time>
      </trkpt>
      <trkpt lat="45.03315" lon="5.8774">
        <ele>1853.4</ele>
        <time>2015-09-06T09:29:11Z</time>
      </trkpt>
      <trkpt lat="45.03315" lon="5.87741">
        <ele>1853.4</ele>
        <time>2015-09-06T09:29:21Z</time>
      </trkpt>
      <trkpt lat="45.03316" lon="5.87741">
        <ele>1853.4</ele>
        <time>2015-09-06T09:29:26Z</time>
      </trkpt>
      <trkpt lat="45.03316" lon="5.87741">
        <ele>1853.4</ele>
        <time>2015-09-06T09:29:36Z</time>
      </trkpt>
      <trkpt lat="45.03316" lon="5.87741">
        <ele>1853.4</ele>
        <time>2015-09-06T09:29:41Z</time>
      </trkpt>
      <trkpt lat="45.03323" lon="5.87752">
        <ele>1859.1371</ele>
        <time>2015-09-06T09:29:56Z</time>
      </trkpt>
      <trkpt lat="45.03323" lon="5.87763">
        <ele>1859.1371</ele>
        <time>2015-09-06T09:30:01Z</time>
      </trkpt>
      <trkpt lat="45.03337" lon="5.87776">
        <ele>1865.5239</ele>
        <time>2015-09-06T09:30:11Z</time>
      </trkpt>
      <trkpt lat="45.03333" lon="5.8778">
        <ele>1865.5239</ele>
        <time>2015-09-06T09:30:16Z</time>
      </trkpt>
      <trkpt lat="45.03338" lon="5.87778">
        <ele>1871.6455</ele>
        <time>2015-09-06T09:30:26Z</time>
      </trkpt>
      <trkpt lat="45.03347" lon="5.87782">
        <ele>1876.6548</ele>
        <time>2015-09-06T09:30:31Z</time>
      </trkpt>
      <trkpt lat="45.03362" lon="5.87784">
        <ele>1881.7882</ele>
        <time>2015-09-06T09:30:41Z</time>
      </trkpt>
      <trkpt lat="45.03359" lon="5.87785">
        <ele>1881.7882</ele>
        <time>2015-09-06T09:30:46Z</time>
      </trkpt>
      <trkpt lat="45.0336" lon="5.87786">
        <ele>1881.7882</ele>
        <time>2015-09-06T09:30:56Z</time>
      </trkpt>
      <trkpt lat="45.0336" lon="5.87786">
        <ele>1881.7882</ele>
        <time>2015-09-06T09:31:01Z</time>
      </trkpt>
      <trkpt lat="45.0336" lon="5.87786">
        <ele>1881.7882</ele>
        <time>2015-09-06T09:31:11Z</time>
      </trkpt>
      <trkpt lat="45.0336" lon="5.87786">
        <ele>1881.7882</ele>
        <time>2015-09-06T09:31:16Z</time>
      </trkpt>
      <trkpt lat="45.0336" lon="5.87786">
        <ele>1881.7882</ele>
        <time>2015-09-06T09:31:26Z</time>
      </trkpt>
      <trkpt lat="45.0336" lon="5.87787">
        <ele>1881.7882</ele>
        <time>2015-09-06T09:31:31Z</time>
      </trkpt>
      <trkpt lat="45.0336" lon="5.87787">
        <ele>1881.7882</ele>
        <time>2015-09-06T09:31:46Z</time>
      </trkpt>
      <trkpt lat="45.0336" lon="5.87787">
        <ele>1881.7882</ele>
        <time>2015-09-06T09:31:51Z</time>
      </trkpt>
      <trkpt lat="45.0336" lon="5.87787">
        <ele>1881.7882</ele>
        <time>2015-09-06T09:32:01Z</time>
      </trkpt>
      <trkpt lat="45.0336" lon="5.87787">
        <ele>1881.7882</ele>
        <time>2015-09-06T09:32:06Z</time>
      </trkpt>
      <trkpt lat="45.0336" lon="5.87787">
        <ele>1881.7882</ele>
        <time>2015-09-06T09:32:16Z</time>
      </trkpt>
      <trkpt lat="45.0336" lon="5.87787">
        <ele>1881.7882</ele>
        <time>2015-09-06T09:32:21Z</time>
      </trkpt>
      <trkpt lat="45.0336" lon="5.87787">
        <ele>1881.7882</ele>
        <time>2015-09-06T09:32:31Z</time>
      </trkpt>
      <trkpt lat="45.03363" lon="5.87798">
        <ele>1885.1649</ele>
        <time>2015-09-06T09:32:36Z</time>
      </trkpt>
      <trkpt lat="45.03375" lon="5.87829">
        <ele>1887.2094</ele>
        <time>2015-09-06T09:32:46Z</time>
      </trkpt>
      <trkpt lat="45.03377" lon="5.87838">
        <ele>1887.2094</ele>
        <time>2015-09-06T09:32:51Z</time>
      </trkpt>
      <trkpt lat="45.03387" lon="5.87844">
        <ele>1890.4802</ele>
        <time>2015-09-06T09:33:01Z</time>
      </trkpt>
      <trkpt lat="45.03388" lon="5.87844">
        <ele>1890.4802</ele>
        <time>2015-09-06T09:33:06Z</time>
      </trkpt>
      <trkpt lat="45.03388" lon="5.87844">
        <ele>1890.4802</ele>
        <time>2015-09-06T09:33:16Z</time>
      </trkpt>
      <trkpt lat="45.03388" lon="5.87844">
        <ele>1890.4802</ele>
        <time>2015-09-06T09:33:21Z</time>
      </trkpt>
      <trkpt lat="45.03388" lon="5.87844">
        <ele>1890.4802</ele>
        <time>2015-09-06T09:33:36Z</time>
      </trkpt>
      <trkpt lat="45.03388" lon="5.87844">
        <ele>1890.4802</ele>
        <time>2015-09-06T09:33:41Z</time>
      </trkpt>
      <trkpt lat="45.03388" lon="5.87844">
        <ele>1890.4802</ele>
        <time>2015-09-06T09:33:51Z</time>
      </trkpt>
      <trkpt lat="45.03388" lon="5.87844">
        <ele>1890.4802</ele>
        <time>2015-09-06T09:33:56Z</time>
      </trkpt>
      <trkpt lat="45.03393" lon="5.87856">
        <ele>1893.3102</ele>
        <time>2015-09-06T09:34:06Z</time>
      </trkpt>
      <trkpt lat="45.03392" lon="5.87862">
        <ele>1893.3102</ele>
        <time>2015-09-06T09:34:11Z</time>
      </trkpt>
      <trkpt lat="45.0339" lon="5.87871">
        <ele>1897.9023</ele>
        <time>2015-09-06T09:34:21Z</time>
      </trkpt>
      <trkpt lat="45.0339" lon="5.8787">
        <ele>1897.9023</ele>
        <time>2015-09-06T09:34:26Z</time>
      </trkpt>
      <trkpt lat="45.03385" lon="5.87872">
        <ele>1897.9023</ele>
        <time>2015-09-06T09:34:36Z</time>
      </trkpt>
      <trkpt lat="45.03384" lon="5.87873">
        <ele>1897.9023</ele>
        <time>2015-09-06T09:34:41Z</time>
      </trkpt>
      <trkpt lat="45.03384" lon="5.87873">
        <ele>1897.9023</ele>
        <time>2015-09-06T09:34:51Z</time>
      </trkpt>
      <trkpt lat="45.03384" lon="5.87873">
        <ele>1897.9023</ele>
        <time>2015-09-06T09:34:56Z</time>
      </trkpt>
      <trkpt lat="45.03384" lon="5.87873">
        <ele>1897.9023</ele>
        <time>2015-09-06T09:35:06Z</time>
      </trkpt>
      <trkpt lat="45.03384" lon="5.87873">
        <ele>1897.9023</ele>
        <time>2015-09-06T09:35:11Z</time>
      </trkpt>
      <trkpt lat="45.03384" lon="5.87873">
        <ele>1897.9023</ele>
        <time>2015-09-06T09:35:21Z</time>
      </trkpt>
      <trkpt lat="45.03389" lon="5.87878">
        <ele>1902.8348</ele>
        <time>2015-09-06T09:35:26Z</time>
      </trkpt>
      <trkpt lat="45.03392" lon="5.87897">
        <ele>1907.654</ele>
        <time>2015-09-06T09:35:41Z</time>
      </trkpt>
      <trkpt lat="45.0339" lon="5.879">
        <ele>1907.654</ele>
        <time>2015-09-06T09:35:46Z</time>
      </trkpt>
      <trkpt lat="45.0339" lon="5.87904">
        <ele>1907.654</ele>
        <time>2015-09-06T09:35:56Z</time>
      </trkpt>
      <trkpt lat="45.0339" lon="5.87904">
        <ele>1907.654</ele>
        <time>2015-09-06T09:36:01Z</time>
      </trkpt>
      <trkpt lat="45.0339" lon="5.87904">
        <ele>1907.654</ele>
        <time>2015-09-06T09:36:11Z</time>
      </trkpt>
      <trkpt lat="45.0339" lon="5.87904">
        <ele>1907.654</ele>
        <time>2015-09-06T09:36:16Z</time>
      </trkpt>
      <trkpt lat="45.0339" lon="5.87904">
        <ele>1907.654</ele>
        <time>2015-09-06T09:36:26Z</time>
      </trkpt>
      <trkpt lat="45.0339" lon="5.87904">
        <ele>1907.654</ele>
        <time>2015-09-06T09:36:31Z</time>
      </trkpt>
      <trkpt lat="45.03387" lon="5.87915">
        <ele>1914.2457</ele>
        <time>2015-09-06T09:36:41Z</time>
      </trkpt>
      <trkpt lat="45.03394" lon="5.87918">
        <ele>1914.2457</ele>
        <time>2015-09-06T09:36:46Z</time>
      </trkpt>
      <trkpt lat="45.03394" lon="5.8792">
        <ele>1914.2457</ele>
        <time>2015-09-06T09:36:56Z</time>
      </trkpt>
      <trkpt lat="45.03394" lon="5.8792">
        <ele>1914.2457</ele>
        <time>2015-09-06T09:37:01Z</time>
      </trkpt>
      <trkpt lat="45.03398" lon="5.87927">
        <ele>1919.8846</ele>
        <time>2015-09-06T09:37:11Z</time>
      </trkpt>
      <trkpt lat="45.03398" lon="5.87927">
        <ele>1919.8846</ele>
        <time>2015-09-06T09:37:16Z</time>
      </trkpt>
      <trkpt lat="45.03398" lon="5.87927">
        <ele>1919.8846</ele>
        <time>2015-09-06T09:37:26Z</time>
      </trkpt>
      <trkpt lat="45.03398" lon="5.87927">
        <ele>1919.8846</ele>
        <time>2015-09-06T09:37:31Z</time>
      </trkpt>
      <trkpt lat="45.03398" lon="5.87927">
        <ele>1919.8846</ele>
        <time>2015-09-06T09:37:41Z</time>
      </trkpt>
      <trkpt lat="45.03398" lon="5.87927">
        <ele>1919.8846</ele>
        <time>2015-09-06T09:37:46Z</time>
      </trkpt>
      <trkpt lat="45.03398" lon="5.87927">
        <ele>1919.8846</ele>
        <time>2015-09-06T09:37:56Z</time>
      </trkpt>
      <trkpt lat="45.03398" lon="5.87927">
        <ele>1919.8846</ele>
        <time>2015-09-06T09:38:01Z</time>
      </trkpt>
      <trkpt lat="45.03398" lon="5.87927">
        <ele>1919.8846</ele>
        <time>2015-09-06T09:38:16Z</time>
      </trkpt>
      <trkpt lat="45.03398" lon="5.87927">
        <ele>1919.8846</ele>
        <time>2015-09-06T09:38:21Z</time>
      </trkpt>
      <trkpt lat="45.03398" lon="5.87927">
        <ele>1919.8846</ele>
        <time>2015-09-06T09:38:31Z</time>
      </trkpt>
      <trkpt lat="45.03398" lon="5.87927">
        <ele>1919.8846</ele>
        <time>2015-09-06T09:38:36Z</time>
      </trkpt>
      <trkpt lat="45.03398" lon="5.87927">
        <ele>1919.8846</ele>
        <time>2015-09-06T09:38:46Z</time>
      </trkpt>
      <trkpt lat="45.03398" lon="5.87927">
        <ele>1919.8846</ele>
        <time>2015-09-06T09:38:51Z</time>
      </trkpt>
      <trkpt lat="45.03398" lon="5.87927">
        <ele>1919.8846</ele>
        <time>2015-09-06T09:39:01Z</time>
      </trkpt>
      <trkpt lat="45.03398" lon="5.87927">
        <ele>1919.8846</ele>
        <time>2015-09-06T09:39:06Z</time>
      </trkpt>
      <trkpt lat="45.03399" lon="5.87927">
        <ele>1919.8846</ele>
        <time>2015-09-06T09:39:16Z</time>
      </trkpt>
      <trkpt lat="45.03398" lon="5.87927">
        <ele>1919.8846</ele>
        <time>2015-09-06T09:39:21Z</time>
      </trkpt>
      <trkpt lat="45.03398" lon="5.87927">
        <ele>1919.8846</ele>
        <time>2015-09-06T09:39:31Z</time>
      </trkpt>
      <trkpt lat="45.03396" lon="5.87926">
        <ele>1919.8846</ele>
        <time>2015-09-06T09:39:36Z</time>
      </trkpt>
      <trkpt lat="45.03401" lon="5.8792">
        <ele>1924.643</ele>
        <time>2015-09-06T09:39:46Z</time>
      </trkpt>
      <trkpt lat="45.03401" lon="5.8792">
        <ele>1924.643</ele>
        <time>2015-09-06T09:39:51Z</time>
      </trkpt>
      <trkpt lat="45.03401" lon="5.8792">
        <ele>1924.643</ele>
        <time>2015-09-06T09:40:01Z</time>
      </trkpt>
      <trkpt lat="45.03401" lon="5.8792">
        <ele>1924.643</ele>
        <time>2015-09-06T09:40:06Z</time>
      </trkpt>
      <trkpt lat="45.03401" lon="5.87921">
        <ele>1924.643</ele>
        <time>2015-09-06T09:40:21Z</time>
      </trkpt>
      <trkpt lat="45.034" lon="5.87921">
        <ele>1924.643</ele>
        <time>2015-09-06T09:40:26Z</time>
      </trkpt>
      <trkpt lat="45.034" lon="5.87921">
        <ele>1924.643</ele>
        <time>2015-09-06T09:40:36Z</time>
      </trkpt>
      <trkpt lat="45.034" lon="5.87921">
        <ele>1924.643</ele>
        <time>2015-09-06T09:40:41Z</time>
      </trkpt>
      <trkpt lat="45.034" lon="5.87921">
        <ele>1924.643</ele>
        <time>2015-09-06T09:40:51Z</time>
      </trkpt>
      <trkpt lat="45.03401" lon="5.87924">
        <ele>1924.643</ele>
        <time>2015-09-06T09:40:56Z</time>
      </trkpt>
      <trkpt lat="45.03401" lon="5.87927">
        <ele>1924.643</ele>
        <time>2015-09-06T09:41:06Z</time>
      </trkpt>
      <trkpt lat="45.03401" lon="5.87928">
        <ele>1924.643</ele>
        <time>2015-09-06T09:41:11Z</time>
      </trkpt>
      <trkpt lat="45.03403" lon="5.8793">
        <ele>1924.643</ele>
        <time>2015-09-06T09:41:21Z</time>
      </trkpt>
      <trkpt lat="45.03403" lon="5.8793">
        <ele>1924.643</ele>
        <time>2015-09-06T09:41:26Z</time>
      </trkpt>
      <trkpt lat="45.03403" lon="5.8793">
        <ele>1924.643</ele>
        <time>2015-09-06T09:41:36Z</time>
      </trkpt>
      <trkpt lat="45.03403" lon="5.8793">
        <ele>1924.643</ele>
        <time>2015-09-06T09:41:41Z</time>
      </trkpt>
      <trkpt lat="45.03403" lon="5.8793">
        <ele>1924.643</ele>
        <time>2015-09-06T09:41:51Z</time>
      </trkpt>
      <trkpt lat="45.03403" lon="5.8793">
        <ele>1924.643</ele>
        <time>2015-09-06T09:41:56Z</time>
      </trkpt>
      <trkpt lat="45.03403" lon="5.8793">
        <ele>1924.643</ele>
        <time>2015-09-06T09:42:06Z</time>
      </trkpt>
      <trkpt lat="45.03403" lon="5.8793">
        <ele>1924.643</ele>
        <time>2015-09-06T09:42:11Z</time>
      </trkpt>
      <trkpt lat="45.03403" lon="5.8793">
        <ele>1924.643</ele>
        <time>2015-09-06T09:42:26Z</time>
      </trkpt>
      <trkpt lat="45.03403" lon="5.8793">
        <ele>1924.643</ele>
        <time>2015-09-06T09:42:31Z</time>
      </trkpt>
      <trkpt lat="45.03403" lon="5.8793">
        <ele>1924.643</ele>
        <time>2015-09-06T09:42:41Z</time>
      </trkpt>
      <trkpt lat="45.03403" lon="5.8793">
        <ele>1924.643</ele>
        <time>2015-09-06T09:42:46Z</time>
      </trkpt>
      <trkpt lat="45.03402" lon="5.87934">
        <ele>1927.4368</ele>
        <time>2015-09-06T09:42:56Z</time>
      </trkpt>
      <trkpt lat="45.03397" lon="5.87945">
        <ele>1930.0055</ele>
        <time>2015-09-06T09:43:01Z</time>
      </trkpt>
      <trkpt lat="45.03397" lon="5.87957">
        <ele>1930.0055</ele>
        <time>2015-09-06T09:43:11Z</time>
      </trkpt>
      <trkpt lat="45.03397" lon="5.87961">
        <ele>1933.097</ele>
        <time>2015-09-06T09:43:16Z</time>
      </trkpt>
      <trkpt lat="45.03386" lon="5.87967">
        <ele>1935.6731</ele>
        <time>2015-09-06T09:43:26Z</time>
      </trkpt>
      <trkpt lat="45.0339" lon="5.87965">
        <ele>1935.6731</ele>
        <time>2015-09-06T09:43:31Z</time>
      </trkpt>
      <trkpt lat="45.0339" lon="5.87965">
        <ele>1935.6731</ele>
        <time>2015-09-06T09:43:41Z</time>
      </trkpt>
      <trkpt lat="45.0339" lon="5.87965">
        <ele>1935.6731</ele>
        <time>2015-09-06T09:43:46Z</time>
      </trkpt>
      <trkpt lat="45.0339" lon="5.87965">
        <ele>1935.6731</ele>
        <time>2015-09-06T09:43:56Z</time>
      </trkpt>
      <trkpt lat="45.03389" lon="5.87978">
        <ele>1938.2145</ele>
        <time>2015-09-06T09:44:01Z</time>
      </trkpt>
      <trkpt lat="45.03396" lon="5.87984">
        <ele>1938.2145</ele>
        <time>2015-09-06T09:44:11Z</time>
      </trkpt>
      <trkpt lat="45.03402" lon="5.87984">
        <ele>1940.5902</ele>
        <time>2015-09-06T09:44:16Z</time>
      </trkpt>
      <trkpt lat="45.03401" lon="5.87996">
        <ele>1942.8234</ele>
        <time>2015-09-06T09:44:26Z</time>
      </trkpt>
      <trkpt lat="45.03398" lon="5.87996">
        <ele>1942.8234</ele>
        <time>2015-09-06T09:44:31Z</time>
      </trkpt>
      <trkpt lat="45.03397" lon="5.88001">
        <ele>1942.8234</ele>
        <time>2015-09-06T09:44:46Z</time>
      </trkpt>
      <trkpt lat="45.03397" lon="5.88002">
        <ele>1942.8234</ele>
        <time>2015-09-06T09:44:51Z</time>
      </trkpt>
      <trkpt lat="45.03398" lon="5.88002">
        <ele>1942.8234</ele>
        <time>2015-09-06T09:45:01Z</time>
      </trkpt>
      <trkpt lat="45.03398" lon="5.88002">
        <ele>1942.8234</ele>
        <time>2015-09-06T09:45:06Z</time>
      </trkpt>
      <trkpt lat="45.03398" lon="5.88002">
        <ele>1942.8234</ele>
        <time>2015-09-06T09:45:16Z</time>
      </trkpt>
      <trkpt lat="45.03398" lon="5.88002">
        <ele>1942.8234</ele>
        <time>2015-09-06T09:45:21Z</time>
      </trkpt>
      <trkpt lat="45.03401" lon="5.88007">
        <ele>1945.0796</ele>
        <time>2015-09-06T09:45:31Z</time>
      </trkpt>
      <trkpt lat="45.034" lon="5.88017">
        <ele>1945.0796</ele>
        <time>2015-09-06T09:45:36Z</time>
      </trkpt>
      <trkpt lat="45.03392" lon="5.88025">
        <ele>1948.5211</ele>
        <time>2015-09-06T09:45:46Z</time>
      </trkpt>
      <trkpt lat="45.03395" lon="5.88024">
        <ele>1948.5211</ele>
        <time>2015-09-06T09:45:51Z</time>
      </trkpt>
      <trkpt lat="45.03399" lon="5.8803">
        <ele>1948.5211</ele>
        <time>2015-09-06T09:46:01Z</time>
      </trkpt>
      <trkpt lat="45.03399" lon="5.88031">
        <ele>1948.5211</ele>
        <time>2015-09-06T09:46:06Z</time>
      </trkpt>
      <trkpt lat="45.03398" lon="5.88031">
        <ele>1951.483</ele>
        <time>2015-09-06T09:46:16Z</time>
      </trkpt>
      <trkpt lat="45.03398" lon="5.88031">
        <ele>1951.483</ele>
        <time>2015-09-06T09:46:21Z</time>
      </trkpt>
      <trkpt lat="45.03401" lon="5.88043">
        <ele>1951.483</ele>
        <time>2015-09-06T09:46:31Z</time>
      </trkpt>
      <trkpt lat="45.03398" lon="5.8805">
        <ele>1954.8739</ele>
        <time>2015-09-06T09:46:36Z</time>
      </trkpt>
      <trkpt lat="45.03397" lon="5.88062">
        <ele>1954.8739</ele>
        <time>2015-09-06T09:46:51Z</time>
      </trkpt>
      <trkpt lat="45.03402" lon="5.88065">
        <ele>1957.949</ele>
        <time>2015-09-06T09:46:56Z</time>
      </trkpt>
      <trkpt lat="45.03405" lon="5.88067">
        <ele>1957.949</ele>
        <time>2015-09-06T09:47:06Z</time>
      </trkpt>
      <trkpt lat="45.03405" lon="5.88067">
        <ele>1957.949</ele>
        <time>2015-09-06T09:47:11Z</time>
      </trkpt>
      <trkpt lat="45.03405" lon="5.8807">
        <ele>1957.949</ele>
        <time>2015-09-06T09:47:21Z</time>
      </trkpt>
      <trkpt lat="45.03405" lon="5.8807">
        <ele>1957.949</ele>
        <time>2015-09-06T09:47:26Z</time>
      </trkpt>
      <trkpt lat="45.03406" lon="5.88071">
        <ele>1957.949</ele>
        <time>2015-09-06T09:47:36Z</time>
      </trkpt>
      <trkpt lat="45.03406" lon="5.88071">
        <ele>1957.949</ele>
        <time>2015-09-06T09:47:41Z</time>
      </trkpt>
      <trkpt lat="45.03406" lon="5.88071">
        <ele>1957.949</ele>
        <time>2015-09-06T09:47:51Z</time>
      </trkpt>
      <trkpt lat="45.03406" lon="5.88071">
        <ele>1957.949</ele>
        <time>2015-09-06T09:47:56Z</time>
      </trkpt>
      <trkpt lat="45.03407" lon="5.88082">
        <ele>1960.5951</ele>
        <time>2015-09-06T09:48:11Z</time>
      </trkpt>
      <trkpt lat="45.03411" lon="5.88085">
        <ele>1960.5951</ele>
        <time>2015-09-06T09:48:16Z</time>
      </trkpt>
      <trkpt lat="45.03416" lon="5.88094">
        <ele>1962.7086</ele>
        <time>2015-09-06T09:48:26Z</time>
      </trkpt>
      <trkpt lat="45.03424" lon="5.88099">
        <ele>1962.7086</ele>
        <time>2015-09-06T09:48:31Z</time>
      </trkpt>
      <trkpt lat="45.03418" lon="5.88101">
        <ele>1965.0594</ele>
        <time>2015-09-06T09:48:41Z</time>
      </trkpt>
      <trkpt lat="45.03418" lon="5.88102">
        <ele>1965.0594</ele>
        <time>2015-09-06T09:48:46Z</time>
      </trkpt>
      <trkpt lat="45.0342" lon="5.88106">
        <ele>1965.0594</ele>
        <time>2015-09-06T09:48:56Z</time>
      </trkpt>
      <trkpt lat="45.0342" lon="5.88107">
        <ele>1965.0594</ele>
        <time>2015-09-06T09:49:01Z</time>
      </trkpt>
      <trkpt lat="45.03422" lon="5.88113">
        <ele>1968.504</ele>
        <time>2015-09-06T09:49:11Z</time>
      </trkpt>
      <trkpt lat="45.03422" lon="5.88119">
        <ele>1968.504</ele>
        <time>2015-09-06T09:49:16Z</time>
      </trkpt>
      <trkpt lat="45.03431" lon="5.8813">
        <ele>1971.3828</ele>
        <time>2015-09-06T09:49:26Z</time>
      </trkpt>
      <trkpt lat="45.03433" lon="5.88138">
        <ele>1971.3828</ele>
        <time>2015-09-06T09:49:31Z</time>
      </trkpt>
      <trkpt lat="45.0343" lon="5.88151">
        <ele>1973.024</ele>
        <time>2015-09-06T09:49:41Z</time>
      </trkpt>
      <trkpt lat="45.0343" lon="5.88151">
        <ele>1973.024</ele>
        <time>2015-09-06T09:49:46Z</time>
      </trkpt>
      <trkpt lat="45.03435" lon="5.88158">
        <ele>1973.024</ele>
        <time>2015-09-06T09:49:56Z</time>
      </trkpt>
      <trkpt lat="45.03437" lon="5.88156">
        <ele>1974.1057</ele>
        <time>2015-09-06T09:50:01Z</time>
      </trkpt>
      <trkpt lat="45.03431" lon="5.88156">
        <ele>1974.1057</ele>
        <time>2015-09-06T09:50:16Z</time>
      </trkpt>
      <trkpt lat="45.03431" lon="5.88157">
        <ele>1974.1057</ele>
        <time>2015-09-06T09:50:21Z</time>
      </trkpt>
      <trkpt lat="45.03432" lon="5.88175">
        <ele>1974.8247</ele>
        <time>2015-09-06T09:50:31Z</time>
      </trkpt>
      <trkpt lat="45.03437" lon="5.88181">
        <ele>1974.8247</ele>
        <time>2015-09-06T09:50:36Z</time>
      </trkpt>
      <trkpt lat="45.03445" lon="5.88197">
        <ele>1975.7966</ele>
        <time>2015-09-06T09:50:46Z</time>
      </trkpt>
      <trkpt lat="45.0345" lon="5.88203">
        <ele>1975.7966</ele>
        <time>2015-09-06T09:50:51Z</time>
      </trkpt>
      <trkpt lat="45.03453" lon="5.88218">
        <ele>1975.8618</ele>
        <time>2015-09-06T09:51:01Z</time>
      </trkpt>
      <trkpt lat="45.03457" lon="5.88228">
        <ele>1975.8618</ele>
        <time>2015-09-06T09:51:06Z</time>
      </trkpt>
      <trkpt lat="45.03464" lon="5.88246">
        <ele>1976.3975</ele>
        <time>2015-09-06T09:51:16Z</time>
      </trkpt>
      <trkpt lat="45.03467" lon="5.88253">
        <ele>1976.3975</ele>
        <time>2015-09-06T09:51:21Z</time>
      </trkpt>
      <trkpt lat="45.03468" lon="5.88262">
        <ele>1977.093</ele>
        <time>2015-09-06T09:51:31Z</time>
      </trkpt>
      <trkpt lat="45.0347" lon="5.88264">
        <ele>1977.093</ele>
        <time>2015-09-06T09:51:36Z</time>
      </trkpt>
      <trkpt lat="45.03468" lon="5.88265">
        <ele>1977.093</ele>
        <time>2015-09-06T09:51:46Z</time>
      </trkpt>
      <trkpt lat="45.03472" lon="5.88265">
        <ele>1977.093</ele>
        <time>2015-09-06T09:51:51Z</time>
      </trkpt>
      <trkpt lat="45.03473" lon="5.88267">
        <ele>1976.7953</ele>
        <time>2015-09-06T09:52:01Z</time>
      </trkpt>
      <trkpt lat="45.03473" lon="5.88268">
        <ele>1976.7953</ele>
        <time>2015-09-06T09:52:06Z</time>
      </trkpt>
      <trkpt lat="45.03473" lon="5.88268">
        <ele>1976.7953</ele>
        <time>2015-09-06T09:52:16Z</time>
      </trkpt>
      <trkpt lat="45.03474" lon="5.88268">
        <ele>1976.7953</ele>
        <time>2015-09-06T09:52:21Z</time>
      </trkpt>
      <trkpt lat="45.03473" lon="5.88272">
        <ele>1976.7953</ele>
        <time>2015-09-06T09:52:31Z</time>
      </trkpt>
      <trkpt lat="45.03477" lon="5.88286">
        <ele>1976.4556</ele>
        <time>2015-09-06T09:52:36Z</time>
      </trkpt>
      <trkpt lat="45.03488" lon="5.88307">
        <ele>1975.9464</ele>
        <time>2015-09-06T09:52:51Z</time>
      </trkpt>
      <trkpt lat="45.03492" lon="5.88314">
        <ele>1975.9464</ele>
        <time>2015-09-06T09:52:56Z</time>
      </trkpt>
      <trkpt lat="45.03494" lon="5.88325">
        <ele>1975.5822</ele>
        <time>2015-09-06T09:53:06Z</time>
      </trkpt>
      <trkpt lat="45.03493" lon="5.88335">
        <ele>1975.5822</ele>
        <time>2015-09-06T09:53:11Z</time>
      </trkpt>
      <trkpt lat="45.035" lon="5.8835">
        <ele>1974.5005</ele>
        <time>2015-09-06T09:53:21Z</time>
      </trkpt>
      <trkpt lat="45.03504" lon="5.88355">
        <ele>1974.5005</ele>
        <time>2015-09-06T09:53:26Z</time>
      </trkpt>
      <trkpt lat="45.03512" lon="5.88371">
        <ele>1972.7684</ele>
        <time>2015-09-06T09:53:36Z</time>
      </trkpt>
      <trkpt lat="45.03513" lon="5.88379">
        <ele>1972.7684</ele>
        <time>2015-09-06T09:53:41Z</time>
      </trkpt>
      <trkpt lat="45.03518" lon="5.88398">
        <ele>1971.1703</ele>
        <time>2015-09-06T09:53:51Z</time>
      </trkpt>
      <trkpt lat="45.0352" lon="5.88401">
        <ele>1971.1703</ele>
        <time>2015-09-06T09:53:56Z</time>
      </trkpt>
      <trkpt lat="45.03528" lon="5.88414">
        <ele>1969.9995</ele>
        <time>2015-09-06T09:54:06Z</time>
      </trkpt>
      <trkpt lat="45.03533" lon="5.88417">
        <ele>1969.9995</ele>
        <time>2015-09-06T09:54:11Z</time>
      </trkpt>
      <trkpt lat="45.0354" lon="5.88428">
        <ele>1969.2383</ele>
        <time>2015-09-06T09:54:21Z</time>
      </trkpt>
      <trkpt lat="45.03545" lon="5.88428">
        <ele>1969.2383</ele>
        <time>2015-09-06T09:54:26Z</time>
      </trkpt>
      <trkpt lat="45.03552" lon="5.88439">
        <ele>1969.3004</ele>
        <time>2015-09-06T09:54:36Z</time>
      </trkpt>
      <trkpt lat="45.03555" lon="5.88444">
        <ele>1969.3004</ele>
        <time>2015-09-06T09:54:41Z</time>
      </trkpt>
      <trkpt lat="45.0356" lon="5.8845">
        <ele>1969.5585</ele>
        <time>2015-09-06T09:54:51Z</time>
      </trkpt>
      <trkpt lat="45.03555" lon="5.88449">
        <ele>1969.5585</ele>
        <time>2015-09-06T09:54:56Z</time>
      </trkpt>
      <trkpt lat="45.03559" lon="5.88455">
        <ele>1969.2853</ele>
        <time>2015-09-06T09:55:11Z</time>
      </trkpt>
      <trkpt lat="45.0356" lon="5.8846">
        <ele>1969.2853</ele>
        <time>2015-09-06T09:55:16Z</time>
      </trkpt>
      <trkpt lat="45.03565" lon="5.88464">
        <ele>1969.2853</ele>
        <time>2015-09-06T09:55:26Z</time>
      </trkpt>
      <trkpt lat="45.03565" lon="5.88465">
        <ele>1969.3939</ele>
        <time>2015-09-06T09:55:31Z</time>
      </trkpt>
      <trkpt lat="45.0357" lon="5.88477">
        <ele>1969.5758</ele>
        <time>2015-09-06T09:55:41Z</time>
      </trkpt>
      <trkpt lat="45.03569" lon="5.88479">
        <ele>1969.5758</ele>
        <time>2015-09-06T09:55:46Z</time>
      </trkpt>
      <trkpt lat="45.03567" lon="5.88486">
        <ele>1969.5758</ele>
        <time>2015-09-06T09:55:56Z</time>
      </trkpt>
      <trkpt lat="45.03571" lon="5.88491">
        <ele>1971.2737</ele>
        <time>2015-09-06T09:56:01Z</time>
      </trkpt>
      <trkpt lat="45.03567" lon="5.88494">
        <ele>1971.2737</ele>
        <time>2015-09-06T09:56:11Z</time>
      </trkpt>
      <trkpt lat="45.03569" lon="5.88495">
        <ele>1971.2737</ele>
        <time>2015-09-06T09:56:16Z</time>
      </trkpt>
      <trkpt lat="45.03569" lon="5.88496">
        <ele>1971.2737</ele>
        <time>2015-09-06T09:56:26Z</time>
      </trkpt>
      <trkpt lat="45.03572" lon="5.88499">
        <ele>1973.3698</ele>
        <time>2015-09-06T09:56:31Z</time>
      </trkpt>
      <trkpt lat="45.0358" lon="5.885">
        <ele>1973.3698</ele>
        <time>2015-09-06T09:56:41Z</time>
      </trkpt>
      <trkpt lat="45.03583" lon="5.88505">
        <ele>1975.5475</ele>
        <time>2015-09-06T09:56:46Z</time>
      </trkpt>
      <trkpt lat="45.03591" lon="5.88519">
        <ele>1977.5131</ele>
        <time>2015-09-06T09:57:01Z</time>
      </trkpt>
      <trkpt lat="45.03589" lon="5.88525">
        <ele>1977.5131</ele>
        <time>2015-09-06T09:57:06Z</time>
      </trkpt>
      <trkpt lat="45.03589" lon="5.88522">
        <ele>1977.5131</ele>
        <time>2015-09-06T09:57:16Z</time>
      </trkpt>
      <trkpt lat="45.03588" lon="5.8852">
        <ele>1977.5131</ele>
        <time>2015-09-06T09:57:21Z</time>
      </trkpt>
      <trkpt lat="45.03588" lon="5.8852">
        <ele>1977.5131</ele>
        <time>2015-09-06T09:57:31Z</time>
      </trkpt>
      <trkpt lat="45.03588" lon="5.8852">
        <ele>1977.5131</ele>
        <time>2015-09-06T09:57:36Z</time>
      </trkpt>
      <trkpt lat="45.03588" lon="5.8852">
        <ele>1977.5131</ele>
        <time>2015-09-06T09:57:46Z</time>
      </trkpt>
      <trkpt lat="45.03588" lon="5.8852">
        <ele>1977.5131</ele>
        <time>2015-09-06T09:57:51Z</time>
      </trkpt>
      <trkpt lat="45.03589" lon="5.88531">
        <ele>1978.8502</ele>
        <time>2015-09-06T09:58:01Z</time>
      </trkpt>
      <trkpt lat="45.03587" lon="5.88545">
        <ele>1980.616</ele>
        <time>2015-09-06T09:58:06Z</time>
      </trkpt>
      <trkpt lat="45.03577" lon="5.88572">
        <ele>1983.7882</ele>
        <time>2015-09-06T09:58:16Z</time>
      </trkpt>
      <trkpt lat="45.03571" lon="5.8858">
        <ele>1983.7882</ele>
        <time>2015-09-06T09:58:21Z</time>
      </trkpt>
      <trkpt lat="45.03557" lon="5.88586">
        <ele>1987.5393</ele>
        <time>2015-09-06T09:58:31Z</time>
      </trkpt>
      <trkpt lat="45.03562" lon="5.88587">
        <ele>1987.5393</ele>
        <time>2015-09-06T09:58:36Z</time>
      </trkpt>
      <trkpt lat="45.03573" lon="5.8859">
        <ele>1991.2448</ele>
        <time>2015-09-06T09:58:46Z</time>
      </trkpt>
      <trkpt lat="45.03573" lon="5.8859">
        <ele>1991.2448</ele>
        <time>2015-09-06T09:58:51Z</time>
      </trkpt>
      <trkpt lat="45.03564" lon="5.88593">
        <ele>1995.3347</ele>
        <time>2015-09-06T09:59:06Z</time>
      </trkpt>
      <trkpt lat="45.03568" lon="5.88594">
        <ele>1995.3347</ele>
        <time>2015-09-06T09:59:11Z</time>
      </trkpt>
      <trkpt lat="45.03585" lon="5.886">
        <ele>1999.1978</ele>
        <time>2015-09-06T09:59:21Z</time>
      </trkpt>
      <trkpt lat="45.03587" lon="5.88605">
        <ele>1999.1978</ele>
        <time>2015-09-06T09:59:26Z</time>
      </trkpt>
      <trkpt lat="45.03587" lon="5.88608">
        <ele>1999.1978</ele>
        <time>2015-09-06T09:59:36Z</time>
      </trkpt>
      <trkpt lat="45.03584" lon="5.88609">
        <ele>1999.1978</ele>
        <time>2015-09-06T09:59:41Z</time>
      </trkpt>
      <trkpt lat="45.03582" lon="5.8861">
        <ele>2002.9882</ele>
        <time>2015-09-06T09:59:51Z</time>
      </trkpt>
      <trkpt lat="45.03583" lon="5.8862">
        <ele>2002.9882</ele>
        <time>2015-09-06T09:59:56Z</time>
      </trkpt>
      <trkpt lat="45.03585" lon="5.8863">
        <ele>2007.1373</ele>
        <time>2015-09-06T10:00:06Z</time>
      </trkpt>
      <trkpt lat="45.03581" lon="5.88636">
        <ele>2007.1373</ele>
        <time>2015-09-06T10:00:11Z</time>
      </trkpt>
      <trkpt lat="45.03569" lon="5.88645">
        <ele>2010.1704</ele>
        <time>2015-09-06T10:00:21Z</time>
      </trkpt>
      <trkpt lat="45.03566" lon="5.8865">
        <ele>2010.1704</ele>
        <time>2015-09-06T10:00:26Z</time>
      </trkpt>
      <trkpt lat="45.03567" lon="5.88662">
        <ele>2014.327</ele>
        <time>2015-09-06T10:00:41Z</time>
      </trkpt>
      <trkpt lat="45.03571" lon="5.88661">
        <ele>2014.327</ele>
        <time>2015-09-06T10:00:46Z</time>
      </trkpt>
      <trkpt lat="45.03572" lon="5.8866">
        <ele>2014.327</ele>
        <time>2015-09-06T10:00:56Z</time>
      </trkpt>
      <trkpt lat="45.03572" lon="5.8866">
        <ele>2014.327</ele>
        <time>2015-09-06T10:01:01Z</time>
      </trkpt>
      <trkpt lat="45.03572" lon="5.8866">
        <ele>2014.327</ele>
        <time>2015-09-06T10:01:11Z</time>
      </trkpt>
      <trkpt lat="45.03572" lon="5.8866">
        <ele>2014.327</ele>
        <time>2015-09-06T10:01:16Z</time>
      </trkpt>
      <trkpt lat="45.03588" lon="5.88665">
        <ele>2019.8053</ele>
        <time>2015-09-06T10:01:26Z</time>
      </trkpt>
      <trkpt lat="45.03582" lon="5.88678">
        <ele>2024.047</ele>
        <time>2015-09-06T10:01:31Z</time>
      </trkpt>
      <trkpt lat="45.03583" lon="5.88678">
        <ele>2024.047</ele>
        <time>2015-09-06T10:01:41Z</time>
      </trkpt>
      <trkpt lat="45.03582" lon="5.88676">
        <ele>2024.047</ele>
        <time>2015-09-06T10:01:46Z</time>
      </trkpt>
      <trkpt lat="45.03582" lon="5.88676">
        <ele>2024.047</ele>
        <time>2015-09-06T10:01:56Z</time>
      </trkpt>
      <trkpt lat="45.03582" lon="5.88676">
        <ele>2024.047</ele>
        <time>2015-09-06T10:02:01Z</time>
      </trkpt>
      <trkpt lat="45.03582" lon="5.88673">
        <ele>2024.047</ele>
        <time>2015-09-06T10:02:11Z</time>
      </trkpt>
      <trkpt lat="45.03582" lon="5.88673">
        <ele>2024.047</ele>
        <time>2015-09-06T10:02:16Z</time>
      </trkpt>
      <trkpt lat="45.03581" lon="5.88673">
        <ele>2024.047</ele>
        <time>2015-09-06T10:02:26Z</time>
      </trkpt>
      <trkpt lat="45.03581" lon="5.88673">
        <ele>2024.047</ele>
        <time>2015-09-06T10:02:31Z</time>
      </trkpt>
      <trkpt lat="45.0356" lon="5.88682">
        <ele>2029.5852</ele>
        <time>2015-09-06T10:02:41Z</time>
      </trkpt>
      <trkpt lat="45.03557" lon="5.88684">
        <ele>2029.5852</ele>
        <time>2015-09-06T10:02:46Z</time>
      </trkpt>
      <trkpt lat="45.03554" lon="5.88686">
        <ele>2029.5852</ele>
        <time>2015-09-06T10:02:56Z</time>
      </trkpt>
      <trkpt lat="45.03554" lon="5.88686">
        <ele>2029.5852</ele>
        <time>2015-09-06T10:03:01Z</time>
      </trkpt>
      <trkpt lat="45.03553" lon="5.88687">
        <ele>2029.5852</ele>
        <time>2015-09-06T10:03:16Z</time>
      </trkpt>
      <trkpt lat="45.03553" lon="5.88687">
        <ele>2029.5852</ele>
        <time>2015-09-06T10:03:21Z</time>
      </trkpt>
      <trkpt lat="45.03553" lon="5.88688">
        <ele>2029.5852</ele>
        <time>2015-09-06T10:03:31Z</time>
      </trkpt>
      <trkpt lat="45.03553" lon="5.88688">
        <ele>2029.5852</ele>
        <time>2015-09-06T10:03:36Z</time>
      </trkpt>
      <trkpt lat="45.03553" lon="5.88688">
        <ele>2029.5852</ele>
        <time>2015-09-06T10:03:46Z</time>
      </trkpt>
      <trkpt lat="45.03559" lon="5.88701">
        <ele>2035.0165</ele>
        <time>2015-09-06T10:03:51Z</time>
      </trkpt>
      <trkpt lat="45.0356" lon="5.88713">
        <ele>2035.0165</ele>
        <time>2015-09-06T10:04:01Z</time>
      </trkpt>
      <trkpt lat="45.03563" lon="5.88717">
        <ele>2039.9055</ele>
        <time>2015-09-06T10:04:06Z</time>
      </trkpt>
      <trkpt lat="45.03563" lon="5.88718">
        <ele>2039.9055</ele>
        <time>2015-09-06T10:04:16Z</time>
      </trkpt>
      <trkpt lat="45.03564" lon="5.88718">
        <ele>2039.9055</ele>
        <time>2015-09-06T10:04:21Z</time>
      </trkpt>
      <trkpt lat="45.03564" lon="5.88718">
        <ele>2039.9055</ele>
        <time>2015-09-06T10:04:31Z</time>
      </trkpt>
      <trkpt lat="45.03564" lon="5.88718">
        <ele>2039.9055</ele>
        <time>2015-09-06T10:04:36Z</time>
      </trkpt>
      <trkpt lat="45.03564" lon="5.88718">
        <ele>2039.9055</ele>
        <time>2015-09-06T10:04:46Z</time>
      </trkpt>
      <trkpt lat="45.03564" lon="5.88718">
        <ele>2039.9055</ele>
        <time>2015-09-06T10:04:51Z</time>
      </trkpt>
      <trkpt lat="45.03565" lon="5.88719">
        <ele>2039.9055</ele>
        <time>2015-09-06T10:05:01Z</time>
      </trkpt>
      <trkpt lat="45.03565" lon="5.88719">
        <ele>2039.9055</ele>
        <time>2015-09-06T10:05:06Z</time>
      </trkpt>
      <trkpt lat="45.03566" lon="5.88724">
        <ele>2039.9055</ele>
        <time>2015-09-06T10:05:21Z</time>
      </trkpt>
      <trkpt lat="45.03571" lon="5.8873">
        <ele>2044.8591</ele>
        <time>2015-09-06T10:05:26Z</time>
      </trkpt>
      <trkpt lat="45.03578" lon="5.88746">
        <ele>2049.7195</ele>
        <time>2015-09-06T10:05:36Z</time>
      </trkpt>
      <trkpt lat="45.03584" lon="5.88749">
        <ele>2049.7195</ele>
        <time>2015-09-06T10:05:41Z</time>
      </trkpt>
      <trkpt lat="45.03589" lon="5.88756">
        <ele>2055.2046</ele>
        <time>2015-09-06T10:05:51Z</time>
      </trkpt>
      <trkpt lat="45.03594" lon="5.88757">
        <ele>2055.2046</ele>
        <time>2015-09-06T10:05:56Z</time>
      </trkpt>
      <trkpt lat="45.03599" lon="5.88759">
        <ele>2061.2585</ele>
        <time>2015-09-06T10:06:06Z</time>
      </trkpt>
      <trkpt lat="45.03596" lon="5.8876">
        <ele>2061.2585</ele>
        <time>2015-09-06T10:06:11Z</time>
      </trkpt>
      <trkpt lat="45.03589" lon="5.88764">
        <ele>2067.9714</ele>
        <time>2015-09-06T10:06:21Z</time>
      </trkpt>
      <trkpt lat="45.03584" lon="5.88765">
        <ele>2067.9714</ele>
        <time>2015-09-06T10:06:26Z</time>
      </trkpt>
      <trkpt lat="45.03565" lon="5.88783">
        <ele>2074.1284</ele>
        <time>2015-09-06T10:06:36Z</time>
      </trkpt>
      <trkpt lat="45.03565" lon="5.88779">
        <ele>2074.1284</ele>
        <time>2015-09-06T10:06:41Z</time>
      </trkpt>
      <trkpt lat="45.03568" lon="5.88769">
        <ele>2080.6233</ele>
        <time>2015-09-06T10:06:51Z</time>
      </trkpt>
      <trkpt lat="45.03562" lon="5.88773">
        <ele>2080.6233</ele>
        <time>2015-09-06T10:06:56Z</time>
      </trkpt>
      <trkpt lat="45.03557" lon="5.88774">
        <ele>2087.2747</ele>
        <time>2015-09-06T10:07:06Z</time>
      </trkpt>
      <trkpt lat="45.03557" lon="5.88771">
        <ele>2087.2747</ele>
        <time>2015-09-06T10:07:11Z</time>
      </trkpt>
      <trkpt lat="45.03552" lon="5.88771">
        <ele>2087.2747</ele>
        <time>2015-09-06T10:07:21Z</time>
      </trkpt>
      <trkpt lat="45.0355" lon="5.88772">
        <ele>2093.9143</ele>
        <time>2015-09-06T10:07:26Z</time>
      </trkpt>
      <trkpt lat="45.03544" lon="5.88771">
        <ele>2093.9143</ele>
        <time>2015-09-06T10:07:36Z</time>
      </trkpt>
      <trkpt lat="45.03541" lon="5.88767">
        <ele>2099.6658</ele>
        <time>2015-09-06T10:07:41Z</time>
      </trkpt>
      <trkpt lat="45.03527" lon="5.88775">
        <ele>2105.0173</ele>
        <time>2015-09-06T10:07:56Z</time>
      </trkpt>
      <trkpt lat="45.03529" lon="5.88772">
        <ele>2105.0173</ele>
        <time>2015-09-06T10:08:01Z</time>
      </trkpt>
      <trkpt lat="45.03516" lon="5.88776">
        <ele>2109.558</ele>
        <time>2015-09-06T10:08:11Z</time>
      </trkpt>
      <trkpt lat="45.03511" lon="5.88779">
        <ele>2109.558</ele>
        <time>2015-09-06T10:08:16Z</time>
      </trkpt>
      <trkpt lat="45.03503" lon="5.88785">
        <ele>2114.3503</ele>
        <time>2015-09-06T10:08:26Z</time>
      </trkpt>
      <trkpt lat="45.03505" lon="5.88779">
        <ele>2114.3503</ele>
        <time>2015-09-06T10:08:31Z</time>
      </trkpt>
      <trkpt lat="45.03494" lon="5.88782">
        <ele>2118.0728</ele>
        <time>2015-09-06T10:08:41Z</time>
      </trkpt>
      <trkpt lat="45.03487" lon="5.88785">
        <ele>2118.0728</ele>
        <time>2015-09-06T10:08:46Z</time>
      </trkpt>
      <trkpt lat="45.03484" lon="5.88788">
        <ele>2121.234</ele>
        <time>2015-09-06T10:08:56Z</time>
      </trkpt>
      <trkpt lat="45.03486" lon="5.88792">
        <ele>2121.234</ele>
        <time>2015-09-06T10:09:01Z</time>
      </trkpt>
      <trkpt lat="45.03487" lon="5.888">
        <ele>2122.865</ele>
        <time>2015-09-06T10:09:11Z</time>
      </trkpt>
      <trkpt lat="45.03487" lon="5.88807">
        <ele>2122.865</ele>
        <time>2015-09-06T10:09:16Z</time>
      </trkpt>
      <trkpt lat="45.03484" lon="5.88801">
        <ele>2124.6675</ele>
        <time>2015-09-06T10:09:26Z</time>
      </trkpt>
      <trkpt lat="45.03484" lon="5.88802">
        <ele>2124.6675</ele>
        <time>2015-09-06T10:09:31Z</time>
      </trkpt>
      <trkpt lat="45.03484" lon="5.88802">
        <ele>2124.6675</ele>
        <time>2015-09-06T10:09:46Z</time>
      </trkpt>
      <trkpt lat="45.03484" lon="5.88802">
        <ele>2124.6675</ele>
        <time>2015-09-06T10:09:51Z</time>
      </trkpt>
      <trkpt lat="45.03484" lon="5.88802">
        <ele>2124.6675</ele>
        <time>2015-09-06T10:10:01Z</time>
      </trkpt>
      <trkpt lat="45.03484" lon="5.88802">
        <ele>2124.6675</ele>
        <time>2015-09-06T10:10:06Z</time>
      </trkpt>
      <trkpt lat="45.03484" lon="5.88802">
        <ele>2124.6675</ele>
        <time>2015-09-06T10:10:16Z</time>
      </trkpt>
      <trkpt lat="45.03484" lon="5.88802">
        <ele>2124.6675</ele>
        <time>2015-09-06T10:10:21Z</time>
      </trkpt>
      <trkpt lat="45.03484" lon="5.88802">
        <ele>2124.6675</ele>
        <time>2015-09-06T10:10:56Z</time>
      </trkpt>
      <trkpt lat="45.03484" lon="5.88802">
        <ele>2124.6675</ele>
        <time>2015-09-06T10:11:01Z</time>
      </trkpt>
      <trkpt lat="45.03483" lon="5.888">
        <ele>2124.6675</ele>
        <time>2015-09-06T10:11:11Z</time>
      </trkpt>
      <trkpt lat="45.03484" lon="5.88801">
        <ele>2124.6675</ele>
        <time>2015-09-06T10:11:16Z</time>
      </trkpt>
      <trkpt lat="45.03484" lon="5.88801">
        <ele>2124.6675</ele>
        <time>2015-09-06T10:11:26Z</time>
      </trkpt>
      <trkpt lat="45.03484" lon="5.88801">
        <ele>2124.6675</ele>
        <time>2015-09-06T10:11:31Z</time>
      </trkpt>
      <trkpt lat="45.03484" lon="5.88801">
        <ele>2124.6675</ele>
        <time>2015-09-06T10:11:41Z</time>
      </trkpt>
      <trkpt lat="45.03484" lon="5.88801">
        <ele>2124.6675</ele>
        <time>2015-09-06T10:11:46Z</time>
      </trkpt>
      <trkpt lat="45.03484" lon="5.88801">
        <ele>2124.6675</ele>
        <time>2015-09-06T10:11:56Z</time>
      </trkpt>
      <trkpt lat="45.03484" lon="5.88801">
        <ele>2124.6675</ele>
        <time>2015-09-06T10:12:01Z</time>
      </trkpt>
      <trkpt lat="45.03483" lon="5.88804">
        <ele>2124.6675</ele>
        <time>2015-09-06T10:12:11Z</time>
      </trkpt>
      <trkpt lat="45.0348" lon="5.88814">
        <ele>2125.6238</ele>
        <time>2015-09-06T10:12:16Z</time>
      </trkpt>
      <trkpt lat="45.03486" lon="5.88822">
        <ele>2125.6238</ele>
        <time>2015-09-06T10:12:26Z</time>
      </trkpt>
      <trkpt lat="45.03486" lon="5.88831">
        <ele>2126.522</ele>
        <time>2015-09-06T10:12:31Z</time>
      </trkpt>
      <trkpt lat="45.03483" lon="5.88837">
        <ele>2126.522</ele>
        <time>2015-09-06T10:12:41Z</time>
      </trkpt>
      <trkpt lat="45.03485" lon="5.88838">
        <ele>2126.522</ele>
        <time>2015-09-06T10:12:46Z</time>
      </trkpt>
      <trkpt lat="45.03489" lon="5.88832">
        <ele>2127.3733</ele>
        <time>2015-09-06T10:13:01Z</time>
      </trkpt>
      <trkpt lat="45.03489" lon="5.88832">
        <ele>2127.3733</ele>
        <time>2015-09-06T10:13:06Z</time>
      </trkpt>
      <trkpt lat="45.03493" lon="5.88834">
        <ele>2127.3733</ele>
        <time>2015-09-06T10:13:16Z</time>
      </trkpt>
      <trkpt lat="45.03498" lon="5.88836">
        <ele>2128.6199</ele>
        <time>2015-09-06T10:13:21Z</time>
      </trkpt>
      <trkpt lat="45.03507" lon="5.88845">
        <ele>2130.3826</ele>
        <time>2015-09-06T10:13:31Z</time>
      </trkpt>
      <trkpt lat="45.03507" lon="5.88847">
        <ele>2130.3826</ele>
        <time>2015-09-06T10:13:36Z</time>
      </trkpt>
      <trkpt lat="45.0351" lon="5.88856">
        <ele>2130.3826</ele>
        <time>2015-09-06T10:13:46Z</time>
      </trkpt>
      <trkpt lat="45.03511" lon="5.8886">
        <ele>2131.763</ele>
        <time>2015-09-06T10:13:51Z</time>
      </trkpt>
      <trkpt lat="45.03512" lon="5.88864">
        <ele>2131.763</ele>
        <time>2015-09-06T10:14:01Z</time>
      </trkpt>
      <trkpt lat="45.03513" lon="5.88865">
        <ele>2131.763</ele>
        <time>2015-09-06T10:14:06Z</time>
      </trkpt>
      <trkpt lat="45.03513" lon="5.88865">
        <ele>2131.763</ele>
        <time>2015-09-06T10:14:16Z</time>
      </trkpt>
      <trkpt lat="45.03517" lon="5.8887">
        <ele>2133.2268</ele>
        <time>2015-09-06T10:14:21Z</time>
      </trkpt>
      <trkpt lat="45.03524" lon="5.88884">
        <ele>2134.485</ele>
        <time>2015-09-06T10:14:31Z</time>
      </trkpt>
      <trkpt lat="45.03521" lon="5.88892">
        <ele>2134.485</ele>
        <time>2015-09-06T10:14:36Z</time>
      </trkpt>
      <trkpt lat="45.03523" lon="5.88897">
        <ele>2136.4233</ele>
        <time>2015-09-06T10:14:46Z</time>
      </trkpt>
      <trkpt lat="45.03526" lon="5.88902">
        <ele>2136.4233</ele>
        <time>2015-09-06T10:14:51Z</time>
      </trkpt>
      <trkpt lat="45.03534" lon="5.88907">
        <ele>2137.9866</ele>
        <time>2015-09-06T10:15:01Z</time>
      </trkpt>
      <trkpt lat="45.03535" lon="5.8891">
        <ele>2137.9866</ele>
        <time>2015-09-06T10:15:06Z</time>
      </trkpt>
      <trkpt lat="45.03539" lon="5.88921">
        <ele>2140.3604</ele>
        <time>2015-09-06T10:15:16Z</time>
      </trkpt>
      <trkpt lat="45.0354" lon="5.88924">
        <ele>2140.3604</ele>
        <time>2015-09-06T10:15:21Z</time>
      </trkpt>
      <trkpt lat="45.03541" lon="5.88929">
        <ele>2140.3604</ele>
        <time>2015-09-06T10:15:31Z</time>
      </trkpt>
      <trkpt lat="45.03541" lon="5.88937">
        <ele>2142.0469</ele>
        <time>2015-09-06T10:15:36Z</time>
      </trkpt>
      <trkpt lat="45.03549" lon="5.88945">
        <ele>2143.2449</ele>
        <time>2015-09-06T10:15:46Z</time>
      </trkpt>
      <trkpt lat="45.03552" lon="5.88943">
        <ele>2143.2449</ele>
        <time>2015-09-06T10:15:51Z</time>
      </trkpt>
      <trkpt lat="45.03557" lon="5.88943">
        <ele>2143.2449</ele>
        <time>2015-09-06T10:16:06Z</time>
      </trkpt>
      <trkpt lat="45.03557" lon="5.88941">
        <ele>2144.861</ele>
        <time>2015-09-06T10:16:11Z</time>
      </trkpt>
      <trkpt lat="45.03562" lon="5.88942">
        <ele>2144.861</ele>
        <time>2015-09-06T10:16:21Z</time>
      </trkpt>
      <trkpt lat="45.03567" lon="5.88942">
        <ele>2145.8606</ele>
        <time>2015-09-06T10:16:26Z</time>
      </trkpt>
      <trkpt lat="45.03579" lon="5.88941">
        <ele>2146.5833</ele>
        <time>2015-09-06T10:16:36Z</time>
      </trkpt>
      <trkpt lat="45.03581" lon="5.88942">
        <ele>2146.5833</ele>
        <time>2015-09-06T10:16:41Z</time>
      </trkpt>
      <trkpt lat="45.03593" lon="5.8894">
        <ele>2146.624</ele>
        <time>2015-09-06T10:16:51Z</time>
      </trkpt>
      <trkpt lat="45.0359" lon="5.88939">
        <ele>2146.624</ele>
        <time>2015-09-06T10:16:56Z</time>
      </trkpt>
      <trkpt lat="45.03592" lon="5.88937">
        <ele>2146.624</ele>
        <time>2015-09-06T10:17:06Z</time>
      </trkpt>
      <trkpt lat="45.03593" lon="5.88937">
        <ele>2146.624</ele>
        <time>2015-09-06T10:17:11Z</time>
      </trkpt>
      <trkpt lat="45.03607" lon="5.88922">
        <ele>2146.6182</ele>
        <time>2015-09-06T10:17:21Z</time>
      </trkpt>
      <trkpt lat="45.03614" lon="5.88919">
        <ele>2146.6182</ele>
        <time>2015-09-06T10:17:26Z</time>
      </trkpt>
      <trkpt lat="45.03618" lon="5.8892">
        <ele>2145.5693</ele>
        <time>2015-09-06T10:17:41Z</time>
      </trkpt>
      <trkpt lat="45.03625" lon="5.88921">
        <ele>2145.5693</ele>
        <time>2015-09-06T10:17:46Z</time>
      </trkpt>
      <trkpt lat="45.03637" lon="5.8892">
        <ele>2143.998</ele>
        <time>2015-09-06T10:17:56Z</time>
      </trkpt>
      <trkpt lat="45.0364" lon="5.8892">
        <ele>2143.998</ele>
        <time>2015-09-06T10:18:01Z</time>
      </trkpt>
      <trkpt lat="45.03643" lon="5.88922">
        <ele>2143.998</ele>
        <time>2015-09-06T10:18:11Z</time>
      </trkpt>
      <trkpt lat="45.03643" lon="5.88922">
        <ele>2143.998</ele>
        <time>2015-09-06T10:18:16Z</time>
      </trkpt>
      <trkpt lat="45.03649" lon="5.88912">
        <ele>2141.8113</ele>
        <time>2015-09-06T10:18:26Z</time>
      </trkpt>
      <trkpt lat="45.03652" lon="5.88914">
        <ele>2141.8113</ele>
        <time>2015-09-06T10:18:31Z</time>
      </trkpt>
      <trkpt lat="45.03651" lon="5.88911">
        <ele>2141.8113</ele>
        <time>2015-09-06T10:18:41Z</time>
      </trkpt>
      <trkpt lat="45.03651" lon="5.88911">
        <ele>2141.8113</ele>
        <time>2015-09-06T10:18:46Z</time>
      </trkpt>
      <trkpt lat="45.03651" lon="5.88911">
        <ele>2141.8113</ele>
        <time>2015-09-06T10:18:56Z</time>
      </trkpt>
      <trkpt lat="45.03651" lon="5.88911">
        <ele>2141.8113</ele>
        <time>2015-09-06T10:19:01Z</time>
      </trkpt>
      <trkpt lat="45.03651" lon="5.88911">
        <ele>2141.8113</ele>
        <time>2015-09-06T10:19:11Z</time>
      </trkpt>
      <trkpt lat="45.03651" lon="5.88911">
        <ele>2141.8113</ele>
        <time>2015-09-06T10:19:16Z</time>
      </trkpt>
      <trkpt lat="45.03654" lon="5.88901">
        <ele>2140.078</ele>
        <time>2015-09-06T10:19:26Z</time>
      </trkpt>
      <trkpt lat="45.0366" lon="5.88901">
        <ele>2140.078</ele>
        <time>2015-09-06T10:19:31Z</time>
      </trkpt>
      <trkpt lat="45.03673" lon="5.88881">
        <ele>2137.7686</ele>
        <time>2015-09-06T10:19:41Z</time>
      </trkpt>
      <trkpt lat="45.03678" lon="5.88876">
        <ele>2137.7686</ele>
        <time>2015-09-06T10:19:46Z</time>
      </trkpt>
      <trkpt lat="45.03689" lon="5.88858">
        <ele>2135.6604</ele>
        <time>2015-09-06T10:20:01Z</time>
      </trkpt>
      <trkpt lat="45.03694" lon="5.88847">
        <ele>2135.6604</ele>
        <time>2015-09-06T10:20:06Z</time>
      </trkpt>
      <trkpt lat="45.03691" lon="5.88835">
        <ele>2134.1848</ele>
        <time>2015-09-06T10:20:16Z</time>
      </trkpt>
      <trkpt lat="45.03696" lon="5.88831">
        <ele>2134.1848</ele>
        <time>2015-09-06T10:20:21Z</time>
      </trkpt>
      <trkpt lat="45.03704" lon="5.88828">
        <ele>2132.7302</ele>
        <time>2015-09-06T10:20:31Z</time>
      </trkpt>
      <trkpt lat="45.037" lon="5.88828">
        <ele>2132.7302</ele>
        <time>2015-09-06T10:20:36Z</time>
      </trkpt>
      <trkpt lat="45.03706" lon="5.88821">
        <ele>2131.8826</ele>
        <time>2015-09-06T10:20:46Z</time>
      </trkpt>
      <trkpt lat="45.03709" lon="5.88811">
        <ele>2131.8826</ele>
        <time>2015-09-06T10:20:51Z</time>
      </trkpt>
      <trkpt lat="45.03716" lon="5.88805">
        <ele>2131.174</ele>
        <time>2015-09-06T10:21:01Z</time>
      </trkpt>
      <trkpt lat="45.03718" lon="5.88804">
        <ele>2131.174</ele>
        <time>2015-09-06T10:21:06Z</time>
      </trkpt>
      <trkpt lat="45.03721" lon="5.88791">
        <ele>2130.7473</ele>
        <time>2015-09-06T10:21:16Z</time>
      </trkpt>
      <trkpt lat="45.03719" lon="5.88788">
        <ele>2130.7473</ele>
        <time>2015-09-06T10:21:21Z</time>
      </trkpt>
      <trkpt lat="45.03723" lon="5.88777">
        <ele>2130.1562</ele>
        <time>2015-09-06T10:21:31Z</time>
      </trkpt>
      <trkpt lat="45.03722" lon="5.88774">
        <ele>2130.1562</ele>
        <time>2015-09-06T10:21:36Z</time>
      </trkpt>
      <trkpt lat="45.03729" lon="5.8876">
        <ele>2129.997</ele>
        <time>2015-09-06T10:21:46Z</time>
      </trkpt>
      <trkpt lat="45.0373" lon="5.88759">
        <ele>2129.997</ele>
        <time>2015-09-06T10:21:51Z</time>
      </trkpt>
      <trkpt lat="45.03738" lon="5.88747">
        <ele>2129.6672</ele>
        <time>2015-09-06T10:22:01Z</time>
      </trkpt>
      <trkpt lat="45.03741" lon="5.88739">
        <ele>2129.6672</ele>
        <time>2015-09-06T10:22:06Z</time>
      </trkpt>
      <trkpt lat="45.03747" lon="5.88725">
        <ele>2129.474</ele>
        <time>2015-09-06T10:22:21Z</time>
      </trkpt>
      <trkpt lat="45.0375" lon="5.88717">
        <ele>2129.474</ele>
        <time>2015-09-06T10:22:26Z</time>
      </trkpt>
      <trkpt lat="45.0376" lon="5.88706">
        <ele>2129.2688</ele>
        <time>2015-09-06T10:22:36Z</time>
      </trkpt>
      <trkpt lat="45.03763" lon="5.88705">
        <ele>2129.2688</ele>
        <time>2015-09-06T10:22:41Z</time>
      </trkpt>
      <trkpt lat="45.03773" lon="5.887">
        <ele>2128.913</ele>
        <time>2015-09-06T10:22:51Z</time>
      </trkpt>
      <trkpt lat="45.03781" lon="5.887">
        <ele>2128.913</ele>
        <time>2015-09-06T10:22:56Z</time>
      </trkpt>
      <trkpt lat="45.03772" lon="5.88693">
        <ele>2128.712</ele>
        <time>2015-09-06T10:23:06Z</time>
      </trkpt>
      <trkpt lat="45.0377" lon="5.88688">
        <ele>2128.712</ele>
        <time>2015-09-06T10:23:11Z</time>
      </trkpt>
      <trkpt lat="45.03775" lon="5.88678">
        <ele>2128.514</ele>
        <time>2015-09-06T10:23:21Z</time>
      </trkpt>
      <trkpt lat="45.03778" lon="5.88671">
        <ele>2128.514</ele>
        <time>2015-09-06T10:23:26Z</time>
      </trkpt>
      <trkpt lat="45.0378" lon="5.88655">
        <ele>2128.9001</ele>
        <time>2015-09-06T10:23:36Z</time>
      </trkpt>
      <trkpt lat="45.0378" lon="5.88651">
        <ele>2128.9001</ele>
        <time>2015-09-06T10:23:41Z</time>
      </trkpt>
      <trkpt lat="45.03781" lon="5.88649">
        <ele>2128.9001</ele>
        <time>2015-09-06T10:23:51Z</time>
      </trkpt>
      <trkpt lat="45.0378" lon="5.88648">
        <ele>2128.9001</ele>
        <time>2015-09-06T10:23:56Z</time>
      </trkpt>
      <trkpt lat="45.0378" lon="5.88648">
        <ele>2128.9001</ele>
        <time>2015-09-06T10:24:06Z</time>
      </trkpt>
      <trkpt lat="45.0378" lon="5.88648">
        <ele>2128.9001</ele>
        <time>2015-09-06T10:24:11Z</time>
      </trkpt>
      <trkpt lat="45.03788" lon="5.8863">
        <ele>2129.2534</ele>
        <time>2015-09-06T10:24:21Z</time>
      </trkpt>
      <trkpt lat="45.03789" lon="5.88618">
        <ele>2129.2534</ele>
        <time>2015-09-06T10:24:26Z</time>
      </trkpt>
      <trkpt lat="45.03789" lon="5.88605">
        <ele>2130.0107</ele>
        <time>2015-09-06T10:24:36Z</time>
      </trkpt>
      <trkpt lat="45.03791" lon="5.88596">
        <ele>2130.0107</ele>
        <time>2015-09-06T10:24:41Z</time>
      </trkpt>
      <trkpt lat="45.03792" lon="5.88582">
        <ele>2131.8638</ele>
        <time>2015-09-06T10:24:56Z</time>
      </trkpt>
      <trkpt lat="45.03794" lon="5.88579">
        <ele>2131.8638</ele>
        <time>2015-09-06T10:25:01Z</time>
      </trkpt>
      <trkpt lat="45.03795" lon="5.88567">
        <ele>2133.7212</ele>
        <time>2015-09-06T10:25:11Z</time>
      </trkpt>
      <trkpt lat="45.03798" lon="5.88559">
        <ele>2133.7212</ele>
        <time>2015-09-06T10:25:16Z</time>
      </trkpt>
      <trkpt lat="45.03798" lon="5.88552">
        <ele>2135.868</ele>
        <time>2015-09-06T10:25:26Z</time>
      </trkpt>
      <trkpt lat="45.03799" lon="5.88548">
        <ele>2135.868</ele>
        <time>2015-09-06T10:25:31Z</time>
      </trkpt>
      <trkpt lat="45.03798" lon="5.88534">
        <ele>2138.1353</ele>
        <time>2015-09-06T10:25:41Z</time>
      </trkpt>
      <trkpt lat="45.03797" lon="5.88529">
        <ele>2138.1353</ele>
        <time>2015-09-06T10:25:46Z</time>
      </trkpt>
      <trkpt lat="45.03798" lon="5.88524">
        <ele>2138.1353</ele>
        <time>2015-09-06T10:25:56Z</time>
      </trkpt>
      <trkpt lat="45.03798" lon="5.88517">
        <ele>2140.654</ele>
        <time>2015-09-06T10:26:01Z</time>
      </trkpt>
      <trkpt lat="45.03799" lon="5.88504">
        <ele>2143.257</ele>
        <time>2015-09-06T10:26:11Z</time>
      </trkpt>
      <trkpt lat="45.03798" lon="5.88496">
        <ele>2143.257</ele>
        <time>2015-09-06T10:26:16Z</time>
      </trkpt>
      <trkpt lat="45.03797" lon="5.88479">
        <ele>2145.6445</ele>
        <time>2015-09-06T10:26:26Z</time>
      </trkpt>
      <trkpt lat="45.03796" lon="5.88475">
        <ele>2145.6445</ele>
        <time>2015-09-06T10:26:31Z</time>
      </trkpt>
      <trkpt lat="45.03796" lon="5.88463">
        <ele>2148.1157</ele>
        <time>2015-09-06T10:26:41Z</time>
      </trkpt>
      <trkpt lat="45.03795" lon="5.88456">
        <ele>2148.1157</ele>
        <time>2015-09-06T10:26:46Z</time>
      </trkpt>
      <trkpt lat="45.03791" lon="5.88444">
        <ele>2150.3713</ele>
        <time>2015-09-06T10:26:56Z</time>
      </trkpt>
      <trkpt lat="45.0379" lon="5.88437">
        <ele>2150.3713</ele>
        <time>2015-09-06T10:27:01Z</time>
      </trkpt>
      <trkpt lat="45.03789" lon="5.88427">
        <ele>2152.1345</ele>
        <time>2015-09-06T10:27:16Z</time>
      </trkpt>
      <trkpt lat="45.03788" lon="5.88419">
        <ele>2152.1345</ele>
        <time>2015-09-06T10:27:21Z</time>
      </trkpt>
      <trkpt lat="45.03786" lon="5.88404">
        <ele>2154.0146</ele>
        <time>2015-09-06T10:27:31Z</time>
      </trkpt>
      <trkpt lat="45.03786" lon="5.88401">
        <ele>2154.0146</ele>
        <time>2015-09-06T10:27:36Z</time>
      </trkpt>
      <trkpt lat="45.03785" lon="5.88388">
        <ele>2155.1348</ele>
        <time>2015-09-06T10:27:46Z</time>
      </trkpt>
      <trkpt lat="45.03785" lon="5.88377">
        <ele>2155.1348</ele>
        <time>2015-09-06T10:27:51Z</time>
      </trkpt>
      <trkpt lat="45.03783" lon="5.88366">
        <ele>2156.2705</ele>
        <time>2015-09-06T10:28:01Z</time>
      </trkpt>
      <trkpt lat="45.03783" lon="5.8836">
        <ele>2156.2705</ele>
        <time>2015-09-06T10:28:06Z</time>
      </trkpt>
      <trkpt lat="45.03787" lon="5.88347">
        <ele>2156.4102</ele>
        <time>2015-09-06T10:28:16Z</time>
      </trkpt>
      <trkpt lat="45.03787" lon="5.88341">
        <ele>2156.4102</ele>
        <time>2015-09-06T10:28:21Z</time>
      </trkpt>
      <trkpt lat="45.03785" lon="5.88337">
        <ele>2156.4102</ele>
        <time>2015-09-06T10:28:31Z</time>
      </trkpt>
      <trkpt lat="45.03785" lon="5.88337">
        <ele>2156.4102</ele>
        <time>2015-09-06T10:28:36Z</time>
      </trkpt>
      <trkpt lat="45.03786" lon="5.88336">
        <ele>2156.4102</ele>
        <time>2015-09-06T10:28:51Z</time>
      </trkpt>
      <trkpt lat="45.03787" lon="5.88336">
        <ele>2156.2046</ele>
        <time>2015-09-06T10:28:56Z</time>
      </trkpt>
      <trkpt lat="45.03786" lon="5.88325">
        <ele>2156.2046</ele>
        <time>2015-09-06T10:29:06Z</time>
      </trkpt>
      <trkpt lat="45.03784" lon="5.88316">
        <ele>2155.3938</ele>
        <time>2015-09-06T10:29:11Z</time>
      </trkpt>
      <trkpt lat="45.03781" lon="5.88299">
        <ele>2155.035</ele>
        <time>2015-09-06T10:29:21Z</time>
      </trkpt>
      <trkpt lat="45.0378" lon="5.88291">
        <ele>2155.035</ele>
        <time>2015-09-06T10:29:26Z</time>
      </trkpt>
      <trkpt lat="45.03779" lon="5.88275">
        <ele>2154.521</ele>
        <time>2015-09-06T10:29:36Z</time>
      </trkpt>
      <trkpt lat="45.03779" lon="5.88266">
        <ele>2154.521</ele>
        <time>2015-09-06T10:29:41Z</time>
      </trkpt>
      <trkpt lat="45.03781" lon="5.88253">
        <ele>2154.1548</ele>
        <time>2015-09-06T10:29:51Z</time>
      </trkpt>
      <trkpt lat="45.03781" lon="5.88246">
        <ele>2154.1548</ele>
        <time>2015-09-06T10:29:56Z</time>
      </trkpt>
      <trkpt lat="45.03785" lon="5.88231">
        <ele>2153.6401</ele>
        <time>2015-09-06T10:30:06Z</time>
      </trkpt>
      <trkpt lat="45.03786" lon="5.88227">
        <ele>2153.6401</ele>
        <time>2015-09-06T10:30:11Z</time>
      </trkpt>
      <trkpt lat="45.03792" lon="5.88209">
        <ele>2152.991</ele>
        <time>2015-09-06T10:30:21Z</time>
      </trkpt>
      <trkpt lat="45.03792" lon="5.88206">
        <ele>2152.991</ele>
        <time>2015-09-06T10:30:26Z</time>
      </trkpt>
      <trkpt lat="45.03793" lon="5.88193">
        <ele>2152.797</ele>
        <time>2015-09-06T10:30:36Z</time>
      </trkpt>
      <trkpt lat="45.03795" lon="5.88189">
        <ele>2152.797</ele>
        <time>2015-09-06T10:30:41Z</time>
      </trkpt>
      <trkpt lat="45.03799" lon="5.88184">
        <ele>2152.797</ele>
        <time>2015-09-06T10:30:51Z</time>
      </trkpt>
      <trkpt lat="45.03798" lon="5.88189">
        <ele>2152.307</ele>
        <time>2015-09-06T10:30:56Z</time>
      </trkpt>
      <trkpt lat="45.03798" lon="5.88208">
        <ele>2151.833</ele>
        <time>2015-09-06T10:31:06Z</time>
      </trkpt>
      <trkpt lat="45.03798" lon="5.88204">
        <ele>2151.833</ele>
        <time>2015-09-06T10:31:11Z</time>
      </trkpt>
      <trkpt lat="45.03795" lon="5.88216">
        <ele>2150.9446</ele>
        <time>2015-09-06T10:31:21Z</time>
      </trkpt>
      <trkpt lat="45.03795" lon="5.8822">
        <ele>2150.9446</ele>
        <time>2015-09-06T10:31:26Z</time>
      </trkpt>
      <trkpt lat="45.03788" lon="5.88244">
        <ele>2150.541</ele>
        <time>2015-09-06T10:31:36Z</time>
      </trkpt>
      <trkpt lat="45.0379" lon="5.88242">
        <ele>2150.541</ele>
        <time>2015-09-06T10:31:41Z</time>
      </trkpt>
      <trkpt lat="45.03789" lon="5.88258">
        <ele>2149.8687</ele>
        <time>2015-09-06T10:31:51Z</time>
      </trkpt>
      <trkpt lat="45.03789" lon="5.88269">
        <ele>2149.8687</ele>
        <time>2015-09-06T10:31:56Z</time>
      </trkpt>
      <trkpt lat="45.03788" lon="5.88287">
        <ele>2149.5264</ele>
        <time>2015-09-06T10:32:11Z</time>
      </trkpt>
      <trkpt lat="45.03787" lon="5.88293">
        <ele>2149.5264</ele>
        <time>2015-09-06T10:32:16Z</time>
      </trkpt>
      <trkpt lat="45.03792" lon="5.88312">
        <ele>2149.2043</ele>
        <time>2015-09-06T10:32:26Z</time>
      </trkpt>
      <trkpt lat="45.03791" lon="5.88317">
        <ele>2149.2043</ele>
        <time>2015-09-06T10:32:31Z</time>
      </trkpt>
      <trkpt lat="45.03796" lon="5.88325">
        <ele>2148.6145</ele>
        <time>2015-09-06T10:32:41Z</time>
      </trkpt>
      <trkpt lat="45.03798" lon="5.88332">
        <ele>2148.6145</ele>
        <time>2015-09-06T10:32:46Z</time>
      </trkpt>
      <trkpt lat="45.03802" lon="5.88342">
        <ele>2148.7883</ele>
        <time>2015-09-06T10:32:56Z</time>
      </trkpt>
      <trkpt lat="45.03806" lon="5.88348">
        <ele>2148.7883</ele>
        <time>2015-09-06T10:33:01Z</time>
      </trkpt>
      <trkpt lat="45.03809" lon="5.88356">
        <ele>2149.2378</ele>
        <time>2015-09-06T10:33:11Z</time>
      </trkpt>
      <trkpt lat="45.03811" lon="5.88361">
        <ele>2149.2378</ele>
        <time>2015-09-06T10:33:16Z</time>
      </trkpt>
      <trkpt lat="45.03814" lon="5.88374">
        <ele>2150.3745</ele>
        <time>2015-09-06T10:33:26Z</time>
      </trkpt>
      <trkpt lat="45.03815" lon="5.88381">
        <ele>2150.3745</ele>
        <time>2015-09-06T10:33:31Z</time>
      </trkpt>
      <trkpt lat="45.0382" lon="5.88395">
        <ele>2152.0015</ele>
        <time>2015-09-06T10:33:46Z</time>
      </trkpt>
      <trkpt lat="45.03823" lon="5.88397">
        <ele>2152.0015</ele>
        <time>2015-09-06T10:33:51Z</time>
      </trkpt>
      <trkpt lat="45.03827" lon="5.88405">
        <ele>2154.0793</ele>
        <time>2015-09-06T10:34:01Z</time>
      </trkpt>
      <trkpt lat="45.03829" lon="5.88412">
        <ele>2154.0793</ele>
        <time>2015-09-06T10:34:06Z</time>
      </trkpt>
      <trkpt lat="45.03833" lon="5.88422">
        <ele>2156.4253</ele>
        <time>2015-09-06T10:34:16Z</time>
      </trkpt>
      <trkpt lat="45.03835" lon="5.88425">
        <ele>2156.4253</ele>
        <time>2015-09-06T10:34:21Z</time>
      </trkpt>
      <trkpt lat="45.03842" lon="5.8843">
        <ele>2158.1494</ele>
        <time>2015-09-06T10:34:31Z</time>
      </trkpt>
      <trkpt lat="45.03853" lon="5.88435">
        <ele>2159.8696</ele>
        <time>2015-09-06T10:34:36Z</time>
      </trkpt>
      <trkpt lat="45.03857" lon="5.88446">
        <ele>2159.8696</ele>
        <time>2015-09-06T10:34:46Z</time>
      </trkpt>
      <trkpt lat="45.03859" lon="5.88451">
        <ele>2162.1584</ele>
        <time>2015-09-06T10:34:51Z</time>
      </trkpt>
      <trkpt lat="45.03857" lon="5.88454">
        <ele>2162.1584</ele>
        <time>2015-09-06T10:35:01Z</time>
      </trkpt>
      <trkpt lat="45.03859" lon="5.88459">
        <ele>2162.1584</ele>
        <time>2015-09-06T10:35:06Z</time>
      </trkpt>
      <trkpt lat="45.03862" lon="5.8846">
        <ele>2162.1584</ele>
        <time>2015-09-06T10:35:16Z</time>
      </trkpt>
      <trkpt lat="45.03864" lon="5.88465">
        <ele>2164.5364</ele>
        <time>2015-09-06T10:35:21Z</time>
      </trkpt>
      <trkpt lat="45.03866" lon="5.88477">
        <ele>2164.5364</ele>
        <time>2015-09-06T10:35:36Z</time>
      </trkpt>
      <trkpt lat="45.0387" lon="5.88486">
        <ele>2167.279</ele>
        <time>2015-09-06T10:35:41Z</time>
      </trkpt>
      <trkpt lat="45.03877" lon="5.88492">
        <ele>2167.279</ele>
        <time>2015-09-06T10:35:51Z</time>
      </trkpt>
      <trkpt lat="45.03879" lon="5.88496">
        <ele>2170.4968</ele>
        <time>2015-09-06T10:35:56Z</time>
      </trkpt>
      <trkpt lat="45.03887" lon="5.88503">
        <ele>2173.7146</ele>
        <time>2015-09-06T10:36:06Z</time>
      </trkpt>
      <trkpt lat="45.03886" lon="5.88504">
        <ele>2173.7146</ele>
        <time>2015-09-06T10:36:11Z</time>
      </trkpt>
      <trkpt lat="45.03888" lon="5.88512">
        <ele>2173.7146</ele>
        <time>2015-09-06T10:36:21Z</time>
      </trkpt>
      <trkpt lat="45.03889" lon="5.88511">
        <ele>2173.7146</ele>
        <time>2015-09-06T10:36:26Z</time>
      </trkpt>
      <trkpt lat="45.03889" lon="5.88511">
        <ele>2173.7146</ele>
        <time>2015-09-06T10:36:36Z</time>
      </trkpt>
      <trkpt lat="45.0389" lon="5.88514">
        <ele>2177.3567</ele>
        <time>2015-09-06T10:36:41Z</time>
      </trkpt>
      <trkpt lat="45.03893" lon="5.88522">
        <ele>2177.3567</ele>
        <time>2015-09-06T10:36:51Z</time>
      </trkpt>
      <trkpt lat="45.03896" lon="5.88526">
        <ele>2180.662</ele>
        <time>2015-09-06T10:36:56Z</time>
      </trkpt>
      <trkpt lat="45.039" lon="5.88535">
        <ele>2180.662</ele>
        <time>2015-09-06T10:37:06Z</time>
      </trkpt>
      <trkpt lat="45.03904" lon="5.88538">
        <ele>2184.3682</ele>
        <time>2015-09-06T10:37:11Z</time>
      </trkpt>
      <trkpt lat="45.03905" lon="5.88543">
        <ele>2184.3682</ele>
        <time>2015-09-06T10:37:21Z</time>
      </trkpt>
      <trkpt lat="45.03912" lon="5.88553">
        <ele>2187.1394</ele>
        <time>2015-09-06T10:37:26Z</time>
      </trkpt>
      <trkpt lat="45.03913" lon="5.88559">
        <ele>2187.1394</ele>
        <time>2015-09-06T10:37:36Z</time>
      </trkpt>
      <trkpt lat="45.03916" lon="5.8856">
        <ele>2187.1394</ele>
        <time>2015-09-06T10:37:41Z</time>
      </trkpt>
      <trkpt lat="45.03916" lon="5.88567">
        <ele>2190.7676</ele>
        <time>2015-09-06T10:37:51Z</time>
      </trkpt>
      <trkpt lat="45.03916" lon="5.88567">
        <ele>2190.7676</ele>
        <time>2015-09-06T10:37:56Z</time>
      </trkpt>
      <trkpt lat="45.03916" lon="5.88568">
        <ele>2190.7676</ele>
        <time>2015-09-06T10:38:06Z</time>
      </trkpt>
      <trkpt lat="45.03922" lon="5.88572">
        <ele>2190.7676</ele>
        <time>2015-09-06T10:38:11Z</time>
      </trkpt>
      <trkpt lat="45.0393" lon="5.8858">
        <ele>2195.1814</ele>
        <time>2015-09-06T10:38:26Z</time>
      </trkpt>
      <trkpt lat="45.0393" lon="5.88579">
        <ele>2195.1814</ele>
        <time>2015-09-06T10:38:31Z</time>
      </trkpt>
      <trkpt lat="45.0393" lon="5.88579">
        <ele>2195.1814</ele>
        <time>2015-09-06T10:38:41Z</time>
      </trkpt>
      <trkpt lat="45.0393" lon="5.8858">
        <ele>2195.1814</ele>
        <time>2015-09-06T10:38:46Z</time>
      </trkpt>
      <trkpt lat="45.03936" lon="5.88587">
        <ele>2195.1814</ele>
        <time>2015-09-06T10:38:56Z</time>
      </trkpt>
      <trkpt lat="45.03937" lon="5.88591">
        <ele>2198.5833</ele>
        <time>2015-09-06T10:39:01Z</time>
      </trkpt>
      <trkpt lat="45.03944" lon="5.88601">
        <ele>2202.0486</ele>
        <time>2015-09-06T10:39:11Z</time>
      </trkpt>
      <trkpt lat="45.03947" lon="5.88606">
        <ele>2202.0486</ele>
        <time>2015-09-06T10:39:16Z</time>
      </trkpt>
      <trkpt lat="45.03952" lon="5.88621">
        <ele>2205.9978</ele>
        <time>2015-09-06T10:39:26Z</time>
      </trkpt>
      <trkpt lat="45.03958" lon="5.8863">
        <ele>2205.9978</ele>
        <time>2015-09-06T10:39:31Z</time>
      </trkpt>
      <trkpt lat="45.03963" lon="5.88635">
        <ele>2209.6663</ele>
        <time>2015-09-06T10:39:41Z</time>
      </trkpt>
      <trkpt lat="45.03964" lon="5.88637">
        <ele>2209.6663</ele>
        <time>2015-09-06T10:39:46Z</time>
      </trkpt>
      <trkpt lat="45.03967" lon="5.88646">
        <ele>2213.211</ele>
        <time>2015-09-06T10:39:56Z</time>
      </trkpt>
      <trkpt lat="45.0397" lon="5.88648">
        <ele>2213.211</ele>
        <time>2015-09-06T10:40:01Z</time>
      </trkpt>
      <trkpt lat="45.03974" lon="5.88652">
        <ele>2213.211</ele>
        <time>2015-09-06T10:40:11Z</time>
      </trkpt>
      <trkpt lat="45.03974" lon="5.88655">
        <ele>2216.6338</ele>
        <time>2015-09-06T10:40:16Z</time>
      </trkpt>
      <trkpt lat="45.03976" lon="5.88658">
        <ele>2216.6338</ele>
        <time>2015-09-06T10:40:26Z</time>
      </trkpt>
      <trkpt lat="45.03977" lon="5.88665">
        <ele>2216.6338</ele>
        <time>2015-09-06T10:40:31Z</time>
      </trkpt>
      <trkpt lat="45.03983" lon="5.88674">
        <ele>2219.3613</ele>
        <time>2015-09-06T10:40:41Z</time>
      </trkpt>
      <trkpt lat="45.03985" lon="5.88676">
        <ele>2219.3613</ele>
        <time>2015-09-06T10:40:46Z</time>
      </trkpt>
      <trkpt lat="45.03986" lon="5.88678">
        <ele>2219.3613</ele>
        <time>2015-09-06T10:40:56Z</time>
      </trkpt>
      <trkpt lat="45.03992" lon="5.88686">
        <ele>2222.1606</ele>
        <time>2015-09-06T10:41:01Z</time>
      </trkpt>
      <trkpt lat="45.04" lon="5.88696">
        <ele>2224.3015</ele>
        <time>2015-09-06T10:41:11Z</time>
      </trkpt>
      <trkpt lat="45.04001" lon="5.88694">
        <ele>2224.3015</ele>
        <time>2015-09-06T10:41:16Z</time>
      </trkpt>
      <trkpt lat="45.04003" lon="5.88702">
        <ele>2224.3015</ele>
        <time>2015-09-06T10:41:31Z</time>
      </trkpt>
      <trkpt lat="45.04013" lon="5.88712">
        <ele>2227.1274</ele>
        <time>2015-09-06T10:41:36Z</time>
      </trkpt>
      <trkpt lat="45.04015" lon="5.88718">
        <ele>2227.1274</ele>
        <time>2015-09-06T10:41:46Z</time>
      </trkpt>
      <trkpt lat="45.04016" lon="5.88718">
        <ele>2227.1274</ele>
        <time>2015-09-06T10:41:51Z</time>
      </trkpt>
      <trkpt lat="45.04021" lon="5.88725">
        <ele>2229.4312</ele>
        <time>2015-09-06T10:42:01Z</time>
      </trkpt>
      <trkpt lat="45.04022" lon="5.88727">
        <ele>2229.4312</ele>
        <time>2015-09-06T10:42:06Z</time>
      </trkpt>
      <trkpt lat="45.04027" lon="5.88736">
        <ele>2231.6812</ele>
        <time>2015-09-06T10:42:16Z</time>
      </trkpt>
      <trkpt lat="45.04032" lon="5.88739">
        <ele>2231.6812</ele>
        <time>2015-09-06T10:42:21Z</time>
      </trkpt>
      <trkpt lat="45.04039" lon="5.88752">
        <ele>2234.3118</ele>
        <time>2015-09-06T10:42:31Z</time>
      </trkpt>
      <trkpt lat="45.04044" lon="5.88755">
        <ele>2234.3118</ele>
        <time>2015-09-06T10:42:36Z</time>
      </trkpt>
      <trkpt lat="45.04053" lon="5.88766">
        <ele>2236.86</ele>
        <time>2015-09-06T10:42:46Z</time>
      </trkpt>
      <trkpt lat="45.04053" lon="5.88769">
        <ele>2236.86</ele>
        <time>2015-09-06T10:42:51Z</time>
      </trkpt>
      <trkpt lat="45.04053" lon="5.88772">
        <ele>2236.86</ele>
        <time>2015-09-06T10:43:01Z</time>
      </trkpt>
      <trkpt lat="45.04054" lon="5.88772">
        <ele>2236.86</ele>
        <time>2015-09-06T10:43:06Z</time>
      </trkpt>
      <trkpt lat="45.04063" lon="5.88789">
        <ele>2240.0505</ele>
        <time>2015-09-06T10:43:16Z</time>
      </trkpt>
      <trkpt lat="45.04068" lon="5.88798">
        <ele>2240.0505</ele>
        <time>2015-09-06T10:43:21Z</time>
      </trkpt>
      <trkpt lat="45.04071" lon="5.88811">
        <ele>2243.2551</ele>
        <time>2015-09-06T10:43:31Z</time>
      </trkpt>
      <trkpt lat="45.04071" lon="5.88814">
        <ele>2243.2551</ele>
        <time>2015-09-06T10:43:36Z</time>
      </trkpt>
      <trkpt lat="45.04074" lon="5.88833">
        <ele>2246.3252</ele>
        <time>2015-09-06T10:43:51Z</time>
      </trkpt>
      <trkpt lat="45.04075" lon="5.88839">
        <ele>2246.3252</ele>
        <time>2015-09-06T10:43:56Z</time>
      </trkpt>
      <trkpt lat="45.04077" lon="5.88851">
        <ele>2248.835</ele>
        <time>2015-09-06T10:44:06Z</time>
      </trkpt>
      <trkpt lat="45.04077" lon="5.88853">
        <ele>2248.835</ele>
        <time>2015-09-06T10:44:11Z</time>
      </trkpt>
      <trkpt lat="45.04078" lon="5.88864">
        <ele>2250.9683</ele>
        <time>2015-09-06T10:44:21Z</time>
      </trkpt>
      <trkpt lat="45.0408" lon="5.88871">
        <ele>2250.9683</ele>
        <time>2015-09-06T10:44:26Z</time>
      </trkpt>
      <trkpt lat="45.04082" lon="5.88895">
        <ele>2253.3286</ele>
        <time>2015-09-06T10:44:36Z</time>
      </trkpt>
      <trkpt lat="45.04083" lon="5.88902">
        <ele>2253.3286</ele>
        <time>2015-09-06T10:44:41Z</time>
      </trkpt>
      <trkpt lat="45.04081" lon="5.88918">
        <ele>2255.4666</ele>
        <time>2015-09-06T10:44:51Z</time>
      </trkpt>
      <trkpt lat="45.04082" lon="5.88926">
        <ele>2255.4666</ele>
        <time>2015-09-06T10:44:56Z</time>
      </trkpt>
      <trkpt lat="45.04082" lon="5.88941">
        <ele>2257.3982</ele>
        <time>2015-09-06T10:45:06Z</time>
      </trkpt>
      <trkpt lat="45.0408" lon="5.8894">
        <ele>2257.3982</ele>
        <time>2015-09-06T10:45:11Z</time>
      </trkpt>
      <trkpt lat="45.04081" lon="5.88944">
        <ele>2257.3982</ele>
        <time>2015-09-06T10:45:21Z</time>
      </trkpt>
      <trkpt lat="45.04083" lon="5.88959">
        <ele>2258.995</ele>
        <time>2015-09-06T10:45:26Z</time>
      </trkpt>
      <trkpt lat="45.0408" lon="5.88966">
        <ele>2258.995</ele>
        <time>2015-09-06T10:45:36Z</time>
      </trkpt>
      <trkpt lat="45.04081" lon="5.88978">
        <ele>2260.5723</ele>
        <time>2015-09-06T10:45:41Z</time>
      </trkpt>
      <trkpt lat="45.04078" lon="5.88997">
        <ele>2261.7002</ele>
        <time>2015-09-06T10:45:56Z</time>
      </trkpt>
      <trkpt lat="45.04078" lon="5.89003">
        <ele>2261.7002</ele>
        <time>2015-09-06T10:46:01Z</time>
      </trkpt>
      <trkpt lat="45.04077" lon="5.89016">
        <ele>2262.9917</ele>
        <time>2015-09-06T10:46:11Z</time>
      </trkpt>
      <trkpt lat="45.04077" lon="5.89021">
        <ele>2262.9917</ele>
        <time>2015-09-06T10:46:16Z</time>
      </trkpt>
      <trkpt lat="45.04076" lon="5.89033">
        <ele>2264.8704</ele>
        <time>2015-09-06T10:46:26Z</time>
      </trkpt>
      <trkpt lat="45.04076" lon="5.89042">
        <ele>2264.8704</ele>
        <time>2015-09-06T10:46:31Z</time>
      </trkpt>
      <trkpt lat="45.04074" lon="5.89052">
        <ele>2266.7173</ele>
        <time>2015-09-06T10:46:41Z</time>
      </trkpt>
      <trkpt lat="45.04076" lon="5.89063">
        <ele>2266.7173</ele>
        <time>2015-09-06T10:46:46Z</time>
      </trkpt>
      <trkpt lat="45.04073" lon="5.89079">
        <ele>2267.8162</ele>
        <time>2015-09-06T10:46:56Z</time>
      </trkpt>
      <trkpt lat="45.04076" lon="5.89087">
        <ele>2267.8162</ele>
        <time>2015-09-06T10:47:01Z</time>
      </trkpt>
      <trkpt lat="45.04066" lon="5.89094">
        <ele>2268.8015</ele>
        <time>2015-09-06T10:47:11Z</time>
      </trkpt>
      <trkpt lat="45.04061" lon="5.89099">
        <ele>2268.8015</ele>
        <time>2015-09-06T10:47:16Z</time>
      </trkpt>
      <trkpt lat="45.04061" lon="5.89106">
        <ele>2270.1182</ele>
        <time>2015-09-06T10:47:26Z</time>
      </trkpt>
      <trkpt lat="45.04058" lon="5.89107">
        <ele>2270.1182</ele>
        <time>2015-09-06T10:47:31Z</time>
      </trkpt>
      <trkpt lat="45.0406" lon="5.89119">
        <ele>2270.88</ele>
        <time>2015-09-06T10:47:41Z</time>
      </trkpt>
      <trkpt lat="45.04059" lon="5.89119">
        <ele>2270.88</ele>
        <time>2015-09-06T10:47:46Z</time>
      </trkpt>
      <trkpt lat="45.04056" lon="5.89129">
        <ele>2271.997</ele>
        <time>2015-09-06T10:47:56Z</time>
      </trkpt>
      <trkpt lat="45.04052" lon="5.89129">
        <ele>2271.997</ele>
        <time>2015-09-06T10:48:01Z</time>
      </trkpt>
      <trkpt lat="45.04042" lon="5.89148">
        <ele>2273.3025</ele>
        <time>2015-09-06T10:48:16Z</time>
      </trkpt>
      <trkpt lat="45.04038" lon="5.89162">
        <ele>2274.4973</ele>
        <time>2015-09-06T10:48:21Z</time>
      </trkpt>
      <trkpt lat="45.04029" lon="5.8916">
        <ele>2274.4973</ele>
        <time>2015-09-06T10:48:31Z</time>
      </trkpt>
      <trkpt lat="45.04029" lon="5.8916">
        <ele>2275.8813</ele>
        <time>2015-09-06T10:48:36Z</time>
      </trkpt>
      <trkpt lat="45.04022" lon="5.8917">
        <ele>2277.0107</ele>
        <time>2015-09-06T10:48:46Z</time>
      </trkpt>
      <trkpt lat="45.0402" lon="5.89176">
        <ele>2277.0107</ele>
        <time>2015-09-06T10:48:51Z</time>
      </trkpt>
      <trkpt lat="45.04017" lon="5.89188">
        <ele>2278.6284</ele>
        <time>2015-09-06T10:49:01Z</time>
      </trkpt>
      <trkpt lat="45.04015" lon="5.89194">
        <ele>2278.6284</ele>
        <time>2015-09-06T10:49:06Z</time>
      </trkpt>
      <trkpt lat="45.04013" lon="5.89193">
        <ele>2278.6284</ele>
        <time>2015-09-06T10:49:16Z</time>
      </trkpt>
      <trkpt lat="45.0401" lon="5.89196">
        <ele>2279.9797</ele>
        <time>2015-09-06T10:49:21Z</time>
      </trkpt>
      <trkpt lat="45.04007" lon="5.89201">
        <ele>2279.9797</ele>
        <time>2015-09-06T10:49:31Z</time>
      </trkpt>
      <trkpt lat="45.04005" lon="5.89203">
        <ele>2279.9797</ele>
        <time>2015-09-06T10:49:36Z</time>
      </trkpt>
      <trkpt lat="45.04002" lon="5.89215">
        <ele>2280.5107</ele>
        <time>2015-09-06T10:49:51Z</time>
      </trkpt>
      <trkpt lat="45.03997" lon="5.89215">
        <ele>2280.5107</ele>
        <time>2015-09-06T10:49:56Z</time>
      </trkpt>
      <trkpt lat="45.03996" lon="5.89218">
        <ele>2280.5107</ele>
        <time>2015-09-06T10:50:06Z</time>
      </trkpt>
      <trkpt lat="45.03995" lon="5.89221">
        <ele>2281.4392</ele>
        <time>2015-09-06T10:50:11Z</time>
      </trkpt>
      <trkpt lat="45.03995" lon="5.89222">
        <ele>2281.4392</ele>
        <time>2015-09-06T10:50:21Z</time>
      </trkpt>
      <trkpt lat="45.03995" lon="5.89222">
        <ele>2281.4392</ele>
        <time>2015-09-06T10:50:26Z</time>
      </trkpt>
      <trkpt lat="45.03986" lon="5.89229">
        <ele>2282.019</ele>
        <time>2015-09-06T10:50:36Z</time>
      </trkpt>
      <trkpt lat="45.03981" lon="5.89243">
        <ele>2283.722</ele>
        <time>2015-09-06T10:50:41Z</time>
      </trkpt>
      <trkpt lat="45.03972" lon="5.89254">
        <ele>2285.4578</ele>
        <time>2015-09-06T10:50:51Z</time>
      </trkpt>
      <trkpt lat="45.03969" lon="5.89258">
        <ele>2285.4578</ele>
        <time>2015-09-06T10:50:56Z</time>
      </trkpt>
      <trkpt lat="45.03969" lon="5.89271">
        <ele>2287.5137</ele>
        <time>2015-09-06T10:51:06Z</time>
      </trkpt>
      <trkpt lat="45.03967" lon="5.89278">
        <ele>2287.5137</ele>
        <time>2015-09-06T10:51:11Z</time>
      </trkpt>
      <trkpt lat="45.03963" lon="5.89279">
        <ele>2288.8577</ele>
        <time>2015-09-06T10:51:21Z</time>
      </trkpt>
      <trkpt lat="45.03962" lon="5.8928">
        <ele>2288.8577</ele>
        <time>2015-09-06T10:51:26Z</time>
      </trkpt>
      <trkpt lat="45.03962" lon="5.89283">
        <ele>2288.8577</ele>
        <time>2015-09-06T10:51:36Z</time>
      </trkpt>
      <trkpt lat="45.03963" lon="5.89283">
        <ele>2288.8577</ele>
        <time>2015-09-06T10:51:41Z</time>
      </trkpt>
      <trkpt lat="45.03962" lon="5.8929">
        <ele>2288.8577</ele>
        <time>2015-09-06T10:51:56Z</time>
      </trkpt>
      <trkpt lat="45.03962" lon="5.89291">
        <ele>2288.8577</ele>
        <time>2015-09-06T10:52:01Z</time>
      </trkpt>
      <trkpt lat="45.03962" lon="5.89291">
        <ele>2288.8577</ele>
        <time>2015-09-06T10:52:11Z</time>
      </trkpt>
      <trkpt lat="45.03962" lon="5.89291">
        <ele>2288.8577</ele>
        <time>2015-09-06T10:52:16Z</time>
      </trkpt>
      <trkpt lat="45.03962" lon="5.89291">
        <ele>2288.8577</ele>
        <time>2015-09-06T10:52:26Z</time>
      </trkpt>
      <trkpt lat="45.03962" lon="5.89291">
        <ele>2288.8577</ele>
        <time>2015-09-06T10:52:31Z</time>
      </trkpt>
      <trkpt lat="45.03962" lon="5.89291">
        <ele>2288.8577</ele>
        <time>2015-09-06T10:52:41Z</time>
      </trkpt>
      <trkpt lat="45.03962" lon="5.89291">
        <ele>2288.8577</ele>
        <time>2015-09-06T10:52:46Z</time>
      </trkpt>
      <trkpt lat="45.03962" lon="5.89291">
        <ele>2288.8577</ele>
        <time>2015-09-06T10:52:56Z</time>
      </trkpt>
      <trkpt lat="45.03962" lon="5.89291">
        <ele>2288.8577</ele>
        <time>2015-09-06T10:53:01Z</time>
      </trkpt>
      <trkpt lat="45.03962" lon="5.89291">
        <ele>2288.8577</ele>
        <time>2015-09-06T10:53:11Z</time>
      </trkpt>
      <trkpt lat="45.03962" lon="5.89291">
        <ele>2288.8577</ele>
        <time>2015-09-06T10:53:16Z</time>
      </trkpt>
      <trkpt lat="45.03962" lon="5.89291">
        <ele>2288.8577</ele>
        <time>2015-09-06T10:53:26Z</time>
      </trkpt>
      <trkpt lat="45.03962" lon="5.89291">
        <ele>2288.8577</ele>
        <time>2015-09-06T10:53:31Z</time>
      </trkpt>
      <trkpt lat="45.03962" lon="5.89291">
        <ele>2288.8577</ele>
        <time>2015-09-06T10:53:41Z</time>
      </trkpt>
      <trkpt lat="45.03962" lon="5.89291">
        <ele>2288.8577</ele>
        <time>2015-09-06T10:53:46Z</time>
      </trkpt>
      <trkpt lat="45.03962" lon="5.89291">
        <ele>2288.8577</ele>
        <time>2015-09-06T10:53:56Z</time>
      </trkpt>
      <trkpt lat="45.03962" lon="5.89291">
        <ele>2288.8577</ele>
        <time>2015-09-06T10:54:01Z</time>
      </trkpt>
      <trkpt lat="45.03962" lon="5.89291">
        <ele>2288.8577</ele>
        <time>2015-09-06T10:54:16Z</time>
      </trkpt>
      <trkpt lat="45.03962" lon="5.89291">
        <ele>2288.8577</ele>
        <time>2015-09-06T10:54:21Z</time>
      </trkpt>
      <trkpt lat="45.03962" lon="5.89291">
        <ele>2288.8577</ele>
        <time>2015-09-06T10:54:31Z</time>
      </trkpt>
      <trkpt lat="45.03962" lon="5.89291">
        <ele>2288.8577</ele>
        <time>2015-09-06T10:54:36Z</time>
      </trkpt>
      <trkpt lat="45.03962" lon="5.89291">
        <ele>2288.8577</ele>
        <time>2015-09-06T10:54:46Z</time>
      </trkpt>
      <trkpt lat="45.03962" lon="5.89291">
        <ele>2288.8577</ele>
        <time>2015-09-06T10:54:51Z</time>
      </trkpt>
      <trkpt lat="45.03962" lon="5.89291">
        <ele>2288.8577</ele>
        <time>2015-09-06T10:55:01Z</time>
      </trkpt>
      <trkpt lat="45.03962" lon="5.89291">
        <ele>2288.8577</ele>
        <time>2015-09-06T10:55:06Z</time>
      </trkpt>
      <trkpt lat="45.03962" lon="5.89291">
        <ele>2288.8577</ele>
        <time>2015-09-06T10:55:16Z</time>
      </trkpt>
      <trkpt lat="45.03962" lon="5.89291">
        <ele>2288.8577</ele>
        <time>2015-09-06T10:55:21Z</time>
      </trkpt>
      <trkpt lat="45.03958" lon="5.89286">
        <ele>2290.985</ele>
        <time>2015-09-06T10:55:31Z</time>
      </trkpt>
      <trkpt lat="45.03961" lon="5.89293">
        <ele>2290.985</ele>
        <time>2015-09-06T10:55:36Z</time>
      </trkpt>
      <trkpt lat="45.03963" lon="5.89292">
        <ele>2290.985</ele>
        <time>2015-09-06T10:55:46Z</time>
      </trkpt>
      <trkpt lat="45.03963" lon="5.89294">
        <ele>2290.985</ele>
        <time>2015-09-06T10:55:51Z</time>
      </trkpt>
      <trkpt lat="45.03962" lon="5.89294">
        <ele>2292.686</ele>
        <time>2015-09-06T10:56:06Z</time>
      </trkpt>
      <trkpt lat="45.03962" lon="5.89294">
        <ele>2292.686</ele>
        <time>2015-09-06T10:56:11Z</time>
      </trkpt>
      <trkpt lat="45.03961" lon="5.89294">
        <ele>2292.686</ele>
        <time>2015-09-06T10:56:21Z</time>
      </trkpt>
      <trkpt lat="45.03961" lon="5.89294">
        <ele>2292.686</ele>
        <time>2015-09-06T10:56:26Z</time>
      </trkpt>
      <trkpt lat="45.03961" lon="5.89294">
        <ele>2292.686</ele>
        <time>2015-09-06T10:56:36Z</time>
      </trkpt>
      <trkpt lat="45.03961" lon="5.89294">
        <ele>2292.686</ele>
        <time>2015-09-06T10:56:41Z</time>
      </trkpt>
      <trkpt lat="45.03962" lon="5.89294">
        <ele>2292.686</ele>
        <time>2015-09-06T10:56:51Z</time>
      </trkpt>
      <trkpt lat="45.03956" lon="5.89308">
        <ele>2293.9922</ele>
        <time>2015-09-06T10:56:56Z</time>
      </trkpt>
      <trkpt lat="45.03948" lon="5.89328">
        <ele>2295.6555</ele>
        <time>2015-09-06T10:57:06Z</time>
      </trkpt>
      <trkpt lat="45.03945" lon="5.89331">
        <ele>2295.6555</ele>
        <time>2015-09-06T10:57:11Z</time>
      </trkpt>
      <trkpt lat="45.03938" lon="5.89335">
        <ele>2298.3716</ele>
        <time>2015-09-06T10:57:21Z</time>
      </trkpt>
      <trkpt lat="45.03939" lon="5.89348">
        <ele>2300.6194</ele>
        <time>2015-09-06T10:57:26Z</time>
      </trkpt>
      <trkpt lat="45.03937" lon="5.89356">
        <ele>2300.6194</ele>
        <time>2015-09-06T10:57:36Z</time>
      </trkpt>
      <trkpt lat="45.03933" lon="5.89368">
        <ele>2302.4333</ele>
        <time>2015-09-06T10:57:41Z</time>
      </trkpt>
      <trkpt lat="45.03934" lon="5.89365">
        <ele>2302.4333</ele>
        <time>2015-09-06T10:57:51Z</time>
      </trkpt>
      <trkpt lat="45.03933" lon="5.89368">
        <ele>2302.4333</ele>
        <time>2015-09-06T10:57:56Z</time>
      </trkpt>
      <trkpt lat="45.03932" lon="5.89369">
        <ele>2302.4333</ele>
        <time>2015-09-06T10:58:11Z</time>
      </trkpt>
      <trkpt lat="45.03932" lon="5.89369">
        <ele>2302.4333</ele>
        <time>2015-09-06T10:58:16Z</time>
      </trkpt>
      <trkpt lat="45.03931" lon="5.89392">
        <ele>2304.2773</ele>
        <time>2015-09-06T10:58:26Z</time>
      </trkpt>
      <trkpt lat="45.03928" lon="5.89408">
        <ele>2306.1501</ele>
        <time>2015-09-06T10:58:31Z</time>
      </trkpt>
      <trkpt lat="45.03929" lon="5.89419">
        <ele>2306.1501</ele>
        <time>2015-09-06T10:58:41Z</time>
      </trkpt>
      <trkpt lat="45.03927" lon="5.89422">
        <ele>2309.2024</ele>
        <time>2015-09-06T10:58:46Z</time>
      </trkpt>
      <trkpt lat="45.03928" lon="5.89432">
        <ele>2309.2024</ele>
        <time>2015-09-06T10:58:56Z</time>
      </trkpt>
      <trkpt lat="45.03925" lon="5.89433">
        <ele>2312.3354</ele>
        <time>2015-09-06T10:59:01Z</time>
      </trkpt>
      <trkpt lat="45.03923" lon="5.89437">
        <ele>2312.3354</ele>
        <time>2015-09-06T10:59:11Z</time>
      </trkpt>
      <trkpt lat="45.03916" lon="5.89442">
        <ele>2315.9724</ele>
        <time>2015-09-06T10:59:16Z</time>
      </trkpt>
      <trkpt lat="45.03915" lon="5.89457">
        <ele>2318.7744</ele>
        <time>2015-09-06T10:59:26Z</time>
      </trkpt>
      <trkpt lat="45.03913" lon="5.8946">
        <ele>2318.7744</ele>
        <time>2015-09-06T10:59:31Z</time>
      </trkpt>
      <trkpt lat="45.03913" lon="5.89471">
        <ele>2321.521</ele>
        <time>2015-09-06T10:59:41Z</time>
      </trkpt>
      <trkpt lat="45.03913" lon="5.8948">
        <ele>2321.521</ele>
        <time>2015-09-06T10:59:46Z</time>
      </trkpt>
      <trkpt lat="45.03909" lon="5.89497">
        <ele>2324.6462</ele>
        <time>2015-09-06T10:59:56Z</time>
      </trkpt>
      <trkpt lat="45.03907" lon="5.89503">
        <ele>2324.6462</ele>
        <time>2015-09-06T11:00:01Z</time>
      </trkpt>
      <trkpt lat="45.03906" lon="5.89513">
        <ele>2327.9746</ele>
        <time>2015-09-06T11:00:11Z</time>
      </trkpt>
      <trkpt lat="45.03901" lon="5.89524">
        <ele>2331.199</ele>
        <time>2015-09-06T11:00:16Z</time>
      </trkpt>
      <trkpt lat="45.039" lon="5.8953">
        <ele>2331.199</ele>
        <time>2015-09-06T11:00:26Z</time>
      </trkpt>
      <trkpt lat="45.03901" lon="5.89536">
        <ele>2331.199</ele>
        <time>2015-09-06T11:00:31Z</time>
      </trkpt>
      <trkpt lat="45.03897" lon="5.89549">
        <ele>2334.0356</ele>
        <time>2015-09-06T11:00:41Z</time>
      </trkpt>
      <trkpt lat="45.03893" lon="5.89556">
        <ele>2334.0356</ele>
        <time>2015-09-06T11:00:46Z</time>
      </trkpt>
      <trkpt lat="45.03899" lon="5.89564">
        <ele>2336.9426</ele>
        <time>2015-09-06T11:00:56Z</time>
      </trkpt>
      <trkpt lat="45.03899" lon="5.89572">
        <ele>2336.9426</ele>
        <time>2015-09-06T11:01:01Z</time>
      </trkpt>
      <trkpt lat="45.03896" lon="5.89587">
        <ele>2339.912</ele>
        <time>2015-09-06T11:01:16Z</time>
      </trkpt>
      <trkpt lat="45.03894" lon="5.89592">
        <ele>2339.912</ele>
        <time>2015-09-06T11:01:21Z</time>
      </trkpt>
      <trkpt lat="45.03897" lon="5.89603">
        <ele>2342.5044</ele>
        <time>2015-09-06T11:01:31Z</time>
      </trkpt>
      <trkpt lat="45.03888" lon="5.89608">
        <ele>2344.3135</ele>
        <time>2015-09-06T11:01:36Z</time>
      </trkpt>
      <trkpt lat="45.03888" lon="5.8962">
        <ele>2344.3135</ele>
        <time>2015-09-06T11:01:46Z</time>
      </trkpt>
      <trkpt lat="45.03891" lon="5.89629">
        <ele>2346.118</ele>
        <time>2015-09-06T11:01:51Z</time>
      </trkpt>
      <trkpt lat="45.03894" lon="5.89643">
        <ele>2347.6306</ele>
        <time>2015-09-06T11:02:01Z</time>
      </trkpt>
      <trkpt lat="45.03893" lon="5.89649">
        <ele>2347.6306</ele>
        <time>2015-09-06T11:02:06Z</time>
      </trkpt>
      <trkpt lat="45.03898" lon="5.89659">
        <ele>2348.8743</ele>
        <time>2015-09-06T11:02:16Z</time>
      </trkpt>
      <trkpt lat="45.03895" lon="5.89664">
        <ele>2348.8743</ele>
        <time>2015-09-06T11:02:21Z</time>
      </trkpt>
      <trkpt lat="45.03888" lon="5.89682">
        <ele>2350.4478</ele>
        <time>2015-09-06T11:02:31Z</time>
      </trkpt>
      <trkpt lat="45.03888" lon="5.89689">
        <ele>2350.4478</ele>
        <time>2015-09-06T11:02:36Z</time>
      </trkpt>
      <trkpt lat="45.0388" lon="5.89708">
        <ele>2351.1753</ele>
        <time>2015-09-06T11:02:51Z</time>
      </trkpt>
      <trkpt lat="45.03874" lon="5.89712">
        <ele>2351.1753</ele>
        <time>2015-09-06T11:02:56Z</time>
      </trkpt>
      <trkpt lat="45.03867" lon="5.89716">
        <ele>2352.996</ele>
        <time>2015-09-06T11:03:06Z</time>
      </trkpt>
      <trkpt lat="45.03853" lon="5.89726">
        <ele>2354.1013</ele>
        <time>2015-09-06T11:03:11Z</time>
      </trkpt>
      <trkpt lat="45.03849" lon="5.89734">
        <ele>2354.1013</ele>
        <time>2015-09-06T11:03:21Z</time>
      </trkpt>
      <trkpt lat="45.03853" lon="5.89744">
        <ele>2354.4026</ele>
        <time>2015-09-06T11:03:26Z</time>
      </trkpt>
      <trkpt lat="45.03851" lon="5.89763">
        <ele>2353.6753</ele>
        <time>2015-09-06T11:03:36Z</time>
      </trkpt>
      <trkpt lat="45.03847" lon="5.89763">
        <ele>2353.6753</ele>
        <time>2015-09-06T11:03:41Z</time>
      </trkpt>
      <trkpt lat="45.03827" lon="5.8977">
        <ele>2353.8765</ele>
        <time>2015-09-06T11:03:51Z</time>
      </trkpt>
      <trkpt lat="45.03825" lon="5.89776">
        <ele>2353.8765</ele>
        <time>2015-09-06T11:03:56Z</time>
      </trkpt>
      <trkpt lat="45.03821" lon="5.89783">
        <ele>2353.9343</ele>
        <time>2015-09-06T11:04:06Z</time>
      </trkpt>
      <trkpt lat="45.03819" lon="5.89783">
        <ele>2353.9343</ele>
        <time>2015-09-06T11:04:11Z</time>
      </trkpt>
      <trkpt lat="45.03804" lon="5.89792">
        <ele>2353.8652</ele>
        <time>2015-09-06T11:04:21Z</time>
      </trkpt>
      <trkpt lat="45.03797" lon="5.89791">
        <ele>2353.8652</ele>
        <time>2015-09-06T11:04:26Z</time>
      </trkpt>
      <trkpt lat="45.03796" lon="5.89801">
        <ele>2353.396</ele>
        <time>2015-09-06T11:04:36Z</time>
      </trkpt>
      <trkpt lat="45.03797" lon="5.8981">
        <ele>2353.396</ele>
        <time>2015-09-06T11:04:41Z</time>
      </trkpt>
      <trkpt lat="45.03791" lon="5.89818">
        <ele>2353.4275</ele>
        <time>2015-09-06T11:04:51Z</time>
      </trkpt>
      <trkpt lat="45.0379" lon="5.89821">
        <ele>2353.4275</ele>
        <time>2015-09-06T11:04:56Z</time>
      </trkpt>
      <trkpt lat="45.03784" lon="5.89839">
        <ele>2353.9285</ele>
        <time>2015-09-06T11:05:11Z</time>
      </trkpt>
      <trkpt lat="45.03781" lon="5.89845">
        <ele>2353.9285</ele>
        <time>2015-09-06T11:05:16Z</time>
      </trkpt>
      <trkpt lat="45.03799" lon="5.89863">
        <ele>2354.436</ele>
        <time>2015-09-06T11:05:26Z</time>
      </trkpt>
      <trkpt lat="45.03791" lon="5.8986">
        <ele>2354.436</ele>
        <time>2015-09-06T11:05:31Z</time>
      </trkpt>
      <trkpt lat="45.03785" lon="5.89863">
        <ele>2355.53</ele>
        <time>2015-09-06T11:05:41Z</time>
      </trkpt>
      <trkpt lat="45.03786" lon="5.89861">
        <ele>2355.53</ele>
        <time>2015-09-06T11:05:46Z</time>
      </trkpt>
      <trkpt lat="45.03784" lon="5.89864">
        <ele>2355.53</ele>
        <time>2015-09-06T11:05:56Z</time>
      </trkpt>
      <trkpt lat="45.03783" lon="5.89864">
        <ele>2355.53</ele>
        <time>2015-09-06T11:06:01Z</time>
      </trkpt>
      <trkpt lat="45.03783" lon="5.89864">
        <ele>2355.53</ele>
        <time>2015-09-06T11:06:11Z</time>
      </trkpt>
      <trkpt lat="45.03783" lon="5.89864">
        <ele>2355.53</ele>
        <time>2015-09-06T11:06:16Z</time>
      </trkpt>
      <trkpt lat="45.03783" lon="5.89864">
        <ele>2355.53</ele>
        <time>2015-09-06T11:06:31Z</time>
      </trkpt>
      <trkpt lat="45.03783" lon="5.89864">
        <ele>2355.53</ele>
        <time>2015-09-06T11:06:36Z</time>
      </trkpt>
      <trkpt lat="45.03783" lon="5.89864">
        <ele>2355.53</ele>
        <time>2015-09-06T11:06:46Z</time>
      </trkpt>
      <trkpt lat="45.03783" lon="5.89864">
        <ele>2355.53</ele>
        <time>2015-09-06T11:06:51Z</time>
      </trkpt>
      <trkpt lat="45.03783" lon="5.89864">
        <ele>2355.53</ele>
        <time>2015-09-06T11:07:01Z</time>
      </trkpt>
      <trkpt lat="45.03783" lon="5.89864">
        <ele>2355.53</ele>
        <time>2015-09-06T11:07:06Z</time>
      </trkpt>
      <trkpt lat="45.03783" lon="5.89864">
        <ele>2355.53</ele>
        <time>2015-09-06T11:07:16Z</time>
      </trkpt>
      <trkpt lat="45.03783" lon="5.89864">
        <ele>2355.53</ele>
        <time>2015-09-06T11:07:21Z</time>
      </trkpt>
      <trkpt lat="45.03783" lon="5.89864">
        <ele>2355.53</ele>
        <time>2015-09-06T11:07:31Z</time>
      </trkpt>
      <trkpt lat="45.03783" lon="5.89865">
        <ele>2355.53</ele>
        <time>2015-09-06T11:07:36Z</time>
      </trkpt>
      <trkpt lat="45.03782" lon="5.89871">
        <ele>2356.7375</ele>
        <time>2015-09-06T11:07:46Z</time>
      </trkpt>
      <trkpt lat="45.03776" lon="5.89883">
        <ele>2357.3308</ele>
        <time>2015-09-06T11:07:51Z</time>
      </trkpt>
      <trkpt lat="45.03765" lon="5.89904">
        <ele>2358.2231</ele>
        <time>2015-09-06T11:08:01Z</time>
      </trkpt>
      <trkpt lat="45.03757" lon="5.89913">
        <ele>2359.9717</ele>
        <time>2015-09-06T11:08:06Z</time>
      </trkpt>
      <trkpt lat="45.03748" lon="5.89916">
        <ele>2359.9717</ele>
        <time>2015-09-06T11:08:16Z</time>
      </trkpt>
      <trkpt lat="45.03744" lon="5.89918">
        <ele>2362.2246</ele>
        <time>2015-09-06T11:08:21Z</time>
      </trkpt>
      <trkpt lat="45.03733" lon="5.89921">
        <ele>2364.3672</ele>
        <time>2015-09-06T11:08:31Z</time>
      </trkpt>
      <trkpt lat="45.03731" lon="5.89924">
        <ele>2364.3672</ele>
        <time>2015-09-06T11:08:36Z</time>
      </trkpt>
      <trkpt lat="45.03724" lon="5.89932">
        <ele>2366.8384</ele>
        <time>2015-09-06T11:08:51Z</time>
      </trkpt>
      <trkpt lat="45.03719" lon="5.89931">
        <ele>2366.8384</ele>
        <time>2015-09-06T11:08:56Z</time>
      </trkpt>
      <trkpt lat="45.03715" lon="5.89936">
        <ele>2368.891</ele>
        <time>2015-09-06T11:09:06Z</time>
      </trkpt>
      <trkpt lat="45.03709" lon="5.89936">
        <ele>2368.891</ele>
        <time>2015-09-06T11:09:11Z</time>
      </trkpt>
      <trkpt lat="45.03708" lon="5.89946">
        <ele>2370.4106</ele>
        <time>2015-09-06T11:09:21Z</time>
      </trkpt>
      <trkpt lat="45.03704" lon="5.89948">
        <ele>2370.4106</ele>
        <time>2015-09-06T11:09:26Z</time>
      </trkpt>
      <trkpt lat="45.03697" lon="5.89946">
        <ele>2371.7244</ele>
        <time>2015-09-06T11:09:36Z</time>
      </trkpt>
      <trkpt lat="45.03693" lon="5.89949">
        <ele>2371.7244</ele>
        <time>2015-09-06T11:09:41Z</time>
      </trkpt>
      <trkpt lat="45.03686" lon="5.89954">
        <ele>2372.8481</ele>
        <time>2015-09-06T11:09:51Z</time>
      </trkpt>
      <trkpt lat="45.03686" lon="5.89954">
        <ele>2372.8481</ele>
        <time>2015-09-06T11:09:56Z</time>
      </trkpt>
      <trkpt lat="45.03686" lon="5.89954">
        <ele>2372.8481</ele>
        <time>2015-09-06T11:10:06Z</time>
      </trkpt>
      <trkpt lat="45.03685" lon="5.89954">
        <ele>2372.8481</ele>
        <time>2015-09-06T11:10:11Z</time>
      </trkpt>
      <trkpt lat="45.03685" lon="5.89954">
        <ele>2372.8481</ele>
        <time>2015-09-06T11:10:26Z</time>
      </trkpt>
      <trkpt lat="45.03685" lon="5.89954">
        <ele>2372.8481</ele>
        <time>2015-09-06T11:10:31Z</time>
      </trkpt>
      <trkpt lat="45.03685" lon="5.89954">
        <ele>2372.8481</ele>
        <time>2015-09-06T11:10:41Z</time>
      </trkpt>
      <trkpt lat="45.03685" lon="5.89954">
        <ele>2372.8481</ele>
        <time>2015-09-06T11:10:46Z</time>
      </trkpt>
      <trkpt lat="45.03685" lon="5.89954">
        <ele>2372.8481</ele>
        <time>2015-09-06T11:10:56Z</time>
      </trkpt>
      <trkpt lat="45.03685" lon="5.89954">
        <ele>2372.8481</ele>
        <time>2015-09-06T11:11:01Z</time>
      </trkpt>
      <trkpt lat="45.03685" lon="5.89954">
        <ele>2372.8481</ele>
        <time>2015-09-06T11:11:11Z</time>
      </trkpt>
      <trkpt lat="45.03685" lon="5.89954">
        <ele>2372.8481</ele>
        <time>2015-09-06T11:11:16Z</time>
      </trkpt>
      <trkpt lat="45.03678" lon="5.89956">
        <ele>2372.8481</ele>
        <time>2015-09-06T11:11:26Z</time>
      </trkpt>
      <trkpt lat="45.03677" lon="5.89964">
        <ele>2375.094</ele>
        <time>2015-09-06T11:11:31Z</time>
      </trkpt>
      <trkpt lat="45.03675" lon="5.8997">
        <ele>2375.094</ele>
        <time>2015-09-06T11:11:41Z</time>
      </trkpt>
      <trkpt lat="45.03675" lon="5.8997">
        <ele>2375.094</ele>
        <time>2015-09-06T11:11:46Z</time>
      </trkpt>
      <trkpt lat="45.03675" lon="5.89971">
        <ele>2375.094</ele>
        <time>2015-09-06T11:11:56Z</time>
      </trkpt>
      <trkpt lat="45.03675" lon="5.89971">
        <ele>2375.094</ele>
        <time>2015-09-06T11:12:01Z</time>
      </trkpt>
      <trkpt lat="45.03668" lon="5.89997">
        <ele>2377.2249</ele>
        <time>2015-09-06T11:12:11Z</time>
      </trkpt>
      <trkpt lat="45.03675" lon="5.90007">
        <ele>2378.9587</ele>
        <time>2015-09-06T11:12:16Z</time>
      </trkpt>
      <trkpt lat="45.03667" lon="5.90012">
        <ele>2378.9587</ele>
        <time>2015-09-06T11:12:26Z</time>
      </trkpt>
      <trkpt lat="45.03661" lon="5.90015">
        <ele>2380.3245</ele>
        <time>2015-09-06T11:12:31Z</time>
      </trkpt>
      <trkpt lat="45.03657" lon="5.90024">
        <ele>2380.3245</ele>
        <time>2015-09-06T11:12:41Z</time>
      </trkpt>
      <trkpt lat="45.03655" lon="5.9002">
        <ele>2380.4846</ele>
        <time>2015-09-06T11:12:46Z</time>
      </trkpt>
      <trkpt lat="45.03646" lon="5.90039">
        <ele>2381.1165</ele>
        <time>2015-09-06T11:13:01Z</time>
      </trkpt>
      <trkpt lat="45.03644" lon="5.90043">
        <ele>2381.1165</ele>
        <time>2015-09-06T11:13:06Z</time>
      </trkpt>
      <trkpt lat="45.0364" lon="5.90047">
        <ele>2381.1165</ele>
        <time>2015-09-06T11:13:16Z</time>
      </trkpt>
      <trkpt lat="45.03634" lon="5.90044">
        <ele>2381.6116</ele>
        <time>2015-09-06T11:13:21Z</time>
      </trkpt>
      <trkpt lat="45.03625" lon="5.90053">
        <ele>2381.406</ele>
        <time>2015-09-06T11:13:31Z</time>
      </trkpt>
      <trkpt lat="45.03624" lon="5.9006">
        <ele>2381.406</ele>
        <time>2015-09-06T11:13:36Z</time>
      </trkpt>
      <trkpt lat="45.03611" lon="5.90065">
        <ele>2381.5645</ele>
        <time>2015-09-06T11:13:46Z</time>
      </trkpt>
      <trkpt lat="45.03607" lon="5.90068">
        <ele>2381.5645</ele>
        <time>2015-09-06T11:13:51Z</time>
      </trkpt>
      <trkpt lat="45.03592" lon="5.90066">
        <ele>2381.6318</ele>
        <time>2015-09-06T11:14:01Z</time>
      </trkpt>
      <trkpt lat="45.03584" lon="5.90066">
        <ele>2381.6318</ele>
        <time>2015-09-06T11:14:06Z</time>
      </trkpt>
      <trkpt lat="45.03575" lon="5.90063">
        <ele>2382.0503</ele>
        <time>2015-09-06T11:14:16Z</time>
      </trkpt>
      <trkpt lat="45.03573" lon="5.90068">
        <ele>2382.0503</ele>
        <time>2015-09-06T11:14:21Z</time>
      </trkpt>
      <trkpt lat="45.03559" lon="5.90066">
        <ele>2381.9324</ele>
        <time>2015-09-06T11:14:31Z</time>
      </trkpt>
      <trkpt lat="45.03555" lon="5.9006">
        <ele>2381.9324</ele>
        <time>2015-09-06T11:14:36Z</time>
      </trkpt>
      <trkpt lat="45.0355" lon="5.90059">
        <ele>2381.8977</ele>
        <time>2015-09-06T11:14:46Z</time>
      </trkpt>
      <trkpt lat="45.03546" lon="5.90057">
        <ele>2381.8977</ele>
        <time>2015-09-06T11:14:51Z</time>
      </trkpt>
      <trkpt lat="45.03535" lon="5.9005">
        <ele>2382.6648</ele>
        <time>2015-09-06T11:15:06Z</time>
      </trkpt>
      <trkpt lat="45.03533" lon="5.90053">
        <ele>2382.6648</ele>
        <time>2015-09-06T11:15:11Z</time>
      </trkpt>
      <trkpt lat="45.03526" lon="5.90052">
        <ele>2383.5996</ele>
        <time>2015-09-06T11:15:21Z</time>
      </trkpt>
      <trkpt lat="45.03526" lon="5.90054">
        <ele>2383.5996</ele>
        <time>2015-09-06T11:15:26Z</time>
      </trkpt>
      <trkpt lat="45.03521" lon="5.90055">
        <ele>2383.5996</ele>
        <time>2015-09-06T11:15:36Z</time>
      </trkpt>
      <trkpt lat="45.03521" lon="5.90055">
        <ele>2383.5996</ele>
        <time>2015-09-06T11:15:41Z</time>
      </trkpt>
      <trkpt lat="45.03511" lon="5.90053">
        <ele>2385.1233</ele>
        <time>2015-09-06T11:15:51Z</time>
      </trkpt>
      <trkpt lat="45.03511" lon="5.9005">
        <ele>2385.1233</ele>
        <time>2015-09-06T11:15:56Z</time>
      </trkpt>
      <trkpt lat="45.03511" lon="5.90051">
        <ele>2385.1233</ele>
        <time>2015-09-06T11:16:06Z</time>
      </trkpt>
      <trkpt lat="45.03511" lon="5.90051">
        <ele>2385.1233</ele>
        <time>2015-09-06T11:16:11Z</time>
      </trkpt>
      <trkpt lat="45.03511" lon="5.90051">
        <ele>2385.1233</ele>
        <time>2015-09-06T11:16:21Z</time>
      </trkpt>
      <trkpt lat="45.03511" lon="5.90051">
        <ele>2385.1233</ele>
        <time>2015-09-06T11:16:26Z</time>
      </trkpt>
      <trkpt lat="45.0351" lon="5.90051">
        <ele>2385.1233</ele>
        <time>2015-09-06T11:16:36Z</time>
      </trkpt>
      <trkpt lat="45.0351" lon="5.90051">
        <ele>2385.1233</ele>
        <time>2015-09-06T11:16:41Z</time>
      </trkpt>
      <trkpt lat="45.0351" lon="5.90051">
        <ele>2385.1233</ele>
        <time>2015-09-06T11:16:51Z</time>
      </trkpt>
      <trkpt lat="45.0351" lon="5.90051">
        <ele>2385.1233</ele>
        <time>2015-09-06T11:16:56Z</time>
      </trkpt>
      <trkpt lat="45.03486" lon="5.90051">
        <ele>2386.3267</ele>
        <time>2015-09-06T11:17:11Z</time>
      </trkpt>
      <trkpt lat="45.0348" lon="5.9005">
        <ele>2386.3267</ele>
        <time>2015-09-06T11:17:16Z</time>
      </trkpt>
      <trkpt lat="45.03467" lon="5.90043">
        <ele>2387.81</ele>
        <time>2015-09-06T11:17:26Z</time>
      </trkpt>
      <trkpt lat="45.03471" lon="5.90045">
        <ele>2387.81</ele>
        <time>2015-09-06T11:17:31Z</time>
      </trkpt>
      <trkpt lat="45.0347" lon="5.90046">
        <ele>2387.81</ele>
        <time>2015-09-06T11:17:41Z</time>
      </trkpt>
      <trkpt lat="45.0347" lon="5.90046">
        <ele>2387.81</ele>
        <time>2015-09-06T11:17:46Z</time>
      </trkpt>
      <trkpt lat="45.0347" lon="5.90047">
        <ele>2387.81</ele>
        <time>2015-09-06T11:17:56Z</time>
      </trkpt>
      <trkpt lat="45.0347" lon="5.90047">
        <ele>2387.81</ele>
        <time>2015-09-06T11:18:01Z</time>
      </trkpt>
      <trkpt lat="45.03456" lon="5.90056">
        <ele>2389.552</ele>
        <time>2015-09-06T11:18:11Z</time>
      </trkpt>
      <trkpt lat="45.03452" lon="5.90061">
        <ele>2389.552</ele>
        <time>2015-09-06T11:18:16Z</time>
      </trkpt>
      <trkpt lat="45.03444" lon="5.90064">
        <ele>2392.2524</ele>
        <time>2015-09-06T11:18:26Z</time>
      </trkpt>
      <trkpt lat="45.03441" lon="5.9006">
        <ele>2392.2524</ele>
        <time>2015-09-06T11:18:31Z</time>
      </trkpt>
      <trkpt lat="45.03442" lon="5.90063">
        <ele>2392.2524</ele>
        <time>2015-09-06T11:18:46Z</time>
      </trkpt>
      <trkpt lat="45.03442" lon="5.90063">
        <ele>2392.2524</ele>
        <time>2015-09-06T11:18:51Z</time>
      </trkpt>
      <trkpt lat="45.03442" lon="5.90063">
        <ele>2392.2524</ele>
        <time>2015-09-06T11:19:01Z</time>
      </trkpt>
      <trkpt lat="45.03441" lon="5.90063">
        <ele>2392.2524</ele>
        <time>2015-09-06T11:19:06Z</time>
      </trkpt>
      <trkpt lat="45.03441" lon="5.90063">
        <ele>2392.2524</ele>
        <time>2015-09-06T11:19:16Z</time>
      </trkpt>
      <trkpt lat="45.03441" lon="5.90063">
        <ele>2392.2524</ele>
        <time>2015-09-06T11:19:21Z</time>
      </trkpt>
      <trkpt lat="45.03441" lon="5.90063">
        <ele>2392.2524</ele>
        <time>2015-09-06T11:19:31Z</time>
      </trkpt>
      <trkpt lat="45.03441" lon="5.90063">
        <ele>2392.2524</ele>
        <time>2015-09-06T11:19:36Z</time>
      </trkpt>
      <trkpt lat="45.03427" lon="5.90078">
        <ele>2394.9717</ele>
        <time>2015-09-06T11:19:46Z</time>
      </trkpt>
      <trkpt lat="45.03424" lon="5.90078">
        <ele>2394.9717</ele>
        <time>2015-09-06T11:19:51Z</time>
      </trkpt>
      <trkpt lat="45.03419" lon="5.90085">
        <ele>2398.857</ele>
        <time>2015-09-06T11:20:01Z</time>
      </trkpt>
      <trkpt lat="45.03417" lon="5.90086">
        <ele>2398.857</ele>
        <time>2015-09-06T11:20:06Z</time>
      </trkpt>
      <trkpt lat="45.03416" lon="5.90086">
        <ele>2398.857</ele>
        <time>2015-09-06T11:20:16Z</time>
      </trkpt>
      <trkpt lat="45.03416" lon="5.90086">
        <ele>2398.857</ele>
        <time>2015-09-06T11:20:21Z</time>
      </trkpt>
      <trkpt lat="45.03416" lon="5.90086">
        <ele>2398.857</ele>
        <time>2015-09-06T11:20:31Z</time>
      </trkpt>
      <trkpt lat="45.03416" lon="5.90086">
        <ele>2398.857</ele>
        <time>2015-09-06T11:20:36Z</time>
      </trkpt>
      <trkpt lat="45.03416" lon="5.90086">
        <ele>2398.857</ele>
        <time>2015-09-06T11:20:51Z</time>
      </trkpt>
      <trkpt lat="45.03416" lon="5.90086">
        <ele>2398.857</ele>
        <time>2015-09-06T11:20:56Z</time>
      </trkpt>
      <trkpt lat="45.03416" lon="5.90086">
        <ele>2398.857</ele>
        <time>2015-09-06T11:21:06Z</time>
      </trkpt>
      <trkpt lat="45.03416" lon="5.90086">
        <ele>2398.857</ele>
        <time>2015-09-06T11:21:11Z</time>
      </trkpt>
      <trkpt lat="45.03416" lon="5.90086">
        <ele>2398.857</ele>
        <time>2015-09-06T11:21:21Z</time>
      </trkpt>
      <trkpt lat="45.03416" lon="5.90087">
        <ele>2398.857</ele>
        <time>2015-09-06T11:21:26Z</time>
      </trkpt>
      <trkpt lat="45.03415" lon="5.90087">
        <ele>2398.857</ele>
        <time>2015-09-06T11:21:36Z</time>
      </trkpt>
      <trkpt lat="45.03415" lon="5.90087">
        <ele>2398.857</ele>
        <time>2015-09-06T11:21:41Z</time>
      </trkpt>
      <trkpt lat="45.03415" lon="5.90087">
        <ele>2398.857</ele>
        <time>2015-09-06T11:21:51Z</time>
      </trkpt>
      <trkpt lat="45.03415" lon="5.90087">
        <ele>2398.857</ele>
        <time>2015-09-06T11:21:56Z</time>
      </trkpt>
      <trkpt lat="45.03415" lon="5.90087">
        <ele>2398.857</ele>
        <time>2015-09-06T11:22:06Z</time>
      </trkpt>
      <trkpt lat="45.03402" lon="5.90087">
        <ele>2403.2385</ele>
        <time>2015-09-06T11:22:11Z</time>
      </trkpt>
      <trkpt lat="45.03385" lon="5.90105">
        <ele>2407.2063</ele>
        <time>2015-09-06T11:22:21Z</time>
      </trkpt>
      <trkpt lat="45.03382" lon="5.90111">
        <ele>2407.2063</ele>
        <time>2015-09-06T11:22:26Z</time>
      </trkpt>
      <trkpt lat="45.0338" lon="5.90109">
        <ele>2407.2063</ele>
        <time>2015-09-06T11:22:41Z</time>
      </trkpt>
      <trkpt lat="45.03379" lon="5.90108">
        <ele>2407.2063</ele>
        <time>2015-09-06T11:22:46Z</time>
      </trkpt>
      <trkpt lat="45.03378" lon="5.90108">
        <ele>2412.3677</ele>
        <time>2015-09-06T11:22:56Z</time>
      </trkpt>
      <trkpt lat="45.03378" lon="5.90108">
        <ele>2412.3677</ele>
        <time>2015-09-06T11:23:01Z</time>
      </trkpt>
      <trkpt lat="45.03378" lon="5.90108">
        <ele>2412.3677</ele>
        <time>2015-09-06T11:23:11Z</time>
      </trkpt>
      <trkpt lat="45.03378" lon="5.90108">
        <ele>2412.3677</ele>
        <time>2015-09-06T11:23:16Z</time>
      </trkpt>
      <trkpt lat="45.03378" lon="5.90108">
        <ele>2412.3677</ele>
        <time>2015-09-06T11:23:26Z</time>
      </trkpt>
      <trkpt lat="45.03378" lon="5.90108">
        <ele>2412.3677</ele>
        <time>2015-09-06T11:23:31Z</time>
      </trkpt>
      <trkpt lat="45.03378" lon="5.90108">
        <ele>2412.3677</ele>
        <time>2015-09-06T11:23:41Z</time>
      </trkpt>
      <trkpt lat="45.03378" lon="5.90108">
        <ele>2412.3677</ele>
        <time>2015-09-06T11:23:46Z</time>
      </trkpt>
      <trkpt lat="45.03378" lon="5.90108">
        <ele>2412.3677</ele>
        <time>2015-09-06T11:23:56Z</time>
      </trkpt>
      <trkpt lat="45.03378" lon="5.90108">
        <ele>2412.3677</ele>
        <time>2015-09-06T11:24:01Z</time>
      </trkpt>
      <trkpt lat="45.03359" lon="5.90105">
        <ele>2416.6064</ele>
        <time>2015-09-06T11:24:16Z</time>
      </trkpt>
      <trkpt lat="45.03348" lon="5.90098">
        <ele>2420.558</ele>
        <time>2015-09-06T11:24:21Z</time>
      </trkpt>
      <trkpt lat="45.03335" lon="5.90104">
        <ele>2423.8042</ele>
        <time>2015-09-06T11:24:31Z</time>
      </trkpt>
      <trkpt lat="45.03328" lon="5.90102">
        <ele>2423.8042</ele>
        <time>2015-09-06T11:24:36Z</time>
      </trkpt>
      <trkpt lat="45.03319" lon="5.90102">
        <ele>2427.9758</ele>
        <time>2015-09-06T11:24:46Z</time>
      </trkpt>
      <trkpt lat="45.03311" lon="5.90096">
        <ele>2432.1326</ele>
        <time>2015-09-06T11:24:51Z</time>
      </trkpt>
      <trkpt lat="45.03306" lon="5.90097">
        <ele>2432.1326</ele>
        <time>2015-09-06T11:25:01Z</time>
      </trkpt>
      <trkpt lat="45.03305" lon="5.90092">
        <ele>2432.1326</ele>
        <time>2015-09-06T11:25:06Z</time>
      </trkpt>
      <trkpt lat="45.03297" lon="5.90093">
        <ele>2438.141</ele>
        <time>2015-09-06T11:25:16Z</time>
      </trkpt>
      <trkpt lat="45.03293" lon="5.90089">
        <ele>2438.141</ele>
        <time>2015-09-06T11:25:21Z</time>
      </trkpt>
      <trkpt lat="45.03291" lon="5.90089">
        <ele>2438.141</ele>
        <time>2015-09-06T11:25:31Z</time>
      </trkpt>
      <trkpt lat="45.03288" lon="5.90089">
        <ele>2443.691</ele>
        <time>2015-09-06T11:25:36Z</time>
      </trkpt>
      <trkpt lat="45.03284" lon="5.9009">
        <ele>2443.691</ele>
        <time>2015-09-06T11:25:46Z</time>
      </trkpt>
      <trkpt lat="45.03282" lon="5.90093">
        <ele>2443.691</ele>
        <time>2015-09-06T11:25:51Z</time>
      </trkpt>
      <trkpt lat="45.03282" lon="5.90095">
        <ele>2447.796</ele>
        <time>2015-09-06T11:26:01Z</time>
      </trkpt>
      <trkpt lat="45.03282" lon="5.90096">
        <ele>2447.796</ele>
        <time>2015-09-06T11:26:06Z</time>
      </trkpt>
      <trkpt lat="45.03282" lon="5.90096">
        <ele>2447.796</ele>
        <time>2015-09-06T11:26:16Z</time>
      </trkpt>
      <trkpt lat="45.03282" lon="5.90096">
        <ele>2447.796</ele>
        <time>2015-09-06T11:26:21Z</time>
      </trkpt>
      <trkpt lat="45.03282" lon="5.90096">
        <ele>2447.796</ele>
        <time>2015-09-06T11:26:31Z</time>
      </trkpt>
      <trkpt lat="45.03282" lon="5.90096">
        <ele>2447.796</ele>
        <time>2015-09-06T11:26:36Z</time>
      </trkpt>
      <trkpt lat="45.03279" lon="5.90091">
        <ele>2447.796</ele>
        <time>2015-09-06T11:26:46Z</time>
      </trkpt>
      <trkpt lat="45.0328" lon="5.90092">
        <ele>2447.796</ele>
        <time>2015-09-06T11:26:51Z</time>
      </trkpt>
      <trkpt lat="45.03278" lon="5.90094">
        <ele>2451.7075</ele>
        <time>2015-09-06T11:27:06Z</time>
      </trkpt>
      <trkpt lat="45.03278" lon="5.90094">
        <ele>2451.7075</ele>
        <time>2015-09-06T11:27:11Z</time>
      </trkpt>
      <trkpt lat="45.03279" lon="5.90094">
        <ele>2451.7075</ele>
        <time>2015-09-06T11:27:21Z</time>
      </trkpt>
      <trkpt lat="45.03279" lon="5.90094">
        <ele>2451.7075</ele>
        <time>2015-09-06T11:27:26Z</time>
      </trkpt>
      <trkpt lat="45.03279" lon="5.90094">
        <ele>2451.7075</ele>
        <time>2015-09-06T11:27:36Z</time>
      </trkpt>
      <trkpt lat="45.03279" lon="5.90094">
        <ele>2451.7075</ele>
        <time>2015-09-06T11:27:41Z</time>
      </trkpt>
      <trkpt lat="45.03279" lon="5.90094">
        <ele>2451.7075</ele>
        <time>2015-09-06T11:27:51Z</time>
      </trkpt>
      <trkpt lat="45.03279" lon="5.90094">
        <ele>2451.7075</ele>
        <time>2015-09-06T11:27:56Z</time>
      </trkpt>
      <trkpt lat="45.03279" lon="5.90096">
        <ele>2451.7075</ele>
        <time>2015-09-06T11:28:06Z</time>
      </trkpt>
      <trkpt lat="45.03279" lon="5.90097">
        <ele>2451.7075</ele>
        <time>2015-09-06T11:28:11Z</time>
      </trkpt>
      <trkpt lat="45.03278" lon="5.90097">
        <ele>2451.7075</ele>
        <time>2015-09-06T11:28:21Z</time>
      </trkpt>
      <trkpt lat="45.03278" lon="5.90097">
        <ele>2451.7075</ele>
        <time>2015-09-06T11:28:26Z</time>
      </trkpt>
      <trkpt lat="45.03278" lon="5.90097">
        <ele>2451.7075</ele>
        <time>2015-09-06T11:28:36Z</time>
      </trkpt>
      <trkpt lat="45.03278" lon="5.90097">
        <ele>2451.7075</ele>
        <time>2015-09-06T11:28:41Z</time>
      </trkpt>
      <trkpt lat="45.03278" lon="5.90097">
        <ele>2451.7075</ele>
        <time>2015-09-06T11:28:51Z</time>
      </trkpt>
      <trkpt lat="45.03278" lon="5.90097">
        <ele>2451.7075</ele>
        <time>2015-09-06T11:28:56Z</time>
      </trkpt>
      <trkpt lat="45.03278" lon="5.90097">
        <ele>2451.7075</ele>
        <time>2015-09-06T11:29:01Z</time>
      </trkpt>
      <trkpt lat="45.03278" lon="5.90097">
        <ele>2451.7075</ele>
        <time>2015-09-06T11:29:11Z</time>
      </trkpt>
      <trkpt lat="45.03278" lon="5.90097">
        <ele>2451.7075</ele>
        <time>2015-09-06T11:29:16Z</time>
      </trkpt>
      <trkpt lat="45.03278" lon="5.90097">
        <ele>2451.7075</ele>
        <time>2015-09-06T11:29:21Z</time>
      </trkpt>
      <trkpt lat="45.03278" lon="5.90097">
        <ele>2451.7075</ele>
        <time>2015-09-06T11:29:26Z</time>
      </trkpt>
      <trkpt lat="45.03278" lon="5.90097">
        <ele>2451.7075</ele>
        <time>2015-09-06T11:29:31Z</time>
      </trkpt>
      <trkpt lat="45.03278" lon="5.90097">
        <ele>2451.7075</ele>
        <time>2015-09-06T11:29:36Z</time>
      </trkpt>
      <trkpt lat="45.03278" lon="5.90097">
        <ele>2451.7075</ele>
        <time>2015-09-06T11:29:41Z</time>
      </trkpt>
      <trkpt lat="45.03278" lon="5.90097">
        <ele>2451.7075</ele>
        <time>2015-09-06T11:29:46Z</time>
      </trkpt>
      <trkpt lat="45.03278" lon="5.90097">
        <ele>2451.7075</ele>
        <time>2015-09-06T11:29:51Z</time>
      </trkpt>
      <trkpt lat="45.03278" lon="5.90097">
        <ele>2451.7075</ele>
        <time>2015-09-06T11:29:56Z</time>
      </trkpt>
      <trkpt lat="45.03278" lon="5.90097">
        <ele>2451.7075</ele>
        <time>2015-09-06T11:30:06Z</time>
      </trkpt>
      <trkpt lat="45.03278" lon="5.90098">
        <ele>2451.7075</ele>
        <time>2015-09-06T11:30:11Z</time>
      </trkpt>
      <trkpt lat="45.03278" lon="5.90099">
        <ele>2451.7075</ele>
        <time>2015-09-06T11:30:21Z</time>
      </trkpt>
      <trkpt lat="45.03278" lon="5.90099">
        <ele>2451.7075</ele>
        <time>2015-09-06T11:30:26Z</time>
      </trkpt>
      <trkpt lat="45.03278" lon="5.90099">
        <ele>2451.7075</ele>
        <time>2015-09-06T11:30:36Z</time>
      </trkpt>
      <trkpt lat="45.03278" lon="5.90099">
        <ele>2451.7075</ele>
        <time>2015-09-06T11:30:41Z</time>
      </trkpt>
      <trkpt lat="45.03278" lon="5.90099">
        <ele>2451.7075</ele>
        <time>2015-09-06T11:30:51Z</time>
      </trkpt>
      <trkpt lat="45.03278" lon="5.90099">
        <ele>2451.7075</ele>
        <time>2015-09-06T11:30:56Z</time>
      </trkpt>
      <trkpt lat="45.03286" lon="5.90106">
        <ele>2455.4336</ele>
        <time>2015-09-06T11:31:11Z</time>
      </trkpt>
      <trkpt lat="45.03289" lon="5.90113">
        <ele>2455.4336</ele>
        <time>2015-09-06T11:31:16Z</time>
      </trkpt>
      <trkpt lat="45.03291" lon="5.90121">
        <ele>2459.1267</ele>
        <time>2015-09-06T11:31:26Z</time>
      </trkpt>
      <trkpt lat="45.03291" lon="5.90121">
        <ele>2459.1267</ele>
        <time>2015-09-06T11:31:31Z</time>
      </trkpt>
      <trkpt lat="45.03297" lon="5.90131">
        <ele>2463.6482</ele>
        <time>2015-09-06T11:31:41Z</time>
      </trkpt>
      <trkpt lat="45.03298" lon="5.90132">
        <ele>2463.6482</ele>
        <time>2015-09-06T11:31:46Z</time>
      </trkpt>
      <trkpt lat="45.03312" lon="5.90132">
        <ele>2467.633</ele>
        <time>2015-09-06T11:31:56Z</time>
      </trkpt>
      <trkpt lat="45.0331" lon="5.90134">
        <ele>2467.633</ele>
        <time>2015-09-06T11:32:01Z</time>
      </trkpt>
      <trkpt lat="45.0331" lon="5.90135">
        <ele>2467.633</ele>
        <time>2015-09-06T11:32:11Z</time>
      </trkpt>
      <trkpt lat="45.0331" lon="5.90135">
        <ele>2467.633</ele>
        <time>2015-09-06T11:32:16Z</time>
      </trkpt>
      <trkpt lat="45.0331" lon="5.90135">
        <ele>2467.633</ele>
        <time>2015-09-06T11:32:26Z</time>
      </trkpt>
      <trkpt lat="45.03311" lon="5.90147">
        <ele>2471.1147</ele>
        <time>2015-09-06T11:32:31Z</time>
      </trkpt>
      <trkpt lat="45.03309" lon="5.90157">
        <ele>2471.1147</ele>
        <time>2015-09-06T11:32:41Z</time>
      </trkpt>
      <trkpt lat="45.03308" lon="5.90159">
        <ele>2474.703</ele>
        <time>2015-09-06T11:32:46Z</time>
      </trkpt>
      <trkpt lat="45.03309" lon="5.9016">
        <ele>2474.703</ele>
        <time>2015-09-06T11:32:56Z</time>
      </trkpt>
      <trkpt lat="45.03315" lon="5.90166">
        <ele>2474.703</ele>
        <time>2015-09-06T11:33:01Z</time>
      </trkpt>
      <trkpt lat="45.03325" lon="5.90176">
        <ele>2478.3853</ele>
        <time>2015-09-06T11:33:11Z</time>
      </trkpt>
      <trkpt lat="45.03329" lon="5.90178">
        <ele>2478.3853</ele>
        <time>2015-09-06T11:33:16Z</time>
      </trkpt>
      <trkpt lat="45.03329" lon="5.90179">
        <ele>2478.3853</ele>
        <time>2015-09-06T11:33:26Z</time>
      </trkpt>
      <trkpt lat="45.03328" lon="5.90179">
        <ele>2478.3853</ele>
        <time>2015-09-06T11:33:31Z</time>
      </trkpt>
      <trkpt lat="45.03328" lon="5.90179">
        <ele>2478.3853</ele>
        <time>2015-09-06T11:33:46Z</time>
      </trkpt>
      <trkpt lat="45.03328" lon="5.90179">
        <ele>2478.3853</ele>
        <time>2015-09-06T11:33:51Z</time>
      </trkpt>
      <trkpt lat="45.03328" lon="5.90179">
        <ele>2478.3853</ele>
        <time>2015-09-06T11:34:01Z</time>
      </trkpt>
      <trkpt lat="45.03328" lon="5.90179">
        <ele>2478.3853</ele>
        <time>2015-09-06T11:34:06Z</time>
      </trkpt>
      <trkpt lat="45.03328" lon="5.90179">
        <ele>2478.3853</ele>
        <time>2015-09-06T11:34:16Z</time>
      </trkpt>
      <trkpt lat="45.03328" lon="5.90179">
        <ele>2478.3853</ele>
        <time>2015-09-06T11:34:21Z</time>
      </trkpt>
      <trkpt lat="45.03328" lon="5.90179">
        <ele>2478.3853</ele>
        <time>2015-09-06T11:34:31Z</time>
      </trkpt>
      <trkpt lat="45.03328" lon="5.90179">
        <ele>2478.3853</ele>
        <time>2015-09-06T11:34:36Z</time>
      </trkpt>
      <trkpt lat="45.03328" lon="5.90179">
        <ele>2478.3853</ele>
        <time>2015-09-06T11:34:46Z</time>
      </trkpt>
      <trkpt lat="45.03328" lon="5.90179">
        <ele>2478.3853</ele>
        <time>2015-09-06T11:34:51Z</time>
      </trkpt>
      <trkpt lat="45.03328" lon="5.90179">
        <ele>2478.3853</ele>
        <time>2015-09-06T11:35:01Z</time>
      </trkpt>
      <trkpt lat="45.03328" lon="5.90179">
        <ele>2478.3853</ele>
        <time>2015-09-06T11:35:06Z</time>
      </trkpt>
      <trkpt lat="45.03328" lon="5.90179">
        <ele>2478.3853</ele>
        <time>2015-09-06T11:35:16Z</time>
      </trkpt>
      <trkpt lat="45.03326" lon="5.90191">
        <ele>2481.4302</ele>
        <time>2015-09-06T11:35:21Z</time>
      </trkpt>
      <trkpt lat="45.03326" lon="5.90205">
        <ele>2485.4678</ele>
        <time>2015-09-06T11:35:31Z</time>
      </trkpt>
      <trkpt lat="45.03325" lon="5.90207">
        <ele>2485.4678</ele>
        <time>2015-09-06T11:35:36Z</time>
      </trkpt>
      <trkpt lat="45.03325" lon="5.90207">
        <ele>2485.4678</ele>
        <time>2015-09-06T11:35:51Z</time>
      </trkpt>
      <trkpt lat="45.03324" lon="5.9021">
        <ele>2485.4678</ele>
        <time>2015-09-06T11:35:56Z</time>
      </trkpt>
      <trkpt lat="45.03326" lon="5.90229">
        <ele>2489.8435</ele>
        <time>2015-09-06T11:36:06Z</time>
      </trkpt>
      <trkpt lat="45.03327" lon="5.90231">
        <ele>2489.8435</ele>
        <time>2015-09-06T11:36:11Z</time>
      </trkpt>
      <trkpt lat="45.03326" lon="5.90233">
        <ele>2489.8435</ele>
        <time>2015-09-06T11:36:21Z</time>
      </trkpt>
      <trkpt lat="45.03327" lon="5.90236">
        <ele>2489.8435</ele>
        <time>2015-09-06T11:36:26Z</time>
      </trkpt>
      <trkpt lat="45.03326" lon="5.90241">
        <ele>2489.8435</ele>
        <time>2015-09-06T11:36:36Z</time>
      </trkpt>
      <trkpt lat="45.03326" lon="5.90241">
        <ele>2494.6711</ele>
        <time>2015-09-06T11:36:41Z</time>
      </trkpt>
      <trkpt lat="45.03326" lon="5.90247">
        <ele>2494.6711</ele>
        <time>2015-09-06T11:36:51Z</time>
      </trkpt>
      <trkpt lat="45.03326" lon="5.90251">
        <ele>2494.6711</ele>
        <time>2015-09-06T11:36:56Z</time>
      </trkpt>
      <trkpt lat="45.03325" lon="5.90255">
        <ele>2499.1907</ele>
        <time>2015-09-06T11:37:06Z</time>
      </trkpt>
      <trkpt lat="45.03326" lon="5.90256">
        <ele>2499.1907</ele>
        <time>2015-09-06T11:37:11Z</time>
      </trkpt>
      <trkpt lat="45.03322" lon="5.90272">
        <ele>2504.5715</ele>
        <time>2015-09-06T11:37:21Z</time>
      </trkpt>
      <trkpt lat="45.0332" lon="5.90274">
        <ele>2504.5715</ele>
        <time>2015-09-06T11:37:26Z</time>
      </trkpt>
      <trkpt lat="45.03319" lon="5.90281">
        <ele>2504.5715</ele>
        <time>2015-09-06T11:37:36Z</time>
      </trkpt>
      <trkpt lat="45.0332" lon="5.90284">
        <ele>2509.8787</ele>
        <time>2015-09-06T11:37:41Z</time>
      </trkpt>
      <trkpt lat="45.03322" lon="5.90296">
        <ele>2509.8787</ele>
        <time>2015-09-06T11:37:56Z</time>
      </trkpt>
      <trkpt lat="45.03323" lon="5.90296">
        <ele>2514.9653</ele>
        <time>2015-09-06T11:38:01Z</time>
      </trkpt>
      <trkpt lat="45.03329" lon="5.90303">
        <ele>2514.9653</ele>
        <time>2015-09-06T11:38:11Z</time>
      </trkpt>
      <trkpt lat="45.03328" lon="5.90307">
        <ele>2519.2654</ele>
        <time>2015-09-06T11:38:16Z</time>
      </trkpt>
      <trkpt lat="45.03328" lon="5.90307">
        <ele>2519.2654</ele>
        <time>2015-09-06T11:38:26Z</time>
      </trkpt>
      <trkpt lat="45.03328" lon="5.90308">
        <ele>2519.2654</ele>
        <time>2015-09-06T11:38:31Z</time>
      </trkpt>
      <trkpt lat="45.03329" lon="5.90315">
        <ele>2519.2654</ele>
        <time>2015-09-06T11:38:41Z</time>
      </trkpt>
      <trkpt lat="45.03332" lon="5.90318">
        <ele>2523.841</ele>
        <time>2015-09-06T11:38:46Z</time>
      </trkpt>
      <trkpt lat="45.0333" lon="5.90324">
        <ele>2523.841</ele>
        <time>2015-09-06T11:38:56Z</time>
      </trkpt>
      <trkpt lat="45.0333" lon="5.90324">
        <ele>2523.841</ele>
        <time>2015-09-06T11:39:01Z</time>
      </trkpt>
      <trkpt lat="45.03329" lon="5.90324">
        <ele>2523.841</ele>
        <time>2015-09-06T11:39:11Z</time>
      </trkpt>
      <trkpt lat="45.03329" lon="5.90324">
        <ele>2523.841</ele>
        <time>2015-09-06T11:39:16Z</time>
      </trkpt>
      <trkpt lat="45.0333" lon="5.90324">
        <ele>2523.841</ele>
        <time>2015-09-06T11:39:26Z</time>
      </trkpt>
      <trkpt lat="45.0333" lon="5.90324">
        <ele>2523.841</ele>
        <time>2015-09-06T11:39:31Z</time>
      </trkpt>
      <trkpt lat="45.03336" lon="5.90329">
        <ele>2528.3794</ele>
        <time>2015-09-06T11:39:41Z</time>
      </trkpt>
      <trkpt lat="45.03336" lon="5.9033">
        <ele>2528.3794</ele>
        <time>2015-09-06T11:39:46Z</time>
      </trkpt>
      <trkpt lat="45.03338" lon="5.9033">
        <ele>2528.3794</ele>
        <time>2015-09-06T11:39:56Z</time>
      </trkpt>
      <trkpt lat="45.03341" lon="5.90332">
        <ele>2528.3794</ele>
        <time>2015-09-06T11:40:01Z</time>
      </trkpt>
      <trkpt lat="45.03345" lon="5.90331">
        <ele>2532.5903</ele>
        <time>2015-09-06T11:40:16Z</time>
      </trkpt>
      <trkpt lat="45.03346" lon="5.90332">
        <ele>2532.5903</ele>
        <time>2015-09-06T11:40:21Z</time>
      </trkpt>
      <trkpt lat="45.03346" lon="5.90331">
        <ele>2532.5903</ele>
        <time>2015-09-06T11:40:31Z</time>
      </trkpt>
      <trkpt lat="45.03346" lon="5.90331">
        <ele>2532.5903</ele>
        <time>2015-09-06T11:40:36Z</time>
      </trkpt>
      <trkpt lat="45.03346" lon="5.90331">
        <ele>2532.5903</ele>
        <time>2015-09-06T11:40:46Z</time>
      </trkpt>
      <trkpt lat="45.03346" lon="5.90332">
        <ele>2532.5903</ele>
        <time>2015-09-06T11:40:51Z</time>
      </trkpt>
      <trkpt lat="45.03354" lon="5.90331">
        <ele>2535.9185</ele>
        <time>2015-09-06T11:41:01Z</time>
      </trkpt>
      <trkpt lat="45.03358" lon="5.90329">
        <ele>2535.9185</ele>
        <time>2015-09-06T11:41:06Z</time>
      </trkpt>
      <trkpt lat="45.03372" lon="5.90327">
        <ele>2539.8691</ele>
        <time>2015-09-06T11:41:16Z</time>
      </trkpt>
      <trkpt lat="45.03383" lon="5.90325">
        <ele>2543.242</ele>
        <time>2015-09-06T11:41:21Z</time>
      </trkpt>
      <trkpt lat="45.03383" lon="5.90319">
        <ele>2543.242</ele>
        <time>2015-09-06T11:41:31Z</time>
      </trkpt>
      <trkpt lat="45.03383" lon="5.90319">
        <ele>2543.242</ele>
        <time>2015-09-06T11:41:36Z</time>
      </trkpt>
      <trkpt lat="45.03384" lon="5.90319">
        <ele>2543.242</ele>
        <time>2015-09-06T11:41:46Z</time>
      </trkpt>
      <trkpt lat="45.03385" lon="5.90319">
        <ele>2543.242</ele>
        <time>2015-09-06T11:41:51Z</time>
      </trkpt>
      <trkpt lat="45.03396" lon="5.90325">
        <ele>2548.9612</ele>
        <time>2015-09-06T11:42:01Z</time>
      </trkpt>
      <trkpt lat="45.03396" lon="5.90326">
        <ele>2548.9612</ele>
        <time>2015-09-06T11:42:06Z</time>
      </trkpt>
      <trkpt lat="45.03402" lon="5.90322">
        <ele>2548.9612</ele>
        <time>2015-09-06T11:42:16Z</time>
      </trkpt>
      <trkpt lat="45.03404" lon="5.90322">
        <ele>2548.9612</ele>
        <time>2015-09-06T11:42:21Z</time>
      </trkpt>
      <trkpt lat="45.03402" lon="5.90322">
        <ele>2553.6772</ele>
        <time>2015-09-06T11:42:36Z</time>
      </trkpt>
      <trkpt lat="45.03402" lon="5.90322">
        <ele>2553.6772</ele>
        <time>2015-09-06T11:42:41Z</time>
      </trkpt>
      <trkpt lat="45.03402" lon="5.90322">
        <ele>2553.6772</ele>
        <time>2015-09-06T11:42:51Z</time>
      </trkpt>
      <trkpt lat="45.03402" lon="5.90322">
        <ele>2553.6772</ele>
        <time>2015-09-06T11:42:56Z</time>
      </trkpt>
      <trkpt lat="45.03402" lon="5.90322">
        <ele>2553.6772</ele>
        <time>2015-09-06T11:43:06Z</time>
      </trkpt>
      <trkpt lat="45.03402" lon="5.90322">
        <ele>2553.6772</ele>
        <time>2015-09-06T11:43:11Z</time>
      </trkpt>
      <trkpt lat="45.03402" lon="5.90322">
        <ele>2553.6772</ele>
        <time>2015-09-06T11:43:21Z</time>
      </trkpt>
      <trkpt lat="45.03402" lon="5.90322">
        <ele>2553.6772</ele>
        <time>2015-09-06T11:43:26Z</time>
      </trkpt>
      <trkpt lat="45.03405" lon="5.90324">
        <ele>2553.6772</ele>
        <time>2015-09-06T11:43:36Z</time>
      </trkpt>
      <trkpt lat="45.03413" lon="5.90329">
        <ele>2558.0369</ele>
        <time>2015-09-06T11:43:41Z</time>
      </trkpt>
      <trkpt lat="45.03427" lon="5.90326">
        <ele>2562.0635</ele>
        <time>2015-09-06T11:43:51Z</time>
      </trkpt>
      <trkpt lat="45.03431" lon="5.90331">
        <ele>2562.0635</ele>
        <time>2015-09-06T11:43:56Z</time>
      </trkpt>
      <trkpt lat="45.0343" lon="5.90333">
        <ele>2562.0635</ele>
        <time>2015-09-06T11:44:06Z</time>
      </trkpt>
      <trkpt lat="45.03433" lon="5.90335">
        <ele>2566.3567</ele>
        <time>2015-09-06T11:44:11Z</time>
      </trkpt>
      <trkpt lat="45.03444" lon="5.90336">
        <ele>2570.3184</ele>
        <time>2015-09-06T11:44:21Z</time>
      </trkpt>
      <trkpt lat="45.03448" lon="5.90336">
        <ele>2570.3184</ele>
        <time>2015-09-06T11:44:26Z</time>
      </trkpt>
      <trkpt lat="45.0345" lon="5.90342">
        <ele>2570.3184</ele>
        <time>2015-09-06T11:44:36Z</time>
      </trkpt>
      <trkpt lat="45.03451" lon="5.90343">
        <ele>2574.4045</ele>
        <time>2015-09-06T11:44:41Z</time>
      </trkpt>
      <trkpt lat="45.03454" lon="5.90345">
        <ele>2574.4045</ele>
        <time>2015-09-06T11:44:56Z</time>
      </trkpt>
      <trkpt lat="45.03455" lon="5.90345">
        <ele>2574.4045</ele>
        <time>2015-09-06T11:45:01Z</time>
      </trkpt>
      <trkpt lat="45.03456" lon="5.90345">
        <ele>2574.4045</ele>
        <time>2015-09-06T11:45:11Z</time>
      </trkpt>
      <trkpt lat="45.03456" lon="5.90345">
        <ele>2574.4045</ele>
        <time>2015-09-06T11:45:16Z</time>
      </trkpt>
      <trkpt lat="45.03461" lon="5.9034">
        <ele>2578.3167</ele>
        <time>2015-09-06T11:45:26Z</time>
      </trkpt>
      <trkpt lat="45.03466" lon="5.90344">
        <ele>2578.3167</ele>
        <time>2015-09-06T11:45:31Z</time>
      </trkpt>
      <trkpt lat="45.03476" lon="5.90341">
        <ele>2582.6436</ele>
        <time>2015-09-06T11:45:41Z</time>
      </trkpt>
      <trkpt lat="45.03472" lon="5.90344">
        <ele>2582.6436</ele>
        <time>2015-09-06T11:45:46Z</time>
      </trkpt>
      <trkpt lat="45.03472" lon="5.90341">
        <ele>2582.6436</ele>
        <time>2015-09-06T11:45:56Z</time>
      </trkpt>
      <trkpt lat="45.03474" lon="5.90341">
        <ele>2582.6436</ele>
        <time>2015-09-06T11:46:01Z</time>
      </trkpt>
      <trkpt lat="45.03474" lon="5.90341">
        <ele>2582.6436</ele>
        <time>2015-09-06T11:46:11Z</time>
      </trkpt>
      <trkpt lat="45.03474" lon="5.90341">
        <ele>2582.6436</ele>
        <time>2015-09-06T11:46:16Z</time>
      </trkpt>
      <trkpt lat="45.03474" lon="5.90341">
        <ele>2582.6436</ele>
        <time>2015-09-06T11:46:26Z</time>
      </trkpt>
      <trkpt lat="45.03474" lon="5.90341">
        <ele>2582.6436</ele>
        <time>2015-09-06T11:46:31Z</time>
      </trkpt>
      <trkpt lat="45.03474" lon="5.90341">
        <ele>2582.6436</ele>
        <time>2015-09-06T11:46:41Z</time>
      </trkpt>
      <trkpt lat="45.03474" lon="5.90341">
        <ele>2582.6436</ele>
        <time>2015-09-06T11:46:46Z</time>
      </trkpt>
      <trkpt lat="45.03476" lon="5.90345">
        <ele>2586.3442</ele>
        <time>2015-09-06T11:46:56Z</time>
      </trkpt>
      <trkpt lat="45.03484" lon="5.90353">
        <ele>2589.7534</ele>
        <time>2015-09-06T11:47:01Z</time>
      </trkpt>
      <trkpt lat="45.03486" lon="5.90351">
        <ele>2589.7534</ele>
        <time>2015-09-06T11:47:16Z</time>
      </trkpt>
      <trkpt lat="45.03487" lon="5.90352">
        <ele>2589.7534</ele>
        <time>2015-09-06T11:47:21Z</time>
      </trkpt>
      <trkpt lat="45.03487" lon="5.90362">
        <ele>2592.3174</ele>
        <time>2015-09-06T11:47:31Z</time>
      </trkpt>
      <trkpt lat="45.03497" lon="5.90359">
        <ele>2593.8137</ele>
        <time>2015-09-06T11:47:36Z</time>
      </trkpt>
      <trkpt lat="45.03504" lon="5.90366">
        <ele>2593.8137</ele>
        <time>2015-09-06T11:47:46Z</time>
      </trkpt>
      <trkpt lat="45.0351" lon="5.90376">
        <ele>2595.1924</ele>
        <time>2015-09-06T11:47:51Z</time>
      </trkpt>
      <trkpt lat="45.03512" lon="5.90385">
        <ele>2595.1924</ele>
        <time>2015-09-06T11:48:01Z</time>
      </trkpt>
      <trkpt lat="45.03511" lon="5.90386">
        <ele>2597.0454</ele>
        <time>2015-09-06T11:48:06Z</time>
      </trkpt>
      <trkpt lat="45.03511" lon="5.90387">
        <ele>2597.0454</ele>
        <time>2015-09-06T11:48:16Z</time>
      </trkpt>
      <trkpt lat="45.03513" lon="5.90389">
        <ele>2597.0454</ele>
        <time>2015-09-06T11:48:21Z</time>
      </trkpt>
      <trkpt lat="45.03518" lon="5.90396">
        <ele>2599.0562</ele>
        <time>2015-09-06T11:48:31Z</time>
      </trkpt>
      <trkpt lat="45.0352" lon="5.90401">
        <ele>2599.0562</ele>
        <time>2015-09-06T11:48:36Z</time>
      </trkpt>
      <trkpt lat="45.03526" lon="5.90405">
        <ele>2601.6504</ele>
        <time>2015-09-06T11:48:51Z</time>
      </trkpt>
      <trkpt lat="45.03534" lon="5.90416">
        <ele>2603.4924</ele>
        <time>2015-09-06T11:48:56Z</time>
      </trkpt>
      <trkpt lat="45.03534" lon="5.90414">
        <ele>2603.4924</ele>
        <time>2015-09-06T11:49:06Z</time>
      </trkpt>
      <trkpt lat="45.03534" lon="5.90413">
        <ele>2603.4924</ele>
        <time>2015-09-06T11:49:11Z</time>
      </trkpt>
      <trkpt lat="45.03534" lon="5.90413">
        <ele>2603.4924</ele>
        <time>2015-09-06T11:49:21Z</time>
      </trkpt>
      <trkpt lat="45.03534" lon="5.90413">
        <ele>2603.4924</ele>
        <time>2015-09-06T11:49:26Z</time>
      </trkpt>
      <trkpt lat="45.03534" lon="5.90413">
        <ele>2603.4924</ele>
        <time>2015-09-06T11:49:36Z</time>
      </trkpt>
      <trkpt lat="45.03535" lon="5.90417">
        <ele>2603.4924</ele>
        <time>2015-09-06T11:49:41Z</time>
      </trkpt>
      <trkpt lat="45.03539" lon="5.9042">
        <ele>2605.652</ele>
        <time>2015-09-06T11:49:51Z</time>
      </trkpt>
      <trkpt lat="45.03539" lon="5.9042">
        <ele>2605.652</ele>
        <time>2015-09-06T11:49:56Z</time>
      </trkpt>
      <trkpt lat="45.03539" lon="5.9042">
        <ele>2605.652</ele>
        <time>2015-09-06T11:50:06Z</time>
      </trkpt>
      <trkpt lat="45.03539" lon="5.9042">
        <ele>2605.652</ele>
        <time>2015-09-06T11:50:11Z</time>
      </trkpt>
      <trkpt lat="45.03539" lon="5.9042">
        <ele>2605.652</ele>
        <time>2015-09-06T11:50:21Z</time>
      </trkpt>
      <trkpt lat="45.03539" lon="5.9042">
        <ele>2605.652</ele>
        <time>2015-09-06T11:50:26Z</time>
      </trkpt>
      <trkpt lat="45.03544" lon="5.90426">
        <ele>2605.652</ele>
        <time>2015-09-06T11:50:36Z</time>
      </trkpt>
      <trkpt lat="45.03545" lon="5.90427">
        <ele>2605.652</ele>
        <time>2015-09-06T11:50:41Z</time>
      </trkpt>
      <trkpt lat="45.03545" lon="5.90427">
        <ele>2605.652</ele>
        <time>2015-09-06T11:50:51Z</time>
      </trkpt>
      <trkpt lat="45.03545" lon="5.90427">
        <ele>2605.652</ele>
        <time>2015-09-06T11:50:56Z</time>
      </trkpt>
      <trkpt lat="45.03545" lon="5.90427">
        <ele>2605.652</ele>
        <time>2015-09-06T11:51:06Z</time>
      </trkpt>
      <trkpt lat="45.03551" lon="5.90434">
        <ele>2608.6873</ele>
        <time>2015-09-06T11:51:11Z</time>
      </trkpt>
      <trkpt lat="45.03558" lon="5.90449">
        <ele>2611.3838</ele>
        <time>2015-09-06T11:51:21Z</time>
      </trkpt>
      <trkpt lat="45.03557" lon="5.90448">
        <ele>2611.3838</ele>
        <time>2015-09-06T11:51:26Z</time>
      </trkpt>
      <trkpt lat="45.03557" lon="5.90449">
        <ele>2611.3838</ele>
        <time>2015-09-06T11:51:41Z</time>
      </trkpt>
      <trkpt lat="45.03563" lon="5.90445">
        <ele>2611.3838</ele>
        <time>2015-09-06T11:51:46Z</time>
      </trkpt>
      <trkpt lat="45.03568" lon="5.90445">
        <ele>2614.778</ele>
        <time>2015-09-06T11:51:56Z</time>
      </trkpt>
      <trkpt lat="45.03563" lon="5.90448">
        <ele>2614.778</ele>
        <time>2015-09-06T11:52:01Z</time>
      </trkpt>
      <trkpt lat="45.03563" lon="5.90447">
        <ele>2614.778</ele>
        <time>2015-09-06T11:52:11Z</time>
      </trkpt>
      <trkpt lat="45.03563" lon="5.90447">
        <ele>2614.778</ele>
        <time>2015-09-06T11:52:16Z</time>
      </trkpt>
      <trkpt lat="45.03563" lon="5.90447">
        <ele>2614.778</ele>
        <time>2015-09-06T11:52:26Z</time>
      </trkpt>
      <trkpt lat="45.03566" lon="5.90445">
        <ele>2617.2354</ele>
        <time>2015-09-06T11:52:31Z</time>
      </trkpt>
      <trkpt lat="45.03566" lon="5.90445">
        <ele>2617.2354</ele>
        <time>2015-09-06T11:52:41Z</time>
      </trkpt>
      <trkpt lat="45.03566" lon="5.90445">
        <ele>2617.2354</ele>
        <time>2015-09-06T11:52:46Z</time>
      </trkpt>
      <trkpt lat="45.03566" lon="5.90445">
        <ele>2617.2354</ele>
        <time>2015-09-06T11:52:56Z</time>
      </trkpt>
      <trkpt lat="45.03566" lon="5.90445">
        <ele>2617.2354</ele>
        <time>2015-09-06T11:53:01Z</time>
      </trkpt>
      <trkpt lat="45.03566" lon="5.90445">
        <ele>2617.2354</ele>
        <time>2015-09-06T11:53:11Z</time>
      </trkpt>
      <trkpt lat="45.03566" lon="5.90445">
        <ele>2617.2354</ele>
        <time>2015-09-06T11:53:16Z</time>
      </trkpt>
      <trkpt lat="45.03566" lon="5.90445">
        <ele>2617.2354</ele>
        <time>2015-09-06T11:53:26Z</time>
      </trkpt>
      <trkpt lat="45.03566" lon="5.90445">
        <ele>2617.2354</ele>
        <time>2015-09-06T11:53:31Z</time>
      </trkpt>
      <trkpt lat="45.03575" lon="5.90455">
        <ele>2619.9814</ele>
        <time>2015-09-06T11:53:41Z</time>
      </trkpt>
      <trkpt lat="45.03575" lon="5.90459">
        <ele>2619.9814</ele>
        <time>2015-09-06T11:53:46Z</time>
      </trkpt>
      <trkpt lat="45.03591" lon="5.90472">
        <ele>2622.4216</ele>
        <time>2015-09-06T11:54:01Z</time>
      </trkpt>
      <trkpt lat="45.03592" lon="5.90478">
        <ele>2622.4216</ele>
        <time>2015-09-06T11:54:06Z</time>
      </trkpt>
      <trkpt lat="45.03592" lon="5.90483">
        <ele>2622.4216</ele>
        <time>2015-09-06T11:54:16Z</time>
      </trkpt>
      <trkpt lat="45.03593" lon="5.90483">
        <ele>2622.4216</ele>
        <time>2015-09-06T11:54:21Z</time>
      </trkpt>
      <trkpt lat="45.03593" lon="5.90483">
        <ele>2622.4216</ele>
        <time>2015-09-06T11:54:31Z</time>
      </trkpt>
      <trkpt lat="45.03593" lon="5.90483">
        <ele>2622.4216</ele>
        <time>2015-09-06T11:54:36Z</time>
      </trkpt>
      <trkpt lat="45.03593" lon="5.90483">
        <ele>2622.4216</ele>
        <time>2015-09-06T11:54:46Z</time>
      </trkpt>
      <trkpt lat="45.03593" lon="5.90483">
        <ele>2622.4216</ele>
        <time>2015-09-06T11:54:51Z</time>
      </trkpt>
      <trkpt lat="45.03593" lon="5.90483">
        <ele>2622.4216</ele>
        <time>2015-09-06T11:55:01Z</time>
      </trkpt>
      <trkpt lat="45.03593" lon="5.90483">
        <ele>2622.4216</ele>
        <time>2015-09-06T11:55:06Z</time>
      </trkpt>
      <trkpt lat="45.03593" lon="5.90483">
        <ele>2622.4216</ele>
        <time>2015-09-06T11:55:16Z</time>
      </trkpt>
      <trkpt lat="45.03593" lon="5.90483">
        <ele>2622.4216</ele>
        <time>2015-09-06T11:55:21Z</time>
      </trkpt>
      <trkpt lat="45.03594" lon="5.90482">
        <ele>2626.3113</ele>
        <time>2015-09-06T11:55:36Z</time>
      </trkpt>
      <trkpt lat="45.03594" lon="5.90486">
        <ele>2626.3113</ele>
        <time>2015-09-06T11:55:41Z</time>
      </trkpt>
      <trkpt lat="45.03596" lon="5.90492">
        <ele>2626.3113</ele>
        <time>2015-09-06T11:55:51Z</time>
      </trkpt>
      <trkpt lat="45.03596" lon="5.90493">
        <ele>2626.3113</ele>
        <time>2015-09-06T11:55:56Z</time>
      </trkpt>
      <trkpt lat="45.03596" lon="5.90494">
        <ele>2626.3113</ele>
        <time>2015-09-06T11:56:06Z</time>
      </trkpt>
      <trkpt lat="45.03598" lon="5.90501">
        <ele>2629.5266</ele>
        <time>2015-09-06T11:56:11Z</time>
      </trkpt>
      <trkpt lat="45.036" lon="5.90514">
        <ele>2632.2625</ele>
        <time>2015-09-06T11:56:21Z</time>
      </trkpt>
      <trkpt lat="45.03599" lon="5.90514">
        <ele>2632.2625</ele>
        <time>2015-09-06T11:56:26Z</time>
      </trkpt>
      <trkpt lat="45.036" lon="5.90516">
        <ele>2632.2625</ele>
        <time>2015-09-06T11:56:36Z</time>
      </trkpt>
      <trkpt lat="45.036" lon="5.90516">
        <ele>2632.2625</ele>
        <time>2015-09-06T11:56:41Z</time>
      </trkpt>
      <trkpt lat="45.036" lon="5.90516">
        <ele>2632.2625</ele>
        <time>2015-09-06T11:56:51Z</time>
      </trkpt>
      <trkpt lat="45.036" lon="5.90516">
        <ele>2632.2625</ele>
        <time>2015-09-06T11:56:56Z</time>
      </trkpt>
      <trkpt lat="45.03606" lon="5.90527">
        <ele>2635.1333</ele>
        <time>2015-09-06T11:57:06Z</time>
      </trkpt>
      <trkpt lat="45.03608" lon="5.90529">
        <ele>2635.1333</ele>
        <time>2015-09-06T11:57:11Z</time>
      </trkpt>
      <trkpt lat="45.03608" lon="5.90531">
        <ele>2635.1333</ele>
        <time>2015-09-06T11:57:21Z</time>
      </trkpt>
      <trkpt lat="45.0361" lon="5.90541">
        <ele>2637.6995</ele>
        <time>2015-09-06T11:57:26Z</time>
      </trkpt>
      <trkpt lat="45.03612" lon="5.90553">
        <ele>2640.419</ele>
        <time>2015-09-06T11:57:36Z</time>
      </trkpt>
      <trkpt lat="45.03612" lon="5.90555">
        <ele>2640.419</ele>
        <time>2015-09-06T11:57:41Z</time>
      </trkpt>
      <trkpt lat="45.03614" lon="5.90555">
        <ele>2640.419</ele>
        <time>2015-09-06T11:57:51Z</time>
      </trkpt>
      <trkpt lat="45.03614" lon="5.90555">
        <ele>2640.419</ele>
        <time>2015-09-06T11:57:56Z</time>
      </trkpt>
      <trkpt lat="45.03614" lon="5.90555">
        <ele>2640.419</ele>
        <time>2015-09-06T11:58:11Z</time>
      </trkpt>
      <trkpt lat="45.03614" lon="5.90555">
        <ele>2640.419</ele>
        <time>2015-09-06T11:58:16Z</time>
      </trkpt>
      <trkpt lat="45.03614" lon="5.90555">
        <ele>2640.419</ele>
        <time>2015-09-06T11:58:26Z</time>
      </trkpt>
      <trkpt lat="45.03614" lon="5.90555">
        <ele>2640.419</ele>
        <time>2015-09-06T11:58:31Z</time>
      </trkpt>
      <trkpt lat="45.03614" lon="5.90556">
        <ele>2640.419</ele>
        <time>2015-09-06T11:58:41Z</time>
      </trkpt>
      <trkpt lat="45.03614" lon="5.90556">
        <ele>2640.419</ele>
        <time>2015-09-06T11:58:46Z</time>
      </trkpt>
      <trkpt lat="45.03614" lon="5.90556">
        <ele>2640.419</ele>
        <time>2015-09-06T11:58:56Z</time>
      </trkpt>
      <trkpt lat="45.03614" lon="5.90556">
        <ele>2640.419</ele>
        <time>2015-09-06T11:59:01Z</time>
      </trkpt>
      <trkpt lat="45.03614" lon="5.90556">
        <ele>2640.419</ele>
        <time>2015-09-06T11:59:11Z</time>
      </trkpt>
      <trkpt lat="45.03614" lon="5.90556">
        <ele>2640.419</ele>
        <time>2015-09-06T11:59:16Z</time>
      </trkpt>
      <trkpt lat="45.03614" lon="5.90556">
        <ele>2640.419</ele>
        <time>2015-09-06T11:59:26Z</time>
      </trkpt>
      <trkpt lat="45.03614" lon="5.90556">
        <ele>2640.419</ele>
        <time>2015-09-06T11:59:31Z</time>
      </trkpt>
      <trkpt lat="45.03614" lon="5.90556">
        <ele>2640.419</ele>
        <time>2015-09-06T11:59:41Z</time>
      </trkpt>
      <trkpt lat="45.03614" lon="5.90556">
        <ele>2640.419</ele>
        <time>2015-09-06T11:59:46Z</time>
      </trkpt>
      <trkpt lat="45.03614" lon="5.90556">
        <ele>2640.419</ele>
        <time>2015-09-06T11:59:56Z</time>
      </trkpt>
      <trkpt lat="45.03614" lon="5.90556">
        <ele>2640.419</ele>
        <time>2015-09-06T12:00:01Z</time>
      </trkpt>
      <trkpt lat="45.03614" lon="5.90556">
        <ele>2640.419</ele>
        <time>2015-09-06T12:00:16Z</time>
      </trkpt>
      <trkpt lat="45.03614" lon="5.90556">
        <ele>2640.419</ele>
        <time>2015-09-06T12:00:21Z</time>
      </trkpt>
      <trkpt lat="45.03614" lon="5.90556">
        <ele>2640.419</ele>
        <time>2015-09-06T12:00:31Z</time>
      </trkpt>
      <trkpt lat="45.03614" lon="5.90556">
        <ele>2640.419</ele>
        <time>2015-09-06T12:00:36Z</time>
      </trkpt>
      <trkpt lat="45.03614" lon="5.90556">
        <ele>2640.419</ele>
        <time>2015-09-06T12:00:46Z</time>
      </trkpt>
      <trkpt lat="45.03617" lon="5.90564">
        <ele>2642.9944</ele>
        <time>2015-09-06T12:00:51Z</time>
      </trkpt>
      <trkpt lat="45.03623" lon="5.90575">
        <ele>2645.1514</ele>
        <time>2015-09-06T12:01:01Z</time>
      </trkpt>
      <trkpt lat="45.03628" lon="5.90578">
        <ele>2645.1514</ele>
        <time>2015-09-06T12:01:06Z</time>
      </trkpt>
      <trkpt lat="45.03633" lon="5.9059">
        <ele>2647.2131</ele>
        <time>2015-09-06T12:01:16Z</time>
      </trkpt>
      <trkpt lat="45.03633" lon="5.90594">
        <ele>2647.2131</ele>
        <time>2015-09-06T12:01:21Z</time>
      </trkpt>
      <trkpt lat="45.03634" lon="5.90595">
        <ele>2647.2131</ele>
        <time>2015-09-06T12:01:31Z</time>
      </trkpt>
      <trkpt lat="45.03634" lon="5.90601">
        <ele>2647.2131</ele>
        <time>2015-09-06T12:01:36Z</time>
      </trkpt>
      <trkpt lat="45.03635" lon="5.90602">
        <ele>2649.911</ele>
        <time>2015-09-06T12:01:46Z</time>
      </trkpt>
      <trkpt lat="45.03635" lon="5.90602">
        <ele>2649.911</ele>
        <time>2015-09-06T12:01:51Z</time>
      </trkpt>
      <trkpt lat="45.03635" lon="5.90602">
        <ele>2649.911</ele>
        <time>2015-09-06T12:02:01Z</time>
      </trkpt>
      <trkpt lat="45.03635" lon="5.90602">
        <ele>2649.911</ele>
        <time>2015-09-06T12:02:06Z</time>
      </trkpt>
      <trkpt lat="45.03635" lon="5.90602">
        <ele>2649.911</ele>
        <time>2015-09-06T12:02:16Z</time>
      </trkpt>
      <trkpt lat="45.03635" lon="5.90602">
        <ele>2649.911</ele>
        <time>2015-09-06T12:02:21Z</time>
      </trkpt>
      <trkpt lat="45.03635" lon="5.90602">
        <ele>2649.911</ele>
        <time>2015-09-06T12:02:31Z</time>
      </trkpt>
      <trkpt lat="45.03635" lon="5.90602">
        <ele>2649.911</ele>
        <time>2015-09-06T12:02:36Z</time>
      </trkpt>
      <trkpt lat="45.03635" lon="5.90602">
        <ele>2649.911</ele>
        <time>2015-09-06T12:02:46Z</time>
      </trkpt>
      <trkpt lat="45.03636" lon="5.90603">
        <ele>2649.911</ele>
        <time>2015-09-06T12:02:51Z</time>
      </trkpt>
      <trkpt lat="45.03637" lon="5.90603">
        <ele>2649.911</ele>
        <time>2015-09-06T12:03:06Z</time>
      </trkpt>
      <trkpt lat="45.03638" lon="5.90603">
        <ele>2649.911</ele>
        <time>2015-09-06T12:03:11Z</time>
      </trkpt>
      <trkpt lat="45.03639" lon="5.90602">
        <ele>2649.911</ele>
        <time>2015-09-06T12:03:21Z</time>
      </trkpt>
      <trkpt lat="45.03639" lon="5.90603">
        <ele>2649.911</ele>
        <time>2015-09-06T12:03:26Z</time>
      </trkpt>
      <trkpt lat="45.03643" lon="5.9061">
        <ele>2652.7686</ele>
        <time>2015-09-06T12:03:36Z</time>
      </trkpt>
      <trkpt lat="45.03644" lon="5.90613">
        <ele>2652.7686</ele>
        <time>2015-09-06T12:03:41Z</time>
      </trkpt>
      <trkpt lat="45.03644" lon="5.90615">
        <ele>2652.7686</ele>
        <time>2015-09-06T12:03:51Z</time>
      </trkpt>
      <trkpt lat="45.03644" lon="5.90615">
        <ele>2652.7686</ele>
        <time>2015-09-06T12:03:56Z</time>
      </trkpt>
      <trkpt lat="45.03645" lon="5.90621">
        <ele>2652.7686</ele>
        <time>2015-09-06T12:04:06Z</time>
      </trkpt>
      <trkpt lat="45.03645" lon="5.90625">
        <ele>2654.0466</ele>
        <time>2015-09-06T12:04:11Z</time>
      </trkpt>
      <trkpt lat="45.03645" lon="5.90627">
        <ele>2654.0466</ele>
        <time>2015-09-06T12:04:21Z</time>
      </trkpt>
      <trkpt lat="45.03645" lon="5.90627">
        <ele>2654.0466</ele>
        <time>2015-09-06T12:04:26Z</time>
      </trkpt>
      <trkpt lat="45.03645" lon="5.90628">
        <ele>2654.0466</ele>
        <time>2015-09-06T12:04:36Z</time>
      </trkpt>
      <trkpt lat="45.03648" lon="5.90635">
        <ele>2654.0466</ele>
        <time>2015-09-06T12:04:41Z</time>
      </trkpt>
      <trkpt lat="45.0365" lon="5.90649">
        <ele>2655.8848</ele>
        <time>2015-09-06T12:04:51Z</time>
      </trkpt>
      <trkpt lat="45.03651" lon="5.90649">
        <ele>2655.8848</ele>
        <time>2015-09-06T12:04:56Z</time>
      </trkpt>
      <trkpt lat="45.03651" lon="5.9065">
        <ele>2655.8848</ele>
        <time>2015-09-06T12:05:06Z</time>
      </trkpt>
      <trkpt lat="45.03651" lon="5.9065">
        <ele>2655.8848</ele>
        <time>2015-09-06T12:05:11Z</time>
      </trkpt>
      <trkpt lat="45.03651" lon="5.9065">
        <ele>2655.8848</ele>
        <time>2015-09-06T12:05:26Z</time>
      </trkpt>
      <trkpt lat="45.03651" lon="5.9065">
        <ele>2655.8848</ele>
        <time>2015-09-06T12:05:31Z</time>
      </trkpt>
      <trkpt lat="45.03651" lon="5.9065">
        <ele>2655.8848</ele>
        <time>2015-09-06T12:05:41Z</time>
      </trkpt>
      <trkpt lat="45.03651" lon="5.9065">
        <ele>2655.8848</ele>
        <time>2015-09-06T12:05:46Z</time>
      </trkpt>
      <trkpt lat="45.03653" lon="5.90655">
        <ele>2655.8848</ele>
        <time>2015-09-06T12:05:56Z</time>
      </trkpt>
      <trkpt lat="45.03652" lon="5.90661">
        <ele>2657.2375</ele>
        <time>2015-09-06T12:06:01Z</time>
      </trkpt>
      <trkpt lat="45.03653" lon="5.90664">
        <ele>2657.2375</ele>
        <time>2015-09-06T12:06:11Z</time>
      </trkpt>
      <trkpt lat="45.03652" lon="5.90664">
        <ele>2657.2375</ele>
        <time>2015-09-06T12:06:16Z</time>
      </trkpt>
      <trkpt lat="45.03652" lon="5.90664">
        <ele>2657.2375</ele>
        <time>2015-09-06T12:06:26Z</time>
      </trkpt>
      <trkpt lat="45.03652" lon="5.90664">
        <ele>2657.2375</ele>
        <time>2015-09-06T12:06:31Z</time>
      </trkpt>
      <trkpt lat="45.03652" lon="5.90664">
        <ele>2657.2375</ele>
        <time>2015-09-06T12:06:41Z</time>
      </trkpt>
      <trkpt lat="45.03652" lon="5.90664">
        <ele>2657.2375</ele>
        <time>2015-09-06T12:06:46Z</time>
      </trkpt>
      <trkpt lat="45.03652" lon="5.90669">
        <ele>2657.2375</ele>
        <time>2015-09-06T12:06:56Z</time>
      </trkpt>
      <trkpt lat="45.03657" lon="5.90676">
        <ele>2658.2903</ele>
        <time>2015-09-06T12:07:01Z</time>
      </trkpt>
      <trkpt lat="45.03658" lon="5.90691">
        <ele>2658.7837</ele>
        <time>2015-09-06T12:07:11Z</time>
      </trkpt>
      <trkpt lat="45.03659" lon="5.90689">
        <ele>2658.7837</ele>
        <time>2015-09-06T12:07:16Z</time>
      </trkpt>
      <trkpt lat="45.03659" lon="5.9069">
        <ele>2658.7837</ele>
        <time>2015-09-06T12:07:26Z</time>
      </trkpt>
      <trkpt lat="45.03659" lon="5.90692">
        <ele>2658.7837</ele>
        <time>2015-09-06T12:07:31Z</time>
      </trkpt>
      <trkpt lat="45.0366" lon="5.90694">
        <ele>2658.7837</ele>
        <time>2015-09-06T12:07:41Z</time>
      </trkpt>
      <trkpt lat="45.0366" lon="5.90695">
        <ele>2658.7837</ele>
        <time>2015-09-06T12:07:46Z</time>
      </trkpt>
      <trkpt lat="45.03662" lon="5.90697">
        <ele>2658.7664</ele>
        <time>2015-09-06T12:08:01Z</time>
      </trkpt>
      <trkpt lat="45.03662" lon="5.90698">
        <ele>2658.7664</ele>
        <time>2015-09-06T12:08:06Z</time>
      </trkpt>
      <trkpt lat="45.03664" lon="5.90706">
        <ele>2658.7664</ele>
        <time>2015-09-06T12:08:16Z</time>
      </trkpt>
      <trkpt lat="45.03665" lon="5.9071">
        <ele>2658.285</ele>
        <time>2015-09-06T12:08:21Z</time>
      </trkpt>
      <trkpt lat="45.03665" lon="5.90712">
        <ele>2658.285</ele>
        <time>2015-09-06T12:08:31Z</time>
      </trkpt>
      <trkpt lat="45.03667" lon="5.90714">
        <ele>2658.285</ele>
        <time>2015-09-06T12:08:36Z</time>
      </trkpt>
      <trkpt lat="45.03667" lon="5.90716">
        <ele>2658.285</ele>
        <time>2015-09-06T12:08:46Z</time>
      </trkpt>
      <trkpt lat="45.03668" lon="5.90717">
        <ele>2658.285</ele>
        <time>2015-09-06T12:08:51Z</time>
      </trkpt>
      <trkpt lat="45.03668" lon="5.90721">
        <ele>2658.285</ele>
        <time>2015-09-06T12:09:01Z</time>
      </trkpt>
      <trkpt lat="45.03669" lon="5.90721">
        <ele>2657.8164</ele>
        <time>2015-09-06T12:09:06Z</time>
      </trkpt>
      <trkpt lat="45.03669" lon="5.90723">
        <ele>2657.8164</ele>
        <time>2015-09-06T12:09:16Z</time>
      </trkpt>
      <trkpt lat="45.0367" lon="5.90724">
        <ele>2657.8164</ele>
        <time>2015-09-06T12:09:21Z</time>
      </trkpt>
      <trkpt lat="45.0367" lon="5.90727">
        <ele>2657.8164</ele>
        <time>2015-09-06T12:09:31Z</time>
      </trkpt>
      <trkpt lat="45.03672" lon="5.90732">
        <ele>2657.8164</ele>
        <time>2015-09-06T12:09:36Z</time>
      </trkpt>
      <trkpt lat="45.03672" lon="5.90736">
        <ele>2657.3696</ele>
        <time>2015-09-06T12:09:46Z</time>
      </trkpt>
      <trkpt lat="45.03672" lon="5.90736">
        <ele>2657.3696</ele>
        <time>2015-09-06T12:09:51Z</time>
      </trkpt>
      <trkpt lat="45.03672" lon="5.90736">
        <ele>2657.3696</ele>
        <time>2015-09-06T12:10:01Z</time>
      </trkpt>
      <trkpt lat="45.03672" lon="5.90736">
        <ele>2657.3696</ele>
        <time>2015-09-06T12:10:06Z</time>
      </trkpt>
      <trkpt lat="45.03678" lon="5.90747">
        <ele>2656.2327</ele>
        <time>2015-09-06T12:10:16Z</time>
      </trkpt>
      <trkpt lat="45.03679" lon="5.90748">
        <ele>2656.2327</ele>
        <time>2015-09-06T12:10:21Z</time>
      </trkpt>
      <trkpt lat="45.03682" lon="5.90751">
        <ele>2656.2327</ele>
        <time>2015-09-06T12:10:36Z</time>
      </trkpt>
      <trkpt lat="45.03682" lon="5.90751">
        <ele>2656.2327</ele>
        <time>2015-09-06T12:10:41Z</time>
      </trkpt>
      <trkpt lat="45.03687" lon="5.90766">
        <ele>2655.9084</ele>
        <time>2015-09-06T12:10:51Z</time>
      </trkpt>
      <trkpt lat="45.03688" lon="5.90766">
        <ele>2655.9084</ele>
        <time>2015-09-06T12:10:56Z</time>
      </trkpt>
      <trkpt lat="45.03688" lon="5.90768">
        <ele>2655.9084</ele>
        <time>2015-09-06T12:11:06Z</time>
      </trkpt>
      <trkpt lat="45.03689" lon="5.90768">
        <ele>2655.9084</ele>
        <time>2015-09-06T12:11:11Z</time>
      </trkpt>
      <trkpt lat="45.0369" lon="5.90769">
        <ele>2655.9084</ele>
        <time>2015-09-06T12:11:21Z</time>
      </trkpt>
      <trkpt lat="45.03691" lon="5.90774">
        <ele>2655.9084</ele>
        <time>2015-09-06T12:11:26Z</time>
      </trkpt>
      <trkpt lat="45.03694" lon="5.90778">
        <ele>2656.923</ele>
        <time>2015-09-06T12:11:36Z</time>
      </trkpt>
      <trkpt lat="45.03694" lon="5.90778">
        <ele>2656.923</ele>
        <time>2015-09-06T12:11:41Z</time>
      </trkpt>
      <trkpt lat="45.03694" lon="5.90779">
        <ele>2656.923</ele>
        <time>2015-09-06T12:11:51Z</time>
      </trkpt>
      <trkpt lat="45.03694" lon="5.90779">
        <ele>2656.923</ele>
        <time>2015-09-06T12:11:56Z</time>
      </trkpt>
      <trkpt lat="45.03694" lon="5.90779">
        <ele>2656.923</ele>
        <time>2015-09-06T12:12:06Z</time>
      </trkpt>
      <trkpt lat="45.03697" lon="5.90784">
        <ele>2656.923</ele>
        <time>2015-09-06T12:12:11Z</time>
      </trkpt>
      <trkpt lat="45.037" lon="5.90796">
        <ele>2657.742</ele>
        <time>2015-09-06T12:12:21Z</time>
      </trkpt>
      <trkpt lat="45.037" lon="5.90798">
        <ele>2657.742</ele>
        <time>2015-09-06T12:12:26Z</time>
      </trkpt>
      <trkpt lat="45.037" lon="5.90799">
        <ele>2657.742</ele>
        <time>2015-09-06T12:12:36Z</time>
      </trkpt>
      <trkpt lat="45.037" lon="5.90797">
        <ele>2657.742</ele>
        <time>2015-09-06T12:12:41Z</time>
      </trkpt>
      <trkpt lat="45.037" lon="5.90797">
        <ele>2657.742</ele>
        <time>2015-09-06T12:12:51Z</time>
      </trkpt>
      <trkpt lat="45.037" lon="5.90797">
        <ele>2657.742</ele>
        <time>2015-09-06T12:12:56Z</time>
      </trkpt>
      <trkpt lat="45.03703" lon="5.90804">
        <ele>2657.742</ele>
        <time>2015-09-06T12:13:11Z</time>
      </trkpt>
      <trkpt lat="45.03703" lon="5.90806">
        <ele>2658.2407</ele>
        <time>2015-09-06T12:13:16Z</time>
      </trkpt>
      <trkpt lat="45.03708" lon="5.90808">
        <ele>2658.2407</ele>
        <time>2015-09-06T12:13:26Z</time>
      </trkpt>
      <trkpt lat="45.03709" lon="5.90809">
        <ele>2658.2407</ele>
        <time>2015-09-06T12:13:31Z</time>
      </trkpt>
      <trkpt lat="45.03709" lon="5.9081">
        <ele>2658.2407</ele>
        <time>2015-09-06T12:13:41Z</time>
      </trkpt>
      <trkpt lat="45.0371" lon="5.9081">
        <ele>2658.2407</ele>
        <time>2015-09-06T12:13:46Z</time>
      </trkpt>
      <trkpt lat="45.03712" lon="5.90812">
        <ele>2657.8726</ele>
        <time>2015-09-06T12:13:56Z</time>
      </trkpt>
      <trkpt lat="45.03711" lon="5.90816">
        <ele>2657.8726</ele>
        <time>2015-09-06T12:14:01Z</time>
      </trkpt>
      <trkpt lat="45.03713" lon="5.9082">
        <ele>2657.8726</ele>
        <time>2015-09-06T12:14:11Z</time>
      </trkpt>
      <trkpt lat="45.03714" lon="5.9082">
        <ele>2657.8726</ele>
        <time>2015-09-06T12:14:16Z</time>
      </trkpt>
      <trkpt lat="45.03713" lon="5.90821">
        <ele>2657.8726</ele>
        <time>2015-09-06T12:14:26Z</time>
      </trkpt>
      <trkpt lat="45.03714" lon="5.90821">
        <ele>2657.8726</ele>
        <time>2015-09-06T12:14:31Z</time>
      </trkpt>
      <trkpt lat="45.03714" lon="5.90822">
        <ele>2658.1506</ele>
        <time>2015-09-06T12:14:41Z</time>
      </trkpt>
      <trkpt lat="45.03714" lon="5.90823">
        <ele>2658.1506</ele>
        <time>2015-09-06T12:14:46Z</time>
      </trkpt>
      <trkpt lat="45.03717" lon="5.9083">
        <ele>2658.1506</ele>
        <time>2015-09-06T12:14:56Z</time>
      </trkpt>
      <trkpt lat="45.03717" lon="5.9083">
        <ele>2658.1506</ele>
        <time>2015-09-06T12:15:01Z</time>
      </trkpt>
      <trkpt lat="45.03717" lon="5.90832">
        <ele>2658.1506</ele>
        <time>2015-09-06T12:15:16Z</time>
      </trkpt>
      <trkpt lat="45.03717" lon="5.90832">
        <ele>2658.1506</ele>
        <time>2015-09-06T12:15:21Z</time>
      </trkpt>
      <trkpt lat="45.03717" lon="5.90832">
        <ele>2658.1506</ele>
        <time>2015-09-06T12:15:31Z</time>
      </trkpt>
      <trkpt lat="45.03719" lon="5.90837">
        <ele>2658.1687</ele>
        <time>2015-09-06T12:15:36Z</time>
      </trkpt>
      <trkpt lat="45.03722" lon="5.90842">
        <ele>2658.1687</ele>
        <time>2015-09-06T12:15:46Z</time>
      </trkpt>
      <trkpt lat="45.03722" lon="5.90842">
        <ele>2658.1687</ele>
        <time>2015-09-06T12:15:51Z</time>
      </trkpt>
      <trkpt lat="45.03722" lon="5.90842">
        <ele>2658.1687</ele>
        <time>2015-09-06T12:16:01Z</time>
      </trkpt>
      <trkpt lat="45.03722" lon="5.90843">
        <ele>2658.1687</ele>
        <time>2015-09-06T12:16:06Z</time>
      </trkpt>
      <trkpt lat="45.03723" lon="5.90843">
        <ele>2658.1687</ele>
        <time>2015-09-06T12:16:16Z</time>
      </trkpt>
      <trkpt lat="45.03723" lon="5.90845">
        <ele>2658.1687</ele>
        <time>2015-09-06T12:16:21Z</time>
      </trkpt>
      <trkpt lat="45.03725" lon="5.90855">
        <ele>2659.1055</ele>
        <time>2015-09-06T12:16:31Z</time>
      </trkpt>
      <trkpt lat="45.03728" lon="5.90858">
        <ele>2659.1055</ele>
        <time>2015-09-06T12:16:36Z</time>
      </trkpt>
      <trkpt lat="45.03728" lon="5.90858">
        <ele>2659.1055</ele>
        <time>2015-09-06T12:16:46Z</time>
      </trkpt>
      <trkpt lat="45.03728" lon="5.90858">
        <ele>2659.1055</ele>
        <time>2015-09-06T12:16:51Z</time>
      </trkpt>
      <trkpt lat="45.03728" lon="5.90858">
        <ele>2659.1055</ele>
        <time>2015-09-06T12:17:01Z</time>
      </trkpt>
      <trkpt lat="45.03728" lon="5.90858">
        <ele>2659.1055</ele>
        <time>2015-09-06T12:17:06Z</time>
      </trkpt>
      <trkpt lat="45.03729" lon="5.90859">
        <ele>2659.1055</ele>
        <time>2015-09-06T12:17:16Z</time>
      </trkpt>
      <trkpt lat="45.03729" lon="5.90859">
        <ele>2659.1055</ele>
        <time>2015-09-06T12:17:21Z</time>
      </trkpt>
      <trkpt lat="45.03729" lon="5.90859">
        <ele>2659.1055</ele>
        <time>2015-09-06T12:17:31Z</time>
      </trkpt>
      <trkpt lat="45.03729" lon="5.90859">
        <ele>2659.1055</ele>
        <time>2015-09-06T12:17:36Z</time>
      </trkpt>
      <trkpt lat="45.03729" lon="5.9086">
        <ele>2659.1055</ele>
        <time>2015-09-06T12:17:51Z</time>
      </trkpt>
      <trkpt lat="45.03731" lon="5.90869">
        <ele>2659.1682</ele>
        <time>2015-09-06T12:17:56Z</time>
      </trkpt>
      <trkpt lat="45.03737" lon="5.90883">
        <ele>2659.4358</ele>
        <time>2015-09-06T12:18:06Z</time>
      </trkpt>
      <trkpt lat="45.03739" lon="5.90886">
        <ele>2659.4358</ele>
        <time>2015-09-06T12:18:11Z</time>
      </trkpt>
      <trkpt lat="45.03741" lon="5.90886">
        <ele>2659.4358</ele>
        <time>2015-09-06T12:18:21Z</time>
      </trkpt>
      <trkpt lat="45.03741" lon="5.90886">
        <ele>2659.4358</ele>
        <time>2015-09-06T12:18:26Z</time>
      </trkpt>
      <trkpt lat="45.03741" lon="5.90887">
        <ele>2659.4358</ele>
        <time>2015-09-06T12:18:36Z</time>
      </trkpt>
      <trkpt lat="45.03741" lon="5.90887">
        <ele>2659.4358</ele>
        <time>2015-09-06T12:18:41Z</time>
      </trkpt>
      <trkpt lat="45.03741" lon="5.90887">
        <ele>2659.4358</ele>
        <time>2015-09-06T12:18:51Z</time>
      </trkpt>
      <trkpt lat="45.03748" lon="5.90896">
        <ele>2659.3218</ele>
        <time>2015-09-06T12:18:56Z</time>
      </trkpt>
      <trkpt lat="45.03753" lon="5.909">
        <ele>2659.3218</ele>
        <time>2015-09-06T12:19:06Z</time>
      </trkpt>
      <trkpt lat="45.03753" lon="5.90903">
        <ele>2659.3218</ele>
        <time>2015-09-06T12:19:11Z</time>
      </trkpt>
      <trkpt lat="45.03757" lon="5.9091">
        <ele>2659.4373</ele>
        <time>2015-09-06T12:19:21Z</time>
      </trkpt>
      <trkpt lat="45.03756" lon="5.90912">
        <ele>2659.4373</ele>
        <time>2015-09-06T12:19:26Z</time>
      </trkpt>
      <trkpt lat="45.03757" lon="5.90913">
        <ele>2659.4373</ele>
        <time>2015-09-06T12:19:36Z</time>
      </trkpt>
      <trkpt lat="45.03757" lon="5.90913">
        <ele>2659.4373</ele>
        <time>2015-09-06T12:19:41Z</time>
      </trkpt>
      <trkpt lat="45.03757" lon="5.90913">
        <ele>2659.4373</ele>
        <time>2015-09-06T12:19:51Z</time>
      </trkpt>
      <trkpt lat="45.03757" lon="5.90913">
        <ele>2659.4373</ele>
        <time>2015-09-06T12:19:56Z</time>
      </trkpt>
      <trkpt lat="45.03766" lon="5.90927">
        <ele>2660.2024</ele>
        <time>2015-09-06T12:20:06Z</time>
      </trkpt>
      <trkpt lat="45.03768" lon="5.90934">
        <ele>2660.2024</ele>
        <time>2015-09-06T12:20:11Z</time>
      </trkpt>
      <trkpt lat="45.03771" lon="5.90948">
        <ele>2661.2844</ele>
        <time>2015-09-06T12:20:26Z</time>
      </trkpt>
      <trkpt lat="45.03772" lon="5.90952">
        <ele>2661.2844</ele>
        <time>2015-09-06T12:20:31Z</time>
      </trkpt>
      <trkpt lat="45.03772" lon="5.90955">
        <ele>2661.2844</ele>
        <time>2015-09-06T12:20:41Z</time>
      </trkpt>
      <trkpt lat="45.03773" lon="5.90955">
        <ele>2661.2844</ele>
        <time>2015-09-06T12:20:46Z</time>
      </trkpt>
      <trkpt lat="45.0378" lon="5.90974">
        <ele>2662.3743</ele>
        <time>2015-09-06T12:20:56Z</time>
      </trkpt>
      <trkpt lat="45.03785" lon="5.90978">
        <ele>2662.3743</ele>
        <time>2015-09-06T12:21:01Z</time>
      </trkpt>
      <trkpt lat="45.03789" lon="5.90985">
        <ele>2663.617</ele>
        <time>2015-09-06T12:21:11Z</time>
      </trkpt>
      <trkpt lat="45.0379" lon="5.90984">
        <ele>2663.617</ele>
        <time>2015-09-06T12:21:16Z</time>
      </trkpt>
      <trkpt lat="45.03793" lon="5.90991">
        <ele>2663.617</ele>
        <time>2015-09-06T12:21:26Z</time>
      </trkpt>
      <trkpt lat="45.03797" lon="5.90997">
        <ele>2664.282</ele>
        <time>2015-09-06T12:21:31Z</time>
      </trkpt>
      <trkpt lat="45.03801" lon="5.91008">
        <ele>2665.9995</ele>
        <time>2015-09-06T12:21:41Z</time>
      </trkpt>
      <trkpt lat="45.03802" lon="5.91008">
        <ele>2665.9995</ele>
        <time>2015-09-06T12:21:46Z</time>
      </trkpt>
      <trkpt lat="45.03807" lon="5.91016">
        <ele>2665.9995</ele>
        <time>2015-09-06T12:21:56Z</time>
      </trkpt>
      <trkpt lat="45.0381" lon="5.91023">
        <ele>2667.683</ele>
        <time>2015-09-06T12:22:01Z</time>
      </trkpt>
      <trkpt lat="45.03816" lon="5.91034">
        <ele>2669.4785</ele>
        <time>2015-09-06T12:22:11Z</time>
      </trkpt>
      <trkpt lat="45.03818" lon="5.9104">
        <ele>2669.4785</ele>
        <time>2015-09-06T12:22:16Z</time>
      </trkpt>
      <trkpt lat="45.03823" lon="5.91047">
        <ele>2671.8088</ele>
        <time>2015-09-06T12:22:26Z</time>
      </trkpt>
      <trkpt lat="45.03826" lon="5.91049">
        <ele>2671.8088</ele>
        <time>2015-09-06T12:22:31Z</time>
      </trkpt>
      <trkpt lat="45.03837" lon="5.91063">
        <ele>2674.056</ele>
        <time>2015-09-06T12:22:46Z</time>
      </trkpt>
      <trkpt lat="45.03841" lon="5.91068">
        <ele>2674.056</ele>
        <time>2015-09-06T12:22:51Z</time>
      </trkpt>
      <trkpt lat="45.03849" lon="5.9108">
        <ele>2675.9348</ele>
        <time>2015-09-06T12:23:01Z</time>
      </trkpt>
      <trkpt lat="45.03851" lon="5.9108">
        <ele>2675.9348</ele>
        <time>2015-09-06T12:23:06Z</time>
      </trkpt>
      <trkpt lat="45.03856" lon="5.91087">
        <ele>2675.9348</ele>
        <time>2015-09-06T12:23:16Z</time>
      </trkpt>
      <trkpt lat="45.03857" lon="5.91092">
        <ele>2677.1826</ele>
        <time>2015-09-06T12:23:21Z</time>
      </trkpt>
      <trkpt lat="45.0386" lon="5.91101">
        <ele>2677.1826</ele>
        <time>2015-09-06T12:23:31Z</time>
      </trkpt>
      <trkpt lat="45.0386" lon="5.911">
        <ele>2677.1826</ele>
        <time>2015-09-06T12:23:36Z</time>
      </trkpt>
      <trkpt lat="45.03864" lon="5.91107">
        <ele>2678.7104</ele>
        <time>2015-09-06T12:23:46Z</time>
      </trkpt>
      <trkpt lat="45.03865" lon="5.91114">
        <ele>2678.7104</ele>
        <time>2015-09-06T12:23:51Z</time>
      </trkpt>
      <trkpt lat="45.03868" lon="5.9113">
        <ele>2679.7761</ele>
        <time>2015-09-06T12:24:01Z</time>
      </trkpt>
      <trkpt lat="45.03869" lon="5.91137">
        <ele>2679.7761</ele>
        <time>2015-09-06T12:24:06Z</time>
      </trkpt>
      <trkpt lat="45.03869" lon="5.91134">
        <ele>2679.7761</ele>
        <time>2015-09-06T12:24:21Z</time>
      </trkpt>
      <trkpt lat="45.03869" lon="5.91134">
        <ele>2679.7761</ele>
        <time>2015-09-06T12:24:26Z</time>
      </trkpt>
      <trkpt lat="45.0387" lon="5.91138">
        <ele>2680.8467</ele>
        <time>2015-09-06T12:24:36Z</time>
      </trkpt>
      <trkpt lat="45.03871" lon="5.91137">
        <ele>2680.8467</ele>
        <time>2015-09-06T12:24:41Z</time>
      </trkpt>
      <trkpt lat="45.0387" lon="5.91138">
        <ele>2680.8467</ele>
        <time>2015-09-06T12:24:51Z</time>
      </trkpt>
      <trkpt lat="45.03869" lon="5.91139">
        <ele>2680.8467</ele>
        <time>2015-09-06T12:24:56Z</time>
      </trkpt>
      <trkpt lat="45.0387" lon="5.9115">
        <ele>2681.6335</ele>
        <time>2015-09-06T12:25:06Z</time>
      </trkpt>
      <trkpt lat="45.0387" lon="5.9115">
        <ele>2681.6335</ele>
        <time>2015-09-06T12:25:11Z</time>
      </trkpt>
      <trkpt lat="45.03871" lon="5.91154">
        <ele>2681.6335</ele>
        <time>2015-09-06T12:25:21Z</time>
      </trkpt>
      <trkpt lat="45.03871" lon="5.91154">
        <ele>2681.6335</ele>
        <time>2015-09-06T12:25:26Z</time>
      </trkpt>
      <trkpt lat="45.03873" lon="5.91169">
        <ele>2681.8704</ele>
        <time>2015-09-06T12:25:36Z</time>
      </trkpt>
      <trkpt lat="45.03875" lon="5.91173">
        <ele>2681.8704</ele>
        <time>2015-09-06T12:25:41Z</time>
      </trkpt>
      <trkpt lat="45.03878" lon="5.91188">
        <ele>2682.1765</ele>
        <time>2015-09-06T12:25:51Z</time>
      </trkpt>
      <trkpt lat="45.03882" lon="5.91196">
        <ele>2682.1765</ele>
        <time>2015-09-06T12:25:56Z</time>
      </trkpt>
      <trkpt lat="45.03882" lon="5.91209">
        <ele>2682.8374</ele>
        <time>2015-09-06T12:26:06Z</time>
      </trkpt>
      <trkpt lat="45.03884" lon="5.91219">
        <ele>2682.8374</ele>
        <time>2015-09-06T12:26:11Z</time>
      </trkpt>
      <trkpt lat="45.03885" lon="5.91221">
        <ele>2683.2515</ele>
        <time>2015-09-06T12:26:21Z</time>
      </trkpt>
      <trkpt lat="45.03888" lon="5.9123">
        <ele>2683.2515</ele>
        <time>2015-09-06T12:26:26Z</time>
      </trkpt>
      <trkpt lat="45.03894" lon="5.91246">
        <ele>2683.871</ele>
        <time>2015-09-06T12:26:36Z</time>
      </trkpt>
      <trkpt lat="45.03895" lon="5.91256">
        <ele>2683.871</ele>
        <time>2015-09-06T12:26:41Z</time>
      </trkpt>
      <trkpt lat="45.03897" lon="5.91258">
        <ele>2684.6824</ele>
        <time>2015-09-06T12:26:51Z</time>
      </trkpt>
      <trkpt lat="45.03899" lon="5.91264">
        <ele>2684.6824</ele>
        <time>2015-09-06T12:26:56Z</time>
      </trkpt>
      <trkpt lat="45.03902" lon="5.91288">
        <ele>2685.6716</ele>
        <time>2015-09-06T12:27:06Z</time>
      </trkpt>
      <trkpt lat="45.03902" lon="5.9129">
        <ele>2685.6716</ele>
        <time>2015-09-06T12:27:11Z</time>
      </trkpt>
      <trkpt lat="45.03907" lon="5.91308">
        <ele>2686.97</ele>
        <time>2015-09-06T12:27:26Z</time>
      </trkpt>
      <trkpt lat="45.03907" lon="5.91316">
        <ele>2686.97</ele>
        <time>2015-09-06T12:27:31Z</time>
      </trkpt>
      <trkpt lat="45.0391" lon="5.91329">
        <ele>2687.977</ele>
        <time>2015-09-06T12:27:41Z</time>
      </trkpt>
      <trkpt lat="45.03912" lon="5.91333">
        <ele>2687.977</ele>
        <time>2015-09-06T12:27:46Z</time>
      </trkpt>
      <trkpt lat="45.03913" lon="5.91341">
        <ele>2689.003</ele>
        <time>2015-09-06T12:27:56Z</time>
      </trkpt>
      <trkpt lat="45.03915" lon="5.91351">
        <ele>2689.003</ele>
        <time>2015-09-06T12:28:01Z</time>
      </trkpt>
      <trkpt lat="45.03917" lon="5.91362">
        <ele>2689.9011</ele>
        <time>2015-09-06T12:28:11Z</time>
      </trkpt>
      <trkpt lat="45.03918" lon="5.91362">
        <ele>2689.9011</ele>
        <time>2015-09-06T12:28:16Z</time>
      </trkpt>
      <trkpt lat="45.0392" lon="5.91366">
        <ele>2689.9011</ele>
        <time>2015-09-06T12:28:26Z</time>
      </trkpt>
      <trkpt lat="45.03925" lon="5.91378">
        <ele>2691.114</ele>
        <time>2015-09-06T12:28:31Z</time>
      </trkpt>
      <trkpt lat="45.0393" lon="5.91391">
        <ele>2691.8965</ele>
        <time>2015-09-06T12:28:41Z</time>
      </trkpt>
      <trkpt lat="45.03933" lon="5.91396">
        <ele>2691.8965</ele>
        <time>2015-09-06T12:28:46Z</time>
      </trkpt>
      <trkpt lat="45.03938" lon="5.9141">
        <ele>2693.0015</ele>
        <time>2015-09-06T12:29:01Z</time>
      </trkpt>
      <trkpt lat="45.0394" lon="5.91415">
        <ele>2693.0015</ele>
        <time>2015-09-06T12:29:06Z</time>
      </trkpt>
      <trkpt lat="45.03942" lon="5.91427">
        <ele>2693.3955</ele>
        <time>2015-09-06T12:29:16Z</time>
      </trkpt>
      <trkpt lat="45.03945" lon="5.91434">
        <ele>2693.3955</ele>
        <time>2015-09-06T12:29:21Z</time>
      </trkpt>
      <trkpt lat="45.03949" lon="5.91438">
        <ele>2694.2852</ele>
        <time>2015-09-06T12:29:31Z</time>
      </trkpt>
      <trkpt lat="45.03949" lon="5.91438">
        <ele>2694.2852</ele>
        <time>2015-09-06T12:29:36Z</time>
      </trkpt>
      <trkpt lat="45.03949" lon="5.91438">
        <ele>2694.2852</ele>
        <time>2015-09-06T12:29:46Z</time>
      </trkpt>
      <trkpt lat="45.03949" lon="5.91438">
        <ele>2694.2852</ele>
        <time>2015-09-06T12:29:51Z</time>
      </trkpt>
      <trkpt lat="45.03949" lon="5.91438">
        <ele>2694.2852</ele>
        <time>2015-09-06T12:30:01Z</time>
      </trkpt>
      <trkpt lat="45.03949" lon="5.91438">
        <ele>2694.2852</ele>
        <time>2015-09-06T12:30:06Z</time>
      </trkpt>
      <trkpt lat="45.03949" lon="5.91438">
        <ele>2694.2852</ele>
        <time>2015-09-06T12:30:16Z</time>
      </trkpt>
      <trkpt lat="45.03949" lon="5.91439">
        <ele>2694.2852</ele>
        <time>2015-09-06T12:30:21Z</time>
      </trkpt>
      <trkpt lat="45.03947" lon="5.91461">
        <ele>2693.9048</ele>
        <time>2015-09-06T12:30:36Z</time>
      </trkpt>
      <trkpt lat="45.03953" lon="5.91469">
        <ele>2693.9048</ele>
        <time>2015-09-06T12:30:41Z</time>
      </trkpt>
      <trkpt lat="45.03958" lon="5.91483">
        <ele>2693.936</ele>
        <time>2015-09-06T12:30:51Z</time>
      </trkpt>
      <trkpt lat="45.0396" lon="5.91491">
        <ele>2693.936</ele>
        <time>2015-09-06T12:30:56Z</time>
      </trkpt>
      <trkpt lat="45.03957" lon="5.91521">
        <ele>2693.3423</ele>
        <time>2015-09-06T12:31:06Z</time>
      </trkpt>
      <trkpt lat="45.03956" lon="5.91525">
        <ele>2693.3423</ele>
        <time>2015-09-06T12:31:11Z</time>
      </trkpt>
      <trkpt lat="45.03955" lon="5.91537">
        <ele>2692.4617</ele>
        <time>2015-09-06T12:31:21Z</time>
      </trkpt>
      <trkpt lat="45.03955" lon="5.91538">
        <ele>2692.4617</ele>
        <time>2015-09-06T12:31:26Z</time>
      </trkpt>
      <trkpt lat="45.03956" lon="5.91544">
        <ele>2692.4617</ele>
        <time>2015-09-06T12:31:36Z</time>
      </trkpt>
      <trkpt lat="45.03956" lon="5.91554">
        <ele>2691.1758</ele>
        <time>2015-09-06T12:31:41Z</time>
      </trkpt>
      <trkpt lat="45.03954" lon="5.91579">
        <ele>2689.2322</ele>
        <time>2015-09-06T12:31:51Z</time>
      </trkpt>
      <trkpt lat="45.03953" lon="5.91585">
        <ele>2689.2322</ele>
        <time>2015-09-06T12:31:56Z</time>
      </trkpt>
      <trkpt lat="45.03946" lon="5.91595">
        <ele>2686.2542</ele>
        <time>2015-09-06T12:32:06Z</time>
      </trkpt>
      <trkpt lat="45.03946" lon="5.91596">
        <ele>2686.2542</ele>
        <time>2015-09-06T12:32:11Z</time>
      </trkpt>
      <trkpt lat="45.03939" lon="5.9162">
        <ele>2682.6162</ele>
        <time>2015-09-06T12:32:26Z</time>
      </trkpt>
      <trkpt lat="45.03932" lon="5.91627">
        <ele>2682.6162</ele>
        <time>2015-09-06T12:32:31Z</time>
      </trkpt>
      <trkpt lat="45.03928" lon="5.91648">
        <ele>2679.0996</ele>
        <time>2015-09-06T12:32:41Z</time>
      </trkpt>
      <trkpt lat="45.03927" lon="5.91656">
        <ele>2679.0996</ele>
        <time>2015-09-06T12:32:46Z</time>
      </trkpt>
      <trkpt lat="45.03917" lon="5.91668">
        <ele>2675.275</ele>
        <time>2015-09-06T12:32:56Z</time>
      </trkpt>
      <trkpt lat="45.03919" lon="5.91673">
        <ele>2675.275</ele>
        <time>2015-09-06T12:33:01Z</time>
      </trkpt>
      <trkpt lat="45.03919" lon="5.91682">
        <ele>2671.465</ele>
        <time>2015-09-06T12:33:11Z</time>
      </trkpt>
      <trkpt lat="45.03922" lon="5.9169">
        <ele>2671.465</ele>
        <time>2015-09-06T12:33:16Z</time>
      </trkpt>
      <trkpt lat="45.03923" lon="5.91701">
        <ele>2668.1135</ele>
        <time>2015-09-06T12:33:26Z</time>
      </trkpt>
      <trkpt lat="45.03922" lon="5.917">
        <ele>2668.1135</ele>
        <time>2015-09-06T12:33:31Z</time>
      </trkpt>
      <trkpt lat="45.03921" lon="5.91701">
        <ele>2668.1135</ele>
        <time>2015-09-06T12:33:41Z</time>
      </trkpt>
      <trkpt lat="45.03918" lon="5.917">
        <ele>2668.1135</ele>
        <time>2015-09-06T12:33:46Z</time>
      </trkpt>
      <trkpt lat="45.03918" lon="5.917">
        <ele>2668.1135</ele>
        <time>2015-09-06T12:34:01Z</time>
      </trkpt>
      <trkpt lat="45.03918" lon="5.917">
        <ele>2668.1135</ele>
        <time>2015-09-06T12:34:06Z</time>
      </trkpt>
      <trkpt lat="45.03918" lon="5.917">
        <ele>2668.1135</ele>
        <time>2015-09-06T12:34:16Z</time>
      </trkpt>
      <trkpt lat="45.03918" lon="5.917">
        <ele>2668.1135</ele>
        <time>2015-09-06T12:34:21Z</time>
      </trkpt>
      <trkpt lat="45.03918" lon="5.917">
        <ele>2668.1135</ele>
        <time>2015-09-06T12:34:31Z</time>
      </trkpt>
      <trkpt lat="45.03918" lon="5.917">
        <ele>2668.1135</ele>
        <time>2015-09-06T12:34:36Z</time>
      </trkpt>
      <trkpt lat="45.03918" lon="5.917">
        <ele>2668.1135</ele>
        <time>2015-09-06T12:34:46Z</time>
      </trkpt>
      <trkpt lat="45.03918" lon="5.917">
        <ele>2668.1135</ele>
        <time>2015-09-06T12:34:51Z</time>
      </trkpt>
      <trkpt lat="45.03918" lon="5.917">
        <ele>2668.1135</ele>
        <time>2015-09-06T12:35:01Z</time>
      </trkpt>
      <trkpt lat="45.03918" lon="5.917">
        <ele>2668.1135</ele>
        <time>2015-09-06T12:35:06Z</time>
      </trkpt>
      <trkpt lat="45.03918" lon="5.917">
        <ele>2668.1135</ele>
        <time>2015-09-06T12:35:16Z</time>
      </trkpt>
      <trkpt lat="45.03918" lon="5.917">
        <ele>2668.1135</ele>
        <time>2015-09-06T12:35:21Z</time>
      </trkpt>
      <trkpt lat="45.03918" lon="5.917">
        <ele>2668.1135</ele>
        <time>2015-09-06T12:35:31Z</time>
      </trkpt>
      <trkpt lat="45.03918" lon="5.917">
        <ele>2668.1135</ele>
        <time>2015-09-06T12:35:36Z</time>
      </trkpt>
      <trkpt lat="45.03918" lon="5.917">
        <ele>2668.1135</ele>
        <time>2015-09-06T12:35:46Z</time>
      </trkpt>
      <trkpt lat="45.03918" lon="5.917">
        <ele>2668.1135</ele>
        <time>2015-09-06T12:35:51Z</time>
      </trkpt>
      <trkpt lat="45.03918" lon="5.917">
        <ele>2668.1135</ele>
        <time>2015-09-06T12:36:01Z</time>
      </trkpt>
      <trkpt lat="45.03918" lon="5.917">
        <ele>2668.1135</ele>
        <time>2015-09-06T12:36:06Z</time>
      </trkpt>
      <trkpt lat="45.03918" lon="5.917">
        <ele>2668.1135</ele>
        <time>2015-09-06T12:36:21Z</time>
      </trkpt>
      <trkpt lat="45.03918" lon="5.917">
        <ele>2668.1135</ele>
        <time>2015-09-06T12:36:26Z</time>
      </trkpt>
      <trkpt lat="45.03918" lon="5.917">
        <ele>2668.1135</ele>
        <time>2015-09-06T12:36:36Z</time>
      </trkpt>
      <trkpt lat="45.03918" lon="5.917">
        <ele>2668.1135</ele>
        <time>2015-09-06T12:36:41Z</time>
      </trkpt>
      <trkpt lat="45.0392" lon="5.91711">
        <ele>2665.6294</ele>
        <time>2015-09-06T12:36:51Z</time>
      </trkpt>
      <trkpt lat="45.03919" lon="5.91726">
        <ele>2662.9482</ele>
        <time>2015-09-06T12:36:56Z</time>
      </trkpt>
      <trkpt lat="45.03921" lon="5.91726">
        <ele>2662.9482</ele>
        <time>2015-09-06T12:37:06Z</time>
      </trkpt>
      <trkpt lat="45.03921" lon="5.91726">
        <ele>2662.9482</ele>
        <time>2015-09-06T12:37:11Z</time>
      </trkpt>
      <trkpt lat="45.03917" lon="5.91737">
        <ele>2659.0842</ele>
        <time>2015-09-06T12:37:21Z</time>
      </trkpt>
      <trkpt lat="45.03917" lon="5.9174">
        <ele>2659.0842</ele>
        <time>2015-09-06T12:37:26Z</time>
      </trkpt>
      <trkpt lat="45.03915" lon="5.91742">
        <ele>2659.0842</ele>
        <time>2015-09-06T12:37:36Z</time>
      </trkpt>
      <trkpt lat="45.03915" lon="5.91748">
        <ele>2659.0842</ele>
        <time>2015-09-06T12:37:41Z</time>
      </trkpt>
      <trkpt lat="45.03914" lon="5.91749">
        <ele>2655.5762</ele>
        <time>2015-09-06T12:37:51Z</time>
      </trkpt>
      <trkpt lat="45.03908" lon="5.91756">
        <ele>2655.5762</ele>
        <time>2015-09-06T12:37:56Z</time>
      </trkpt>
      <trkpt lat="45.03902" lon="5.91764">
        <ele>2654.2817</ele>
        <time>2015-09-06T12:38:06Z</time>
      </trkpt>
      <trkpt lat="45.03904" lon="5.91771">
        <ele>2654.2817</ele>
        <time>2015-09-06T12:38:11Z</time>
      </trkpt>
      <trkpt lat="45.03908" lon="5.91784">
        <ele>2654.4656</ele>
        <time>2015-09-06T12:38:26Z</time>
      </trkpt>
      <trkpt lat="45.03906" lon="5.91788">
        <ele>2654.4656</ele>
        <time>2015-09-06T12:38:31Z</time>
      </trkpt>
      <trkpt lat="45.03904" lon="5.91791">
        <ele>2654.4656</ele>
        <time>2015-09-06T12:38:41Z</time>
      </trkpt>
      <trkpt lat="45.03902" lon="5.91793">
        <ele>2654.7212</ele>
        <time>2015-09-06T12:38:46Z</time>
      </trkpt>
      <trkpt lat="45.03894" lon="5.91805">
        <ele>2654.3218</ele>
        <time>2015-09-06T12:38:56Z</time>
      </trkpt>
      <trkpt lat="45.03897" lon="5.91815">
        <ele>2654.3218</ele>
        <time>2015-09-06T12:39:01Z</time>
      </trkpt>
      <trkpt lat="45.03893" lon="5.91811">
        <ele>2654.6123</ele>
        <time>2015-09-06T12:39:11Z</time>
      </trkpt>
      <trkpt lat="45.03893" lon="5.91809">
        <ele>2654.6123</ele>
        <time>2015-09-06T12:39:16Z</time>
      </trkpt>
      <trkpt lat="45.03891" lon="5.91811">
        <ele>2654.6123</ele>
        <time>2015-09-06T12:39:26Z</time>
      </trkpt>
      <trkpt lat="45.03891" lon="5.91812">
        <ele>2654.6123</ele>
        <time>2015-09-06T12:39:31Z</time>
      </trkpt>
      <trkpt lat="45.03891" lon="5.91812">
        <ele>2654.6123</ele>
        <time>2015-09-06T12:39:41Z</time>
      </trkpt>
      <trkpt lat="45.03891" lon="5.91812">
        <ele>2654.6123</ele>
        <time>2015-09-06T12:39:46Z</time>
      </trkpt>
      <trkpt lat="45.03885" lon="5.91826">
        <ele>2656.1172</ele>
        <time>2015-09-06T12:39:56Z</time>
      </trkpt>
      <trkpt lat="45.03881" lon="5.91831">
        <ele>2656.1172</ele>
        <time>2015-09-06T12:40:01Z</time>
      </trkpt>
      <trkpt lat="45.03881" lon="5.91832">
        <ele>2656.1172</ele>
        <time>2015-09-06T12:40:11Z</time>
      </trkpt>
      <trkpt lat="45.0388" lon="5.91832">
        <ele>2656.1172</ele>
        <time>2015-09-06T12:40:16Z</time>
      </trkpt>
      <trkpt lat="45.0388" lon="5.91832">
        <ele>2656.1172</ele>
        <time>2015-09-06T12:40:31Z</time>
      </trkpt>
      <trkpt lat="45.0388" lon="5.91832">
        <ele>2656.1172</ele>
        <time>2015-09-06T12:40:36Z</time>
      </trkpt>
      <trkpt lat="45.03881" lon="5.91834">
        <ele>2656.1172</ele>
        <time>2015-09-06T12:40:46Z</time>
      </trkpt>
      <trkpt lat="45.03881" lon="5.91845">
        <ele>2657.589</ele>
        <time>2015-09-06T12:40:51Z</time>
      </trkpt>
      <trkpt lat="45.03877" lon="5.91863">
        <ele>2658.8809</ele>
        <time>2015-09-06T12:41:01Z</time>
      </trkpt>
      <trkpt lat="45.03876" lon="5.91865">
        <ele>2658.8809</ele>
        <time>2015-09-06T12:41:06Z</time>
      </trkpt>
      <trkpt lat="45.03872" lon="5.91868">
        <ele>2658.8809</ele>
        <time>2015-09-06T12:41:16Z</time>
      </trkpt>
      <trkpt lat="45.03872" lon="5.91868">
        <ele>2658.8809</ele>
        <time>2015-09-06T12:41:21Z</time>
      </trkpt>
      <trkpt lat="45.03874" lon="5.91878">
        <ele>2661.73</ele>
        <time>2015-09-06T12:41:31Z</time>
      </trkpt>
      <trkpt lat="45.03874" lon="5.91879">
        <ele>2661.73</ele>
        <time>2015-09-06T12:41:36Z</time>
      </trkpt>
      <trkpt lat="45.03873" lon="5.91882">
        <ele>2661.73</ele>
        <time>2015-09-06T12:41:46Z</time>
      </trkpt>
      <trkpt lat="45.03872" lon="5.91884">
        <ele>2661.73</ele>
        <time>2015-09-06T12:41:51Z</time>
      </trkpt>
      <trkpt lat="45.03875" lon="5.9189">
        <ele>2664.4275</ele>
        <time>2015-09-06T12:42:01Z</time>
      </trkpt>
      <trkpt lat="45.03876" lon="5.91892">
        <ele>2664.4275</ele>
        <time>2015-09-06T12:42:06Z</time>
      </trkpt>
      <trkpt lat="45.03876" lon="5.91894">
        <ele>2664.4275</ele>
        <time>2015-09-06T12:42:21Z</time>
      </trkpt>
      <trkpt lat="45.03876" lon="5.91894">
        <ele>2664.4275</ele>
        <time>2015-09-06T12:42:26Z</time>
      </trkpt>
      <trkpt lat="45.03887" lon="5.91905">
        <ele>2667.2634</ele>
        <time>2015-09-06T12:42:36Z</time>
      </trkpt>
      <trkpt lat="45.03888" lon="5.91907">
        <ele>2667.2634</ele>
        <time>2015-09-06T12:42:41Z</time>
      </trkpt>
      <trkpt lat="45.03889" lon="5.9191">
        <ele>2667.2634</ele>
        <time>2015-09-06T12:42:51Z</time>
      </trkpt>
      <trkpt lat="45.03889" lon="5.91913">
        <ele>2667.2634</ele>
        <time>2015-09-06T12:42:56Z</time>
      </trkpt>
      <trkpt lat="45.03889" lon="5.91927">
        <ele>2670.0742</ele>
        <time>2015-09-06T12:43:06Z</time>
      </trkpt>
      <trkpt lat="45.03886" lon="5.9193">
        <ele>2670.0742</ele>
        <time>2015-09-06T12:43:11Z</time>
      </trkpt>
      <trkpt lat="45.0388" lon="5.9194">
        <ele>2673.429</ele>
        <time>2015-09-06T12:43:21Z</time>
      </trkpt>
      <trkpt lat="45.03882" lon="5.91939">
        <ele>2673.429</ele>
        <time>2015-09-06T12:43:26Z</time>
      </trkpt>
      <trkpt lat="45.0388" lon="5.91941">
        <ele>2673.429</ele>
        <time>2015-09-06T12:43:36Z</time>
      </trkpt>
      <trkpt lat="45.0388" lon="5.91941">
        <ele>2673.429</ele>
        <time>2015-09-06T12:43:41Z</time>
      </trkpt>
      <trkpt lat="45.0388" lon="5.91941">
        <ele>2673.429</ele>
        <time>2015-09-06T12:43:51Z</time>
      </trkpt>
      <trkpt lat="45.0388" lon="5.91941">
        <ele>2673.429</ele>
        <time>2015-09-06T12:43:56Z</time>
      </trkpt>
      <trkpt lat="45.0388" lon="5.91941">
        <ele>2673.429</ele>
        <time>2015-09-06T12:44:06Z</time>
      </trkpt>
      <trkpt lat="45.03884" lon="5.91948">
        <ele>2677.4204</ele>
        <time>2015-09-06T12:44:11Z</time>
      </trkpt>
      <trkpt lat="45.03888" lon="5.91958">
        <ele>2677.4204</ele>
        <time>2015-09-06T12:44:21Z</time>
      </trkpt>
      <trkpt lat="45.03892" lon="5.9196">
        <ele>2682.71</ele>
        <time>2015-09-06T12:44:26Z</time>
      </trkpt>
      <trkpt lat="45.03891" lon="5.91961">
        <ele>2682.71</ele>
        <time>2015-09-06T12:44:41Z</time>
      </trkpt>
      <trkpt lat="45.03893" lon="5.91965">
        <ele>2682.71</ele>
        <time>2015-09-06T12:44:46Z</time>
      </trkpt>
      <trkpt lat="45.03901" lon="5.91971">
        <ele>2687.6008</ele>
        <time>2015-09-06T12:44:56Z</time>
      </trkpt>
      <trkpt lat="45.03902" lon="5.91973">
        <ele>2687.6008</ele>
        <time>2015-09-06T12:45:01Z</time>
      </trkpt>
      <trkpt lat="45.03903" lon="5.91973">
        <ele>2687.6008</ele>
        <time>2015-09-06T12:45:11Z</time>
      </trkpt>
      <trkpt lat="45.03904" lon="5.91978">
        <ele>2687.6008</ele>
        <time>2015-09-06T12:45:16Z</time>
      </trkpt>
      <trkpt lat="45.03907" lon="5.91979">
        <ele>2693.4045</ele>
        <time>2015-09-06T12:45:26Z</time>
      </trkpt>
      <trkpt lat="45.03908" lon="5.9198">
        <ele>2693.4045</ele>
        <time>2015-09-06T12:45:31Z</time>
      </trkpt>
      <trkpt lat="45.03908" lon="5.9198">
        <ele>2693.4045</ele>
        <time>2015-09-06T12:45:41Z</time>
      </trkpt>
      <trkpt lat="45.03908" lon="5.9198">
        <ele>2693.4045</ele>
        <time>2015-09-06T12:45:46Z</time>
      </trkpt>
      <trkpt lat="45.03913" lon="5.91992">
        <ele>2699.1716</ele>
        <time>2015-09-06T12:45:56Z</time>
      </trkpt>
      <trkpt lat="45.03912" lon="5.91995">
        <ele>2699.1716</ele>
        <time>2015-09-06T12:46:01Z</time>
      </trkpt>
      <trkpt lat="45.03912" lon="5.91995">
        <ele>2699.1716</ele>
        <time>2015-09-06T12:46:11Z</time>
      </trkpt>
      <trkpt lat="45.03912" lon="5.91995">
        <ele>2699.1716</ele>
        <time>2015-09-06T12:46:16Z</time>
      </trkpt>
      <trkpt lat="45.03912" lon="5.91995">
        <ele>2699.1716</ele>
        <time>2015-09-06T12:46:26Z</time>
      </trkpt>
      <trkpt lat="45.03912" lon="5.91996">
        <ele>2699.1716</ele>
        <time>2015-09-06T12:46:31Z</time>
      </trkpt>
      <trkpt lat="45.03915" lon="5.92006">
        <ele>2704.3115</ele>
        <time>2015-09-06T12:46:41Z</time>
      </trkpt>
      <trkpt lat="45.03916" lon="5.92008">
        <ele>2704.3115</ele>
        <time>2015-09-06T12:46:46Z</time>
      </trkpt>
      <trkpt lat="45.03916" lon="5.92011">
        <ele>2704.3115</ele>
        <time>2015-09-06T12:47:01Z</time>
      </trkpt>
      <trkpt lat="45.03916" lon="5.92011">
        <ele>2704.3115</ele>
        <time>2015-09-06T12:47:06Z</time>
      </trkpt>
      <trkpt lat="45.03916" lon="5.92011">
        <ele>2704.3115</ele>
        <time>2015-09-06T12:47:16Z</time>
      </trkpt>
      <trkpt lat="45.03916" lon="5.92011">
        <ele>2704.3115</ele>
        <time>2015-09-06T12:47:21Z</time>
      </trkpt>
      <trkpt lat="45.0392" lon="5.9202">
        <ele>2708.8555</ele>
        <time>2015-09-06T12:47:31Z</time>
      </trkpt>
      <trkpt lat="45.03922" lon="5.92022">
        <ele>2708.8555</ele>
        <time>2015-09-06T12:47:36Z</time>
      </trkpt>
      <trkpt lat="45.03921" lon="5.92027">
        <ele>2708.8555</ele>
        <time>2015-09-06T12:47:46Z</time>
      </trkpt>
      <trkpt lat="45.03923" lon="5.92029">
        <ele>2708.8555</ele>
        <time>2015-09-06T12:47:51Z</time>
      </trkpt>
      <trkpt lat="45.03923" lon="5.92029">
        <ele>2708.8555</ele>
        <time>2015-09-06T12:48:01Z</time>
      </trkpt>
      <trkpt lat="45.03922" lon="5.92033">
        <ele>2713.9868</ele>
        <time>2015-09-06T12:48:06Z</time>
      </trkpt>
      <trkpt lat="45.03921" lon="5.92041">
        <ele>2713.9868</ele>
        <time>2015-09-06T12:48:16Z</time>
      </trkpt>
      <trkpt lat="45.03922" lon="5.92043">
        <ele>2713.9868</ele>
        <time>2015-09-06T12:48:21Z</time>
      </trkpt>
      <trkpt lat="45.03922" lon="5.92044">
        <ele>2713.9868</ele>
        <time>2015-09-06T12:48:31Z</time>
      </trkpt>
      <trkpt lat="45.03922" lon="5.92044">
        <ele>2713.9868</ele>
        <time>2015-09-06T12:48:36Z</time>
      </trkpt>
      <trkpt lat="45.03919" lon="5.92063">
        <ele>2718.7834</ele>
        <time>2015-09-06T12:48:46Z</time>
      </trkpt>
      <trkpt lat="45.0392" lon="5.92065">
        <ele>2718.7834</ele>
        <time>2015-09-06T12:48:51Z</time>
      </trkpt>
      <trkpt lat="45.03922" lon="5.92065">
        <ele>2718.7834</ele>
        <time>2015-09-06T12:49:01Z</time>
      </trkpt>
      <trkpt lat="45.03922" lon="5.92065">
        <ele>2718.7834</ele>
        <time>2015-09-06T12:49:06Z</time>
      </trkpt>
      <trkpt lat="45.03922" lon="5.92065">
        <ele>2718.7834</ele>
        <time>2015-09-06T12:49:21Z</time>
      </trkpt>
      <trkpt lat="45.03922" lon="5.92065">
        <ele>2718.7834</ele>
        <time>2015-09-06T12:49:26Z</time>
      </trkpt>
      <trkpt lat="45.03926" lon="5.92065">
        <ele>2718.7834</ele>
        <time>2015-09-06T12:49:36Z</time>
      </trkpt>
      <trkpt lat="45.03926" lon="5.92064">
        <ele>2718.7834</ele>
        <time>2015-09-06T12:49:41Z</time>
      </trkpt>
      <trkpt lat="45.03926" lon="5.92065">
        <ele>2722.9685</ele>
        <time>2015-09-06T12:49:51Z</time>
      </trkpt>
      <trkpt lat="45.03926" lon="5.92065">
        <ele>2722.9685</ele>
        <time>2015-09-06T12:49:56Z</time>
      </trkpt>
      <trkpt lat="45.03926" lon="5.92065">
        <ele>2722.9685</ele>
        <time>2015-09-06T12:50:06Z</time>
      </trkpt>
      <trkpt lat="45.03926" lon="5.92065">
        <ele>2722.9685</ele>
        <time>2015-09-06T12:50:11Z</time>
      </trkpt>
      <trkpt lat="45.03926" lon="5.92065">
        <ele>2722.9685</ele>
        <time>2015-09-06T12:50:21Z</time>
      </trkpt>
      <trkpt lat="45.03926" lon="5.92065">
        <ele>2722.9685</ele>
        <time>2015-09-06T12:50:26Z</time>
      </trkpt>
      <trkpt lat="45.03925" lon="5.92065">
        <ele>2722.9685</ele>
        <time>2015-09-06T12:50:36Z</time>
      </trkpt>
      <trkpt lat="45.03925" lon="5.92066">
        <ele>2722.9685</ele>
        <time>2015-09-06T12:50:41Z</time>
      </trkpt>
      <trkpt lat="45.03927" lon="5.9208">
        <ele>2728.1611</ele>
        <time>2015-09-06T12:50:51Z</time>
      </trkpt>
      <trkpt lat="45.0393" lon="5.92082">
        <ele>2728.1611</ele>
        <time>2015-09-06T12:50:56Z</time>
      </trkpt>
      <trkpt lat="45.03935" lon="5.92085">
        <ele>2728.1611</ele>
        <time>2015-09-06T12:51:06Z</time>
      </trkpt>
      <trkpt lat="45.03933" lon="5.92089">
        <ele>2732.9763</ele>
        <time>2015-09-06T12:51:11Z</time>
      </trkpt>
      <trkpt lat="45.03927" lon="5.92096">
        <ele>2732.9763</ele>
        <time>2015-09-06T12:51:26Z</time>
      </trkpt>
      <trkpt lat="45.03921" lon="5.921">
        <ele>2738.727</ele>
        <time>2015-09-06T12:51:31Z</time>
      </trkpt>
      <trkpt lat="45.03907" lon="5.92116">
        <ele>2743.8887</ele>
        <time>2015-09-06T12:51:41Z</time>
      </trkpt>
      <trkpt lat="45.03906" lon="5.9211">
        <ele>2743.8887</ele>
        <time>2015-09-06T12:51:46Z</time>
      </trkpt>
      <trkpt lat="45.03902" lon="5.92108">
        <ele>2743.8887</ele>
        <time>2015-09-06T12:51:56Z</time>
      </trkpt>
      <trkpt lat="45.03897" lon="5.92116">
        <ele>2749.7893</ele>
        <time>2015-09-06T12:52:01Z</time>
      </trkpt>
      <trkpt lat="45.0389" lon="5.92117">
        <ele>2749.7893</ele>
        <time>2015-09-06T12:52:11Z</time>
      </trkpt>
      <trkpt lat="45.03887" lon="5.92116">
        <ele>2755.2073</ele>
        <time>2015-09-06T12:52:16Z</time>
      </trkpt>
      <trkpt lat="45.0389" lon="5.92113">
        <ele>2755.2073</ele>
        <time>2015-09-06T12:52:26Z</time>
      </trkpt>
      <trkpt lat="45.03889" lon="5.92114">
        <ele>2755.2073</ele>
        <time>2015-09-06T12:52:31Z</time>
      </trkpt>
      <trkpt lat="45.03889" lon="5.92114">
        <ele>2755.2073</ele>
        <time>2015-09-06T12:52:41Z</time>
      </trkpt>
      <trkpt lat="45.03889" lon="5.92114">
        <ele>2755.2073</ele>
        <time>2015-09-06T12:52:46Z</time>
      </trkpt>
      <trkpt lat="45.03889" lon="5.92114">
        <ele>2755.2073</ele>
        <time>2015-09-06T12:52:56Z</time>
      </trkpt>
      <trkpt lat="45.03889" lon="5.92114">
        <ele>2755.2073</ele>
        <time>2015-09-06T12:53:01Z</time>
      </trkpt>
      <trkpt lat="45.03888" lon="5.92114">
        <ele>2755.2073</ele>
        <time>2015-09-06T12:53:11Z</time>
      </trkpt>
      <trkpt lat="45.03888" lon="5.92114">
        <ele>2755.2073</ele>
        <time>2015-09-06T12:53:16Z</time>
      </trkpt>
      <trkpt lat="45.03888" lon="5.92114">
        <ele>2755.2073</ele>
        <time>2015-09-06T12:53:26Z</time>
      </trkpt>
      <trkpt lat="45.03888" lon="5.92115">
        <ele>2755.2073</ele>
        <time>2015-09-06T12:53:31Z</time>
      </trkpt>
      <trkpt lat="45.03888" lon="5.92115">
        <ele>2755.2073</ele>
        <time>2015-09-06T12:53:46Z</time>
      </trkpt>
      <trkpt lat="45.03888" lon="5.92115">
        <ele>2755.2073</ele>
        <time>2015-09-06T12:53:51Z</time>
      </trkpt>
      <trkpt lat="45.03888" lon="5.92115">
        <ele>2755.2073</ele>
        <time>2015-09-06T12:54:01Z</time>
      </trkpt>
      <trkpt lat="45.03888" lon="5.92115">
        <ele>2755.2073</ele>
        <time>2015-09-06T12:54:06Z</time>
      </trkpt>
      <trkpt lat="45.03887" lon="5.92115">
        <ele>2756.0186</ele>
        <time>2015-09-06T12:54:16Z</time>
      </trkpt>
      <trkpt lat="45.03887" lon="5.92115">
        <ele>2756.83</ele>
        <time>2015-09-06T12:54:21Z</time>
      </trkpt>
      <trkpt lat="45.03887" lon="5.92116">
        <ele>2757.6414</ele>
        <time>2015-09-06T12:54:31Z</time>
      </trkpt>
      <trkpt lat="45.03887" lon="5.92116">
        <ele>2758.4526</ele>
        <time>2015-09-06T12:54:36Z</time>
      </trkpt>
      <trkpt lat="45.03886" lon="5.92117">
        <ele>2759.264</ele>
        <time>2015-09-06T12:54:51Z</time>
      </trkpt>
      <trkpt lat="45.03885" lon="5.92117">
        <ele>2760.0752</ele>
        <time>2015-09-06T12:55:01Z</time>
      </trkpt>
      <trkpt lat="45.0387" lon="5.92127">
        <ele>2760.8865</ele>
        <time>2015-09-06T12:55:06Z</time>
      </trkpt>
      <trkpt lat="45.03864" lon="5.92134">
        <ele>2760.8865</ele>
        <time>2015-09-06T12:55:21Z</time>
      </trkpt>
      <trkpt lat="45.03864" lon="5.92134">
        <ele>2760.8865</ele>
        <time>2015-09-06T12:55:26Z</time>
      </trkpt>
      <trkpt lat="45.03864" lon="5.92134">
        <ele>2760.8865</ele>
        <time>2015-09-06T12:55:36Z</time>
      </trkpt>
      <trkpt lat="45.03864" lon="5.92134">
        <ele>2760.8865</ele>
        <time>2015-09-06T12:55:41Z</time>
      </trkpt>
      <trkpt lat="45.03864" lon="5.92134">
        <ele>2760.8865</ele>
        <time>2015-09-06T12:55:51Z</time>
      </trkpt>
      <trkpt lat="45.03864" lon="5.92134">
        <ele>2760.8865</ele>
        <time>2015-09-06T12:55:56Z</time>
      </trkpt>
      <trkpt lat="45.03839" lon="5.92152">
        <ele>2761.7332</ele>
        <time>2015-09-06T12:56:06Z</time>
      </trkpt>
      <trkpt lat="45.03843" lon="5.92139">
        <ele>2762.5798</ele>
        <time>2015-09-06T12:56:11Z</time>
      </trkpt>
      <trkpt lat="45.03841" lon="5.92134">
        <ele>2763.4265</ele>
        <time>2015-09-06T12:56:21Z</time>
      </trkpt>
      <trkpt lat="45.03843" lon="5.92132">
        <ele>2764.2732</ele>
        <time>2015-09-06T12:56:26Z</time>
      </trkpt>
      <trkpt lat="45.03843" lon="5.92132">
        <ele>2765.1199</ele>
        <time>2015-09-06T12:56:36Z</time>
      </trkpt>
      <trkpt lat="45.03843" lon="5.92132">
        <ele>2765.9666</ele>
        <time>2015-09-06T12:56:41Z</time>
      </trkpt>
      <trkpt lat="45.03843" lon="5.92132">
        <ele>2766.8132</ele>
        <time>2015-09-06T12:56:51Z</time>
      </trkpt>
      <trkpt lat="45.03843" lon="5.92132">
        <ele>2767.66</ele>
        <time>2015-09-06T12:56:56Z</time>
      </trkpt>
      <trkpt lat="45.03843" lon="5.92132">
        <ele>2767.66</ele>
        <time>2015-09-06T12:57:06Z</time>
      </trkpt>
      <trkpt lat="45.03843" lon="5.92132">
        <ele>2767.66</ele>
        <time>2015-09-06T12:57:11Z</time>
      </trkpt>
      <trkpt lat="45.03843" lon="5.92132">
        <ele>2767.66</ele>
        <time>2015-09-06T12:57:26Z</time>
      </trkpt>
      <trkpt lat="45.03843" lon="5.92132">
        <ele>2767.66</ele>
        <time>2015-09-06T12:57:31Z</time>
      </trkpt>
      <trkpt lat="45.03844" lon="5.92134">
        <ele>2767.66</ele>
        <time>2015-09-06T12:57:41Z</time>
      </trkpt>
      <trkpt lat="45.03844" lon="5.92134">
        <ele>2767.66</ele>
        <time>2015-09-06T12:57:46Z</time>
      </trkpt>
      <trkpt lat="45.03843" lon="5.92134">
        <ele>2767.66</ele>
        <time>2015-09-06T12:57:56Z</time>
      </trkpt>
      <trkpt lat="45.03843" lon="5.92134">
        <ele>2767.66</ele>
        <time>2015-09-06T12:58:01Z</time>
      </trkpt>
      <trkpt lat="45.03843" lon="5.92134">
        <ele>2767.66</ele>
        <time>2015-09-06T12:58:11Z</time>
      </trkpt>
      <trkpt lat="45.03843" lon="5.92134">
        <ele>2767.66</ele>
        <time>2015-09-06T12:58:16Z</time>
      </trkpt>
      <trkpt lat="45.03843" lon="5.92134">
        <ele>2767.66</ele>
        <time>2015-09-06T12:58:26Z</time>
      </trkpt>
      <trkpt lat="45.03843" lon="5.92135">
        <ele>2767.66</ele>
        <time>2015-09-06T12:58:31Z</time>
      </trkpt>
      <trkpt lat="45.03843" lon="5.92135">
        <ele>2767.66</ele>
        <time>2015-09-06T12:58:41Z</time>
      </trkpt>
      <trkpt lat="45.03843" lon="5.92135">
        <ele>2767.66</ele>
        <time>2015-09-06T12:58:46Z</time>
      </trkpt>
      <trkpt lat="45.03843" lon="5.92135">
        <ele>2767.66</ele>
        <time>2015-09-06T12:58:56Z</time>
      </trkpt>
      <trkpt lat="45.03834" lon="5.92133">
        <ele>2773.9902</ele>
        <time>2015-09-06T12:59:01Z</time>
      </trkpt>
      <trkpt lat="45.03819" lon="5.92143">
        <ele>2781.6257</ele>
        <time>2015-09-06T12:59:11Z</time>
      </trkpt>
      <trkpt lat="45.03814" lon="5.92145">
        <ele>2781.6257</ele>
        <time>2015-09-06T12:59:16Z</time>
      </trkpt>
      <trkpt lat="45.03809" lon="5.92147">
        <ele>2788.869</ele>
        <time>2015-09-06T12:59:26Z</time>
      </trkpt>
      <trkpt lat="45.03801" lon="5.92154">
        <ele>2795.1562</ele>
        <time>2015-09-06T12:59:31Z</time>
      </trkpt>
      <trkpt lat="45.03792" lon="5.92164">
        <ele>2801.699</ele>
        <time>2015-09-06T12:59:41Z</time>
      </trkpt>
      <trkpt lat="45.03794" lon="5.92165">
        <ele>2801.699</ele>
        <time>2015-09-06T12:59:46Z</time>
      </trkpt>
      <trkpt lat="45.03792" lon="5.92168">
        <ele>2801.699</ele>
        <time>2015-09-06T13:00:01Z</time>
      </trkpt>
      <trkpt lat="45.03792" lon="5.92168">
        <ele>2801.699</ele>
        <time>2015-09-06T13:00:06Z</time>
      </trkpt>
      <trkpt lat="45.03786" lon="5.92171">
        <ele>2809.1863</ele>
        <time>2015-09-06T13:00:16Z</time>
      </trkpt>
      <trkpt lat="45.03786" lon="5.92174">
        <ele>2809.1863</ele>
        <time>2015-09-06T13:00:21Z</time>
      </trkpt>
      <trkpt lat="45.03787" lon="5.92175">
        <ele>2809.1863</ele>
        <time>2015-09-06T13:00:31Z</time>
      </trkpt>
      <trkpt lat="45.03787" lon="5.92175">
        <ele>2809.1863</ele>
        <time>2015-09-06T13:00:36Z</time>
      </trkpt>
      <trkpt lat="45.03787" lon="5.92175">
        <ele>2809.1863</ele>
        <time>2015-09-06T13:00:46Z</time>
      </trkpt>
      <trkpt lat="45.03787" lon="5.92175">
        <ele>2809.1863</ele>
        <time>2015-09-06T13:00:51Z</time>
      </trkpt>
      <trkpt lat="45.03787" lon="5.92175">
        <ele>2809.1863</ele>
        <time>2015-09-06T13:01:01Z</time>
      </trkpt>
      <trkpt lat="45.03787" lon="5.92175">
        <ele>2809.1863</ele>
        <time>2015-09-06T13:01:06Z</time>
      </trkpt>
      <trkpt lat="45.03787" lon="5.92175">
        <ele>2809.1863</ele>
        <time>2015-09-06T13:01:16Z</time>
      </trkpt>
      <trkpt lat="45.03787" lon="5.92175">
        <ele>2809.1863</ele>
        <time>2015-09-06T13:01:21Z</time>
      </trkpt>
      <trkpt lat="45.03787" lon="5.92175">
        <ele>2809.1863</ele>
        <time>2015-09-06T13:01:31Z</time>
      </trkpt>
      <trkpt lat="45.03787" lon="5.92175">
        <ele>2809.1863</ele>
        <time>2015-09-06T13:01:36Z</time>
      </trkpt>
      <trkpt lat="45.03787" lon="5.92175">
        <ele>2809.1863</ele>
        <time>2015-09-06T13:01:46Z</time>
      </trkpt>
      <trkpt lat="45.03787" lon="5.92175">
        <ele>2809.1863</ele>
        <time>2015-09-06T13:01:51Z</time>
      </trkpt>
      <trkpt lat="45.03787" lon="5.92175">
        <ele>2809.1863</ele>
        <time>2015-09-06T13:02:06Z</time>
      </trkpt>
      <trkpt lat="45.03787" lon="5.92175">
        <ele>2809.1863</ele>
        <time>2015-09-06T13:02:11Z</time>
      </trkpt>
      <trkpt lat="45.03787" lon="5.92175">
        <ele>2809.1863</ele>
        <time>2015-09-06T13:02:21Z</time>
      </trkpt>
      <trkpt lat="45.03787" lon="5.92175">
        <ele>2809.1863</ele>
        <time>2015-09-06T13:02:26Z</time>
      </trkpt>
      <trkpt lat="45.03787" lon="5.92175">
        <ele>2809.1863</ele>
        <time>2015-09-06T13:02:36Z</time>
      </trkpt>
      <trkpt lat="45.03787" lon="5.92175">
        <ele>2809.1863</ele>
        <time>2015-09-06T13:02:41Z</time>
      </trkpt>
      <trkpt lat="45.03788" lon="5.92175">
        <ele>2809.1863</ele>
        <time>2015-09-06T13:02:51Z</time>
      </trkpt>
      <trkpt lat="45.03788" lon="5.92175">
        <ele>2809.1863</ele>
        <time>2015-09-06T13:02:56Z</time>
      </trkpt>
      <trkpt lat="45.03787" lon="5.92175">
        <ele>2809.1863</ele>
        <time>2015-09-06T13:03:06Z</time>
      </trkpt>
      <trkpt lat="45.03787" lon="5.92175">
        <ele>2809.1863</ele>
        <time>2015-09-06T13:03:11Z</time>
      </trkpt>
      <trkpt lat="45.03787" lon="5.92175">
        <ele>2809.1863</ele>
        <time>2015-09-06T13:03:21Z</time>
      </trkpt>
      <trkpt lat="45.03787" lon="5.92175">
        <ele>2809.1863</ele>
        <time>2015-09-06T13:03:26Z</time>
      </trkpt>
      <trkpt lat="45.03787" lon="5.92175">
        <ele>2809.1863</ele>
        <time>2015-09-06T13:03:36Z</time>
      </trkpt>
      <trkpt lat="45.03787" lon="5.92175">
        <ele>2809.1863</ele>
        <time>2015-09-06T13:03:41Z</time>
      </trkpt>
      <trkpt lat="45.03787" lon="5.92176">
        <ele>2809.1863</ele>
        <time>2015-09-06T13:03:51Z</time>
      </trkpt>
      <trkpt lat="45.03788" lon="5.92176">
        <ele>2809.1863</ele>
        <time>2015-09-06T13:03:56Z</time>
      </trkpt>
      <trkpt lat="45.03795" lon="5.92186">
        <ele>2815.5168</ele>
        <time>2015-09-06T13:04:06Z</time>
      </trkpt>
      <trkpt lat="45.038" lon="5.92189">
        <ele>2815.5168</ele>
        <time>2015-09-06T13:04:11Z</time>
      </trkpt>
      <trkpt lat="45.03802" lon="5.92193">
        <ele>2815.5168</ele>
        <time>2015-09-06T13:04:21Z</time>
      </trkpt>
      <trkpt lat="45.03802" lon="5.92193">
        <ele>2822.2053</ele>
        <time>2015-09-06T13:04:26Z</time>
      </trkpt>
      <trkpt lat="45.03803" lon="5.92193">
        <ele>2822.2053</ele>
        <time>2015-09-06T13:04:36Z</time>
      </trkpt>
      <trkpt lat="45.03803" lon="5.92193">
        <ele>2822.2053</ele>
        <time>2015-09-06T13:04:41Z</time>
      </trkpt>
      <trkpt lat="45.03803" lon="5.92193">
        <ele>2822.2053</ele>
        <time>2015-09-06T13:04:56Z</time>
      </trkpt>
      <trkpt lat="45.03806" lon="5.92195">
        <ele>2822.2053</ele>
        <time>2015-09-06T13:05:01Z</time>
      </trkpt>
      <trkpt lat="45.03814" lon="5.92202">
        <ele>2828.6382</ele>
        <time>2015-09-06T13:05:11Z</time>
      </trkpt>
      <trkpt lat="45.03814" lon="5.92206">
        <ele>2828.6382</ele>
        <time>2015-09-06T13:05:16Z</time>
      </trkpt>
      <trkpt lat="45.03817" lon="5.92204">
        <ele>2828.6382</ele>
        <time>2015-09-06T13:05:26Z</time>
      </trkpt>
      <trkpt lat="45.03819" lon="5.92204">
        <ele>2828.6382</ele>
        <time>2015-09-06T13:05:31Z</time>
      </trkpt>
      <trkpt lat="45.03818" lon="5.92209">
        <ele>2835.5442</ele>
        <time>2015-09-06T13:05:41Z</time>
      </trkpt>
      <trkpt lat="45.0382" lon="5.92211">
        <ele>2835.5442</ele>
        <time>2015-09-06T13:05:46Z</time>
      </trkpt>
      <trkpt lat="45.03823" lon="5.92214">
        <ele>2835.5442</ele>
        <time>2015-09-06T13:05:56Z</time>
      </trkpt>
      <trkpt lat="45.03823" lon="5.92214">
        <ele>2835.5442</ele>
        <time>2015-09-06T13:06:01Z</time>
      </trkpt>
      <trkpt lat="45.03836" lon="5.9222">
        <ele>2841.5806</ele>
        <time>2015-09-06T13:06:11Z</time>
      </trkpt>
      <trkpt lat="45.03838" lon="5.92221">
        <ele>2841.5806</ele>
        <time>2015-09-06T13:06:16Z</time>
      </trkpt>
      <trkpt lat="45.0384" lon="5.92227">
        <ele>2841.5806</ele>
        <time>2015-09-06T13:06:26Z</time>
      </trkpt>
      <trkpt lat="45.03842" lon="5.92228">
        <ele>2846.6587</ele>
        <time>2015-09-06T13:06:31Z</time>
      </trkpt>
      <trkpt lat="45.03843" lon="5.92228">
        <ele>2846.6587</ele>
        <time>2015-09-06T13:06:41Z</time>
      </trkpt>
      <trkpt lat="45.03847" lon="5.92232">
        <ele>2846.6587</ele>
        <time>2015-09-06T13:06:46Z</time>
      </trkpt>
      <trkpt lat="45.03856" lon="5.92236">
        <ele>2851.2766</ele>
        <time>2015-09-06T13:06:56Z</time>
      </trkpt>
      <trkpt lat="45.03857" lon="5.92237">
        <ele>2851.2766</ele>
        <time>2015-09-06T13:07:01Z</time>
      </trkpt>
      <trkpt lat="45.03869" lon="5.92257">
        <ele>2855.1763</ele>
        <time>2015-09-06T13:07:16Z</time>
      </trkpt>
      <trkpt lat="45.03868" lon="5.9226">
        <ele>2855.1763</ele>
        <time>2015-09-06T13:07:21Z</time>
      </trkpt>
      <trkpt lat="45.03869" lon="5.92272">
        <ele>2858.4094</ele>
        <time>2015-09-06T13:07:31Z</time>
      </trkpt>
      <trkpt lat="45.0387" lon="5.92273">
        <ele>2858.4094</ele>
        <time>2015-09-06T13:07:36Z</time>
      </trkpt>
      <trkpt lat="45.03876" lon="5.92277">
        <ele>2858.4094</ele>
        <time>2015-09-06T13:07:46Z</time>
      </trkpt>
      <trkpt lat="45.0388" lon="5.92282">
        <ele>2861.6033</ele>
        <time>2015-09-06T13:07:51Z</time>
      </trkpt>
      <trkpt lat="45.03884" lon="5.92286">
        <ele>2861.6033</ele>
        <time>2015-09-06T13:08:01Z</time>
      </trkpt>
      <trkpt lat="45.03886" lon="5.92296">
        <ele>2865.3386</ele>
        <time>2015-09-06T13:08:06Z</time>
      </trkpt>
      <trkpt lat="45.03892" lon="5.92298">
        <ele>2865.3386</ele>
        <time>2015-09-06T13:08:16Z</time>
      </trkpt>
      <trkpt lat="45.03894" lon="5.92305">
        <ele>2868.135</ele>
        <time>2015-09-06T13:08:21Z</time>
      </trkpt>
      <trkpt lat="45.03898" lon="5.92312">
        <ele>2868.135</ele>
        <time>2015-09-06T13:08:31Z</time>
      </trkpt>
      <trkpt lat="45.03896" lon="5.92312">
        <ele>2868.135</ele>
        <time>2015-09-06T13:08:36Z</time>
      </trkpt>
      <trkpt lat="45.03897" lon="5.92312">
        <ele>2868.135</ele>
        <time>2015-09-06T13:08:46Z</time>
      </trkpt>
      <trkpt lat="45.03897" lon="5.92312">
        <ele>2868.135</ele>
        <time>2015-09-06T13:08:51Z</time>
      </trkpt>
      <trkpt lat="45.03909" lon="5.92334">
        <ele>2870.2095</ele>
        <time>2015-09-06T13:09:06Z</time>
      </trkpt>
      <trkpt lat="45.0391" lon="5.9234">
        <ele>2870.2095</ele>
        <time>2015-09-06T13:09:11Z</time>
      </trkpt>
      <trkpt lat="45.03916" lon="5.92357">
        <ele>2872.9177</ele>
        <time>2015-09-06T13:09:21Z</time>
      </trkpt>
      <trkpt lat="45.03921" lon="5.9236">
        <ele>2872.9177</ele>
        <time>2015-09-06T13:09:26Z</time>
      </trkpt>
      <trkpt lat="45.03928" lon="5.92372">
        <ele>2875.6409</ele>
        <time>2015-09-06T13:09:36Z</time>
      </trkpt>
      <trkpt lat="45.03934" lon="5.92376">
        <ele>2875.6409</ele>
        <time>2015-09-06T13:09:41Z</time>
      </trkpt>
      <trkpt lat="45.03941" lon="5.92391">
        <ele>2877.6616</ele>
        <time>2015-09-06T13:09:51Z</time>
      </trkpt>
      <trkpt lat="45.0394" lon="5.92398">
        <ele>2877.6616</ele>
        <time>2015-09-06T13:09:56Z</time>
      </trkpt>
      <trkpt lat="45.03941" lon="5.92402">
        <ele>2877.6616</ele>
        <time>2015-09-06T13:10:06Z</time>
      </trkpt>
      <trkpt lat="45.03939" lon="5.92404">
        <ele>2879.4707</ele>
        <time>2015-09-06T13:10:11Z</time>
      </trkpt>
      <trkpt lat="45.03939" lon="5.92407">
        <ele>2879.4707</ele>
        <time>2015-09-06T13:10:21Z</time>
      </trkpt>
      <trkpt lat="45.03939" lon="5.92408">
        <ele>2879.4707</ele>
        <time>2015-09-06T13:10:26Z</time>
      </trkpt>
      <trkpt lat="45.03938" lon="5.92408">
        <ele>2879.4707</ele>
        <time>2015-09-06T13:10:36Z</time>
      </trkpt>
      <trkpt lat="45.03939" lon="5.92408">
        <ele>2879.4707</ele>
        <time>2015-09-06T13:10:41Z</time>
      </trkpt>
      <trkpt lat="45.03939" lon="5.92408">
        <ele>2879.4707</ele>
        <time>2015-09-06T13:10:51Z</time>
      </trkpt>
      <trkpt lat="45.03942" lon="5.92408">
        <ele>2879.4707</ele>
        <time>2015-09-06T13:10:56Z</time>
      </trkpt>
      <trkpt lat="45.03941" lon="5.92411">
        <ele>2879.4707</ele>
        <time>2015-09-06T13:11:06Z</time>
      </trkpt>
      <trkpt lat="45.03941" lon="5.92412">
        <ele>2879.938</ele>
        <time>2015-09-06T13:11:11Z</time>
      </trkpt>
      <trkpt lat="45.03941" lon="5.92412">
        <ele>2879.938</ele>
        <time>2015-09-06T13:11:26Z</time>
      </trkpt>
      <trkpt lat="45.03941" lon="5.92412">
        <ele>2879.938</ele>
        <time>2015-09-06T13:11:31Z</time>
      </trkpt>
      <trkpt lat="45.03941" lon="5.92412">
        <ele>2879.938</ele>
        <time>2015-09-06T13:11:41Z</time>
      </trkpt>
      <trkpt lat="45.03941" lon="5.92412">
        <ele>2879.938</ele>
        <time>2015-09-06T13:11:46Z</time>
      </trkpt>
      <trkpt lat="45.03941" lon="5.92412">
        <ele>2879.938</ele>
        <time>2015-09-06T13:11:56Z</time>
      </trkpt>
      <trkpt lat="45.03941" lon="5.92412">
        <ele>2879.938</ele>
        <time>2015-09-06T13:12:01Z</time>
      </trkpt>
      <trkpt lat="45.03941" lon="5.92412">
        <ele>2879.938</ele>
        <time>2015-09-06T13:12:11Z</time>
      </trkpt>
      <trkpt lat="45.03941" lon="5.92412">
        <ele>2879.938</ele>
        <time>2015-09-06T13:12:16Z</time>
      </trkpt>
      <trkpt lat="45.0394" lon="5.92411">
        <ele>2879.938</ele>
        <time>2015-09-06T13:12:26Z</time>
      </trkpt>
      <trkpt lat="45.0394" lon="5.92412">
        <ele>2879.938</ele>
        <time>2015-09-06T13:12:31Z</time>
      </trkpt>
      <trkpt lat="45.0394" lon="5.92413">
        <ele>2879.938</ele>
        <time>2015-09-06T13:12:41Z</time>
      </trkpt>
      <trkpt lat="45.0394" lon="5.92413">
        <ele>2879.938</ele>
        <time>2015-09-06T13:12:46Z</time>
      </trkpt>
      <trkpt lat="45.03941" lon="5.92413">
        <ele>2879.938</ele>
        <time>2015-09-06T13:12:56Z</time>
      </trkpt>
      <trkpt lat="45.03942" lon="5.92412">
        <ele>2879.938</ele>
        <time>2015-09-06T13:13:01Z</time>
      </trkpt>
      <trkpt lat="45.03941" lon="5.92414">
        <ele>2879.938</ele>
        <time>2015-09-06T13:13:11Z</time>
      </trkpt>
      <trkpt lat="45.03942" lon="5.92414">
        <ele>2879.938</ele>
        <time>2015-09-06T13:13:16Z</time>
      </trkpt>
      <trkpt lat="45.03941" lon="5.92414">
        <ele>2879.938</ele>
        <time>2015-09-06T13:13:26Z</time>
      </trkpt>
      <trkpt lat="45.03941" lon="5.92414">
        <ele>2879.938</ele>
        <time>2015-09-06T13:13:31Z</time>
      </trkpt>
      <trkpt lat="45.03942" lon="5.92413">
        <ele>2879.938</ele>
        <time>2015-09-06T13:13:46Z</time>
      </trkpt>
      <trkpt lat="45.03942" lon="5.92413">
        <ele>2879.938</ele>
        <time>2015-09-06T13:13:51Z</time>
      </trkpt>
      <trkpt lat="45.03942" lon="5.92413">
        <ele>2879.938</ele>
        <time>2015-09-06T13:14:01Z</time>
      </trkpt>
      <trkpt lat="45.03942" lon="5.92413">
        <ele>2879.938</ele>
        <time>2015-09-06T13:14:06Z</time>
      </trkpt>
      <trkpt lat="45.03942" lon="5.92413">
        <ele>2879.938</ele>
        <time>2015-09-06T13:14:16Z</time>
      </trkpt>
      <trkpt lat="45.03942" lon="5.92413">
        <ele>2879.938</ele>
        <time>2015-09-06T13:14:21Z</time>
      </trkpt>
      <trkpt lat="45.03942" lon="5.92413">
        <ele>2879.938</ele>
        <time>2015-09-06T13:14:31Z</time>
      </trkpt>
      <trkpt lat="45.03944" lon="5.9242">
        <ele>2881.0464</ele>
        <time>2015-09-06T13:14:36Z</time>
      </trkpt>
      <trkpt lat="45.03952" lon="5.92431">
        <ele>2881.6055</ele>
        <time>2015-09-06T13:14:46Z</time>
      </trkpt>
      <trkpt lat="45.03951" lon="5.92427">
        <ele>2881.6055</ele>
        <time>2015-09-06T13:14:51Z</time>
      </trkpt>
      <trkpt lat="45.0395" lon="5.92425">
        <ele>2881.6055</ele>
        <time>2015-09-06T13:15:01Z</time>
      </trkpt>
      <trkpt lat="45.0395" lon="5.92425">
        <ele>2881.6055</ele>
        <time>2015-09-06T13:15:06Z</time>
      </trkpt>
      <trkpt lat="45.0395" lon="5.92424">
        <ele>2881.6055</ele>
        <time>2015-09-06T13:15:16Z</time>
      </trkpt>
      <trkpt lat="45.03952" lon="5.92426">
        <ele>2881.6055</ele>
        <time>2015-09-06T13:15:21Z</time>
      </trkpt>
      <trkpt lat="45.03951" lon="5.92423">
        <ele>2881.2341</ele>
        <time>2015-09-06T13:15:36Z</time>
      </trkpt>
      <trkpt lat="45.03951" lon="5.92423">
        <ele>2881.2341</ele>
        <time>2015-09-06T13:15:41Z</time>
      </trkpt>
      <trkpt lat="45.03951" lon="5.92423">
        <ele>2881.2341</ele>
        <time>2015-09-06T13:15:51Z</time>
      </trkpt>
      <trkpt lat="45.03951" lon="5.92423">
        <ele>2881.2341</ele>
        <time>2015-09-06T13:15:56Z</time>
      </trkpt>
      <trkpt lat="45.03951" lon="5.92423">
        <ele>2881.2341</ele>
        <time>2015-09-06T13:16:06Z</time>
      </trkpt>
      <trkpt lat="45.03951" lon="5.92423">
        <ele>2881.2341</ele>
        <time>2015-09-06T13:16:11Z</time>
      </trkpt>
      <trkpt lat="45.03951" lon="5.92423">
        <ele>2881.2341</ele>
        <time>2015-09-06T13:16:21Z</time>
      </trkpt>
      <trkpt lat="45.03951" lon="5.92423">
        <ele>2881.2341</ele>
        <time>2015-09-06T13:16:26Z</time>
      </trkpt>
      <trkpt lat="45.03951" lon="5.92423">
        <ele>2881.2341</ele>
        <time>2015-09-06T13:16:36Z</time>
      </trkpt>
      <trkpt lat="45.03951" lon="5.92423">
        <ele>2881.2341</ele>
        <time>2015-09-06T13:16:41Z</time>
      </trkpt>
      <trkpt lat="45.03951" lon="5.92423">
        <ele>2881.2341</ele>
        <time>2015-09-06T13:16:51Z</time>
      </trkpt>
      <trkpt lat="45.03951" lon="5.92423">
        <ele>2881.2341</ele>
        <time>2015-09-06T13:16:56Z</time>
      </trkpt>
      <trkpt lat="45.03951" lon="5.92423">
        <ele>2881.2341</ele>
        <time>2015-09-06T13:17:06Z</time>
      </trkpt>
      <trkpt lat="45.03951" lon="5.92423">
        <ele>2881.2341</ele>
        <time>2015-09-06T13:17:11Z</time>
      </trkpt>
      <trkpt lat="45.03951" lon="5.92423">
        <ele>2881.2341</ele>
        <time>2015-09-06T13:17:21Z</time>
      </trkpt>
      <trkpt lat="45.03951" lon="5.92423">
        <ele>2881.2341</ele>
        <time>2015-09-06T13:17:26Z</time>
      </trkpt>
      <trkpt lat="45.03951" lon="5.92423">
        <ele>2881.2341</ele>
        <time>2015-09-06T13:17:36Z</time>
      </trkpt>
      <trkpt lat="45.03951" lon="5.92423">
        <ele>2881.2341</ele>
        <time>2015-09-06T13:17:41Z</time>
      </trkpt>
      <trkpt lat="45.03951" lon="5.92423">
        <ele>2881.2341</ele>
        <time>2015-09-06T13:17:51Z</time>
      </trkpt>
      <trkpt lat="45.03951" lon="5.92423">
        <ele>2881.2341</ele>
        <time>2015-09-06T13:17:56Z</time>
      </trkpt>
      <trkpt lat="45.03951" lon="5.92423">
        <ele>2881.2341</ele>
        <time>2015-09-06T13:18:06Z</time>
      </trkpt>
      <trkpt lat="45.03951" lon="5.92423">
        <ele>2881.2341</ele>
        <time>2015-09-06T13:18:11Z</time>
      </trkpt>
      <trkpt lat="45.03951" lon="5.92423">
        <ele>2881.2341</ele>
        <time>2015-09-06T13:18:26Z</time>
      </trkpt>
      <trkpt lat="45.03951" lon="5.92423">
        <ele>2881.2341</ele>
        <time>2015-09-06T13:18:31Z</time>
      </trkpt>
      <trkpt lat="45.03951" lon="5.92423">
        <ele>2881.2341</ele>
        <time>2015-09-06T13:18:41Z</time>
      </trkpt>
      <trkpt lat="45.03951" lon="5.92423">
        <ele>2881.2341</ele>
        <time>2015-09-06T13:18:46Z</time>
      </trkpt>
      <trkpt lat="45.03951" lon="5.92423">
        <ele>2881.2341</ele>
        <time>2015-09-06T13:18:56Z</time>
      </trkpt>
      <trkpt lat="45.03951" lon="5.92423">
        <ele>2881.2341</ele>
        <time>2015-09-06T13:19:01Z</time>
      </trkpt>
      <trkpt lat="45.03951" lon="5.92423">
        <ele>2881.2341</ele>
        <time>2015-09-06T13:19:11Z</time>
      </trkpt>
      <trkpt lat="45.03951" lon="5.92423">
        <ele>2881.2341</ele>
        <time>2015-09-06T13:19:16Z</time>
      </trkpt>
      <trkpt lat="45.03951" lon="5.92423">
        <ele>2881.2341</ele>
        <time>2015-09-06T13:19:26Z</time>
      </trkpt>
      <trkpt lat="45.03951" lon="5.92423">
        <ele>2881.2341</ele>
        <time>2015-09-06T13:19:31Z</time>
      </trkpt>
      <trkpt lat="45.03951" lon="5.92423">
        <ele>2881.2341</ele>
        <time>2015-09-06T13:19:41Z</time>
      </trkpt>
      <trkpt lat="45.03951" lon="5.92423">
        <ele>2881.2341</ele>
        <time>2015-09-06T13:19:46Z</time>
      </trkpt>
      <trkpt lat="45.03951" lon="5.92423">
        <ele>2881.2341</ele>
        <time>2015-09-06T13:19:56Z</time>
      </trkpt>
      <trkpt lat="45.03951" lon="5.92423">
        <ele>2881.2341</ele>
        <time>2015-09-06T13:20:01Z</time>
      </trkpt>
      <trkpt lat="45.03951" lon="5.92423">
        <ele>2881.2341</ele>
        <time>2015-09-06T13:20:16Z</time>
      </trkpt>
      <trkpt lat="45.03951" lon="5.92423">
        <ele>2881.2341</ele>
        <time>2015-09-06T13:20:21Z</time>
      </trkpt>
      <trkpt lat="45.03951" lon="5.92423">
        <ele>2881.2341</ele>
        <time>2015-09-06T13:20:31Z</time>
      </trkpt>
      <trkpt lat="45.03951" lon="5.92423">
        <ele>2881.2341</ele>
        <time>2015-09-06T13:20:36Z</time>
      </trkpt>
      <trkpt lat="45.03951" lon="5.92423">
        <ele>2881.2341</ele>
        <time>2015-09-06T13:20:46Z</time>
      </trkpt>
      <trkpt lat="45.03951" lon="5.92423">
        <ele>2881.2341</ele>
        <time>2015-09-06T13:20:51Z</time>
      </trkpt>
      <trkpt lat="45.03951" lon="5.92423">
        <ele>2881.2341</ele>
        <time>2015-09-06T13:21:01Z</time>
      </trkpt>
      <trkpt lat="45.03951" lon="5.92423">
        <ele>2881.2341</ele>
        <time>2015-09-06T13:21:06Z</time>
      </trkpt>
      <trkpt lat="45.03951" lon="5.92423">
        <ele>2881.2341</ele>
        <time>2015-09-06T13:21:16Z</time>
      </trkpt>
      <trkpt lat="45.03951" lon="5.92423">
        <ele>2881.2341</ele>
        <time>2015-09-06T13:21:21Z</time>
      </trkpt>
      <trkpt lat="45.03951" lon="5.92423">
        <ele>2881.2341</ele>
        <time>2015-09-06T13:21:31Z</time>
      </trkpt>
      <trkpt lat="45.03951" lon="5.92423">
        <ele>2881.2341</ele>
        <time>2015-09-06T13:21:36Z</time>
      </trkpt>
      <trkpt lat="45.03951" lon="5.92423">
        <ele>2881.2341</ele>
        <time>2015-09-06T13:21:46Z</time>
      </trkpt>
      <trkpt lat="45.03951" lon="5.92423">
        <ele>2881.2341</ele>
        <time>2015-09-06T13:21:51Z</time>
      </trkpt>
      <trkpt lat="45.03951" lon="5.92423">
        <ele>2881.2341</ele>
        <time>2015-09-06T13:22:01Z</time>
      </trkpt>
      <trkpt lat="45.03951" lon="5.92423">
        <ele>2881.2341</ele>
        <time>2015-09-06T13:22:06Z</time>
      </trkpt>
      <trkpt lat="45.03951" lon="5.92423">
        <ele>2881.2341</ele>
        <time>2015-09-06T13:22:16Z</time>
      </trkpt>
      <trkpt lat="45.03951" lon="5.92423">
        <ele>2881.2341</ele>
        <time>2015-09-06T13:22:21Z</time>
      </trkpt>
      <trkpt lat="45.03951" lon="5.92423">
        <ele>2881.2341</ele>
        <time>2015-09-06T13:22:36Z</time>
      </trkpt>
      <trkpt lat="45.03951" lon="5.92423">
        <ele>2881.2341</ele>
        <time>2015-09-06T13:22:41Z</time>
      </trkpt>
      <trkpt lat="45.03951" lon="5.92423">
        <ele>2881.2341</ele>
        <time>2015-09-06T13:22:51Z</time>
      </trkpt>
      <trkpt lat="45.03951" lon="5.92423">
        <ele>2881.2341</ele>
        <time>2015-09-06T13:22:56Z</time>
      </trkpt>
      <trkpt lat="45.03951" lon="5.92423">
        <ele>2881.2341</ele>
        <time>2015-09-06T13:23:06Z</time>
      </trkpt>
      <trkpt lat="45.03951" lon="5.92423">
        <ele>2881.2341</ele>
        <time>2015-09-06T13:23:11Z</time>
      </trkpt>
      <trkpt lat="45.03951" lon="5.92423">
        <ele>2881.2341</ele>
        <time>2015-09-06T13:23:21Z</time>
      </trkpt>
      <trkpt lat="45.03951" lon="5.92423">
        <ele>2881.2341</ele>
        <time>2015-09-06T13:23:26Z</time>
      </trkpt>
      <trkpt lat="45.03951" lon="5.92423">
        <ele>2881.2341</ele>
        <time>2015-09-06T13:23:36Z</time>
      </trkpt>
      <trkpt lat="45.03951" lon="5.92423">
        <ele>2881.2341</ele>
        <time>2015-09-06T13:23:41Z</time>
      </trkpt>
      <trkpt lat="45.03951" lon="5.92423">
        <ele>2881.2341</ele>
        <time>2015-09-06T13:23:51Z</time>
      </trkpt>
      <trkpt lat="45.03951" lon="5.92423">
        <ele>2881.2341</ele>
        <time>2015-09-06T13:23:56Z</time>
      </trkpt>
      <trkpt lat="45.03951" lon="5.92423">
        <ele>2881.2341</ele>
        <time>2015-09-06T13:24:06Z</time>
      </trkpt>
      <trkpt lat="45.03951" lon="5.92423">
        <ele>2881.2341</ele>
        <time>2015-09-06T13:24:11Z</time>
      </trkpt>
      <trkpt lat="45.03951" lon="5.92423">
        <ele>2881.2341</ele>
        <time>2015-09-06T13:24:21Z</time>
      </trkpt>
      <trkpt lat="45.03951" lon="5.92423">
        <ele>2881.2341</ele>
        <time>2015-09-06T13:24:26Z</time>
      </trkpt>
      <trkpt lat="45.03951" lon="5.92423">
        <ele>2881.2341</ele>
        <time>2015-09-06T13:24:41Z</time>
      </trkpt>
      <trkpt lat="45.03951" lon="5.92423">
        <ele>2881.2341</ele>
        <time>2015-09-06T13:24:46Z</time>
      </trkpt>
      <trkpt lat="45.03951" lon="5.92423">
        <ele>2881.2341</ele>
        <time>2015-09-06T13:24:56Z</time>
      </trkpt>
      <trkpt lat="45.03951" lon="5.92423">
        <ele>2881.2341</ele>
        <time>2015-09-06T13:25:01Z</time>
      </trkpt>
      <trkpt lat="45.03951" lon="5.92423">
        <ele>2881.2341</ele>
        <time>2015-09-06T13:25:11Z</time>
      </trkpt>
      <trkpt lat="45.03951" lon="5.92423">
        <ele>2881.2341</ele>
        <time>2015-09-06T13:25:16Z</time>
      </trkpt>
      <trkpt lat="45.03951" lon="5.92423">
        <ele>2881.2341</ele>
        <time>2015-09-06T13:25:26Z</time>
      </trkpt>
      <trkpt lat="45.03951" lon="5.92423">
        <ele>2881.2341</ele>
        <time>2015-09-06T13:25:31Z</time>
      </trkpt>
      <trkpt lat="45.03951" lon="5.92423">
        <ele>2881.2341</ele>
        <time>2015-09-06T13:25:41Z</time>
      </trkpt>
      <trkpt lat="45.03951" lon="5.92423">
        <ele>2881.2341</ele>
        <time>2015-09-06T13:25:46Z</time>
      </trkpt>
      <trkpt lat="45.03951" lon="5.92423">
        <ele>2881.2341</ele>
        <time>2015-09-06T13:25:56Z</time>
      </trkpt>
      <trkpt lat="45.03951" lon="5.92423">
        <ele>2881.2341</ele>
        <time>2015-09-06T13:26:11Z</time>
      </trkpt>
      <trkpt lat="45.03951" lon="5.92423">
        <ele>2881.2341</ele>
        <time>2015-09-06T13:26:16Z</time>
      </trkpt>
      <trkpt lat="45.03951" lon="5.92423">
        <ele>2881.2341</ele>
        <time>2015-09-06T13:26:26Z</time>
      </trkpt>
      <trkpt lat="45.03951" lon="5.92423">
        <ele>2881.2341</ele>
        <time>2015-09-06T13:26:31Z</time>
      </trkpt>
      <trkpt lat="45.03951" lon="5.92423">
        <ele>2881.2341</ele>
        <time>2015-09-06T13:26:41Z</time>
      </trkpt>
      <trkpt lat="45.03951" lon="5.92423">
        <ele>2881.2341</ele>
        <time>2015-09-06T13:26:46Z</time>
      </trkpt>
      <trkpt lat="45.03951" lon="5.92423">
        <ele>2881.2341</ele>
        <time>2015-09-06T13:27:01Z</time>
      </trkpt>
      <trkpt lat="45.03951" lon="5.92423">
        <ele>2881.2341</ele>
        <time>2015-09-06T13:27:06Z</time>
      </trkpt>
      <trkpt lat="45.03951" lon="5.92423">
        <ele>2881.2341</ele>
        <time>2015-09-06T13:27:16Z</time>
      </trkpt>
      <trkpt lat="45.03951" lon="5.92423">
        <ele>2881.2341</ele>
        <time>2015-09-06T13:27:21Z</time>
      </trkpt>
      <trkpt lat="45.03951" lon="5.92423">
        <ele>2881.2341</ele>
        <time>2015-09-06T13:27:31Z</time>
      </trkpt>
      <trkpt lat="45.03951" lon="5.92423">
        <ele>2881.2341</ele>
        <time>2015-09-06T13:27:36Z</time>
      </trkpt>
      <trkpt lat="45.03951" lon="5.92423">
        <ele>2881.2341</ele>
        <time>2015-09-06T13:27:46Z</time>
      </trkpt>
      <trkpt lat="45.03951" lon="5.92423">
        <ele>2881.2341</ele>
        <time>2015-09-06T13:27:51Z</time>
      </trkpt>
      <trkpt lat="45.03951" lon="5.92423">
        <ele>2881.2341</ele>
        <time>2015-09-06T13:28:01Z</time>
      </trkpt>
      <trkpt lat="45.03951" lon="5.92423">
        <ele>2881.2341</ele>
        <time>2015-09-06T13:28:06Z</time>
      </trkpt>
      <trkpt lat="45.03951" lon="5.92423">
        <ele>2881.2341</ele>
        <time>2015-09-06T13:28:16Z</time>
      </trkpt>
      <trkpt lat="45.03951" lon="5.92423">
        <ele>2881.2341</ele>
        <time>2015-09-06T13:28:21Z</time>
      </trkpt>
      <trkpt lat="45.0395" lon="5.92423">
        <ele>2881.2341</ele>
        <time>2015-09-06T13:28:31Z</time>
      </trkpt>
      <trkpt lat="45.0395" lon="5.92423">
        <ele>2881.2341</ele>
        <time>2015-09-06T13:28:36Z</time>
      </trkpt>
      <trkpt lat="45.0395" lon="5.92423">
        <ele>2881.2341</ele>
        <time>2015-09-06T13:28:46Z</time>
      </trkpt>
      <trkpt lat="45.0395" lon="5.92423">
        <ele>2881.2341</ele>
        <time>2015-09-06T13:28:51Z</time>
      </trkpt>
      <trkpt lat="45.0395" lon="5.92423">
        <ele>2881.2341</ele>
        <time>2015-09-06T13:29:01Z</time>
      </trkpt>
      <trkpt lat="45.0395" lon="5.92423">
        <ele>2881.2341</ele>
        <time>2015-09-06T13:29:06Z</time>
      </trkpt>
      <trkpt lat="45.0395" lon="5.92423">
        <ele>2881.2341</ele>
        <time>2015-09-06T13:29:16Z</time>
      </trkpt>
      <trkpt lat="45.0395" lon="5.92423">
        <ele>2881.2341</ele>
        <time>2015-09-06T13:29:21Z</time>
      </trkpt>
      <trkpt lat="45.0395" lon="5.92423">
        <ele>2881.2341</ele>
        <time>2015-09-06T13:29:36Z</time>
      </trkpt>
      <trkpt lat="45.0395" lon="5.92423">
        <ele>2881.2341</ele>
        <time>2015-09-06T13:29:41Z</time>
      </trkpt>
      <trkpt lat="45.0395" lon="5.92423">
        <ele>2881.2341</ele>
        <time>2015-09-06T13:29:51Z</time>
      </trkpt>
      <trkpt lat="45.0395" lon="5.92423">
        <ele>2881.2341</ele>
        <time>2015-09-06T13:29:56Z</time>
      </trkpt>
      <trkpt lat="45.0395" lon="5.92423">
        <ele>2881.2341</ele>
        <time>2015-09-06T13:30:06Z</time>
      </trkpt>
      <trkpt lat="45.0395" lon="5.92423">
        <ele>2881.2341</ele>
        <time>2015-09-06T13:30:11Z</time>
      </trkpt>
      <trkpt lat="45.0395" lon="5.92423">
        <ele>2881.2341</ele>
        <time>2015-09-06T13:30:21Z</time>
      </trkpt>
      <trkpt lat="45.0395" lon="5.92423">
        <ele>2881.2341</ele>
        <time>2015-09-06T13:30:26Z</time>
      </trkpt>
      <trkpt lat="45.0395" lon="5.92423">
        <ele>2881.2341</ele>
        <time>2015-09-06T13:30:36Z</time>
      </trkpt>
      <trkpt lat="45.0395" lon="5.92423">
        <ele>2881.2341</ele>
        <time>2015-09-06T13:30:41Z</time>
      </trkpt>
      <trkpt lat="45.0395" lon="5.92423">
        <ele>2881.2341</ele>
        <time>2015-09-06T13:30:51Z</time>
      </trkpt>
      <trkpt lat="45.0395" lon="5.92423">
        <ele>2881.2341</ele>
        <time>2015-09-06T13:30:56Z</time>
      </trkpt>
      <trkpt lat="45.0395" lon="5.92423">
        <ele>2881.2341</ele>
        <time>2015-09-06T13:31:06Z</time>
      </trkpt>
      <trkpt lat="45.0395" lon="5.92423">
        <ele>2881.2341</ele>
        <time>2015-09-06T13:31:11Z</time>
      </trkpt>
      <trkpt lat="45.0395" lon="5.92423">
        <ele>2881.2341</ele>
        <time>2015-09-06T13:31:21Z</time>
      </trkpt>
      <trkpt lat="45.0395" lon="5.92423">
        <ele>2881.2341</ele>
        <time>2015-09-06T13:31:26Z</time>
      </trkpt>
      <trkpt lat="45.0395" lon="5.92423">
        <ele>2881.2341</ele>
        <time>2015-09-06T13:31:36Z</time>
      </trkpt>
      <trkpt lat="45.0395" lon="5.92423">
        <ele>2881.2341</ele>
        <time>2015-09-06T13:31:41Z</time>
      </trkpt>
      <trkpt lat="45.0395" lon="5.92423">
        <ele>2881.2341</ele>
        <time>2015-09-06T13:31:51Z</time>
      </trkpt>
      <trkpt lat="45.0395" lon="5.92423">
        <ele>2881.2341</ele>
        <time>2015-09-06T13:31:56Z</time>
      </trkpt>
      <trkpt lat="45.0395" lon="5.92423">
        <ele>2881.2341</ele>
        <time>2015-09-06T13:32:11Z</time>
      </trkpt>
      <trkpt lat="45.0395" lon="5.92423">
        <ele>2881.2341</ele>
        <time>2015-09-06T13:32:16Z</time>
      </trkpt>
      <trkpt lat="45.0395" lon="5.92423">
        <ele>2881.2341</ele>
        <time>2015-09-06T13:32:26Z</time>
      </trkpt>
      <trkpt lat="45.0395" lon="5.92423">
        <ele>2881.2341</ele>
        <time>2015-09-06T13:32:31Z</time>
      </trkpt>
      <trkpt lat="45.0395" lon="5.92423">
        <ele>2881.2341</ele>
        <time>2015-09-06T13:32:41Z</time>
      </trkpt>
      <trkpt lat="45.0395" lon="5.92423">
        <ele>2881.2341</ele>
        <time>2015-09-06T13:32:46Z</time>
      </trkpt>
      <trkpt lat="45.0395" lon="5.92423">
        <ele>2881.2341</ele>
        <time>2015-09-06T13:32:56Z</time>
      </trkpt>
      <trkpt lat="45.0395" lon="5.92423">
        <ele>2881.2341</ele>
        <time>2015-09-06T13:33:01Z</time>
      </trkpt>
      <trkpt lat="45.0395" lon="5.92423">
        <ele>2881.2341</ele>
        <time>2015-09-06T13:33:11Z</time>
      </trkpt>
      <trkpt lat="45.0395" lon="5.92423">
        <ele>2881.2341</ele>
        <time>2015-09-06T13:33:16Z</time>
      </trkpt>
      <trkpt lat="45.0395" lon="5.92423">
        <ele>2881.2341</ele>
        <time>2015-09-06T13:33:26Z</time>
      </trkpt>
      <trkpt lat="45.0395" lon="5.92423">
        <ele>2881.2341</ele>
        <time>2015-09-06T13:33:31Z</time>
      </trkpt>
      <trkpt lat="45.0395" lon="5.92423">
        <ele>2881.2341</ele>
        <time>2015-09-06T13:33:46Z</time>
      </trkpt>
      <trkpt lat="45.0395" lon="5.92423">
        <ele>2881.2341</ele>
        <time>2015-09-06T13:33:51Z</time>
      </trkpt>
      <trkpt lat="45.0395" lon="5.92423">
        <ele>2881.2341</ele>
        <time>2015-09-06T13:34:01Z</time>
      </trkpt>
      <trkpt lat="45.0395" lon="5.92423">
        <ele>2881.2341</ele>
        <time>2015-09-06T13:34:06Z</time>
      </trkpt>
      <trkpt lat="45.0395" lon="5.92423">
        <ele>2881.2341</ele>
        <time>2015-09-06T13:34:16Z</time>
      </trkpt>
      <trkpt lat="45.0395" lon="5.92423">
        <ele>2881.2341</ele>
        <time>2015-09-06T13:34:21Z</time>
      </trkpt>
      <trkpt lat="45.0395" lon="5.92423">
        <ele>2881.2341</ele>
        <time>2015-09-06T13:34:31Z</time>
      </trkpt>
      <trkpt lat="45.0395" lon="5.92423">
        <ele>2881.2341</ele>
        <time>2015-09-06T13:34:36Z</time>
      </trkpt>
      <trkpt lat="45.0395" lon="5.92423">
        <ele>2881.2341</ele>
        <time>2015-09-06T13:34:46Z</time>
      </trkpt>
      <trkpt lat="45.0395" lon="5.92423">
        <ele>2881.2341</ele>
        <time>2015-09-06T13:34:51Z</time>
      </trkpt>
      <trkpt lat="45.0395" lon="5.92423">
        <ele>2881.2341</ele>
        <time>2015-09-06T13:35:01Z</time>
      </trkpt>
      <trkpt lat="45.0395" lon="5.92423">
        <ele>2881.2341</ele>
        <time>2015-09-06T13:35:06Z</time>
      </trkpt>
      <trkpt lat="45.0395" lon="5.92423">
        <ele>2881.2341</ele>
        <time>2015-09-06T13:35:16Z</time>
      </trkpt>
      <trkpt lat="45.0395" lon="5.92423">
        <ele>2881.2341</ele>
        <time>2015-09-06T13:35:21Z</time>
      </trkpt>
      <trkpt lat="45.0395" lon="5.92423">
        <ele>2881.2341</ele>
        <time>2015-09-06T13:35:36Z</time>
      </trkpt>
      <trkpt lat="45.0395" lon="5.92423">
        <ele>2881.2341</ele>
        <time>2015-09-06T13:35:41Z</time>
      </trkpt>
      <trkpt lat="45.0395" lon="5.92423">
        <ele>2881.2341</ele>
        <time>2015-09-06T13:35:51Z</time>
      </trkpt>
      <trkpt lat="45.0395" lon="5.92423">
        <ele>2881.2341</ele>
        <time>2015-09-06T13:35:56Z</time>
      </trkpt>
      <trkpt lat="45.0395" lon="5.92423">
        <ele>2881.2341</ele>
        <time>2015-09-06T13:36:06Z</time>
      </trkpt>
      <trkpt lat="45.0395" lon="5.92423">
        <ele>2881.2341</ele>
        <time>2015-09-06T13:36:11Z</time>
      </trkpt>
      <trkpt lat="45.0395" lon="5.92423">
        <ele>2881.2341</ele>
        <time>2015-09-06T13:36:21Z</time>
      </trkpt>
      <trkpt lat="45.0395" lon="5.92423">
        <ele>2881.2341</ele>
        <time>2015-09-06T13:36:26Z</time>
      </trkpt>
      <trkpt lat="45.0395" lon="5.92423">
        <ele>2881.2341</ele>
        <time>2015-09-06T13:36:36Z</time>
      </trkpt>
      <trkpt lat="45.0395" lon="5.92423">
        <ele>2881.2341</ele>
        <time>2015-09-06T13:36:41Z</time>
      </trkpt>
      <trkpt lat="45.0395" lon="5.92423">
        <ele>2881.2341</ele>
        <time>2015-09-06T13:36:51Z</time>
      </trkpt>
      <trkpt lat="45.0395" lon="5.92423">
        <ele>2881.2341</ele>
        <time>2015-09-06T13:36:56Z</time>
      </trkpt>
      <trkpt lat="45.0395" lon="5.92423">
        <ele>2881.2341</ele>
        <time>2015-09-06T13:37:11Z</time>
      </trkpt>
      <trkpt lat="45.0395" lon="5.92423">
        <ele>2881.2341</ele>
        <time>2015-09-06T13:37:16Z</time>
      </trkpt>
      <trkpt lat="45.0395" lon="5.92423">
        <ele>2881.2341</ele>
        <time>2015-09-06T13:37:26Z</time>
      </trkpt>
      <trkpt lat="45.0395" lon="5.92423">
        <ele>2881.2341</ele>
        <time>2015-09-06T13:37:31Z</time>
      </trkpt>
      <trkpt lat="45.0395" lon="5.92423">
        <ele>2881.2341</ele>
        <time>2015-09-06T13:37:41Z</time>
      </trkpt>
      <trkpt lat="45.0395" lon="5.92423">
        <ele>2881.2341</ele>
        <time>2015-09-06T13:37:46Z</time>
      </trkpt>
      <trkpt lat="45.0395" lon="5.92423">
        <ele>2881.2341</ele>
        <time>2015-09-06T13:37:56Z</time>
      </trkpt>
      <trkpt lat="45.0395" lon="5.92423">
        <ele>2881.2341</ele>
        <time>2015-09-06T13:38:01Z</time>
      </trkpt>
      <trkpt lat="45.0395" lon="5.92423">
        <ele>2881.2341</ele>
        <time>2015-09-06T13:38:11Z</time>
      </trkpt>
      <trkpt lat="45.0395" lon="5.92423">
        <ele>2881.2341</ele>
        <time>2015-09-06T13:38:16Z</time>
      </trkpt>
      <trkpt lat="45.0395" lon="5.92423">
        <ele>2881.2341</ele>
        <time>2015-09-06T13:38:26Z</time>
      </trkpt>
      <trkpt lat="45.0395" lon="5.92423">
        <ele>2881.2341</ele>
        <time>2015-09-06T13:38:31Z</time>
      </trkpt>
      <trkpt lat="45.0395" lon="5.92423">
        <ele>2881.2341</ele>
        <time>2015-09-06T13:38:41Z</time>
      </trkpt>
      <trkpt lat="45.0395" lon="5.92423">
        <ele>2881.2341</ele>
        <time>2015-09-06T13:38:46Z</time>
      </trkpt>
      <trkpt lat="45.0395" lon="5.92423">
        <ele>2881.2341</ele>
        <time>2015-09-06T13:38:56Z</time>
      </trkpt>
      <trkpt lat="45.0395" lon="5.92423">
        <ele>2881.2341</ele>
        <time>2015-09-06T13:39:01Z</time>
      </trkpt>
      <trkpt lat="45.0395" lon="5.92423">
        <ele>2881.2341</ele>
        <time>2015-09-06T13:39:16Z</time>
      </trkpt>
      <trkpt lat="45.0395" lon="5.92423">
        <ele>2881.2341</ele>
        <time>2015-09-06T13:39:21Z</time>
      </trkpt>
      <trkpt lat="45.0395" lon="5.92423">
        <ele>2881.2341</ele>
        <time>2015-09-06T13:39:31Z</time>
      </trkpt>
      <trkpt lat="45.0395" lon="5.92423">
        <ele>2881.2341</ele>
        <time>2015-09-06T13:39:36Z</time>
      </trkpt>
      <trkpt lat="45.0395" lon="5.92423">
        <ele>2881.2341</ele>
        <time>2015-09-06T13:39:46Z</time>
      </trkpt>
      <trkpt lat="45.0395" lon="5.92423">
        <ele>2881.2341</ele>
        <time>2015-09-06T13:39:51Z</time>
      </trkpt>
      <trkpt lat="45.0395" lon="5.92423">
        <ele>2881.2341</ele>
        <time>2015-09-06T13:40:01Z</time>
      </trkpt>
      <trkpt lat="45.0395" lon="5.92423">
        <ele>2881.2341</ele>
        <time>2015-09-06T13:40:06Z</time>
      </trkpt>
      <trkpt lat="45.0395" lon="5.92423">
        <ele>2881.2341</ele>
        <time>2015-09-06T13:40:16Z</time>
      </trkpt>
      <trkpt lat="45.0395" lon="5.92423">
        <ele>2881.2341</ele>
        <time>2015-09-06T13:40:21Z</time>
      </trkpt>
      <trkpt lat="45.0395" lon="5.92423">
        <ele>2881.2341</ele>
        <time>2015-09-06T13:40:31Z</time>
      </trkpt>
      <trkpt lat="45.0395" lon="5.92423">
        <ele>2881.2341</ele>
        <time>2015-09-06T13:40:36Z</time>
      </trkpt>
      <trkpt lat="45.0395" lon="5.92423">
        <ele>2881.2341</ele>
        <time>2015-09-06T13:40:46Z</time>
      </trkpt>
      <trkpt lat="45.0395" lon="5.92423">
        <ele>2881.2341</ele>
        <time>2015-09-06T13:40:51Z</time>
      </trkpt>
      <trkpt lat="45.0395" lon="5.92423">
        <ele>2881.2341</ele>
        <time>2015-09-06T13:41:06Z</time>
      </trkpt>
      <trkpt lat="45.0395" lon="5.92423">
        <ele>2881.2341</ele>
        <time>2015-09-06T13:41:11Z</time>
      </trkpt>
      <trkpt lat="45.0395" lon="5.92423">
        <ele>2881.2341</ele>
        <time>2015-09-06T13:41:21Z</time>
      </trkpt>
      <trkpt lat="45.0395" lon="5.92423">
        <ele>2881.2341</ele>
        <time>2015-09-06T13:41:26Z</time>
      </trkpt>
      <trkpt lat="45.0395" lon="5.92423">
        <ele>2881.2341</ele>
        <time>2015-09-06T13:41:36Z</time>
      </trkpt>
      <trkpt lat="45.0395" lon="5.92423">
        <ele>2881.2341</ele>
        <time>2015-09-06T13:41:41Z</time>
      </trkpt>
      <trkpt lat="45.0395" lon="5.92423">
        <ele>2881.2341</ele>
        <time>2015-09-06T13:41:51Z</time>
      </trkpt>
      <trkpt lat="45.0395" lon="5.92423">
        <ele>2881.2341</ele>
        <time>2015-09-06T13:41:56Z</time>
      </trkpt>
      <trkpt lat="45.0395" lon="5.92423">
        <ele>2881.2341</ele>
        <time>2015-09-06T13:42:06Z</time>
      </trkpt>
      <trkpt lat="45.0395" lon="5.92423">
        <ele>2881.2341</ele>
        <time>2015-09-06T13:42:11Z</time>
      </trkpt>
      <trkpt lat="45.0395" lon="5.92423">
        <ele>2881.2341</ele>
        <time>2015-09-06T13:42:21Z</time>
      </trkpt>
      <trkpt lat="45.0395" lon="5.92423">
        <ele>2881.2341</ele>
        <time>2015-09-06T13:42:26Z</time>
      </trkpt>
      <trkpt lat="45.0395" lon="5.92423">
        <ele>2881.2341</ele>
        <time>2015-09-06T13:42:36Z</time>
      </trkpt>
      <trkpt lat="45.0395" lon="5.92423">
        <ele>2881.2341</ele>
        <time>2015-09-06T13:42:41Z</time>
      </trkpt>
      <trkpt lat="45.0395" lon="5.92423">
        <ele>2881.2341</ele>
        <time>2015-09-06T13:42:51Z</time>
      </trkpt>
      <trkpt lat="45.0395" lon="5.92423">
        <ele>2881.2341</ele>
        <time>2015-09-06T13:42:56Z</time>
      </trkpt>
      <trkpt lat="45.0395" lon="5.92423">
        <ele>2881.2341</ele>
        <time>2015-09-06T13:43:11Z</time>
      </trkpt>
      <trkpt lat="45.0395" lon="5.92423">
        <ele>2881.2341</ele>
        <time>2015-09-06T13:43:16Z</time>
      </trkpt>
      <trkpt lat="45.0395" lon="5.92423">
        <ele>2881.2341</ele>
        <time>2015-09-06T13:43:26Z</time>
      </trkpt>
      <trkpt lat="45.0395" lon="5.92423">
        <ele>2881.2341</ele>
        <time>2015-09-06T13:43:31Z</time>
      </trkpt>
      <trkpt lat="45.0395" lon="5.92423">
        <ele>2881.2341</ele>
        <time>2015-09-06T13:43:41Z</time>
      </trkpt>
      <trkpt lat="45.0395" lon="5.92423">
        <ele>2881.2341</ele>
        <time>2015-09-06T13:43:46Z</time>
      </trkpt>
      <trkpt lat="45.0395" lon="5.92423">
        <ele>2881.2341</ele>
        <time>2015-09-06T13:43:56Z</time>
      </trkpt>
      <trkpt lat="45.0395" lon="5.92423">
        <ele>2881.2341</ele>
        <time>2015-09-06T13:44:01Z</time>
      </trkpt>
      <trkpt lat="45.0395" lon="5.92423">
        <ele>2881.2341</ele>
        <time>2015-09-06T13:44:11Z</time>
      </trkpt>
      <trkpt lat="45.0395" lon="5.92423">
        <ele>2881.2341</ele>
        <time>2015-09-06T13:44:16Z</time>
      </trkpt>
      <trkpt lat="45.0395" lon="5.92423">
        <ele>2881.2341</ele>
        <time>2015-09-06T13:44:26Z</time>
      </trkpt>
      <trkpt lat="45.0395" lon="5.92423">
        <ele>2881.2341</ele>
        <time>2015-09-06T13:44:31Z</time>
      </trkpt>
      <trkpt lat="45.0395" lon="5.92423">
        <ele>2881.2341</ele>
        <time>2015-09-06T13:44:41Z</time>
      </trkpt>
      <trkpt lat="45.0395" lon="5.92423">
        <ele>2881.2341</ele>
        <time>2015-09-06T13:44:46Z</time>
      </trkpt>
      <trkpt lat="45.0395" lon="5.92423">
        <ele>2881.2341</ele>
        <time>2015-09-06T13:45:01Z</time>
      </trkpt>
      <trkpt lat="45.0395" lon="5.92423">
        <ele>2881.2341</ele>
        <time>2015-09-06T13:45:06Z</time>
      </trkpt>
      <trkpt lat="45.0395" lon="5.92423">
        <ele>2881.2341</ele>
        <time>2015-09-06T13:45:16Z</time>
      </trkpt>
      <trkpt lat="45.0395" lon="5.92423">
        <ele>2881.2341</ele>
        <time>2015-09-06T13:45:21Z</time>
      </trkpt>
      <trkpt lat="45.0395" lon="5.92423">
        <ele>2881.2341</ele>
        <time>2015-09-06T13:45:31Z</time>
      </trkpt>
      <trkpt lat="45.0395" lon="5.92423">
        <ele>2881.2341</ele>
        <time>2015-09-06T13:45:36Z</time>
      </trkpt>
      <trkpt lat="45.03948" lon="5.92424">
        <ele>2881.2341</ele>
        <time>2015-09-06T13:45:46Z</time>
      </trkpt>
      <trkpt lat="45.03948" lon="5.92423">
        <ele>2881.2341</ele>
        <time>2015-09-06T13:45:51Z</time>
      </trkpt>
      <trkpt lat="45.03948" lon="5.92423">
        <ele>2881.2341</ele>
        <time>2015-09-06T13:46:01Z</time>
      </trkpt>
      <trkpt lat="45.03948" lon="5.92423">
        <ele>2881.2341</ele>
        <time>2015-09-06T13:46:06Z</time>
      </trkpt>
      <trkpt lat="45.03948" lon="5.92423">
        <ele>2881.2341</ele>
        <time>2015-09-06T13:46:16Z</time>
      </trkpt>
      <trkpt lat="45.03948" lon="5.92423">
        <ele>2881.2341</ele>
        <time>2015-09-06T13:46:21Z</time>
      </trkpt>
      <trkpt lat="45.03948" lon="5.92423">
        <ele>2881.2341</ele>
        <time>2015-09-06T13:46:31Z</time>
      </trkpt>
      <trkpt lat="45.03946" lon="5.92423">
        <ele>2881.2341</ele>
        <time>2015-09-06T13:46:36Z</time>
      </trkpt>
      <trkpt lat="45.03946" lon="5.92423">
        <ele>2881.2341</ele>
        <time>2015-09-06T13:46:46Z</time>
      </trkpt>
      <trkpt lat="45.03946" lon="5.92423">
        <ele>2881.2341</ele>
        <time>2015-09-06T13:46:51Z</time>
      </trkpt>
      <trkpt lat="45.03946" lon="5.92423">
        <ele>2881.2341</ele>
        <time>2015-09-06T13:47:01Z</time>
      </trkpt>
      <trkpt lat="45.03946" lon="5.92423">
        <ele>2881.2341</ele>
        <time>2015-09-06T13:47:06Z</time>
      </trkpt>
      <trkpt lat="45.03948" lon="5.92424">
        <ele>2881.2341</ele>
        <time>2015-09-06T13:47:16Z</time>
      </trkpt>
      <trkpt lat="45.03948" lon="5.92423">
        <ele>2881.2341</ele>
        <time>2015-09-06T13:47:21Z</time>
      </trkpt>
      <trkpt lat="45.03949" lon="5.92424">
        <ele>2881.4556</ele>
        <time>2015-09-06T13:47:31Z</time>
      </trkpt>
      <trkpt lat="45.03948" lon="5.92425">
        <ele>2881.4556</ele>
        <time>2015-09-06T13:47:36Z</time>
      </trkpt>
      <trkpt lat="45.03949" lon="5.92426">
        <ele>2881.4556</ele>
        <time>2015-09-06T13:47:46Z</time>
      </trkpt>
      <trkpt lat="45.03951" lon="5.92429">
        <ele>2881.4556</ele>
        <time>2015-09-06T13:47:51Z</time>
      </trkpt>
      <trkpt lat="45.03951" lon="5.92428">
        <ele>2881.4556</ele>
        <time>2015-09-06T13:48:06Z</time>
      </trkpt>
      <trkpt lat="45.03951" lon="5.92428">
        <ele>2881.4556</ele>
        <time>2015-09-06T13:48:11Z</time>
      </trkpt>
      <trkpt lat="45.03951" lon="5.92428">
        <ele>2881.4556</ele>
        <time>2015-09-06T13:48:21Z</time>
      </trkpt>
      <trkpt lat="45.03951" lon="5.92428">
        <ele>2881.4556</ele>
        <time>2015-09-06T13:48:26Z</time>
      </trkpt>
      <trkpt lat="45.03951" lon="5.92428">
        <ele>2881.4556</ele>
        <time>2015-09-06T13:48:36Z</time>
      </trkpt>
      <trkpt lat="45.03951" lon="5.92428">
        <ele>2881.4556</ele>
        <time>2015-09-06T13:48:41Z</time>
      </trkpt>
      <trkpt lat="45.03951" lon="5.92428">
        <ele>2881.4556</ele>
        <time>2015-09-06T13:48:51Z</time>
      </trkpt>
      <trkpt lat="45.03951" lon="5.92428">
        <ele>2881.4556</ele>
        <time>2015-09-06T13:48:56Z</time>
      </trkpt>
      <trkpt lat="45.03951" lon="5.92428">
        <ele>2881.4556</ele>
        <time>2015-09-06T13:49:06Z</time>
      </trkpt>
      <trkpt lat="45.03951" lon="5.92428">
        <ele>2881.4556</ele>
        <time>2015-09-06T13:49:11Z</time>
      </trkpt>
      <trkpt lat="45.03951" lon="5.92428">
        <ele>2881.4556</ele>
        <time>2015-09-06T13:49:21Z</time>
      </trkpt>
      <trkpt lat="45.03951" lon="5.92428">
        <ele>2881.4556</ele>
        <time>2015-09-06T13:49:26Z</time>
      </trkpt>
      <trkpt lat="45.03951" lon="5.92428">
        <ele>2881.4556</ele>
        <time>2015-09-06T13:49:36Z</time>
      </trkpt>
      <trkpt lat="45.0395" lon="5.92428">
        <ele>2881.4556</ele>
        <time>2015-09-06T13:49:41Z</time>
      </trkpt>
      <trkpt lat="45.0395" lon="5.92428">
        <ele>2881.4556</ele>
        <time>2015-09-06T13:49:56Z</time>
      </trkpt>
      <trkpt lat="45.0395" lon="5.92428">
        <ele>2881.4556</ele>
        <time>2015-09-06T13:50:01Z</time>
      </trkpt>
      <trkpt lat="45.03949" lon="5.92426">
        <ele>2881.4556</ele>
        <time>2015-09-06T13:50:11Z</time>
      </trkpt>
      <trkpt lat="45.03948" lon="5.92426">
        <ele>2881.373</ele>
        <time>2015-09-06T13:50:16Z</time>
      </trkpt>
      <trkpt lat="45.03948" lon="5.92426">
        <ele>2881.373</ele>
        <time>2015-09-06T13:50:26Z</time>
      </trkpt>
      <trkpt lat="45.03948" lon="5.92426">
        <ele>2881.373</ele>
        <time>2015-09-06T13:50:31Z</time>
      </trkpt>
      <trkpt lat="45.03948" lon="5.92426">
        <ele>2881.373</ele>
        <time>2015-09-06T13:50:41Z</time>
      </trkpt>
      <trkpt lat="45.03948" lon="5.92426">
        <ele>2881.373</ele>
        <time>2015-09-06T13:50:46Z</time>
      </trkpt>
      <trkpt lat="45.03948" lon="5.92426">
        <ele>2881.373</ele>
        <time>2015-09-06T13:50:56Z</time>
      </trkpt>
      <trkpt lat="45.03948" lon="5.92426">
        <ele>2881.373</ele>
        <time>2015-09-06T13:51:01Z</time>
      </trkpt>
      <trkpt lat="45.03948" lon="5.92426">
        <ele>2881.373</ele>
        <time>2015-09-06T13:51:11Z</time>
      </trkpt>
      <trkpt lat="45.03948" lon="5.92426">
        <ele>2881.373</ele>
        <time>2015-09-06T13:51:16Z</time>
      </trkpt>
      <trkpt lat="45.03948" lon="5.92426">
        <ele>2881.373</ele>
        <time>2015-09-06T13:51:26Z</time>
      </trkpt>
      <trkpt lat="45.03948" lon="5.92426">
        <ele>2881.373</ele>
        <time>2015-09-06T13:51:31Z</time>
      </trkpt>
      <trkpt lat="45.03948" lon="5.92426">
        <ele>2881.373</ele>
        <time>2015-09-06T13:51:41Z</time>
      </trkpt>
      <trkpt lat="45.03948" lon="5.92426">
        <ele>2881.373</ele>
        <time>2015-09-06T13:51:46Z</time>
      </trkpt>
      <trkpt lat="45.03948" lon="5.92426">
        <ele>2881.373</ele>
        <time>2015-09-06T13:52:01Z</time>
      </trkpt>
      <trkpt lat="45.03948" lon="5.92426">
        <ele>2881.373</ele>
        <time>2015-09-06T13:52:06Z</time>
      </trkpt>
      <trkpt lat="45.03948" lon="5.92426">
        <ele>2881.373</ele>
        <time>2015-09-06T13:52:16Z</time>
      </trkpt>
      <trkpt lat="45.03948" lon="5.92426">
        <ele>2881.373</ele>
        <time>2015-09-06T13:52:21Z</time>
      </trkpt>
      <trkpt lat="45.03948" lon="5.92426">
        <ele>2881.373</ele>
        <time>2015-09-06T13:52:31Z</time>
      </trkpt>
      <trkpt lat="45.03948" lon="5.92426">
        <ele>2881.373</ele>
        <time>2015-09-06T13:52:36Z</time>
      </trkpt>
      <trkpt lat="45.03949" lon="5.92425">
        <ele>2881.373</ele>
        <time>2015-09-06T13:52:46Z</time>
      </trkpt>
      <trkpt lat="45.03949" lon="5.92426">
        <ele>2881.373</ele>
        <time>2015-09-06T13:52:51Z</time>
      </trkpt>
      <trkpt lat="45.0395" lon="5.92426">
        <ele>2881.373</ele>
        <time>2015-09-06T13:53:26Z</time>
      </trkpt>
      <trkpt lat="45.0395" lon="5.92426">
        <ele>2881.373</ele>
        <time>2015-09-06T13:53:31Z</time>
      </trkpt>
      <trkpt lat="45.0395" lon="5.92426">
        <ele>2881.373</ele>
        <time>2015-09-06T13:53:41Z</time>
      </trkpt>
      <trkpt lat="45.0395" lon="5.92426">
        <ele>2881.373</ele>
        <time>2015-09-06T13:53:46Z</time>
      </trkpt>
      <trkpt lat="45.0395" lon="5.92426">
        <ele>2881.373</ele>
        <time>2015-09-06T13:53:56Z</time>
      </trkpt>
      <trkpt lat="45.0395" lon="5.92426">
        <ele>2881.373</ele>
        <time>2015-09-06T13:54:01Z</time>
      </trkpt>
      <trkpt lat="45.0395" lon="5.92425">
        <ele>2881.373</ele>
        <time>2015-09-06T13:54:11Z</time>
      </trkpt>
      <trkpt lat="45.0395" lon="5.92425">
        <ele>2881.373</ele>
        <time>2015-09-06T13:54:16Z</time>
      </trkpt>
      <trkpt lat="45.0395" lon="5.92425">
        <ele>2881.373</ele>
        <time>2015-09-06T13:54:26Z</time>
      </trkpt>
      <trkpt lat="45.0395" lon="5.92425">
        <ele>2881.373</ele>
        <time>2015-09-06T13:54:31Z</time>
      </trkpt>
      <trkpt lat="45.0395" lon="5.92425">
        <ele>2881.373</ele>
        <time>2015-09-06T13:54:41Z</time>
      </trkpt>
      <trkpt lat="45.0395" lon="5.92425">
        <ele>2881.373</ele>
        <time>2015-09-06T13:54:46Z</time>
      </trkpt>
      <trkpt lat="45.0395" lon="5.92425">
        <ele>2881.373</ele>
        <time>2015-09-06T13:54:56Z</time>
      </trkpt>
      <trkpt lat="45.0395" lon="5.92425">
        <ele>2881.373</ele>
        <time>2015-09-06T13:55:01Z</time>
      </trkpt>
      <trkpt lat="45.0395" lon="5.92425">
        <ele>2881.373</ele>
        <time>2015-09-06T13:55:16Z</time>
      </trkpt>
      <trkpt lat="45.0395" lon="5.92425">
        <ele>2881.373</ele>
        <time>2015-09-06T13:55:21Z</time>
      </trkpt>
      <trkpt lat="45.0395" lon="5.92425">
        <ele>2881.373</ele>
        <time>2015-09-06T13:55:31Z</time>
      </trkpt>
      <trkpt lat="45.0395" lon="5.92425">
        <ele>2881.373</ele>
        <time>2015-09-06T13:55:36Z</time>
      </trkpt>
      <trkpt lat="45.0395" lon="5.92425">
        <ele>2881.373</ele>
        <time>2015-09-06T13:55:46Z</time>
      </trkpt>
      <trkpt lat="45.0395" lon="5.92425">
        <ele>2881.373</ele>
        <time>2015-09-06T13:55:51Z</time>
      </trkpt>
      <trkpt lat="45.0395" lon="5.92425">
        <ele>2881.373</ele>
        <time>2015-09-06T13:56:01Z</time>
      </trkpt>
      <trkpt lat="45.0395" lon="5.92425">
        <ele>2881.373</ele>
        <time>2015-09-06T13:56:06Z</time>
      </trkpt>
      <trkpt lat="45.0395" lon="5.92425">
        <ele>2881.373</ele>
        <time>2015-09-06T13:56:16Z</time>
      </trkpt>
      <trkpt lat="45.0395" lon="5.92425">
        <ele>2881.373</ele>
        <time>2015-09-06T13:56:21Z</time>
      </trkpt>
      <trkpt lat="45.0395" lon="5.92425">
        <ele>2881.373</ele>
        <time>2015-09-06T13:56:31Z</time>
      </trkpt>
      <trkpt lat="45.0395" lon="5.92425">
        <ele>2881.373</ele>
        <time>2015-09-06T13:56:36Z</time>
      </trkpt>
      <trkpt lat="45.0395" lon="5.92425">
        <ele>2881.373</ele>
        <time>2015-09-06T13:56:46Z</time>
      </trkpt>
      <trkpt lat="45.0395" lon="5.92425">
        <ele>2881.373</ele>
        <time>2015-09-06T13:56:51Z</time>
      </trkpt>
      <trkpt lat="45.0395" lon="5.92425">
        <ele>2881.373</ele>
        <time>2015-09-06T13:57:01Z</time>
      </trkpt>
      <trkpt lat="45.0395" lon="5.92425">
        <ele>2881.373</ele>
        <time>2015-09-06T13:57:06Z</time>
      </trkpt>
      <trkpt lat="45.0395" lon="5.92425">
        <ele>2881.373</ele>
        <time>2015-09-06T13:57:16Z</time>
      </trkpt>
      <trkpt lat="45.0395" lon="5.92425">
        <ele>2881.373</ele>
        <time>2015-09-06T13:57:21Z</time>
      </trkpt>
      <trkpt lat="45.0395" lon="5.92425">
        <ele>2881.373</ele>
        <time>2015-09-06T13:57:36Z</time>
      </trkpt>
      <trkpt lat="45.0395" lon="5.92425">
        <ele>2881.373</ele>
        <time>2015-09-06T13:57:41Z</time>
      </trkpt>
      <trkpt lat="45.0395" lon="5.92425">
        <ele>2881.373</ele>
        <time>2015-09-06T13:57:51Z</time>
      </trkpt>
      <trkpt lat="45.0395" lon="5.92425">
        <ele>2881.373</ele>
        <time>2015-09-06T13:57:56Z</time>
      </trkpt>
      <trkpt lat="45.0395" lon="5.92425">
        <ele>2881.373</ele>
        <time>2015-09-06T13:58:06Z</time>
      </trkpt>
      <trkpt lat="45.0395" lon="5.92425">
        <ele>2881.373</ele>
        <time>2015-09-06T13:58:11Z</time>
      </trkpt>
      <trkpt lat="45.0395" lon="5.92425">
        <ele>2881.373</ele>
        <time>2015-09-06T13:58:21Z</time>
      </trkpt>
      <trkpt lat="45.0395" lon="5.92426">
        <ele>2881.373</ele>
        <time>2015-09-06T13:58:26Z</time>
      </trkpt>
      <trkpt lat="45.03951" lon="5.92426">
        <ele>2881.373</ele>
        <time>2015-09-06T13:58:36Z</time>
      </trkpt>
      <trkpt lat="45.03949" lon="5.92423">
        <ele>2881.373</ele>
        <time>2015-09-06T13:58:41Z</time>
      </trkpt>
      <trkpt lat="45.03944" lon="5.92415">
        <ele>2881.454</ele>
        <time>2015-09-06T13:58:51Z</time>
      </trkpt>
      <trkpt lat="45.03944" lon="5.92414">
        <ele>2881.454</ele>
        <time>2015-09-06T13:58:56Z</time>
      </trkpt>
      <trkpt lat="45.03943" lon="5.92413">
        <ele>2881.454</ele>
        <time>2015-09-06T13:59:06Z</time>
      </trkpt>
      <trkpt lat="45.03943" lon="5.92413">
        <ele>2881.454</ele>
        <time>2015-09-06T13:59:11Z</time>
      </trkpt>
      <trkpt lat="45.03943" lon="5.92413">
        <ele>2881.454</ele>
        <time>2015-09-06T13:59:21Z</time>
      </trkpt>
      <trkpt lat="45.03943" lon="5.92413">
        <ele>2881.454</ele>
        <time>2015-09-06T13:59:26Z</time>
      </trkpt>
      <trkpt lat="45.03943" lon="5.92413">
        <ele>2881.454</ele>
        <time>2015-09-06T13:59:36Z</time>
      </trkpt>
      <trkpt lat="45.03943" lon="5.92413">
        <ele>2881.454</ele>
        <time>2015-09-06T13:59:41Z</time>
      </trkpt>
      <trkpt lat="45.03943" lon="5.92413">
        <ele>2881.454</ele>
        <time>2015-09-06T13:59:51Z</time>
      </trkpt>
      <trkpt lat="45.03942" lon="5.92404">
        <ele>2881.454</ele>
        <time>2015-09-06T13:59:56Z</time>
      </trkpt>
      <trkpt lat="45.03932" lon="5.92387">
        <ele>2881.4106</ele>
        <time>2015-09-06T14:00:11Z</time>
      </trkpt>
      <trkpt lat="45.03933" lon="5.9238">
        <ele>2881.4106</ele>
        <time>2015-09-06T14:00:16Z</time>
      </trkpt>
      <trkpt lat="45.03929" lon="5.92369">
        <ele>2880.399</ele>
        <time>2015-09-06T14:00:26Z</time>
      </trkpt>
      <trkpt lat="45.03926" lon="5.92358">
        <ele>2880.399</ele>
        <time>2015-09-06T14:00:31Z</time>
      </trkpt>
      <trkpt lat="45.03915" lon="5.92349">
        <ele>2878.7937</ele>
        <time>2015-09-06T14:00:41Z</time>
      </trkpt>
      <trkpt lat="45.03914" lon="5.92345">
        <ele>2878.7937</ele>
        <time>2015-09-06T14:00:46Z</time>
      </trkpt>
      <trkpt lat="45.03908" lon="5.92336">
        <ele>2876.7986</ele>
        <time>2015-09-06T14:00:56Z</time>
      </trkpt>
      <trkpt lat="45.03905" lon="5.9233">
        <ele>2876.7986</ele>
        <time>2015-09-06T14:01:01Z</time>
      </trkpt>
      <trkpt lat="45.03898" lon="5.92319">
        <ele>2874.7473</ele>
        <time>2015-09-06T14:01:11Z</time>
      </trkpt>
      <trkpt lat="45.03894" lon="5.92309">
        <ele>2874.7473</ele>
        <time>2015-09-06T14:01:16Z</time>
      </trkpt>
      <trkpt lat="45.03891" lon="5.92302">
        <ele>2872.8057</ele>
        <time>2015-09-06T14:01:26Z</time>
      </trkpt>
      <trkpt lat="45.03884" lon="5.92292">
        <ele>2870.8376</ele>
        <time>2015-09-06T14:01:31Z</time>
      </trkpt>
      <trkpt lat="45.03882" lon="5.92285">
        <ele>2870.8376</ele>
        <time>2015-09-06T14:01:41Z</time>
      </trkpt>
      <trkpt lat="45.0388" lon="5.92282">
        <ele>2870.8376</ele>
        <time>2015-09-06T14:01:46Z</time>
      </trkpt>
      <trkpt lat="45.03874" lon="5.92272">
        <ele>2868.429</ele>
        <time>2015-09-06T14:02:01Z</time>
      </trkpt>
      <trkpt lat="45.03871" lon="5.92263">
        <ele>2868.429</ele>
        <time>2015-09-06T14:02:06Z</time>
      </trkpt>
      <trkpt lat="45.03875" lon="5.92261">
        <ele>2865.629</ele>
        <time>2015-09-06T14:02:16Z</time>
      </trkpt>
      <trkpt lat="45.03875" lon="5.92261">
        <ele>2865.629</ele>
        <time>2015-09-06T14:02:21Z</time>
      </trkpt>
      <trkpt lat="45.0388" lon="5.92256">
        <ele>2865.629</ele>
        <time>2015-09-06T14:02:31Z</time>
      </trkpt>
      <trkpt lat="45.03881" lon="5.92255">
        <ele>2865.629</ele>
        <time>2015-09-06T14:02:36Z</time>
      </trkpt>
      <trkpt lat="45.03882" lon="5.9225">
        <ele>2862.196</ele>
        <time>2015-09-06T14:02:46Z</time>
      </trkpt>
      <trkpt lat="45.03882" lon="5.9225">
        <ele>2862.196</ele>
        <time>2015-09-06T14:02:51Z</time>
      </trkpt>
      <trkpt lat="45.03883" lon="5.9225">
        <ele>2862.196</ele>
        <time>2015-09-06T14:03:01Z</time>
      </trkpt>
      <trkpt lat="45.03883" lon="5.9225">
        <ele>2862.196</ele>
        <time>2015-09-06T14:03:06Z</time>
      </trkpt>
      <trkpt lat="45.03886" lon="5.92247">
        <ele>2862.196</ele>
        <time>2015-09-06T14:03:16Z</time>
      </trkpt>
      <trkpt lat="45.03888" lon="5.92245">
        <ele>2862.196</ele>
        <time>2015-09-06T14:03:21Z</time>
      </trkpt>
      <trkpt lat="45.0389" lon="5.92242">
        <ele>2857.6191</ele>
        <time>2015-09-06T14:03:31Z</time>
      </trkpt>
      <trkpt lat="45.0389" lon="5.92243">
        <ele>2857.6191</ele>
        <time>2015-09-06T14:03:36Z</time>
      </trkpt>
      <trkpt lat="45.0389" lon="5.92242">
        <ele>2857.6191</ele>
        <time>2015-09-06T14:03:46Z</time>
      </trkpt>
      <trkpt lat="45.0389" lon="5.92242">
        <ele>2857.6191</ele>
        <time>2015-09-06T14:03:51Z</time>
      </trkpt>
      <trkpt lat="45.0389" lon="5.92242">
        <ele>2857.6191</ele>
        <time>2015-09-06T14:04:06Z</time>
      </trkpt>
      <trkpt lat="45.03892" lon="5.92231">
        <ele>2857.6191</ele>
        <time>2015-09-06T14:04:11Z</time>
      </trkpt>
      <trkpt lat="45.039" lon="5.92219">
        <ele>2851.5723</ele>
        <time>2015-09-06T14:04:21Z</time>
      </trkpt>
      <trkpt lat="45.03901" lon="5.9222">
        <ele>2851.5723</ele>
        <time>2015-09-06T14:04:26Z</time>
      </trkpt>
      <trkpt lat="45.03909" lon="5.92214">
        <ele>2845.0535</ele>
        <time>2015-09-06T14:04:36Z</time>
      </trkpt>
      <trkpt lat="45.03908" lon="5.92206">
        <ele>2845.0535</ele>
        <time>2015-09-06T14:04:41Z</time>
      </trkpt>
      <trkpt lat="45.03913" lon="5.92198">
        <ele>2837.6912</ele>
        <time>2015-09-06T14:04:51Z</time>
      </trkpt>
      <trkpt lat="45.03916" lon="5.92196">
        <ele>2837.6912</ele>
        <time>2015-09-06T14:04:56Z</time>
      </trkpt>
      <trkpt lat="45.03917" lon="5.92191">
        <ele>2837.6912</ele>
        <time>2015-09-06T14:05:06Z</time>
      </trkpt>
      <trkpt lat="45.03917" lon="5.92191">
        <ele>2837.6912</ele>
        <time>2015-09-06T14:05:11Z</time>
      </trkpt>
      <trkpt lat="45.0392" lon="5.9219">
        <ele>2828.9995</ele>
        <time>2015-09-06T14:05:21Z</time>
      </trkpt>
      <trkpt lat="45.03922" lon="5.92183">
        <ele>2828.9995</ele>
        <time>2015-09-06T14:05:26Z</time>
      </trkpt>
      <trkpt lat="45.03923" lon="5.92181">
        <ele>2828.9995</ele>
        <time>2015-09-06T14:05:36Z</time>
      </trkpt>
      <trkpt lat="45.03925" lon="5.92176">
        <ele>2819.828</ele>
        <time>2015-09-06T14:05:41Z</time>
      </trkpt>
      <trkpt lat="45.03927" lon="5.92173">
        <ele>2819.828</ele>
        <time>2015-09-06T14:05:51Z</time>
      </trkpt>
      <trkpt lat="45.03927" lon="5.92173">
        <ele>2819.828</ele>
        <time>2015-09-06T14:05:56Z</time>
      </trkpt>
      <trkpt lat="45.03927" lon="5.92167">
        <ele>2819.828</ele>
        <time>2015-09-06T14:06:06Z</time>
      </trkpt>
      <trkpt lat="45.03929" lon="5.92158">
        <ele>2810.5315</ele>
        <time>2015-09-06T14:06:11Z</time>
      </trkpt>
      <trkpt lat="45.03936" lon="5.92152">
        <ele>2810.5315</ele>
        <time>2015-09-06T14:06:26Z</time>
      </trkpt>
      <trkpt lat="45.03935" lon="5.92148">
        <ele>2801.8723</ele>
        <time>2015-09-06T14:06:31Z</time>
      </trkpt>
      <trkpt lat="45.03936" lon="5.92149">
        <ele>2801.8723</ele>
        <time>2015-09-06T14:06:41Z</time>
      </trkpt>
      <trkpt lat="45.03937" lon="5.92145">
        <ele>2801.8723</ele>
        <time>2015-09-06T14:06:46Z</time>
      </trkpt>
      <trkpt lat="45.03944" lon="5.92143">
        <ele>2792.247</ele>
        <time>2015-09-06T14:06:56Z</time>
      </trkpt>
      <trkpt lat="45.03949" lon="5.92143">
        <ele>2792.247</ele>
        <time>2015-09-06T14:07:01Z</time>
      </trkpt>
      <trkpt lat="45.03959" lon="5.92141">
        <ele>2783.3433</ele>
        <time>2015-09-06T14:07:11Z</time>
      </trkpt>
      <trkpt lat="45.03963" lon="5.92136">
        <ele>2783.3433</ele>
        <time>2015-09-06T14:07:16Z</time>
      </trkpt>
      <trkpt lat="45.03965" lon="5.92135">
        <ele>2783.3433</ele>
        <time>2015-09-06T14:07:26Z</time>
      </trkpt>
      <trkpt lat="45.03965" lon="5.92134">
        <ele>2783.3433</ele>
        <time>2015-09-06T14:07:31Z</time>
      </trkpt>
      <trkpt lat="45.03965" lon="5.92131">
        <ele>2774.5598</ele>
        <time>2015-09-06T14:07:41Z</time>
      </trkpt>
      <trkpt lat="45.03968" lon="5.92133">
        <ele>2774.5598</ele>
        <time>2015-09-06T14:07:46Z</time>
      </trkpt>
      <trkpt lat="45.03977" lon="5.92131">
        <ele>2766.4915</ele>
        <time>2015-09-06T14:07:56Z</time>
      </trkpt>
      <trkpt lat="45.03983" lon="5.92137">
        <ele>2766.4915</ele>
        <time>2015-09-06T14:08:01Z</time>
      </trkpt>
      <trkpt lat="45.03994" lon="5.92144">
        <ele>2758.8218</ele>
        <time>2015-09-06T14:08:11Z</time>
      </trkpt>
      <trkpt lat="45.03999" lon="5.92144">
        <ele>2758.8218</ele>
        <time>2015-09-06T14:08:16Z</time>
      </trkpt>
      <trkpt lat="45.04006" lon="5.92151">
        <ele>2751.6877</ele>
        <time>2015-09-06T14:08:26Z</time>
      </trkpt>
      <trkpt lat="45.04008" lon="5.92151">
        <ele>2751.6877</ele>
        <time>2015-09-06T14:08:31Z</time>
      </trkpt>
      <trkpt lat="45.04024" lon="5.92157">
        <ele>2744.638</ele>
        <time>2015-09-06T14:08:46Z</time>
      </trkpt>
      <trkpt lat="45.04032" lon="5.9216">
        <ele>2744.638</ele>
        <time>2015-09-06T14:08:51Z</time>
      </trkpt>
      <trkpt lat="45.04047" lon="5.92155">
        <ele>2737.3967</ele>
        <time>2015-09-06T14:09:01Z</time>
      </trkpt>
      <trkpt lat="45.04054" lon="5.92156">
        <ele>2737.3967</ele>
        <time>2015-09-06T14:09:06Z</time>
      </trkpt>
      <trkpt lat="45.04057" lon="5.92158">
        <ele>2729.9968</ele>
        <time>2015-09-06T14:09:16Z</time>
      </trkpt>
      <trkpt lat="45.0406" lon="5.92158">
        <ele>2729.9968</ele>
        <time>2015-09-06T14:09:21Z</time>
      </trkpt>
      <trkpt lat="45.04068" lon="5.92154">
        <ele>2723.0447</ele>
        <time>2015-09-06T14:09:31Z</time>
      </trkpt>
      <trkpt lat="45.0407" lon="5.92143">
        <ele>2723.0447</ele>
        <time>2015-09-06T14:09:36Z</time>
      </trkpt>
      <trkpt lat="45.04078" lon="5.9214">
        <ele>2716.8115</ele>
        <time>2015-09-06T14:09:46Z</time>
      </trkpt>
      <trkpt lat="45.04085" lon="5.92143">
        <ele>2716.8115</ele>
        <time>2015-09-06T14:09:51Z</time>
      </trkpt>
      <trkpt lat="45.04093" lon="5.92146">
        <ele>2710.3936</ele>
        <time>2015-09-06T14:10:01Z</time>
      </trkpt>
      <trkpt lat="45.04098" lon="5.92151">
        <ele>2710.3936</ele>
        <time>2015-09-06T14:10:06Z</time>
      </trkpt>
      <trkpt lat="45.04106" lon="5.92151">
        <ele>2704.2493</ele>
        <time>2015-09-06T14:10:16Z</time>
      </trkpt>
      <trkpt lat="45.04108" lon="5.92151">
        <ele>2704.2493</ele>
        <time>2015-09-06T14:10:21Z</time>
      </trkpt>
      <trkpt lat="45.04135" lon="5.92146">
        <ele>2698.8027</ele>
        <time>2015-09-06T14:10:36Z</time>
      </trkpt>
      <trkpt lat="45.04129" lon="5.92148">
        <ele>2698.8027</ele>
        <time>2015-09-06T14:10:41Z</time>
      </trkpt>
      <trkpt lat="45.04132" lon="5.92148">
        <ele>2693.435</ele>
        <time>2015-09-06T14:10:51Z</time>
      </trkpt>
      <trkpt lat="45.04145" lon="5.92152">
        <ele>2688.7246</ele>
        <time>2015-09-06T14:10:56Z</time>
      </trkpt>
      <trkpt lat="45.04145" lon="5.92151">
        <ele>2688.7246</ele>
        <time>2015-09-06T14:11:06Z</time>
      </trkpt>
      <trkpt lat="45.04144" lon="5.92149">
        <ele>2688.7246</ele>
        <time>2015-09-06T14:11:11Z</time>
      </trkpt>
      <trkpt lat="45.04145" lon="5.92151">
        <ele>2688.7246</ele>
        <time>2015-09-06T14:11:21Z</time>
      </trkpt>
      <trkpt lat="45.04149" lon="5.92152">
        <ele>2688.7246</ele>
        <time>2015-09-06T14:11:26Z</time>
      </trkpt>
      <trkpt lat="45.04178" lon="5.92149">
        <ele>2683.908</ele>
        <time>2015-09-06T14:11:36Z</time>
      </trkpt>
      <trkpt lat="45.04183" lon="5.92162">
        <ele>2679.2864</ele>
        <time>2015-09-06T14:11:41Z</time>
      </trkpt>
      <trkpt lat="45.04204" lon="5.92171">
        <ele>2675.7136</ele>
        <time>2015-09-06T14:11:51Z</time>
      </trkpt>
      <trkpt lat="45.04204" lon="5.92168">
        <ele>2675.7136</ele>
        <time>2015-09-06T14:11:56Z</time>
      </trkpt>
      <trkpt lat="45.04204" lon="5.9217">
        <ele>2675.7136</ele>
        <time>2015-09-06T14:12:11Z</time>
      </trkpt>
      <trkpt lat="45.04204" lon="5.92169">
        <ele>2675.7136</ele>
        <time>2015-09-06T14:12:16Z</time>
      </trkpt>
      <trkpt lat="45.04204" lon="5.92169">
        <ele>2675.7136</ele>
        <time>2015-09-06T14:12:26Z</time>
      </trkpt>
      <trkpt lat="45.04204" lon="5.92169">
        <ele>2675.7136</ele>
        <time>2015-09-06T14:12:31Z</time>
      </trkpt>
      <trkpt lat="45.04204" lon="5.92169">
        <ele>2675.7136</ele>
        <time>2015-09-06T14:12:41Z</time>
      </trkpt>
      <trkpt lat="45.04204" lon="5.92169">
        <ele>2675.7136</ele>
        <time>2015-09-06T14:12:46Z</time>
      </trkpt>
      <trkpt lat="45.04212" lon="5.92176">
        <ele>2671.672</ele>
        <time>2015-09-06T14:12:56Z</time>
      </trkpt>
      <trkpt lat="45.04224" lon="5.92172">
        <ele>2668.9268</ele>
        <time>2015-09-06T14:13:01Z</time>
      </trkpt>
      <trkpt lat="45.04231" lon="5.92164">
        <ele>2668.9268</ele>
        <time>2015-09-06T14:13:11Z</time>
      </trkpt>
      <trkpt lat="45.04243" lon="5.92155">
        <ele>2665.3616</ele>
        <time>2015-09-06T14:13:16Z</time>
      </trkpt>
      <trkpt lat="45.04241" lon="5.92163">
        <ele>2665.3616</ele>
        <time>2015-09-06T14:13:26Z</time>
      </trkpt>
      <trkpt lat="45.04242" lon="5.92164">
        <ele>2665.3616</ele>
        <time>2015-09-06T14:13:31Z</time>
      </trkpt>
      <trkpt lat="45.04242" lon="5.92164">
        <ele>2665.3616</ele>
        <time>2015-09-06T14:13:41Z</time>
      </trkpt>
      <trkpt lat="45.04242" lon="5.92164">
        <ele>2665.3616</ele>
        <time>2015-09-06T14:13:46Z</time>
      </trkpt>
      <trkpt lat="45.04243" lon="5.92171">
        <ele>2662.7651</ele>
        <time>2015-09-06T14:13:56Z</time>
      </trkpt>
      <trkpt lat="45.04246" lon="5.92174">
        <ele>2662.7651</ele>
        <time>2015-09-06T14:14:01Z</time>
      </trkpt>
      <trkpt lat="45.04247" lon="5.92174">
        <ele>2662.7651</ele>
        <time>2015-09-06T14:14:11Z</time>
      </trkpt>
      <trkpt lat="45.04247" lon="5.92173">
        <ele>2662.7651</ele>
        <time>2015-09-06T14:14:16Z</time>
      </trkpt>
      <trkpt lat="45.04247" lon="5.92173">
        <ele>2662.7651</ele>
        <time>2015-09-06T14:14:31Z</time>
      </trkpt>
      <trkpt lat="45.04247" lon="5.92173">
        <ele>2662.7651</ele>
        <time>2015-09-06T14:14:36Z</time>
      </trkpt>
      <trkpt lat="45.0425" lon="5.92176">
        <ele>2660.4856</ele>
        <time>2015-09-06T14:14:46Z</time>
      </trkpt>
      <trkpt lat="45.0426" lon="5.92183">
        <ele>2657.6292</ele>
        <time>2015-09-06T14:14:51Z</time>
      </trkpt>
      <trkpt lat="45.0427" lon="5.92187">
        <ele>2655.675</ele>
        <time>2015-09-06T14:15:01Z</time>
      </trkpt>
      <trkpt lat="45.04271" lon="5.92188">
        <ele>2655.675</ele>
        <time>2015-09-06T14:15:06Z</time>
      </trkpt>
      <trkpt lat="45.04271" lon="5.92188">
        <ele>2655.675</ele>
        <time>2015-09-06T14:15:16Z</time>
      </trkpt>
      <trkpt lat="45.04271" lon="5.92188">
        <ele>2655.675</ele>
        <time>2015-09-06T14:15:21Z</time>
      </trkpt>
      <trkpt lat="45.04271" lon="5.92188">
        <ele>2655.675</ele>
        <time>2015-09-06T14:15:31Z</time>
      </trkpt>
      <trkpt lat="45.04271" lon="5.92188">
        <ele>2655.675</ele>
        <time>2015-09-06T14:15:36Z</time>
      </trkpt>
      <trkpt lat="45.04271" lon="5.92188">
        <ele>2655.675</ele>
        <time>2015-09-06T14:15:51Z</time>
      </trkpt>
      <trkpt lat="45.04271" lon="5.92188">
        <ele>2655.675</ele>
        <time>2015-09-06T14:15:56Z</time>
      </trkpt>
      <trkpt lat="45.04271" lon="5.92188">
        <ele>2655.675</ele>
        <time>2015-09-06T14:16:06Z</time>
      </trkpt>
      <trkpt lat="45.04271" lon="5.92188">
        <ele>2655.675</ele>
        <time>2015-09-06T14:16:11Z</time>
      </trkpt>
      <trkpt lat="45.04271" lon="5.92188">
        <ele>2655.675</ele>
        <time>2015-09-06T14:16:21Z</time>
      </trkpt>
      <trkpt lat="45.04271" lon="5.92188">
        <ele>2655.675</ele>
        <time>2015-09-06T14:16:26Z</time>
      </trkpt>
      <trkpt lat="45.04271" lon="5.92188">
        <ele>2655.675</ele>
        <time>2015-09-06T14:16:36Z</time>
      </trkpt>
      <trkpt lat="45.04271" lon="5.92188">
        <ele>2655.675</ele>
        <time>2015-09-06T14:16:41Z</time>
      </trkpt>
      <trkpt lat="45.04271" lon="5.92188">
        <ele>2655.675</ele>
        <time>2015-09-06T14:16:51Z</time>
      </trkpt>
      <trkpt lat="45.04271" lon="5.92188">
        <ele>2655.675</ele>
        <time>2015-09-06T14:16:56Z</time>
      </trkpt>
      <trkpt lat="45.04278" lon="5.92194">
        <ele>2654.262</ele>
        <time>2015-09-06T14:17:11Z</time>
      </trkpt>
      <trkpt lat="45.04303" lon="5.92195">
        <ele>2652.7646</ele>
        <time>2015-09-06T14:17:16Z</time>
      </trkpt>
      <trkpt lat="45.04316" lon="5.92193">
        <ele>2651.1807</ele>
        <time>2015-09-06T14:17:26Z</time>
      </trkpt>
      <trkpt lat="45.04324" lon="5.92197">
        <ele>2651.1807</ele>
        <time>2015-09-06T14:17:31Z</time>
      </trkpt>
      <trkpt lat="45.04329" lon="5.92194">
        <ele>2649.0752</ele>
        <time>2015-09-06T14:17:41Z</time>
      </trkpt>
      <trkpt lat="45.04326" lon="5.92194">
        <ele>2649.0752</ele>
        <time>2015-09-06T14:17:46Z</time>
      </trkpt>
      <trkpt lat="45.04329" lon="5.92194">
        <ele>2649.0752</ele>
        <time>2015-09-06T14:17:56Z</time>
      </trkpt>
      <trkpt lat="45.04329" lon="5.92194">
        <ele>2649.0752</ele>
        <time>2015-09-06T14:18:01Z</time>
      </trkpt>
      <trkpt lat="45.04329" lon="5.92194">
        <ele>2649.0752</ele>
        <time>2015-09-06T14:18:11Z</time>
      </trkpt>
      <trkpt lat="45.04329" lon="5.92194">
        <ele>2649.0752</ele>
        <time>2015-09-06T14:18:16Z</time>
      </trkpt>
      <trkpt lat="45.04329" lon="5.92194">
        <ele>2649.0752</ele>
        <time>2015-09-06T14:18:26Z</time>
      </trkpt>
      <trkpt lat="45.04329" lon="5.92194">
        <ele>2649.0752</ele>
        <time>2015-09-06T14:18:31Z</time>
      </trkpt>
      <trkpt lat="45.04329" lon="5.92194">
        <ele>2649.0752</ele>
        <time>2015-09-06T14:18:41Z</time>
      </trkpt>
      <trkpt lat="45.04329" lon="5.92194">
        <ele>2649.0752</ele>
        <time>2015-09-06T14:18:46Z</time>
      </trkpt>
      <trkpt lat="45.04329" lon="5.92194">
        <ele>2649.0752</ele>
        <time>2015-09-06T14:18:56Z</time>
      </trkpt>
      <trkpt lat="45.04332" lon="5.922">
        <ele>2646.7673</ele>
        <time>2015-09-06T14:19:01Z</time>
      </trkpt>
      <trkpt lat="45.04342" lon="5.9222">
        <ele>2643.4004</ele>
        <time>2015-09-06T14:19:16Z</time>
      </trkpt>
      <trkpt lat="45.04344" lon="5.92224">
        <ele>2643.4004</ele>
        <time>2015-09-06T14:19:21Z</time>
      </trkpt>
      <trkpt lat="45.04343" lon="5.92237">
        <ele>2638.904</ele>
        <time>2015-09-06T14:19:31Z</time>
      </trkpt>
      <trkpt lat="45.04343" lon="5.92243">
        <ele>2638.904</ele>
        <time>2015-09-06T14:19:36Z</time>
      </trkpt>
      <trkpt lat="45.04341" lon="5.92246">
        <ele>2638.904</ele>
        <time>2015-09-06T14:19:46Z</time>
      </trkpt>
      <trkpt lat="45.04341" lon="5.92246">
        <ele>2638.904</ele>
        <time>2015-09-06T14:19:51Z</time>
      </trkpt>
      <trkpt lat="45.04341" lon="5.92246">
        <ele>2638.904</ele>
        <time>2015-09-06T14:20:01Z</time>
      </trkpt>
      <trkpt lat="45.04341" lon="5.92246">
        <ele>2638.904</ele>
        <time>2015-09-06T14:20:06Z</time>
      </trkpt>
      <trkpt lat="45.04341" lon="5.92246">
        <ele>2638.904</ele>
        <time>2015-09-06T14:20:16Z</time>
      </trkpt>
      <trkpt lat="45.04341" lon="5.92247">
        <ele>2638.904</ele>
        <time>2015-09-06T14:20:21Z</time>
      </trkpt>
      <trkpt lat="45.04341" lon="5.92247">
        <ele>2638.904</ele>
        <time>2015-09-06T14:20:31Z</time>
      </trkpt>
      <trkpt lat="45.04341" lon="5.92247">
        <ele>2638.904</ele>
        <time>2015-09-06T14:20:36Z</time>
      </trkpt>
      <trkpt lat="45.04341" lon="5.92247">
        <ele>2638.904</ele>
        <time>2015-09-06T14:20:46Z</time>
      </trkpt>
      <trkpt lat="45.04341" lon="5.92247">
        <ele>2638.904</ele>
        <time>2015-09-06T14:20:51Z</time>
      </trkpt>
      <trkpt lat="45.04345" lon="5.92259">
        <ele>2632.3518</ele>
        <time>2015-09-06T14:21:01Z</time>
      </trkpt>
      <trkpt lat="45.04345" lon="5.92264">
        <ele>2632.3518</ele>
        <time>2015-09-06T14:21:06Z</time>
      </trkpt>
      <trkpt lat="45.04346" lon="5.92268">
        <ele>2632.3518</ele>
        <time>2015-09-06T14:21:21Z</time>
      </trkpt>
      <trkpt lat="45.04346" lon="5.92268">
        <ele>2632.3518</ele>
        <time>2015-09-06T14:21:26Z</time>
      </trkpt>
      <trkpt lat="45.04346" lon="5.92268">
        <ele>2632.3518</ele>
        <time>2015-09-06T14:21:36Z</time>
      </trkpt>
      <trkpt lat="45.04346" lon="5.92268">
        <ele>2632.3518</ele>
        <time>2015-09-06T14:21:41Z</time>
      </trkpt>
      <trkpt lat="45.04346" lon="5.92268">
        <ele>2632.3518</ele>
        <time>2015-09-06T14:21:51Z</time>
      </trkpt>
      <trkpt lat="45.04346" lon="5.92268">
        <ele>2632.3518</ele>
        <time>2015-09-06T14:21:56Z</time>
      </trkpt>
      <trkpt lat="45.04346" lon="5.92268">
        <ele>2632.3518</ele>
        <time>2015-09-06T14:22:06Z</time>
      </trkpt>
      <trkpt lat="45.04346" lon="5.92268">
        <ele>2632.3518</ele>
        <time>2015-09-06T14:22:11Z</time>
      </trkpt>
      <trkpt lat="45.04348" lon="5.92274">
        <ele>2625.917</ele>
        <time>2015-09-06T14:22:21Z</time>
      </trkpt>
      <trkpt lat="45.04351" lon="5.92299">
        <ele>2617.722</ele>
        <time>2015-09-06T14:22:26Z</time>
      </trkpt>
      <trkpt lat="45.04354" lon="5.92302">
        <ele>2617.722</ele>
        <time>2015-09-06T14:22:36Z</time>
      </trkpt>
      <trkpt lat="45.04354" lon="5.92302">
        <ele>2617.722</ele>
        <time>2015-09-06T14:22:41Z</time>
      </trkpt>
      <trkpt lat="45.04354" lon="5.92301">
        <ele>2617.722</ele>
        <time>2015-09-06T14:22:56Z</time>
      </trkpt>
      <trkpt lat="45.04357" lon="5.92302">
        <ele>2617.722</ele>
        <time>2015-09-06T14:23:01Z</time>
      </trkpt>
      <trkpt lat="45.0436" lon="5.92302">
        <ele>2613.5342</ele>
        <time>2015-09-06T14:23:11Z</time>
      </trkpt>
      <trkpt lat="45.04359" lon="5.92302">
        <ele>2609.3464</ele>
        <time>2015-09-06T14:23:16Z</time>
      </trkpt>
      <trkpt lat="45.0436" lon="5.923">
        <ele>2609.3464</ele>
        <time>2015-09-06T14:23:26Z</time>
      </trkpt>
      <trkpt lat="45.04361" lon="5.92301">
        <ele>2609.3464</ele>
        <time>2015-09-06T14:23:31Z</time>
      </trkpt>
      <trkpt lat="45.04361" lon="5.92302">
        <ele>2609.3464</ele>
        <time>2015-09-06T14:23:41Z</time>
      </trkpt>
      <trkpt lat="45.04361" lon="5.92302">
        <ele>2609.3464</ele>
        <time>2015-09-06T14:23:46Z</time>
      </trkpt>
      <trkpt lat="45.04361" lon="5.92302">
        <ele>2609.3464</ele>
        <time>2015-09-06T14:23:56Z</time>
      </trkpt>
      <trkpt lat="45.04361" lon="5.92302">
        <ele>2609.3464</ele>
        <time>2015-09-06T14:24:01Z</time>
      </trkpt>
      <trkpt lat="45.04361" lon="5.92302">
        <ele>2609.3464</ele>
        <time>2015-09-06T14:24:11Z</time>
      </trkpt>
      <trkpt lat="45.04361" lon="5.92302">
        <ele>2609.3464</ele>
        <time>2015-09-06T14:24:16Z</time>
      </trkpt>
      <trkpt lat="45.04361" lon="5.92302">
        <ele>2609.3464</ele>
        <time>2015-09-06T14:24:26Z</time>
      </trkpt>
      <trkpt lat="45.04361" lon="5.92302">
        <ele>2609.3464</ele>
        <time>2015-09-06T14:24:31Z</time>
      </trkpt>
      <trkpt lat="45.04361" lon="5.92302">
        <ele>2609.3464</ele>
        <time>2015-09-06T14:24:41Z</time>
      </trkpt>
      <trkpt lat="45.04361" lon="5.92302">
        <ele>2609.3464</ele>
        <time>2015-09-06T14:24:46Z</time>
      </trkpt>
      <trkpt lat="45.04361" lon="5.92302">
        <ele>2609.3464</ele>
        <time>2015-09-06T14:24:56Z</time>
      </trkpt>
      <trkpt lat="45.04361" lon="5.92302">
        <ele>2609.3464</ele>
        <time>2015-09-06T14:25:01Z</time>
      </trkpt>
      <trkpt lat="45.04361" lon="5.92302">
        <ele>2609.3464</ele>
        <time>2015-09-06T14:25:11Z</time>
      </trkpt>
      <trkpt lat="45.04361" lon="5.92302">
        <ele>2609.3464</ele>
        <time>2015-09-06T14:25:16Z</time>
      </trkpt>
      <trkpt lat="45.04362" lon="5.92305">
        <ele>2609.3464</ele>
        <time>2015-09-06T14:25:26Z</time>
      </trkpt>
      <trkpt lat="45.04366" lon="5.92316">
        <ele>2601.1016</ele>
        <time>2015-09-06T14:25:31Z</time>
      </trkpt>
      <trkpt lat="45.04366" lon="5.92323">
        <ele>2601.1016</ele>
        <time>2015-09-06T14:25:41Z</time>
      </trkpt>
      <trkpt lat="45.04365" lon="5.92327">
        <ele>2601.1016</ele>
        <time>2015-09-06T14:25:46Z</time>
      </trkpt>
      <trkpt lat="45.04366" lon="5.92329">
        <ele>2592.987</ele>
        <time>2015-09-06T14:26:01Z</time>
      </trkpt>
      <trkpt lat="45.04366" lon="5.92329">
        <ele>2592.987</ele>
        <time>2015-09-06T14:26:06Z</time>
      </trkpt>
      <trkpt lat="45.04367" lon="5.9233">
        <ele>2592.987</ele>
        <time>2015-09-06T14:26:16Z</time>
      </trkpt>
      <trkpt lat="45.04369" lon="5.92324">
        <ele>2592.987</ele>
        <time>2015-09-06T14:26:21Z</time>
      </trkpt>
      <trkpt lat="45.04368" lon="5.92325">
        <ele>2592.987</ele>
        <time>2015-09-06T14:26:31Z</time>
      </trkpt>
      <trkpt lat="45.04368" lon="5.92325">
        <ele>2592.987</ele>
        <time>2015-09-06T14:26:36Z</time>
      </trkpt>
      <trkpt lat="45.04368" lon="5.92325">
        <ele>2592.987</ele>
        <time>2015-09-06T14:26:46Z</time>
      </trkpt>
      <trkpt lat="45.04368" lon="5.92325">
        <ele>2592.987</ele>
        <time>2015-09-06T14:26:51Z</time>
      </trkpt>
      <trkpt lat="45.04368" lon="5.92325">
        <ele>2592.987</ele>
        <time>2015-09-06T14:27:01Z</time>
      </trkpt>
      <trkpt lat="45.04368" lon="5.92325">
        <ele>2592.987</ele>
        <time>2015-09-06T14:27:06Z</time>
      </trkpt>
      <trkpt lat="45.04368" lon="5.92325">
        <ele>2592.987</ele>
        <time>2015-09-06T14:27:16Z</time>
      </trkpt>
      <trkpt lat="45.04367" lon="5.92327">
        <ele>2592.987</ele>
        <time>2015-09-06T14:27:21Z</time>
      </trkpt>
      <trkpt lat="45.04365" lon="5.92339">
        <ele>2583.7053</ele>
        <time>2015-09-06T14:27:31Z</time>
      </trkpt>
      <trkpt lat="45.04363" lon="5.92346">
        <ele>2583.7053</ele>
        <time>2015-09-06T14:27:36Z</time>
      </trkpt>
      <trkpt lat="45.04363" lon="5.9235">
        <ele>2583.7053</ele>
        <time>2015-09-06T14:27:46Z</time>
      </trkpt>
      <trkpt lat="45.04363" lon="5.92352">
        <ele>2574.3625</ele>
        <time>2015-09-06T14:27:51Z</time>
      </trkpt>
      <trkpt lat="45.04362" lon="5.92361">
        <ele>2574.3625</ele>
        <time>2015-09-06T14:28:01Z</time>
      </trkpt>
      <trkpt lat="45.04362" lon="5.92363">
        <ele>2574.3625</ele>
        <time>2015-09-06T14:28:06Z</time>
      </trkpt>
      <trkpt lat="45.04363" lon="5.92363">
        <ele>2574.3625</ele>
        <time>2015-09-06T14:28:16Z</time>
      </trkpt>
      <trkpt lat="45.04363" lon="5.92363">
        <ele>2574.3625</ele>
        <time>2015-09-06T14:28:21Z</time>
      </trkpt>
      <trkpt lat="45.04362" lon="5.92372">
        <ele>2564.543</ele>
        <time>2015-09-06T14:28:36Z</time>
      </trkpt>
      <trkpt lat="45.04362" lon="5.92367">
        <ele>2564.543</ele>
        <time>2015-09-06T14:28:41Z</time>
      </trkpt>
      <trkpt lat="45.0436" lon="5.9237">
        <ele>2564.543</ele>
        <time>2015-09-06T14:28:51Z</time>
      </trkpt>
      <trkpt lat="45.04359" lon="5.9237">
        <ele>2564.543</ele>
        <time>2015-09-06T14:28:56Z</time>
      </trkpt>
      <trkpt lat="45.04359" lon="5.9237">
        <ele>2564.543</ele>
        <time>2015-09-06T14:29:06Z</time>
      </trkpt>
      <trkpt lat="45.04359" lon="5.9237">
        <ele>2564.543</ele>
        <time>2015-09-06T14:29:11Z</time>
      </trkpt>
      <trkpt lat="45.04359" lon="5.9237">
        <ele>2564.543</ele>
        <time>2015-09-06T14:29:21Z</time>
      </trkpt>
      <trkpt lat="45.04359" lon="5.9237">
        <ele>2564.543</ele>
        <time>2015-09-06T14:29:26Z</time>
      </trkpt>
      <trkpt lat="45.04359" lon="5.9237">
        <ele>2564.543</ele>
        <time>2015-09-06T14:29:36Z</time>
      </trkpt>
      <trkpt lat="45.04359" lon="5.9237">
        <ele>2564.543</ele>
        <time>2015-09-06T14:29:41Z</time>
      </trkpt>
      <trkpt lat="45.04359" lon="5.9237">
        <ele>2564.543</ele>
        <time>2015-09-06T14:29:51Z</time>
      </trkpt>
      <trkpt lat="45.04359" lon="5.9237">
        <ele>2564.543</ele>
        <time>2015-09-06T14:29:56Z</time>
      </trkpt>
      <trkpt lat="45.04359" lon="5.9237">
        <ele>2564.543</ele>
        <time>2015-09-06T14:30:06Z</time>
      </trkpt>
      <trkpt lat="45.04361" lon="5.92374">
        <ele>2555.4478</ele>
        <time>2015-09-06T14:30:11Z</time>
      </trkpt>
      <trkpt lat="45.0436" lon="5.92378">
        <ele>2555.4478</ele>
        <time>2015-09-06T14:30:21Z</time>
      </trkpt>
      <trkpt lat="45.0436" lon="5.92378">
        <ele>2555.4478</ele>
        <time>2015-09-06T14:30:26Z</time>
      </trkpt>
      <trkpt lat="45.0436" lon="5.92378">
        <ele>2555.4478</ele>
        <time>2015-09-06T14:30:41Z</time>
      </trkpt>
      <trkpt lat="45.0436" lon="5.92378">
        <ele>2555.4478</ele>
        <time>2015-09-06T14:30:46Z</time>
      </trkpt>
      <trkpt lat="45.04364" lon="5.92381">
        <ele>2555.4478</ele>
        <time>2015-09-06T14:30:56Z</time>
      </trkpt>
      <trkpt lat="45.04364" lon="5.92398">
        <ele>2546.6016</ele>
        <time>2015-09-06T14:31:01Z</time>
      </trkpt>
      <trkpt lat="45.04368" lon="5.92393">
        <ele>2546.6016</ele>
        <time>2015-09-06T14:31:11Z</time>
      </trkpt>
      <trkpt lat="45.04368" lon="5.92392">
        <ele>2546.6016</ele>
        <time>2015-09-06T14:31:16Z</time>
      </trkpt>
      <trkpt lat="45.04369" lon="5.92392">
        <ele>2546.6016</ele>
        <time>2015-09-06T14:31:26Z</time>
      </trkpt>
      <trkpt lat="45.04369" lon="5.92391">
        <ele>2546.6016</ele>
        <time>2015-09-06T14:31:31Z</time>
      </trkpt>
      <trkpt lat="45.04369" lon="5.92391">
        <ele>2546.6016</ele>
        <time>2015-09-06T14:31:41Z</time>
      </trkpt>
      <trkpt lat="45.04369" lon="5.92391">
        <ele>2546.6016</ele>
        <time>2015-09-06T14:31:46Z</time>
      </trkpt>
      <trkpt lat="45.04369" lon="5.92391">
        <ele>2546.6016</ele>
        <time>2015-09-06T14:31:56Z</time>
      </trkpt>
      <trkpt lat="45.04369" lon="5.92391">
        <ele>2546.6016</ele>
        <time>2015-09-06T14:32:01Z</time>
      </trkpt>
      <trkpt lat="45.04367" lon="5.92392">
        <ele>2546.6016</ele>
        <time>2015-09-06T14:32:11Z</time>
      </trkpt>
      <trkpt lat="45.04365" lon="5.92395">
        <ele>2538.1409</ele>
        <time>2015-09-06T14:32:16Z</time>
      </trkpt>
      <trkpt lat="45.04365" lon="5.92398">
        <ele>2538.1409</ele>
        <time>2015-09-06T14:32:26Z</time>
      </trkpt>
      <trkpt lat="45.04365" lon="5.92398">
        <ele>2538.1409</ele>
        <time>2015-09-06T14:32:31Z</time>
      </trkpt>
      <trkpt lat="45.04365" lon="5.92398">
        <ele>2538.1409</ele>
        <time>2015-09-06T14:32:41Z</time>
      </trkpt>
      <trkpt lat="45.04365" lon="5.92398">
        <ele>2538.1409</ele>
        <time>2015-09-06T14:32:46Z</time>
      </trkpt>
      <trkpt lat="45.04365" lon="5.92399">
        <ele>2538.1409</ele>
        <time>2015-09-06T14:33:01Z</time>
      </trkpt>
      <trkpt lat="45.04365" lon="5.92399">
        <ele>2538.1409</ele>
        <time>2015-09-06T14:33:06Z</time>
      </trkpt>
      <trkpt lat="45.04375" lon="5.92407">
        <ele>2529.613</ele>
        <time>2015-09-06T14:33:16Z</time>
      </trkpt>
      <trkpt lat="45.04371" lon="5.92406">
        <ele>2529.613</ele>
        <time>2015-09-06T14:33:21Z</time>
      </trkpt>
      <trkpt lat="45.0437" lon="5.9241">
        <ele>2529.613</ele>
        <time>2015-09-06T14:33:31Z</time>
      </trkpt>
      <trkpt lat="45.0437" lon="5.9241">
        <ele>2529.613</ele>
        <time>2015-09-06T14:33:36Z</time>
      </trkpt>
      <trkpt lat="45.0437" lon="5.9241">
        <ele>2529.613</ele>
        <time>2015-09-06T14:33:46Z</time>
      </trkpt>
      <trkpt lat="45.0437" lon="5.92407">
        <ele>2529.613</ele>
        <time>2015-09-06T14:33:51Z</time>
      </trkpt>
      <trkpt lat="45.04375" lon="5.92407">
        <ele>2521.464</ele>
        <time>2015-09-06T14:34:01Z</time>
      </trkpt>
      <trkpt lat="45.04376" lon="5.92418">
        <ele>2521.464</ele>
        <time>2015-09-06T14:34:06Z</time>
      </trkpt>
      <trkpt lat="45.04376" lon="5.92418">
        <ele>2521.464</ele>
        <time>2015-09-06T14:34:16Z</time>
      </trkpt>
      <trkpt lat="45.04376" lon="5.92418">
        <ele>2521.464</ele>
        <time>2015-09-06T14:34:21Z</time>
      </trkpt>
      <trkpt lat="45.04376" lon="5.92418">
        <ele>2521.464</ele>
        <time>2015-09-06T14:34:31Z</time>
      </trkpt>
      <trkpt lat="45.04376" lon="5.92418">
        <ele>2521.464</ele>
        <time>2015-09-06T14:34:36Z</time>
      </trkpt>
      <trkpt lat="45.04376" lon="5.92418">
        <ele>2521.464</ele>
        <time>2015-09-06T14:34:46Z</time>
      </trkpt>
      <trkpt lat="45.04376" lon="5.92418">
        <ele>2521.464</ele>
        <time>2015-09-06T14:34:51Z</time>
      </trkpt>
      <trkpt lat="45.04376" lon="5.92418">
        <ele>2521.464</ele>
        <time>2015-09-06T14:35:01Z</time>
      </trkpt>
      <trkpt lat="45.04376" lon="5.92418">
        <ele>2521.464</ele>
        <time>2015-09-06T14:35:06Z</time>
      </trkpt>
      <trkpt lat="45.04383" lon="5.92423">
        <ele>2513.5293</ele>
        <time>2015-09-06T14:35:16Z</time>
      </trkpt>
      <trkpt lat="45.04384" lon="5.92424">
        <ele>2513.5293</ele>
        <time>2015-09-06T14:35:21Z</time>
      </trkpt>
      <trkpt lat="45.04394" lon="5.92429">
        <ele>2505.2227</ele>
        <time>2015-09-06T14:35:36Z</time>
      </trkpt>
      <trkpt lat="45.04397" lon="5.9243">
        <ele>2505.2227</ele>
        <time>2015-09-06T14:35:41Z</time>
      </trkpt>
      <trkpt lat="45.04408" lon="5.92433">
        <ele>2497.7317</ele>
        <time>2015-09-06T14:35:51Z</time>
      </trkpt>
      <trkpt lat="45.04414" lon="5.9243">
        <ele>2497.7317</ele>
        <time>2015-09-06T14:35:56Z</time>
      </trkpt>
      <trkpt lat="45.04419" lon="5.92433">
        <ele>2491.1453</ele>
        <time>2015-09-06T14:36:06Z</time>
      </trkpt>
      <trkpt lat="45.04426" lon="5.92436">
        <ele>2491.1453</ele>
        <time>2015-09-06T14:36:11Z</time>
      </trkpt>
      <trkpt lat="45.04439" lon="5.9244">
        <ele>2485.9749</ele>
        <time>2015-09-06T14:36:21Z</time>
      </trkpt>
      <trkpt lat="45.04442" lon="5.9244">
        <ele>2485.9749</ele>
        <time>2015-09-06T14:36:26Z</time>
      </trkpt>
      <trkpt lat="45.04443" lon="5.92439">
        <ele>2485.9749</ele>
        <time>2015-09-06T14:36:36Z</time>
      </trkpt>
      <trkpt lat="45.04443" lon="5.9244">
        <ele>2485.9749</ele>
        <time>2015-09-06T14:36:41Z</time>
      </trkpt>
      <trkpt lat="45.04443" lon="5.9244">
        <ele>2485.9749</ele>
        <time>2015-09-06T14:36:51Z</time>
      </trkpt>
      <trkpt lat="45.04443" lon="5.9244">
        <ele>2485.9749</ele>
        <time>2015-09-06T14:36:56Z</time>
      </trkpt>
      <trkpt lat="45.04443" lon="5.9244">
        <ele>2485.9749</ele>
        <time>2015-09-06T14:37:06Z</time>
      </trkpt>
      <trkpt lat="45.04443" lon="5.9244">
        <ele>2485.9749</ele>
        <time>2015-09-06T14:37:11Z</time>
      </trkpt>
      <trkpt lat="45.04444" lon="5.9244">
        <ele>2485.9749</ele>
        <time>2015-09-06T14:37:26Z</time>
      </trkpt>
      <trkpt lat="45.04444" lon="5.9244">
        <ele>2485.9749</ele>
        <time>2015-09-06T14:37:31Z</time>
      </trkpt>
      <trkpt lat="45.04444" lon="5.9244">
        <ele>2483.3909</ele>
        <time>2015-09-06T14:37:41Z</time>
      </trkpt>
      <trkpt lat="45.04444" lon="5.9244">
        <ele>2480.807</ele>
        <time>2015-09-06T14:37:46Z</time>
      </trkpt>
      <trkpt lat="45.04459" lon="5.92438">
        <ele>2478.2231</ele>
        <time>2015-09-06T14:37:56Z</time>
      </trkpt>
      <trkpt lat="45.04459" lon="5.92439">
        <ele>2478.2231</ele>
        <time>2015-09-06T14:38:01Z</time>
      </trkpt>
      <trkpt lat="45.0446" lon="5.9244">
        <ele>2478.2231</ele>
        <time>2015-09-06T14:38:11Z</time>
      </trkpt>
      <trkpt lat="45.0446" lon="5.9244">
        <ele>2478.2231</ele>
        <time>2015-09-06T14:38:16Z</time>
      </trkpt>
      <trkpt lat="45.0446" lon="5.9244">
        <ele>2478.2231</ele>
        <time>2015-09-06T14:38:26Z</time>
      </trkpt>
      <trkpt lat="45.0446" lon="5.9244">
        <ele>2478.2231</ele>
        <time>2015-09-06T14:38:31Z</time>
      </trkpt>
      <trkpt lat="45.0446" lon="5.9244">
        <ele>2478.2231</ele>
        <time>2015-09-06T14:38:41Z</time>
      </trkpt>
      <trkpt lat="45.0446" lon="5.9244">
        <ele>2478.2231</ele>
        <time>2015-09-06T14:38:46Z</time>
      </trkpt>
      <trkpt lat="45.04469" lon="5.92456">
        <ele>2471.2546</ele>
        <time>2015-09-06T14:38:56Z</time>
      </trkpt>
      <trkpt lat="45.04474" lon="5.92457">
        <ele>2471.2546</ele>
        <time>2015-09-06T14:39:01Z</time>
      </trkpt>
      <trkpt lat="45.0448" lon="5.92461">
        <ele>2464.8704</ele>
        <time>2015-09-06T14:39:11Z</time>
      </trkpt>
      <trkpt lat="45.0448" lon="5.92461">
        <ele>2464.8704</ele>
        <time>2015-09-06T14:39:16Z</time>
      </trkpt>
      <trkpt lat="45.0448" lon="5.92461">
        <ele>2464.8704</ele>
        <time>2015-09-06T14:39:26Z</time>
      </trkpt>
      <trkpt lat="45.0448" lon="5.92461">
        <ele>2464.8704</ele>
        <time>2015-09-06T14:39:31Z</time>
      </trkpt>
      <trkpt lat="45.04481" lon="5.92461">
        <ele>2464.8704</ele>
        <time>2015-09-06T14:39:41Z</time>
      </trkpt>
      <trkpt lat="45.04481" lon="5.92461">
        <ele>2464.8704</ele>
        <time>2015-09-06T14:39:46Z</time>
      </trkpt>
      <trkpt lat="45.04481" lon="5.92461">
        <ele>2464.8704</ele>
        <time>2015-09-06T14:40:01Z</time>
      </trkpt>
      <trkpt lat="45.04481" lon="5.92461">
        <ele>2464.8704</ele>
        <time>2015-09-06T14:40:06Z</time>
      </trkpt>
      <trkpt lat="45.04481" lon="5.92461">
        <ele>2464.8704</ele>
        <time>2015-09-06T14:40:16Z</time>
      </trkpt>
      <trkpt lat="45.04481" lon="5.92462">
        <ele>2464.8704</ele>
        <time>2015-09-06T14:40:21Z</time>
      </trkpt>
      <trkpt lat="45.04482" lon="5.92462">
        <ele>2464.8704</ele>
        <time>2015-09-06T14:40:31Z</time>
      </trkpt>
      <trkpt lat="45.04482" lon="5.92462">
        <ele>2464.8704</ele>
        <time>2015-09-06T14:40:36Z</time>
      </trkpt>
      <trkpt lat="45.04486" lon="5.92477">
        <ele>2458.0186</ele>
        <time>2015-09-06T14:40:46Z</time>
      </trkpt>
      <trkpt lat="45.04488" lon="5.92477">
        <ele>2458.0186</ele>
        <time>2015-09-06T14:40:51Z</time>
      </trkpt>
      <trkpt lat="45.04488" lon="5.92487">
        <ele>2458.0186</ele>
        <time>2015-09-06T14:41:01Z</time>
      </trkpt>
      <trkpt lat="45.04488" lon="5.92489">
        <ele>2451.888</ele>
        <time>2015-09-06T14:41:06Z</time>
      </trkpt>
      <trkpt lat="45.04488" lon="5.92489">
        <ele>2451.888</ele>
        <time>2015-09-06T14:41:16Z</time>
      </trkpt>
      <trkpt lat="45.04488" lon="5.9249">
        <ele>2451.888</ele>
        <time>2015-09-06T14:41:21Z</time>
      </trkpt>
      <trkpt lat="45.04489" lon="5.92491">
        <ele>2451.888</ele>
        <time>2015-09-06T14:41:31Z</time>
      </trkpt>
      <trkpt lat="45.04489" lon="5.92491">
        <ele>2451.888</ele>
        <time>2015-09-06T14:41:36Z</time>
      </trkpt>
      <trkpt lat="45.04502" lon="5.92504">
        <ele>2445.7046</ele>
        <time>2015-09-06T14:41:51Z</time>
      </trkpt>
      <trkpt lat="45.04503" lon="5.92507">
        <ele>2445.7046</ele>
        <time>2015-09-06T14:41:56Z</time>
      </trkpt>
      <trkpt lat="45.04503" lon="5.92507">
        <ele>2445.7046</ele>
        <time>2015-09-06T14:42:06Z</time>
      </trkpt>
      <trkpt lat="45.04504" lon="5.92507">
        <ele>2445.7046</ele>
        <time>2015-09-06T14:42:11Z</time>
      </trkpt>
      <trkpt lat="45.04504" lon="5.92507">
        <ele>2445.7046</ele>
        <time>2015-09-06T14:42:21Z</time>
      </trkpt>
      <trkpt lat="45.04504" lon="5.92508">
        <ele>2445.7046</ele>
        <time>2015-09-06T14:42:26Z</time>
      </trkpt>
      <trkpt lat="45.04504" lon="5.92508">
        <ele>2445.7046</ele>
        <time>2015-09-06T14:42:36Z</time>
      </trkpt>
      <trkpt lat="45.04504" lon="5.92508">
        <ele>2445.7046</ele>
        <time>2015-09-06T14:42:41Z</time>
      </trkpt>
      <trkpt lat="45.04507" lon="5.92514">
        <ele>2439.4712</ele>
        <time>2015-09-06T14:42:51Z</time>
      </trkpt>
      <trkpt lat="45.04508" lon="5.92516">
        <ele>2439.4712</ele>
        <time>2015-09-06T14:42:56Z</time>
      </trkpt>
      <trkpt lat="45.04509" lon="5.92518">
        <ele>2439.4712</ele>
        <time>2015-09-06T14:43:06Z</time>
      </trkpt>
      <trkpt lat="45.04518" lon="5.92532">
        <ele>2435.3945</ele>
        <time>2015-09-06T14:43:11Z</time>
      </trkpt>
      <trkpt lat="45.04541" lon="5.92572">
        <ele>2431.3176</ele>
        <time>2015-09-06T14:43:26Z</time>
      </trkpt>
      <trkpt lat="45.04542" lon="5.92575">
        <ele>2431.3176</ele>
        <time>2015-09-06T14:43:31Z</time>
      </trkpt>
      <trkpt lat="45.04541" lon="5.92585">
        <ele>2423.4067</ele>
        <time>2015-09-06T14:43:41Z</time>
      </trkpt>
      <trkpt lat="45.0455" lon="5.92573">
        <ele>2416.589</ele>
        <time>2015-09-06T14:43:46Z</time>
      </trkpt>
      <trkpt lat="45.04552" lon="5.92596">
        <ele>2409.632</ele>
        <time>2015-09-06T14:43:56Z</time>
      </trkpt>
      <trkpt lat="45.04553" lon="5.92607">
        <ele>2409.632</ele>
        <time>2015-09-06T14:44:01Z</time>
      </trkpt>
      <trkpt lat="45.04553" lon="5.92609">
        <ele>2403.4111</ele>
        <time>2015-09-06T14:44:11Z</time>
      </trkpt>
      <trkpt lat="45.04553" lon="5.92609">
        <ele>2403.4111</ele>
        <time>2015-09-06T14:44:16Z</time>
      </trkpt>
      <trkpt lat="45.04553" lon="5.92609">
        <ele>2403.4111</ele>
        <time>2015-09-06T14:44:26Z</time>
      </trkpt>
      <trkpt lat="45.04553" lon="5.92609">
        <ele>2403.4111</ele>
        <time>2015-09-06T14:44:31Z</time>
      </trkpt>
      <trkpt lat="45.04553" lon="5.92609">
        <ele>2403.4111</ele>
        <time>2015-09-06T14:44:41Z</time>
      </trkpt>
      <trkpt lat="45.04556" lon="5.92613">
        <ele>2399.8484</ele>
        <time>2015-09-06T14:44:46Z</time>
      </trkpt>
      <trkpt lat="45.04573" lon="5.92632">
        <ele>2396.2856</ele>
        <time>2015-09-06T14:44:56Z</time>
      </trkpt>
      <trkpt lat="45.04578" lon="5.92642">
        <ele>2396.2856</ele>
        <time>2015-09-06T14:45:01Z</time>
      </trkpt>
      <trkpt lat="45.04577" lon="5.92646">
        <ele>2389.0435</ele>
        <time>2015-09-06T14:45:11Z</time>
      </trkpt>
      <trkpt lat="45.04578" lon="5.92648">
        <ele>2389.0435</ele>
        <time>2015-09-06T14:45:16Z</time>
      </trkpt>
      <trkpt lat="45.0458" lon="5.92647">
        <ele>2389.0435</ele>
        <time>2015-09-06T14:45:26Z</time>
      </trkpt>
      <trkpt lat="45.04579" lon="5.92644">
        <ele>2389.0435</ele>
        <time>2015-09-06T14:45:31Z</time>
      </trkpt>
      <trkpt lat="45.0458" lon="5.92646">
        <ele>2389.0435</ele>
        <time>2015-09-06T14:45:41Z</time>
      </trkpt>
      <trkpt lat="45.04581" lon="5.92646">
        <ele>2389.0435</ele>
        <time>2015-09-06T14:45:46Z</time>
      </trkpt>
      <trkpt lat="45.04581" lon="5.92646">
        <ele>2389.0435</ele>
        <time>2015-09-06T14:45:56Z</time>
      </trkpt>
      <trkpt lat="45.04581" lon="5.92646">
        <ele>2389.0435</ele>
        <time>2015-09-06T14:46:01Z</time>
      </trkpt>
      <trkpt lat="45.04594" lon="5.92665">
        <ele>2385.4412</ele>
        <time>2015-09-06T14:46:16Z</time>
      </trkpt>
      <trkpt lat="45.0462" lon="5.9266">
        <ele>2381.8386</ele>
        <time>2015-09-06T14:46:21Z</time>
      </trkpt>
      <trkpt lat="45.04617" lon="5.92669">
        <ele>2381.8386</ele>
        <time>2015-09-06T14:46:31Z</time>
      </trkpt>
      <trkpt lat="45.04622" lon="5.92678">
        <ele>2376.1106</ele>
        <time>2015-09-06T14:46:36Z</time>
      </trkpt>
      <trkpt lat="45.04627" lon="5.92683">
        <ele>2376.1106</ele>
        <time>2015-09-06T14:46:46Z</time>
      </trkpt>
      <trkpt lat="45.04628" lon="5.92687">
        <ele>2370.5945</ele>
        <time>2015-09-06T14:46:51Z</time>
      </trkpt>
      <trkpt lat="45.04631" lon="5.92686">
        <ele>2370.5945</ele>
        <time>2015-09-06T14:47:01Z</time>
      </trkpt>
      <trkpt lat="45.04632" lon="5.92686">
        <ele>2370.5945</ele>
        <time>2015-09-06T14:47:06Z</time>
      </trkpt>
      <trkpt lat="45.04638" lon="5.92687">
        <ele>2365.271</ele>
        <time>2015-09-06T14:47:16Z</time>
      </trkpt>
      <trkpt lat="45.04641" lon="5.9269">
        <ele>2365.271</ele>
        <time>2015-09-06T14:47:21Z</time>
      </trkpt>
      <trkpt lat="45.04644" lon="5.92692">
        <ele>2365.271</ele>
        <time>2015-09-06T14:47:31Z</time>
      </trkpt>
      <trkpt lat="45.04644" lon="5.92692">
        <ele>2365.271</ele>
        <time>2015-09-06T14:47:36Z</time>
      </trkpt>
      <trkpt lat="45.04644" lon="5.92692">
        <ele>2365.271</ele>
        <time>2015-09-06T14:47:46Z</time>
      </trkpt>
      <trkpt lat="45.04644" lon="5.92692">
        <ele>2365.271</ele>
        <time>2015-09-06T14:47:51Z</time>
      </trkpt>
      <trkpt lat="45.04644" lon="5.92692">
        <ele>2365.271</ele>
        <time>2015-09-06T14:48:06Z</time>
      </trkpt>
      <trkpt lat="45.04644" lon="5.92692">
        <ele>2365.271</ele>
        <time>2015-09-06T14:48:11Z</time>
      </trkpt>
      <trkpt lat="45.04644" lon="5.92692">
        <ele>2365.271</ele>
        <time>2015-09-06T14:48:21Z</time>
      </trkpt>
      <trkpt lat="45.04644" lon="5.92692">
        <ele>2365.271</ele>
        <time>2015-09-06T14:48:26Z</time>
      </trkpt>
      <trkpt lat="45.04644" lon="5.92692">
        <ele>2365.271</ele>
        <time>2015-09-06T14:48:36Z</time>
      </trkpt>
      <trkpt lat="45.04644" lon="5.92692">
        <ele>2365.271</ele>
        <time>2015-09-06T14:48:41Z</time>
      </trkpt>
      <trkpt lat="45.04644" lon="5.92692">
        <ele>2365.271</ele>
        <time>2015-09-06T14:48:51Z</time>
      </trkpt>
      <trkpt lat="45.04644" lon="5.92692">
        <ele>2365.271</ele>
        <time>2015-09-06T14:48:56Z</time>
      </trkpt>
      <trkpt lat="45.04644" lon="5.92692">
        <ele>2365.271</ele>
        <time>2015-09-06T14:49:06Z</time>
      </trkpt>
      <trkpt lat="45.04644" lon="5.92692">
        <ele>2365.271</ele>
        <time>2015-09-06T14:49:11Z</time>
      </trkpt>
      <trkpt lat="45.04643" lon="5.92697">
        <ele>2360.986</ele>
        <time>2015-09-06T14:49:21Z</time>
      </trkpt>
      <trkpt lat="45.04644" lon="5.92698">
        <ele>2360.986</ele>
        <time>2015-09-06T14:49:26Z</time>
      </trkpt>
      <trkpt lat="45.04644" lon="5.92698">
        <ele>2360.986</ele>
        <time>2015-09-06T14:49:36Z</time>
      </trkpt>
      <trkpt lat="45.04644" lon="5.92698">
        <ele>2360.986</ele>
        <time>2015-09-06T14:49:41Z</time>
      </trkpt>
      <trkpt lat="45.04644" lon="5.92697">
        <ele>2360.986</ele>
        <time>2015-09-06T14:49:51Z</time>
      </trkpt>
      <trkpt lat="45.04644" lon="5.92697">
        <ele>2360.986</ele>
        <time>2015-09-06T14:49:56Z</time>
      </trkpt>
      <trkpt lat="45.04644" lon="5.92697">
        <ele>2360.986</ele>
        <time>2015-09-06T14:50:06Z</time>
      </trkpt>
      <trkpt lat="45.04644" lon="5.92697">
        <ele>2360.986</ele>
        <time>2015-09-06T14:50:11Z</time>
      </trkpt>
      <trkpt lat="45.04644" lon="5.92697">
        <ele>2360.986</ele>
        <time>2015-09-06T14:50:21Z</time>
      </trkpt>
      <trkpt lat="45.04644" lon="5.92697">
        <ele>2360.986</ele>
        <time>2015-09-06T14:50:26Z</time>
      </trkpt>
      <trkpt lat="45.04644" lon="5.92697">
        <ele>2360.986</ele>
        <time>2015-09-06T14:50:41Z</time>
      </trkpt>
      <trkpt lat="45.04644" lon="5.92697">
        <ele>2360.986</ele>
        <time>2015-09-06T14:50:46Z</time>
      </trkpt>
      <trkpt lat="45.04644" lon="5.92697">
        <ele>2360.986</ele>
        <time>2015-09-06T14:50:56Z</time>
      </trkpt>
      <trkpt lat="45.04644" lon="5.92697">
        <ele>2360.986</ele>
        <time>2015-09-06T14:51:01Z</time>
      </trkpt>
      <trkpt lat="45.04644" lon="5.92697">
        <ele>2360.986</ele>
        <time>2015-09-06T14:51:11Z</time>
      </trkpt>
      <trkpt lat="45.04644" lon="5.92697">
        <ele>2360.986</ele>
        <time>2015-09-06T14:51:16Z</time>
      </trkpt>
      <trkpt lat="45.04644" lon="5.92699">
        <ele>2360.986</ele>
        <time>2015-09-06T14:51:26Z</time>
      </trkpt>
      <trkpt lat="45.04643" lon="5.92702">
        <ele>2360.986</ele>
        <time>2015-09-06T14:51:31Z</time>
      </trkpt>
      <trkpt lat="45.04642" lon="5.92704">
        <ele>2360.986</ele>
        <time>2015-09-06T14:51:41Z</time>
      </trkpt>
      <trkpt lat="45.04642" lon="5.92705">
        <ele>2360.986</ele>
        <time>2015-09-06T14:51:46Z</time>
      </trkpt>
      <trkpt lat="45.04642" lon="5.92704">
        <ele>2360.986</ele>
        <time>2015-09-06T14:51:56Z</time>
      </trkpt>
      <trkpt lat="45.04642" lon="5.92704">
        <ele>2360.986</ele>
        <time>2015-09-06T14:52:01Z</time>
      </trkpt>
      <trkpt lat="45.04642" lon="5.92704">
        <ele>2360.986</ele>
        <time>2015-09-06T14:52:11Z</time>
      </trkpt>
      <trkpt lat="45.04642" lon="5.92705">
        <ele>2360.986</ele>
        <time>2015-09-06T14:52:16Z</time>
      </trkpt>
      <trkpt lat="45.04643" lon="5.92699">
        <ele>2356.9355</ele>
        <time>2015-09-06T14:52:26Z</time>
      </trkpt>
      <trkpt lat="45.04643" lon="5.927">
        <ele>2356.9355</ele>
        <time>2015-09-06T14:52:31Z</time>
      </trkpt>
      <trkpt lat="45.04642" lon="5.92699">
        <ele>2356.9355</ele>
        <time>2015-09-06T14:52:41Z</time>
      </trkpt>
      <trkpt lat="45.04643" lon="5.92699">
        <ele>2356.9355</ele>
        <time>2015-09-06T14:52:46Z</time>
      </trkpt>
      <trkpt lat="45.04642" lon="5.92698">
        <ele>2356.9355</ele>
        <time>2015-09-06T14:52:56Z</time>
      </trkpt>
      <trkpt lat="45.04642" lon="5.92698">
        <ele>2356.9355</ele>
        <time>2015-09-06T14:53:01Z</time>
      </trkpt>
      <trkpt lat="45.04642" lon="5.92698">
        <ele>2356.9355</ele>
        <time>2015-09-06T14:53:16Z</time>
      </trkpt>
      <trkpt lat="45.04642" lon="5.92698">
        <ele>2356.9355</ele>
        <time>2015-09-06T14:53:21Z</time>
      </trkpt>
      <trkpt lat="45.04642" lon="5.92698">
        <ele>2356.9355</ele>
        <time>2015-09-06T14:53:31Z</time>
      </trkpt>
      <trkpt lat="45.04642" lon="5.92698">
        <ele>2356.9355</ele>
        <time>2015-09-06T14:53:36Z</time>
      </trkpt>
      <trkpt lat="45.04642" lon="5.92698">
        <ele>2356.9355</ele>
        <time>2015-09-06T14:53:46Z</time>
      </trkpt>
      <trkpt lat="45.04642" lon="5.92698">
        <ele>2356.9355</ele>
        <time>2015-09-06T14:53:51Z</time>
      </trkpt>
      <trkpt lat="45.04642" lon="5.92695">
        <ele>2356.9355</ele>
        <time>2015-09-06T14:54:01Z</time>
      </trkpt>
      <trkpt lat="45.04643" lon="5.92696">
        <ele>2356.9355</ele>
        <time>2015-09-06T14:54:06Z</time>
      </trkpt>
      <trkpt lat="45.04643" lon="5.92696">
        <ele>2356.9355</ele>
        <time>2015-09-06T14:54:16Z</time>
      </trkpt>
      <trkpt lat="45.04643" lon="5.92696">
        <ele>2356.9355</ele>
        <time>2015-09-06T14:54:21Z</time>
      </trkpt>
      <trkpt lat="45.04643" lon="5.92696">
        <ele>2356.9355</ele>
        <time>2015-09-06T14:54:31Z</time>
      </trkpt>
      <trkpt lat="45.04643" lon="5.92696">
        <ele>2356.9355</ele>
        <time>2015-09-06T14:54:36Z</time>
      </trkpt>
      <trkpt lat="45.04643" lon="5.92696">
        <ele>2356.9355</ele>
        <time>2015-09-06T14:54:46Z</time>
      </trkpt>
      <trkpt lat="45.04643" lon="5.92696">
        <ele>2356.9355</ele>
        <time>2015-09-06T14:54:51Z</time>
      </trkpt>
      <trkpt lat="45.04643" lon="5.92696">
        <ele>2356.9355</ele>
        <time>2015-09-06T14:55:01Z</time>
      </trkpt>
      <trkpt lat="45.04643" lon="5.92696">
        <ele>2356.9355</ele>
        <time>2015-09-06T14:55:06Z</time>
      </trkpt>
      <trkpt lat="45.04643" lon="5.92695">
        <ele>2356.9355</ele>
        <time>2015-09-06T14:55:16Z</time>
      </trkpt>
      <trkpt lat="45.04643" lon="5.92695">
        <ele>2356.9355</ele>
        <time>2015-09-06T14:55:21Z</time>
      </trkpt>
      <trkpt lat="45.04643" lon="5.92695">
        <ele>2356.9355</ele>
        <time>2015-09-06T14:55:36Z</time>
      </trkpt>
      <trkpt lat="45.04643" lon="5.92695">
        <ele>2356.9355</ele>
        <time>2015-09-06T14:55:41Z</time>
      </trkpt>
      <trkpt lat="45.04646" lon="5.92692">
        <ele>2352.9497</ele>
        <time>2015-09-06T14:55:51Z</time>
      </trkpt>
      <trkpt lat="45.04651" lon="5.92685">
        <ele>2352.9497</ele>
        <time>2015-09-06T14:55:56Z</time>
      </trkpt>
      <trkpt lat="45.04665" lon="5.9268">
        <ele>2349.304</ele>
        <time>2015-09-06T14:56:06Z</time>
      </trkpt>
      <trkpt lat="45.04674" lon="5.92682">
        <ele>2349.304</ele>
        <time>2015-09-06T14:56:11Z</time>
      </trkpt>
      <trkpt lat="45.0468" lon="5.92685">
        <ele>2346.2524</ele>
        <time>2015-09-06T14:56:21Z</time>
      </trkpt>
      <trkpt lat="45.04682" lon="5.92687">
        <ele>2346.2524</ele>
        <time>2015-09-06T14:56:26Z</time>
      </trkpt>
      <trkpt lat="45.04686" lon="5.92687">
        <ele>2346.2524</ele>
        <time>2015-09-06T14:56:36Z</time>
      </trkpt>
      <trkpt lat="45.04686" lon="5.92688">
        <ele>2346.2524</ele>
        <time>2015-09-06T14:56:41Z</time>
      </trkpt>
      <trkpt lat="45.04688" lon="5.92689">
        <ele>2343.4521</ele>
        <time>2015-09-06T14:56:51Z</time>
      </trkpt>
      <trkpt lat="45.04688" lon="5.92687">
        <ele>2342.379</ele>
        <time>2015-09-06T14:56:56Z</time>
      </trkpt>
      <trkpt lat="45.04693" lon="5.92697">
        <ele>2341.3057</ele>
        <time>2015-09-06T14:57:06Z</time>
      </trkpt>
      <trkpt lat="45.04695" lon="5.92704">
        <ele>2341.3057</ele>
        <time>2015-09-06T14:57:11Z</time>
      </trkpt>
      <trkpt lat="45.04702" lon="5.92694">
        <ele>2339.0312</ele>
        <time>2015-09-06T14:57:21Z</time>
      </trkpt>
      <trkpt lat="45.04707" lon="5.92688">
        <ele>2339.0312</ele>
        <time>2015-09-06T14:57:26Z</time>
      </trkpt>
      <trkpt lat="45.04714" lon="5.92676">
        <ele>2336.914</ele>
        <time>2015-09-06T14:57:41Z</time>
      </trkpt>
      <trkpt lat="45.04717" lon="5.92678">
        <ele>2336.914</ele>
        <time>2015-09-06T14:57:46Z</time>
      </trkpt>
      <trkpt lat="45.04725" lon="5.92666">
        <ele>2335.0735</ele>
        <time>2015-09-06T14:57:56Z</time>
      </trkpt>
      <trkpt lat="45.0473" lon="5.92657">
        <ele>2335.0735</ele>
        <time>2015-09-06T14:58:01Z</time>
      </trkpt>
      <trkpt lat="45.04733" lon="5.92662">
        <ele>2333.3318</ele>
        <time>2015-09-06T14:58:11Z</time>
      </trkpt>
      <trkpt lat="45.04738" lon="5.92662">
        <ele>2333.3318</ele>
        <time>2015-09-06T14:58:16Z</time>
      </trkpt>
      <trkpt lat="45.04746" lon="5.92654">
        <ele>2330.371</ele>
        <time>2015-09-06T14:58:26Z</time>
      </trkpt>
      <trkpt lat="45.04749" lon="5.92654">
        <ele>2330.371</ele>
        <time>2015-09-06T14:58:31Z</time>
      </trkpt>
      <trkpt lat="45.0474" lon="5.92646">
        <ele>2326.9915</ele>
        <time>2015-09-06T14:58:41Z</time>
      </trkpt>
      <trkpt lat="45.0474" lon="5.92646">
        <ele>2326.9915</ele>
        <time>2015-09-06T14:58:46Z</time>
      </trkpt>
      <trkpt lat="45.0474" lon="5.92646">
        <ele>2326.9915</ele>
        <time>2015-09-06T14:58:56Z</time>
      </trkpt>
      <trkpt lat="45.0474" lon="5.92646">
        <ele>2326.9915</ele>
        <time>2015-09-06T14:59:01Z</time>
      </trkpt>
      <trkpt lat="45.0474" lon="5.92646">
        <ele>2326.9915</ele>
        <time>2015-09-06T14:59:11Z</time>
      </trkpt>
      <trkpt lat="45.04741" lon="5.92652">
        <ele>2326.9915</ele>
        <time>2015-09-06T14:59:16Z</time>
      </trkpt>
      <trkpt lat="45.04749" lon="5.92649">
        <ele>2325.0889</ele>
        <time>2015-09-06T14:59:26Z</time>
      </trkpt>
      <trkpt lat="45.04747" lon="5.92649">
        <ele>2325.0889</ele>
        <time>2015-09-06T14:59:31Z</time>
      </trkpt>
      <trkpt lat="45.04746" lon="5.92649">
        <ele>2325.0889</ele>
        <time>2015-09-06T14:59:46Z</time>
      </trkpt>
      <trkpt lat="45.04746" lon="5.92649">
        <ele>2325.0889</ele>
        <time>2015-09-06T14:59:51Z</time>
      </trkpt>
      <trkpt lat="45.04746" lon="5.92649">
        <ele>2325.0889</ele>
        <time>2015-09-06T15:00:01Z</time>
      </trkpt>
      <trkpt lat="45.04746" lon="5.92649">
        <ele>2325.0889</ele>
        <time>2015-09-06T15:00:06Z</time>
      </trkpt>
      <trkpt lat="45.04746" lon="5.92649">
        <ele>2325.0889</ele>
        <time>2015-09-06T15:00:16Z</time>
      </trkpt>
      <trkpt lat="45.04746" lon="5.92649">
        <ele>2325.0889</ele>
        <time>2015-09-06T15:00:21Z</time>
      </trkpt>
      <trkpt lat="45.04746" lon="5.92649">
        <ele>2325.0889</ele>
        <time>2015-09-06T15:00:31Z</time>
      </trkpt>
      <trkpt lat="45.04746" lon="5.92649">
        <ele>2325.0889</ele>
        <time>2015-09-06T15:00:36Z</time>
      </trkpt>
      <trkpt lat="45.04757" lon="5.92656">
        <ele>2323.1016</ele>
        <time>2015-09-06T15:00:46Z</time>
      </trkpt>
      <trkpt lat="45.04758" lon="5.92656">
        <ele>2323.1016</ele>
        <time>2015-09-06T15:00:51Z</time>
      </trkpt>
      <trkpt lat="45.04761" lon="5.92659">
        <ele>2323.1016</ele>
        <time>2015-09-06T15:01:01Z</time>
      </trkpt>
      <trkpt lat="45.04762" lon="5.9266">
        <ele>2323.1016</ele>
        <time>2015-09-06T15:01:06Z</time>
      </trkpt>
      <trkpt lat="45.04764" lon="5.92659">
        <ele>2323.1016</ele>
        <time>2015-09-06T15:01:16Z</time>
      </trkpt>
      <trkpt lat="45.04763" lon="5.92659">
        <ele>2323.1016</ele>
        <time>2015-09-06T15:01:21Z</time>
      </trkpt>
      <trkpt lat="45.04763" lon="5.92657">
        <ele>2320.303</ele>
        <time>2015-09-06T15:01:36Z</time>
      </trkpt>
      <trkpt lat="45.04763" lon="5.92658">
        <ele>2320.303</ele>
        <time>2015-09-06T15:01:41Z</time>
      </trkpt>
      <trkpt lat="45.04763" lon="5.92658">
        <ele>2320.303</ele>
        <time>2015-09-06T15:01:51Z</time>
      </trkpt>
      <trkpt lat="45.04766" lon="5.92661">
        <ele>2320.303</ele>
        <time>2015-09-06T15:01:56Z</time>
      </trkpt>
      <trkpt lat="45.04767" lon="5.92665">
        <ele>2320.303</ele>
        <time>2015-09-06T15:02:06Z</time>
      </trkpt>
      <trkpt lat="45.04767" lon="5.92665">
        <ele>2320.303</ele>
        <time>2015-09-06T15:02:11Z</time>
      </trkpt>
      <trkpt lat="45.04767" lon="5.92665">
        <ele>2320.303</ele>
        <time>2015-09-06T15:02:21Z</time>
      </trkpt>
      <trkpt lat="45.04767" lon="5.92665">
        <ele>2320.303</ele>
        <time>2015-09-06T15:02:26Z</time>
      </trkpt>
      <trkpt lat="45.04767" lon="5.92665">
        <ele>2320.303</ele>
        <time>2015-09-06T15:02:36Z</time>
      </trkpt>
      <trkpt lat="45.04767" lon="5.92665">
        <ele>2320.303</ele>
        <time>2015-09-06T15:02:41Z</time>
      </trkpt>
      <trkpt lat="45.04767" lon="5.92666">
        <ele>2320.303</ele>
        <time>2015-09-06T15:02:51Z</time>
      </trkpt>
      <trkpt lat="45.04767" lon="5.92666">
        <ele>2320.303</ele>
        <time>2015-09-06T15:02:56Z</time>
      </trkpt>
      <trkpt lat="45.04767" lon="5.92666">
        <ele>2320.303</ele>
        <time>2015-09-06T15:03:11Z</time>
      </trkpt>
      <trkpt lat="45.04767" lon="5.92666">
        <ele>2320.303</ele>
        <time>2015-09-06T15:03:16Z</time>
      </trkpt>
      <trkpt lat="45.04767" lon="5.92666">
        <ele>2320.303</ele>
        <time>2015-09-06T15:03:26Z</time>
      </trkpt>
      <trkpt lat="45.04767" lon="5.92666">
        <ele>2320.303</ele>
        <time>2015-09-06T15:03:31Z</time>
      </trkpt>
      <trkpt lat="45.04767" lon="5.92666">
        <ele>2320.303</ele>
        <time>2015-09-06T15:03:41Z</time>
      </trkpt>
      <trkpt lat="45.04767" lon="5.92666">
        <ele>2320.303</ele>
        <time>2015-09-06T15:03:46Z</time>
      </trkpt>
      <trkpt lat="45.04766" lon="5.92671">
        <ele>2318.0408</ele>
        <time>2015-09-06T15:03:56Z</time>
      </trkpt>
      <trkpt lat="45.04765" lon="5.92671">
        <ele>2318.0408</ele>
        <time>2015-09-06T15:04:01Z</time>
      </trkpt>
      <trkpt lat="45.04765" lon="5.92675">
        <ele>2318.0408</ele>
        <time>2015-09-06T15:04:11Z</time>
      </trkpt>
      <trkpt lat="45.04765" lon="5.92675">
        <ele>2318.0408</ele>
        <time>2015-09-06T15:04:16Z</time>
      </trkpt>
      <trkpt lat="45.04765" lon="5.92675">
        <ele>2318.0408</ele>
        <time>2015-09-06T15:04:26Z</time>
      </trkpt>
      <trkpt lat="45.04765" lon="5.92675">
        <ele>2318.0408</ele>
        <time>2015-09-06T15:04:31Z</time>
      </trkpt>
      <trkpt lat="45.04765" lon="5.92675">
        <ele>2318.0408</ele>
        <time>2015-09-06T15:04:46Z</time>
      </trkpt>
      <trkpt lat="45.04765" lon="5.92675">
        <ele>2318.0408</ele>
        <time>2015-09-06T15:04:51Z</time>
      </trkpt>
      <trkpt lat="45.04761" lon="5.92682">
        <ele>2313.9592</ele>
        <time>2015-09-06T15:05:01Z</time>
      </trkpt>
      <trkpt lat="45.04761" lon="5.92682">
        <ele>2313.9592</ele>
        <time>2015-09-06T15:05:06Z</time>
      </trkpt>
      <trkpt lat="45.04766" lon="5.92687">
        <ele>2313.9592</ele>
        <time>2015-09-06T15:05:16Z</time>
      </trkpt>
      <trkpt lat="45.04767" lon="5.92686">
        <ele>2313.9592</ele>
        <time>2015-09-06T15:05:21Z</time>
      </trkpt>
      <trkpt lat="45.04772" lon="5.92687">
        <ele>2310.2043</ele>
        <time>2015-09-06T15:05:31Z</time>
      </trkpt>
      <trkpt lat="45.04774" lon="5.92689">
        <ele>2310.2043</ele>
        <time>2015-09-06T15:05:36Z</time>
      </trkpt>
      <trkpt lat="45.04777" lon="5.92692">
        <ele>2310.2043</ele>
        <time>2015-09-06T15:05:46Z</time>
      </trkpt>
      <trkpt lat="45.04779" lon="5.92693">
        <ele>2310.2043</ele>
        <time>2015-09-06T15:05:51Z</time>
      </trkpt>
      <trkpt lat="45.04779" lon="5.92693">
        <ele>2306.0264</ele>
        <time>2015-09-06T15:06:01Z</time>
      </trkpt>
      <trkpt lat="45.04779" lon="5.92693">
        <ele>2306.0264</ele>
        <time>2015-09-06T15:06:06Z</time>
      </trkpt>
      <trkpt lat="45.04787" lon="5.92683">
        <ele>2301.7402</ele>
        <time>2015-09-06T15:06:16Z</time>
      </trkpt>
      <trkpt lat="45.04794" lon="5.92681">
        <ele>2301.7402</ele>
        <time>2015-09-06T15:06:21Z</time>
      </trkpt>
      <trkpt lat="45.04793" lon="5.92678">
        <ele>2297.7825</ele>
        <time>2015-09-06T15:06:31Z</time>
      </trkpt>
      <trkpt lat="45.04795" lon="5.92674">
        <ele>2297.7825</ele>
        <time>2015-09-06T15:06:36Z</time>
      </trkpt>
      <trkpt lat="45.04802" lon="5.92682">
        <ele>2293.26</ele>
        <time>2015-09-06T15:06:51Z</time>
      </trkpt>
      <trkpt lat="45.04802" lon="5.92682">
        <ele>2293.26</ele>
        <time>2015-09-06T15:06:56Z</time>
      </trkpt>
      <trkpt lat="45.04802" lon="5.92682">
        <ele>2293.26</ele>
        <time>2015-09-06T15:07:06Z</time>
      </trkpt>
      <trkpt lat="45.04802" lon="5.92682">
        <ele>2293.26</ele>
        <time>2015-09-06T15:07:11Z</time>
      </trkpt>
      <trkpt lat="45.04804" lon="5.92686">
        <ele>2293.26</ele>
        <time>2015-09-06T15:07:21Z</time>
      </trkpt>
      <trkpt lat="45.04805" lon="5.9269">
        <ele>2293.26</ele>
        <time>2015-09-06T15:07:26Z</time>
      </trkpt>
      <trkpt lat="45.04809" lon="5.92701">
        <ele>2287.9243</ele>
        <time>2015-09-06T15:07:36Z</time>
      </trkpt>
      <trkpt lat="45.04811" lon="5.92711">
        <ele>2287.9243</ele>
        <time>2015-09-06T15:07:41Z</time>
      </trkpt>
      <trkpt lat="45.04815" lon="5.92704">
        <ele>2282.6992</ele>
        <time>2015-09-06T15:07:51Z</time>
      </trkpt>
      <trkpt lat="45.04815" lon="5.92704">
        <ele>2282.6992</ele>
        <time>2015-09-06T15:07:56Z</time>
      </trkpt>
      <trkpt lat="45.04815" lon="5.92704">
        <ele>2282.6992</ele>
        <time>2015-09-06T15:08:06Z</time>
      </trkpt>
      <trkpt lat="45.04815" lon="5.92704">
        <ele>2282.6992</ele>
        <time>2015-09-06T15:08:11Z</time>
      </trkpt>
      <trkpt lat="45.04815" lon="5.92704">
        <ele>2282.6992</ele>
        <time>2015-09-06T15:08:21Z</time>
      </trkpt>
      <trkpt lat="45.04815" lon="5.92704">
        <ele>2282.6992</ele>
        <time>2015-09-06T15:08:26Z</time>
      </trkpt>
      <trkpt lat="45.04816" lon="5.92704">
        <ele>2282.6992</ele>
        <time>2015-09-06T15:08:36Z</time>
      </trkpt>
      <trkpt lat="45.04817" lon="5.92706">
        <ele>2282.6992</ele>
        <time>2015-09-06T15:08:41Z</time>
      </trkpt>
      <trkpt lat="45.04823" lon="5.927">
        <ele>2277.433</ele>
        <time>2015-09-06T15:08:51Z</time>
      </trkpt>
      <trkpt lat="45.04823" lon="5.92699">
        <ele>2277.433</ele>
        <time>2015-09-06T15:08:56Z</time>
      </trkpt>
      <trkpt lat="45.04832" lon="5.92696">
        <ele>2272.5615</ele>
        <time>2015-09-06T15:09:06Z</time>
      </trkpt>
      <trkpt lat="45.04834" lon="5.92695">
        <ele>2272.5615</ele>
        <time>2015-09-06T15:09:11Z</time>
      </trkpt>
      <trkpt lat="45.04835" lon="5.92696">
        <ele>2272.5615</ele>
        <time>2015-09-06T15:09:26Z</time>
      </trkpt>
      <trkpt lat="45.04836" lon="5.92695">
        <ele>2272.5615</ele>
        <time>2015-09-06T15:09:31Z</time>
      </trkpt>
      <trkpt lat="45.04844" lon="5.92695">
        <ele>2267.4788</ele>
        <time>2015-09-06T15:09:41Z</time>
      </trkpt>
      <trkpt lat="45.04845" lon="5.92694">
        <ele>2267.4788</ele>
        <time>2015-09-06T15:09:46Z</time>
      </trkpt>
      <trkpt lat="45.04845" lon="5.92694">
        <ele>2267.4788</ele>
        <time>2015-09-06T15:09:56Z</time>
      </trkpt>
      <trkpt lat="45.04847" lon="5.92694">
        <ele>2267.4788</ele>
        <time>2015-09-06T15:10:01Z</time>
      </trkpt>
      <trkpt lat="45.04858" lon="5.92688">
        <ele>2262.7766</ele>
        <time>2015-09-06T15:10:11Z</time>
      </trkpt>
      <trkpt lat="45.04859" lon="5.92686">
        <ele>2262.7766</ele>
        <time>2015-09-06T15:10:16Z</time>
      </trkpt>
      <trkpt lat="45.04859" lon="5.92684">
        <ele>2262.7766</ele>
        <time>2015-09-06T15:10:26Z</time>
      </trkpt>
      <trkpt lat="45.04863" lon="5.92683">
        <ele>2262.7766</ele>
        <time>2015-09-06T15:10:31Z</time>
      </trkpt>
      <trkpt lat="45.0488" lon="5.92683">
        <ele>2256.121</ele>
        <time>2015-09-06T15:10:46Z</time>
      </trkpt>
      <trkpt lat="45.04885" lon="5.92682">
        <ele>2256.121</ele>
        <time>2015-09-06T15:10:51Z</time>
      </trkpt>
      <trkpt lat="45.04891" lon="5.92678">
        <ele>2249.8223</ele>
        <time>2015-09-06T15:11:01Z</time>
      </trkpt>
      <trkpt lat="45.04893" lon="5.92677">
        <ele>2249.8223</ele>
        <time>2015-09-06T15:11:06Z</time>
      </trkpt>
      <trkpt lat="45.04901" lon="5.92673">
        <ele>2244.1462</ele>
        <time>2015-09-06T15:11:16Z</time>
      </trkpt>
      <trkpt lat="45.04905" lon="5.92676">
        <ele>2244.1462</ele>
        <time>2015-09-06T15:11:21Z</time>
      </trkpt>
      <trkpt lat="45.04906" lon="5.92674">
        <ele>2244.1462</ele>
        <time>2015-09-06T15:11:31Z</time>
      </trkpt>
      <trkpt lat="45.04906" lon="5.9267">
        <ele>2238.7617</ele>
        <time>2015-09-06T15:11:36Z</time>
      </trkpt>
      <trkpt lat="45.04914" lon="5.92665">
        <ele>2238.7617</ele>
        <time>2015-09-06T15:11:46Z</time>
      </trkpt>
      <trkpt lat="45.04919" lon="5.92663">
        <ele>2234.3696</ele>
        <time>2015-09-06T15:11:51Z</time>
      </trkpt>
      <trkpt lat="45.0492" lon="5.92664">
        <ele>2234.3696</ele>
        <time>2015-09-06T15:12:01Z</time>
      </trkpt>
      <trkpt lat="45.04924" lon="5.92673">
        <ele>2234.3696</ele>
        <time>2015-09-06T15:12:06Z</time>
      </trkpt>
      <trkpt lat="45.04927" lon="5.92673">
        <ele>2230.4636</ele>
        <time>2015-09-06T15:12:16Z</time>
      </trkpt>
      <trkpt lat="45.0493" lon="5.92671">
        <ele>2230.4636</ele>
        <time>2015-09-06T15:12:21Z</time>
      </trkpt>
      <trkpt lat="45.04934" lon="5.92669">
        <ele>2230.4636</ele>
        <time>2015-09-06T15:12:31Z</time>
      </trkpt>
      <trkpt lat="45.04934" lon="5.92669">
        <ele>2230.4636</ele>
        <time>2015-09-06T15:12:36Z</time>
      </trkpt>
      <trkpt lat="45.04934" lon="5.92669">
        <ele>2226.7178</ele>
        <time>2015-09-06T15:12:46Z</time>
      </trkpt>
      <trkpt lat="45.04935" lon="5.92672">
        <ele>2226.7178</ele>
        <time>2015-09-06T15:12:51Z</time>
      </trkpt>
      <trkpt lat="45.04938" lon="5.92677">
        <ele>2226.7178</ele>
        <time>2015-09-06T15:13:01Z</time>
      </trkpt>
      <trkpt lat="45.04938" lon="5.9268">
        <ele>2222.8296</ele>
        <time>2015-09-06T15:13:06Z</time>
      </trkpt>
      <trkpt lat="45.04943" lon="5.92683">
        <ele>2222.8296</ele>
        <time>2015-09-06T15:13:16Z</time>
      </trkpt>
      <trkpt lat="45.04947" lon="5.92686">
        <ele>2219.2395</ele>
        <time>2015-09-06T15:13:21Z</time>
      </trkpt>
      <trkpt lat="45.04948" lon="5.92686">
        <ele>2219.2395</ele>
        <time>2015-09-06T15:13:31Z</time>
      </trkpt>
      <trkpt lat="45.04949" lon="5.92685">
        <ele>2219.2395</ele>
        <time>2015-09-06T15:13:36Z</time>
      </trkpt>
      <trkpt lat="45.04955" lon="5.92681">
        <ele>2219.2395</ele>
        <time>2015-09-06T15:13:51Z</time>
      </trkpt>
      <trkpt lat="45.04956" lon="5.92681">
        <ele>2215.2026</ele>
        <time>2015-09-06T15:13:56Z</time>
      </trkpt>
      <trkpt lat="45.0496" lon="5.9268">
        <ele>2215.2026</ele>
        <time>2015-09-06T15:14:06Z</time>
      </trkpt>
      <trkpt lat="45.0496" lon="5.92677">
        <ele>2215.2026</ele>
        <time>2015-09-06T15:14:11Z</time>
      </trkpt>
      <trkpt lat="45.04962" lon="5.92678">
        <ele>2211.6145</ele>
        <time>2015-09-06T15:14:21Z</time>
      </trkpt>
      <trkpt lat="45.04963" lon="5.92679">
        <ele>2211.6145</ele>
        <time>2015-09-06T15:14:26Z</time>
      </trkpt>
      <trkpt lat="45.04963" lon="5.92679">
        <ele>2211.6145</ele>
        <time>2015-09-06T15:14:36Z</time>
      </trkpt>
      <trkpt lat="45.04963" lon="5.92679">
        <ele>2211.6145</ele>
        <time>2015-09-06T15:14:41Z</time>
      </trkpt>
      <trkpt lat="45.04963" lon="5.92679">
        <ele>2211.6145</ele>
        <time>2015-09-06T15:14:51Z</time>
      </trkpt>
      <trkpt lat="45.04963" lon="5.92679">
        <ele>2211.6145</ele>
        <time>2015-09-06T15:14:56Z</time>
      </trkpt>
      <trkpt lat="45.04964" lon="5.92677">
        <ele>2211.6145</ele>
        <time>2015-09-06T15:15:06Z</time>
      </trkpt>
      <trkpt lat="45.04966" lon="5.92678">
        <ele>2211.6145</ele>
        <time>2015-09-06T15:15:11Z</time>
      </trkpt>
      <trkpt lat="45.04966" lon="5.92678">
        <ele>2211.6145</ele>
        <time>2015-09-06T15:15:21Z</time>
      </trkpt>
      <trkpt lat="45.04967" lon="5.92679">
        <ele>2211.6145</ele>
        <time>2015-09-06T15:15:26Z</time>
      </trkpt>
      <trkpt lat="45.04967" lon="5.92679">
        <ele>2211.6145</ele>
        <time>2015-09-06T15:15:41Z</time>
      </trkpt>
      <trkpt lat="45.04966" lon="5.92679">
        <ele>2211.6145</ele>
        <time>2015-09-06T15:15:46Z</time>
      </trkpt>
      <trkpt lat="45.04976" lon="5.92684">
        <ele>2207.431</ele>
        <time>2015-09-06T15:15:56Z</time>
      </trkpt>
      <trkpt lat="45.04977" lon="5.92682">
        <ele>2207.431</ele>
        <time>2015-09-06T15:16:01Z</time>
      </trkpt>
      <trkpt lat="45.04981" lon="5.92682">
        <ele>2207.431</ele>
        <time>2015-09-06T15:16:11Z</time>
      </trkpt>
      <trkpt lat="45.0498" lon="5.92681">
        <ele>2207.431</ele>
        <time>2015-09-06T15:16:16Z</time>
      </trkpt>
      <trkpt lat="45.04977" lon="5.9268">
        <ele>2202.8389</ele>
        <time>2015-09-06T15:16:26Z</time>
      </trkpt>
      <trkpt lat="45.04979" lon="5.92679">
        <ele>2202.8389</ele>
        <time>2015-09-06T15:16:31Z</time>
      </trkpt>
      <trkpt lat="45.04982" lon="5.92684">
        <ele>2202.8389</ele>
        <time>2015-09-06T15:16:41Z</time>
      </trkpt>
      <trkpt lat="45.04987" lon="5.92686">
        <ele>2198.157</ele>
        <time>2015-09-06T15:16:46Z</time>
      </trkpt>
      <trkpt lat="45.0499" lon="5.92683">
        <ele>2198.157</ele>
        <time>2015-09-06T15:16:56Z</time>
      </trkpt>
      <trkpt lat="45.04997" lon="5.92685">
        <ele>2193.6802</ele>
        <time>2015-09-06T15:17:01Z</time>
      </trkpt>
      <trkpt lat="45.04993" lon="5.92681">
        <ele>2193.6802</ele>
        <time>2015-09-06T15:17:16Z</time>
      </trkpt>
      <trkpt lat="45.04993" lon="5.92681">
        <ele>2193.6802</ele>
        <time>2015-09-06T15:17:21Z</time>
      </trkpt>
      <trkpt lat="45.04993" lon="5.92681">
        <ele>2193.6802</ele>
        <time>2015-09-06T15:17:31Z</time>
      </trkpt>
      <trkpt lat="45.04993" lon="5.92681">
        <ele>2193.6802</ele>
        <time>2015-09-06T15:17:36Z</time>
      </trkpt>
      <trkpt lat="45.04993" lon="5.92681">
        <ele>2193.6802</ele>
        <time>2015-09-06T15:17:46Z</time>
      </trkpt>
      <trkpt lat="45.04997" lon="5.92693">
        <ele>2188.8176</ele>
        <time>2015-09-06T15:17:51Z</time>
      </trkpt>
      <trkpt lat="45.05007" lon="5.92695">
        <ele>2184.3193</ele>
        <time>2015-09-06T15:18:01Z</time>
      </trkpt>
      <trkpt lat="45.05008" lon="5.92698">
        <ele>2184.3193</ele>
        <time>2015-09-06T15:18:06Z</time>
      </trkpt>
      <trkpt lat="45.05007" lon="5.92702">
        <ele>2184.3193</ele>
        <time>2015-09-06T15:18:16Z</time>
      </trkpt>
      <trkpt lat="45.05006" lon="5.92701">
        <ele>2184.3193</ele>
        <time>2015-09-06T15:18:21Z</time>
      </trkpt>
      <trkpt lat="45.05008" lon="5.92701">
        <ele>2184.3193</ele>
        <time>2015-09-06T15:18:31Z</time>
      </trkpt>
      <trkpt lat="45.05007" lon="5.92703">
        <ele>2179.1497</ele>
        <time>2015-09-06T15:18:36Z</time>
      </trkpt>
      <trkpt lat="45.05009" lon="5.92713">
        <ele>2179.1497</ele>
        <time>2015-09-06T15:18:46Z</time>
      </trkpt>
      <trkpt lat="45.05016" lon="5.92718">
        <ele>2174.081</ele>
        <time>2015-09-06T15:18:51Z</time>
      </trkpt>
      <trkpt lat="45.05027" lon="5.92718">
        <ele>2168.964</ele>
        <time>2015-09-06T15:19:01Z</time>
      </trkpt>
      <trkpt lat="45.05033" lon="5.92717">
        <ele>2168.964</ele>
        <time>2015-09-06T15:19:06Z</time>
      </trkpt>
      <trkpt lat="45.05038" lon="5.92719">
        <ele>2164.0923</ele>
        <time>2015-09-06T15:19:16Z</time>
      </trkpt>
      <trkpt lat="45.05043" lon="5.9272">
        <ele>2164.0923</ele>
        <time>2015-09-06T15:19:21Z</time>
      </trkpt>
      <trkpt lat="45.05055" lon="5.92736">
        <ele>2160.1697</ele>
        <time>2015-09-06T15:19:36Z</time>
      </trkpt>
      <trkpt lat="45.05057" lon="5.92737">
        <ele>2160.1697</ele>
        <time>2015-09-06T15:19:41Z</time>
      </trkpt>
      <trkpt lat="45.05062" lon="5.92746">
        <ele>2156.549</ele>
        <time>2015-09-06T15:19:51Z</time>
      </trkpt>
      <trkpt lat="45.05069" lon="5.92751">
        <ele>2156.549</ele>
        <time>2015-09-06T15:19:56Z</time>
      </trkpt>
      <trkpt lat="45.05077" lon="5.92753">
        <ele>2153.4944</ele>
        <time>2015-09-06T15:20:06Z</time>
      </trkpt>
      <trkpt lat="45.05079" lon="5.92753">
        <ele>2153.4944</ele>
        <time>2015-09-06T15:20:11Z</time>
      </trkpt>
      <trkpt lat="45.05079" lon="5.9275">
        <ele>2153.4944</ele>
        <time>2015-09-06T15:20:21Z</time>
      </trkpt>
      <trkpt lat="45.05081" lon="5.9275">
        <ele>2153.4944</ele>
        <time>2015-09-06T15:20:26Z</time>
      </trkpt>
      <trkpt lat="45.05092" lon="5.92751">
        <ele>2149.8076</ele>
        <time>2015-09-06T15:20:36Z</time>
      </trkpt>
      <trkpt lat="45.05089" lon="5.92756">
        <ele>2149.8076</ele>
        <time>2015-09-06T15:20:41Z</time>
      </trkpt>
      <trkpt lat="45.05088" lon="5.92756">
        <ele>2149.8076</ele>
        <time>2015-09-06T15:20:51Z</time>
      </trkpt>
      <trkpt lat="45.0509" lon="5.92758">
        <ele>2146.2542</ele>
        <time>2015-09-06T15:20:56Z</time>
      </trkpt>
      <trkpt lat="45.05093" lon="5.92754">
        <ele>2146.2542</ele>
        <time>2015-09-06T15:21:06Z</time>
      </trkpt>
      <trkpt lat="45.05097" lon="5.92751">
        <ele>2146.2542</ele>
        <time>2015-09-06T15:21:11Z</time>
      </trkpt>
      <trkpt lat="45.05107" lon="5.92753">
        <ele>2142.6777</ele>
        <time>2015-09-06T15:21:21Z</time>
      </trkpt>
      <trkpt lat="45.05112" lon="5.92754">
        <ele>2142.6777</ele>
        <time>2015-09-06T15:21:26Z</time>
      </trkpt>
      <trkpt lat="45.05122" lon="5.92759">
        <ele>2139.078</ele>
        <time>2015-09-06T15:21:36Z</time>
      </trkpt>
      <trkpt lat="45.05127" lon="5.92762">
        <ele>2139.078</ele>
        <time>2015-09-06T15:21:41Z</time>
      </trkpt>
      <trkpt lat="45.05132" lon="5.92761">
        <ele>2135.3105</ele>
        <time>2015-09-06T15:21:51Z</time>
      </trkpt>
      <trkpt lat="45.05137" lon="5.92759">
        <ele>2135.3105</ele>
        <time>2015-09-06T15:21:56Z</time>
      </trkpt>
      <trkpt lat="45.05145" lon="5.92769">
        <ele>2131.2424</ele>
        <time>2015-09-06T15:22:11Z</time>
      </trkpt>
      <trkpt lat="45.05149" lon="5.92771">
        <ele>2131.2424</ele>
        <time>2015-09-06T15:22:16Z</time>
      </trkpt>
      <trkpt lat="45.05159" lon="5.92771">
        <ele>2127.1833</ele>
        <time>2015-09-06T15:22:26Z</time>
      </trkpt>
      <trkpt lat="45.05158" lon="5.92776">
        <ele>2127.1833</ele>
        <time>2015-09-06T15:22:31Z</time>
      </trkpt>
      <trkpt lat="45.05159" lon="5.92773">
        <ele>2127.1833</ele>
        <time>2015-09-06T15:22:41Z</time>
      </trkpt>
      <trkpt lat="45.0516" lon="5.9277">
        <ele>2127.1833</ele>
        <time>2015-09-06T15:22:46Z</time>
      </trkpt>
      <trkpt lat="45.05162" lon="5.92758">
        <ele>2122.556</ele>
        <time>2015-09-06T15:22:56Z</time>
      </trkpt>
      <trkpt lat="45.05166" lon="5.92752">
        <ele>2122.556</ele>
        <time>2015-09-06T15:23:01Z</time>
      </trkpt>
      <trkpt lat="45.05173" lon="5.92733">
        <ele>2117.979</ele>
        <time>2015-09-06T15:23:11Z</time>
      </trkpt>
      <trkpt lat="45.05173" lon="5.92726">
        <ele>2117.979</ele>
        <time>2015-09-06T15:23:16Z</time>
      </trkpt>
      <trkpt lat="45.05174" lon="5.92723">
        <ele>2117.979</ele>
        <time>2015-09-06T15:23:26Z</time>
      </trkpt>
      <trkpt lat="45.05174" lon="5.92722">
        <ele>2117.979</ele>
        <time>2015-09-06T15:23:31Z</time>
      </trkpt>
      <trkpt lat="45.05173" lon="5.92712">
        <ele>2113.306</ele>
        <time>2015-09-06T15:23:41Z</time>
      </trkpt>
      <trkpt lat="45.05174" lon="5.9271">
        <ele>2113.306</ele>
        <time>2015-09-06T15:23:46Z</time>
      </trkpt>
      <trkpt lat="45.05177" lon="5.92697">
        <ele>2109.41</ele>
        <time>2015-09-06T15:23:56Z</time>
      </trkpt>
      <trkpt lat="45.05178" lon="5.92695">
        <ele>2109.41</ele>
        <time>2015-09-06T15:24:01Z</time>
      </trkpt>
      <trkpt lat="45.05179" lon="5.92685">
        <ele>2105.5125</ele>
        <time>2015-09-06T15:24:11Z</time>
      </trkpt>
      <trkpt lat="45.0518" lon="5.92682">
        <ele>2105.5125</ele>
        <time>2015-09-06T15:24:16Z</time>
      </trkpt>
      <trkpt lat="45.0518" lon="5.9268">
        <ele>2105.5125</ele>
        <time>2015-09-06T15:24:26Z</time>
      </trkpt>
      <trkpt lat="45.0518" lon="5.92677">
        <ele>2105.5125</ele>
        <time>2015-09-06T15:24:31Z</time>
      </trkpt>
      <trkpt lat="45.05182" lon="5.9267">
        <ele>2101.3245</ele>
        <time>2015-09-06T15:24:46Z</time>
      </trkpt>
      <trkpt lat="45.05186" lon="5.92655">
        <ele>2099.6057</ele>
        <time>2015-09-06T15:25:06Z</time>
      </trkpt>
      <trkpt lat="45.05186" lon="5.92658">
        <ele>2099.6057</ele>
        <time>2015-09-06T15:25:11Z</time>
      </trkpt>
      <trkpt lat="45.05187" lon="5.92665">
        <ele>2099.6057</ele>
        <time>2015-09-06T15:25:26Z</time>
      </trkpt>
      <trkpt lat="45.05187" lon="5.92665">
        <ele>2099.6057</ele>
        <time>2015-09-06T15:25:31Z</time>
      </trkpt>
      <trkpt lat="45.05191" lon="5.92666">
        <ele>2096.853</ele>
        <time>2015-09-06T15:25:41Z</time>
      </trkpt>
      <trkpt lat="45.05193" lon="5.9267">
        <ele>2096.853</ele>
        <time>2015-09-06T15:25:46Z</time>
      </trkpt>
      <trkpt lat="45.05192" lon="5.9267">
        <ele>2096.853</ele>
        <time>2015-09-06T15:25:56Z</time>
      </trkpt>
      <trkpt lat="45.05192" lon="5.9267">
        <ele>2096.853</ele>
        <time>2015-09-06T15:26:01Z</time>
      </trkpt>
      <trkpt lat="45.05192" lon="5.9267">
        <ele>2096.853</ele>
        <time>2015-09-06T15:26:11Z</time>
      </trkpt>
      <trkpt lat="45.05191" lon="5.9267">
        <ele>2096.853</ele>
        <time>2015-09-06T15:26:16Z</time>
      </trkpt>
      <trkpt lat="45.05191" lon="5.9267">
        <ele>2096.853</ele>
        <time>2015-09-06T15:26:26Z</time>
      </trkpt>
      <trkpt lat="45.05191" lon="5.9267">
        <ele>2096.853</ele>
        <time>2015-09-06T15:26:31Z</time>
      </trkpt>
      <trkpt lat="45.05191" lon="5.9267">
        <ele>2096.853</ele>
        <time>2015-09-06T15:26:41Z</time>
      </trkpt>
      <trkpt lat="45.05191" lon="5.9267">
        <ele>2096.853</ele>
        <time>2015-09-06T15:26:46Z</time>
      </trkpt>
      <trkpt lat="45.05196" lon="5.92674">
        <ele>2094.2917</ele>
        <time>2015-09-06T15:26:56Z</time>
      </trkpt>
      <trkpt lat="45.05194" lon="5.92675">
        <ele>2094.2917</ele>
        <time>2015-09-06T15:27:01Z</time>
      </trkpt>
      <trkpt lat="45.05195" lon="5.92672">
        <ele>2094.2917</ele>
        <time>2015-09-06T15:27:11Z</time>
      </trkpt>
      <trkpt lat="45.05196" lon="5.92674">
        <ele>2094.2917</ele>
        <time>2015-09-06T15:27:16Z</time>
      </trkpt>
      <trkpt lat="45.05203" lon="5.92687">
        <ele>2089.8855</ele>
        <time>2015-09-06T15:27:26Z</time>
      </trkpt>
      <trkpt lat="45.05203" lon="5.92694">
        <ele>2089.8855</ele>
        <time>2015-09-06T15:27:31Z</time>
      </trkpt>
      <trkpt lat="45.05209" lon="5.92708">
        <ele>2085.644</ele>
        <time>2015-09-06T15:27:46Z</time>
      </trkpt>
      <trkpt lat="45.05214" lon="5.92708">
        <ele>2085.644</ele>
        <time>2015-09-06T15:27:51Z</time>
      </trkpt>
      <trkpt lat="45.0522" lon="5.92713">
        <ele>2081.8442</ele>
        <time>2015-09-06T15:28:01Z</time>
      </trkpt>
      <trkpt lat="45.05224" lon="5.9272">
        <ele>2081.8442</ele>
        <time>2015-09-06T15:28:06Z</time>
      </trkpt>
      <trkpt lat="45.05228" lon="5.92725">
        <ele>2078.3086</ele>
        <time>2015-09-06T15:28:16Z</time>
      </trkpt>
      <trkpt lat="45.05236" lon="5.9273">
        <ele>2078.3086</ele>
        <time>2015-09-06T15:28:21Z</time>
      </trkpt>
      <trkpt lat="45.05245" lon="5.92732">
        <ele>2075.0159</ele>
        <time>2015-09-06T15:28:31Z</time>
      </trkpt>
      <trkpt lat="45.05249" lon="5.92729">
        <ele>2075.0159</ele>
        <time>2015-09-06T15:28:36Z</time>
      </trkpt>
      <trkpt lat="45.05253" lon="5.92728">
        <ele>2072.2349</ele>
        <time>2015-09-06T15:28:46Z</time>
      </trkpt>
      <trkpt lat="45.05256" lon="5.92726">
        <ele>2072.2349</ele>
        <time>2015-09-06T15:28:51Z</time>
      </trkpt>
      <trkpt lat="45.05276" lon="5.92708">
        <ele>2066.4656</ele>
        <time>2015-09-06T15:29:21Z</time>
      </trkpt>
      <trkpt lat="45.05275" lon="5.92702">
        <ele>2066.4656</ele>
        <time>2015-09-06T15:29:26Z</time>
      </trkpt>
      <trkpt lat="45.05276" lon="5.92699">
        <ele>2066.4656</ele>
        <time>2015-09-06T15:29:36Z</time>
      </trkpt>
      <trkpt lat="45.05278" lon="5.92698">
        <ele>2066.4656</ele>
        <time>2015-09-06T15:29:41Z</time>
      </trkpt>
      <trkpt lat="45.05279" lon="5.92699">
        <ele>2062.3997</ele>
        <time>2015-09-06T15:29:51Z</time>
      </trkpt>
      <trkpt lat="45.05282" lon="5.92692">
        <ele>2062.3997</ele>
        <time>2015-09-06T15:29:56Z</time>
      </trkpt>
      <trkpt lat="45.05288" lon="5.92684">
        <ele>2058.7598</ele>
        <time>2015-09-06T15:30:06Z</time>
      </trkpt>
      <trkpt lat="45.05292" lon="5.92679">
        <ele>2058.7598</ele>
        <time>2015-09-06T15:30:11Z</time>
      </trkpt>
      <trkpt lat="45.053" lon="5.92669">
        <ele>2055.5134</ele>
        <time>2015-09-06T15:30:21Z</time>
      </trkpt>
      <trkpt lat="45.05306" lon="5.92667">
        <ele>2055.5134</ele>
        <time>2015-09-06T15:30:26Z</time>
      </trkpt>
      <trkpt lat="45.05333" lon="5.92674">
        <ele>2052.7737</ele>
        <time>2015-09-06T15:31:01Z</time>
      </trkpt>
      <trkpt lat="45.05333" lon="5.92672">
        <ele>2052.7737</ele>
        <time>2015-09-06T15:31:06Z</time>
      </trkpt>
      <trkpt lat="45.05333" lon="5.92671">
        <ele>2052.7737</ele>
        <time>2015-09-06T15:31:16Z</time>
      </trkpt>
      <trkpt lat="45.05333" lon="5.92671">
        <ele>2052.7737</ele>
        <time>2015-09-06T15:31:21Z</time>
      </trkpt>
      <trkpt lat="45.05333" lon="5.92671">
        <ele>2052.7737</ele>
        <time>2015-09-06T15:31:56Z</time>
      </trkpt>
      <trkpt lat="45.05333" lon="5.92671">
        <ele>2052.7737</ele>
        <time>2015-09-06T15:32:01Z</time>
      </trkpt>
      <trkpt lat="45.05333" lon="5.92671">
        <ele>2052.7737</ele>
        <time>2015-09-06T15:32:11Z</time>
      </trkpt>
      <trkpt lat="45.05333" lon="5.92671">
        <ele>2052.7737</ele>
        <time>2015-09-06T15:32:16Z</time>
      </trkpt>
      <trkpt lat="45.05333" lon="5.92671">
        <ele>2052.7737</ele>
        <time>2015-09-06T15:32:26Z</time>
      </trkpt>
      <trkpt lat="45.05333" lon="5.92671">
        <ele>2052.7737</ele>
        <time>2015-09-06T15:32:31Z</time>
      </trkpt>
      <trkpt lat="45.05333" lon="5.92671">
        <ele>2052.7737</ele>
        <time>2015-09-06T15:32:41Z</time>
      </trkpt>
      <trkpt lat="45.05333" lon="5.92671">
        <ele>2052.7737</ele>
        <time>2015-09-06T15:32:46Z</time>
      </trkpt>
      <trkpt lat="45.05333" lon="5.92671">
        <ele>2052.7737</ele>
        <time>2015-09-06T15:32:56Z</time>
      </trkpt>
      <trkpt lat="45.05333" lon="5.92671">
        <ele>2052.7737</ele>
        <time>2015-09-06T15:33:01Z</time>
      </trkpt>
      <trkpt lat="45.05333" lon="5.92671">
        <ele>2052.7737</ele>
        <time>2015-09-06T15:33:11Z</time>
      </trkpt>
      <trkpt lat="45.05333" lon="5.92671">
        <ele>2052.7737</ele>
        <time>2015-09-06T15:33:16Z</time>
      </trkpt>
      <trkpt lat="45.05332" lon="5.92672">
        <ele>2052.7737</ele>
        <time>2015-09-06T15:33:31Z</time>
      </trkpt>
      <trkpt lat="45.05331" lon="5.92672">
        <ele>2052.7737</ele>
        <time>2015-09-06T15:33:36Z</time>
      </trkpt>
      <trkpt lat="45.05332" lon="5.9267">
        <ele>2052.7737</ele>
        <time>2015-09-06T15:33:46Z</time>
      </trkpt>
      <trkpt lat="45.05332" lon="5.9267">
        <ele>2052.7737</ele>
        <time>2015-09-06T15:33:51Z</time>
      </trkpt>
      <trkpt lat="45.05332" lon="5.9267">
        <ele>2052.7737</ele>
        <time>2015-09-06T15:34:01Z</time>
      </trkpt>
      <trkpt lat="45.05332" lon="5.92668">
        <ele>2052.7737</ele>
        <time>2015-09-06T15:34:06Z</time>
      </trkpt>
      <trkpt lat="45.05336" lon="5.92664">
        <ele>2049.491</ele>
        <time>2015-09-06T15:34:16Z</time>
      </trkpt>
      <trkpt lat="45.05338" lon="5.9266">
        <ele>2049.491</ele>
        <time>2015-09-06T15:34:21Z</time>
      </trkpt>
      <trkpt lat="45.0534" lon="5.92648">
        <ele>2046.8568</ele>
        <time>2015-09-06T15:34:31Z</time>
      </trkpt>
      <trkpt lat="45.05341" lon="5.92643">
        <ele>2046.8568</ele>
        <time>2015-09-06T15:34:36Z</time>
      </trkpt>
      <trkpt lat="45.05344" lon="5.92637">
        <ele>2044.8195</ele>
        <time>2015-09-06T15:34:46Z</time>
      </trkpt>
      <trkpt lat="45.05346" lon="5.92633">
        <ele>2044.8195</ele>
        <time>2015-09-06T15:34:51Z</time>
      </trkpt>
      <trkpt lat="45.05348" lon="5.92624">
        <ele>2043.6183</ele>
        <time>2015-09-06T15:35:01Z</time>
      </trkpt>
      <trkpt lat="45.05348" lon="5.92625">
        <ele>2043.6183</ele>
        <time>2015-09-06T15:35:06Z</time>
      </trkpt>
      <trkpt lat="45.05345" lon="5.9259">
        <ele>2043.04</ele>
        <time>2015-09-06T15:35:31Z</time>
      </trkpt>
      <trkpt lat="45.05343" lon="5.92582">
        <ele>2043.04</ele>
        <time>2015-09-06T15:35:36Z</time>
      </trkpt>
      <trkpt lat="45.05348" lon="5.92568">
        <ele>2043.6064</ele>
        <time>2015-09-06T15:35:46Z</time>
      </trkpt>
      <trkpt lat="45.05349" lon="5.92557">
        <ele>2043.6064</ele>
        <time>2015-09-06T15:35:51Z</time>
      </trkpt>
      <trkpt lat="45.05353" lon="5.92538">
        <ele>2044.0682</ele>
        <time>2015-09-06T15:36:01Z</time>
      </trkpt>
      <trkpt lat="45.05355" lon="5.92531">
        <ele>2044.0682</ele>
        <time>2015-09-06T15:36:06Z</time>
      </trkpt>
      <trkpt lat="45.05356" lon="5.92522">
        <ele>2044.2771</ele>
        <time>2015-09-06T15:36:16Z</time>
      </trkpt>
      <trkpt lat="45.05354" lon="5.92512">
        <ele>2044.2771</ele>
        <time>2015-09-06T15:36:21Z</time>
      </trkpt>
      <trkpt lat="45.05329" lon="5.92476">
        <ele>2045.6816</ele>
        <time>2015-09-06T15:36:56Z</time>
      </trkpt>
      <trkpt lat="45.05329" lon="5.92466">
        <ele>2045.6816</ele>
        <time>2015-09-06T15:37:01Z</time>
      </trkpt>
      <trkpt lat="45.05322" lon="5.92452">
        <ele>2047.0272</ele>
        <time>2015-09-06T15:37:11Z</time>
      </trkpt>
      <trkpt lat="45.05321" lon="5.92445">
        <ele>2047.0272</ele>
        <time>2015-09-06T15:37:16Z</time>
      </trkpt>
      <trkpt lat="45.05311" lon="5.92432">
        <ele>2047.7279</ele>
        <time>2015-09-06T15:37:26Z</time>
      </trkpt>
      <trkpt lat="45.05306" lon="5.92427">
        <ele>2047.7279</ele>
        <time>2015-09-06T15:37:31Z</time>
      </trkpt>
      <trkpt lat="45.05304" lon="5.92422">
        <ele>2048.6838</ele>
        <time>2015-09-06T15:37:36Z</time>
      </trkpt>
      <trkpt lat="45.05302" lon="5.92421">
        <ele>2048.6838</ele>
        <time>2015-09-06T15:37:41Z</time>
      </trkpt>
      <trkpt lat="45.05301" lon="5.92421">
        <ele>2048.6838</ele>
        <time>2015-09-06T15:37:46Z</time>
      </trkpt>
      <trkpt lat="45.05302" lon="5.9242">
        <ele>2048.6838</ele>
        <time>2015-09-06T15:37:51Z</time>
      </trkpt>
      <trkpt lat="45.05302" lon="5.92409">
        <ele>2050.0083</ele>
        <time>2015-09-06T15:37:56Z</time>
      </trkpt>
      <trkpt lat="45.05297" lon="5.92404">
        <ele>2050.0083</ele>
        <time>2015-09-06T15:38:01Z</time>
      </trkpt>
      <trkpt lat="45.05293" lon="5.92399">
        <ele>2050.941</ele>
        <time>2015-09-06T15:38:06Z</time>
      </trkpt>
      <trkpt lat="45.05289" lon="5.92395">
        <ele>2050.941</ele>
        <time>2015-09-06T15:38:11Z</time>
      </trkpt>
      <trkpt lat="45.05255" lon="5.92346">
        <ele>2053.372</ele>
        <time>2015-09-06T15:38:51Z</time>
      </trkpt>
      <trkpt lat="45.05253" lon="5.9234">
        <ele>2053.372</ele>
        <time>2015-09-06T15:38:56Z</time>
      </trkpt>
      <trkpt lat="45.05251" lon="5.92329">
        <ele>2055.3027</ele>
        <time>2015-09-06T15:39:06Z</time>
      </trkpt>
      <trkpt lat="45.0525" lon="5.92323">
        <ele>2055.3027</ele>
        <time>2015-09-06T15:39:11Z</time>
      </trkpt>
      <trkpt lat="45.05251" lon="5.92316">
        <ele>2057.0444</ele>
        <time>2015-09-06T15:39:21Z</time>
      </trkpt>
      <trkpt lat="45.05255" lon="5.92308">
        <ele>2057.0444</ele>
        <time>2015-09-06T15:39:26Z</time>
      </trkpt>
      <trkpt lat="45.05248" lon="5.92258">
        <ele>2056.4365</ele>
        <time>2015-09-06T15:40:01Z</time>
      </trkpt>
      <trkpt lat="45.05249" lon="5.92247">
        <ele>2056.4365</ele>
        <time>2015-09-06T15:40:06Z</time>
      </trkpt>
      <trkpt lat="45.05251" lon="5.92239">
        <ele>2056.0952</ele>
        <time>2015-09-06T15:40:16Z</time>
      </trkpt>
      <trkpt lat="45.0525" lon="5.92238">
        <ele>2056.0952</ele>
        <time>2015-09-06T15:40:21Z</time>
      </trkpt>
      <trkpt lat="45.0525" lon="5.9224">
        <ele>2056.0952</ele>
        <time>2015-09-06T15:40:31Z</time>
      </trkpt>
      <trkpt lat="45.0525" lon="5.9224">
        <ele>2056.0952</ele>
        <time>2015-09-06T15:40:36Z</time>
      </trkpt>
      <trkpt lat="45.0525" lon="5.9224">
        <ele>2056.0952</ele>
        <time>2015-09-06T15:40:46Z</time>
      </trkpt>
      <trkpt lat="45.0525" lon="5.9224">
        <ele>2056.0952</ele>
        <time>2015-09-06T15:40:51Z</time>
      </trkpt>
      <trkpt lat="45.0525" lon="5.9224">
        <ele>2056.0952</ele>
        <time>2015-09-06T15:41:01Z</time>
      </trkpt>
      <trkpt lat="45.05251" lon="5.92238">
        <ele>2056.0952</ele>
        <time>2015-09-06T15:41:06Z</time>
      </trkpt>
      <trkpt lat="45.0525" lon="5.92237">
        <ele>2056.0952</ele>
        <time>2015-09-06T15:41:16Z</time>
      </trkpt>
      <trkpt lat="45.0525" lon="5.92236">
        <ele>2056.0952</ele>
        <time>2015-09-06T15:41:21Z</time>
      </trkpt>
      <trkpt lat="45.05245" lon="5.92234">
        <ele>2055.7068</ele>
        <time>2015-09-06T15:41:31Z</time>
      </trkpt>
      <trkpt lat="45.05243" lon="5.92235">
        <ele>2055.7068</ele>
        <time>2015-09-06T15:41:36Z</time>
      </trkpt>
      <trkpt lat="45.05236" lon="5.92225">
        <ele>2054.8362</ele>
        <time>2015-09-06T15:41:46Z</time>
      </trkpt>
      <trkpt lat="45.05237" lon="5.9222">
        <ele>2054.8362</ele>
        <time>2015-09-06T15:41:51Z</time>
      </trkpt>
      <trkpt lat="45.05232" lon="5.92215">
        <ele>2053.8027</ele>
        <time>2015-09-06T15:42:06Z</time>
      </trkpt>
      <trkpt lat="45.0523" lon="5.9221">
        <ele>2053.8027</ele>
        <time>2015-09-06T15:42:11Z</time>
      </trkpt>
      <trkpt lat="45.05224" lon="5.92204">
        <ele>2052.183</ele>
        <time>2015-09-06T15:42:21Z</time>
      </trkpt>
      <trkpt lat="45.05229" lon="5.92198">
        <ele>2052.183</ele>
        <time>2015-09-06T15:42:26Z</time>
      </trkpt>
      <trkpt lat="45.05238" lon="5.922">
        <ele>2049.8748</ele>
        <time>2015-09-06T15:42:36Z</time>
      </trkpt>
      <trkpt lat="45.05246" lon="5.92197">
        <ele>2049.8748</ele>
        <time>2015-09-06T15:42:41Z</time>
      </trkpt>
      <trkpt lat="45.05248" lon="5.922">
        <ele>2047.505</ele>
        <time>2015-09-06T15:42:51Z</time>
      </trkpt>
      <trkpt lat="45.05253" lon="5.922">
        <ele>2047.505</ele>
        <time>2015-09-06T15:42:56Z</time>
      </trkpt>
      <trkpt lat="45.05257" lon="5.922">
        <ele>2047.505</ele>
        <time>2015-09-06T15:43:06Z</time>
      </trkpt>
      <trkpt lat="45.0526" lon="5.92198">
        <ele>2044.9358</ele>
        <time>2015-09-06T15:43:11Z</time>
      </trkpt>
      <trkpt lat="45.0527" lon="5.92194">
        <ele>2042.3279</ele>
        <time>2015-09-06T15:43:21Z</time>
      </trkpt>
      <trkpt lat="45.05272" lon="5.92193">
        <ele>2042.3279</ele>
        <time>2015-09-06T15:43:26Z</time>
      </trkpt>
      <trkpt lat="45.05276" lon="5.92192">
        <ele>2042.3279</ele>
        <time>2015-09-06T15:43:36Z</time>
      </trkpt>
      <trkpt lat="45.05276" lon="5.92192">
        <ele>2042.3279</ele>
        <time>2015-09-06T15:43:41Z</time>
      </trkpt>
      <trkpt lat="45.05284" lon="5.92191">
        <ele>2039.1097</ele>
        <time>2015-09-06T15:43:51Z</time>
      </trkpt>
      <trkpt lat="45.0529" lon="5.9219">
        <ele>2039.1097</ele>
        <time>2015-09-06T15:43:56Z</time>
      </trkpt>
      <trkpt lat="45.05304" lon="5.92189">
        <ele>2035.4747</ele>
        <time>2015-09-06T15:44:11Z</time>
      </trkpt>
      <trkpt lat="45.05307" lon="5.92189">
        <ele>2035.4747</ele>
        <time>2015-09-06T15:44:16Z</time>
      </trkpt>
      <trkpt lat="45.05309" lon="5.92189">
        <ele>2035.4747</ele>
        <time>2015-09-06T15:44:26Z</time>
      </trkpt>
      <trkpt lat="45.05316" lon="5.92187">
        <ele>2031.7471</ele>
        <time>2015-09-06T15:44:31Z</time>
      </trkpt>
      <trkpt lat="45.05328" lon="5.92183">
        <ele>2027.5073</ele>
        <time>2015-09-06T15:44:41Z</time>
      </trkpt>
      <trkpt lat="45.05332" lon="5.92183">
        <ele>2027.5073</ele>
        <time>2015-09-06T15:44:46Z</time>
      </trkpt>
      <trkpt lat="45.05334" lon="5.92183">
        <ele>2027.5073</ele>
        <time>2015-09-06T15:44:56Z</time>
      </trkpt>
      <trkpt lat="45.05336" lon="5.92183">
        <ele>2027.5073</ele>
        <time>2015-09-06T15:45:01Z</time>
      </trkpt>
      <trkpt lat="45.05345" lon="5.9218">
        <ele>2022.9445</ele>
        <time>2015-09-06T15:45:11Z</time>
      </trkpt>
      <trkpt lat="45.05347" lon="5.92176">
        <ele>2022.9445</ele>
        <time>2015-09-06T15:45:16Z</time>
      </trkpt>
      <trkpt lat="45.05349" lon="5.92174">
        <ele>2022.9445</ele>
        <time>2015-09-06T15:45:26Z</time>
      </trkpt>
      <trkpt lat="45.0535" lon="5.92173">
        <ele>2022.9445</ele>
        <time>2015-09-06T15:45:31Z</time>
      </trkpt>
      <trkpt lat="45.05343" lon="5.92163">
        <ele>2017.9468</ele>
        <time>2015-09-06T15:45:46Z</time>
      </trkpt>
      <trkpt lat="45.05343" lon="5.92161">
        <ele>2017.9468</ele>
        <time>2015-09-06T15:45:51Z</time>
      </trkpt>
      <trkpt lat="45.05344" lon="5.9216">
        <ele>2017.9468</ele>
        <time>2015-09-06T15:46:01Z</time>
      </trkpt>
      <trkpt lat="45.05344" lon="5.9216">
        <ele>2017.9468</ele>
        <time>2015-09-06T15:46:06Z</time>
      </trkpt>
      <trkpt lat="45.05344" lon="5.9216">
        <ele>2017.9468</ele>
        <time>2015-09-06T15:46:16Z</time>
      </trkpt>
      <trkpt lat="45.05341" lon="5.92157">
        <ele>2017.9468</ele>
        <time>2015-09-06T15:46:21Z</time>
      </trkpt>
      <trkpt lat="45.05332" lon="5.92148">
        <ele>2011.1146</ele>
        <time>2015-09-06T15:46:31Z</time>
      </trkpt>
      <trkpt lat="45.05329" lon="5.92139">
        <ele>2011.1146</ele>
        <time>2015-09-06T15:46:36Z</time>
      </trkpt>
      <trkpt lat="45.05329" lon="5.92129">
        <ele>2004.9036</ele>
        <time>2015-09-06T15:46:46Z</time>
      </trkpt>
      <trkpt lat="45.05324" lon="5.92123">
        <ele>2004.9036</ele>
        <time>2015-09-06T15:46:51Z</time>
      </trkpt>
      <trkpt lat="45.05319" lon="5.92107">
        <ele>1998.7045</ele>
        <time>2015-09-06T15:47:01Z</time>
      </trkpt>
      <trkpt lat="45.05315" lon="5.92102">
        <ele>1998.7045</ele>
        <time>2015-09-06T15:47:06Z</time>
      </trkpt>
      <trkpt lat="45.05308" lon="5.92092">
        <ele>1992.8176</ele>
        <time>2015-09-06T15:47:16Z</time>
      </trkpt>
      <trkpt lat="45.05304" lon="5.92086">
        <ele>1992.8176</ele>
        <time>2015-09-06T15:47:21Z</time>
      </trkpt>
      <trkpt lat="45.05291" lon="5.92072">
        <ele>1986.7999</ele>
        <time>2015-09-06T15:47:36Z</time>
      </trkpt>
      <trkpt lat="45.05286" lon="5.9207">
        <ele>1986.7999</ele>
        <time>2015-09-06T15:47:41Z</time>
      </trkpt>
      <trkpt lat="45.05281" lon="5.92073">
        <ele>1980.9614</ele>
        <time>2015-09-06T15:47:51Z</time>
      </trkpt>
      <trkpt lat="45.05281" lon="5.92065">
        <ele>1980.9614</ele>
        <time>2015-09-06T15:47:56Z</time>
      </trkpt>
      <trkpt lat="45.0528" lon="5.92061">
        <ele>1980.9614</ele>
        <time>2015-09-06T15:48:06Z</time>
      </trkpt>
      <trkpt lat="45.0528" lon="5.9206">
        <ele>1975.7328</ele>
        <time>2015-09-06T15:48:11Z</time>
      </trkpt>
      <trkpt lat="45.0528" lon="5.9206">
        <ele>1975.7328</ele>
        <time>2015-09-06T15:48:21Z</time>
      </trkpt>
      <trkpt lat="45.05274" lon="5.92052">
        <ele>1975.7328</ele>
        <time>2015-09-06T15:48:26Z</time>
      </trkpt>
      <trkpt lat="45.05266" lon="5.92048">
        <ele>1969.4937</ele>
        <time>2015-09-06T15:48:36Z</time>
      </trkpt>
      <trkpt lat="45.05264" lon="5.92045">
        <ele>1969.4937</ele>
        <time>2015-09-06T15:48:41Z</time>
      </trkpt>
      <trkpt lat="45.05259" lon="5.92038">
        <ele>1963.7717</ele>
        <time>2015-09-06T15:48:51Z</time>
      </trkpt>
      <trkpt lat="45.05257" lon="5.92036">
        <ele>1963.7717</ele>
        <time>2015-09-06T15:48:56Z</time>
      </trkpt>
      <trkpt lat="45.05255" lon="5.92023">
        <ele>1958.5397</ele>
        <time>2015-09-06T15:49:06Z</time>
      </trkpt>
      <trkpt lat="45.05254" lon="5.92021">
        <ele>1958.5397</ele>
        <time>2015-09-06T15:49:11Z</time>
      </trkpt>
      <trkpt lat="45.05254" lon="5.92018">
        <ele>1958.5397</ele>
        <time>2015-09-06T15:49:26Z</time>
      </trkpt>
      <trkpt lat="45.05254" lon="5.92016">
        <ele>1958.5397</ele>
        <time>2015-09-06T15:49:31Z</time>
      </trkpt>
      <trkpt lat="45.05255" lon="5.92012">
        <ele>1958.5397</ele>
        <time>2015-09-06T15:49:41Z</time>
      </trkpt>
      <trkpt lat="45.05255" lon="5.92012">
        <ele>1958.5397</ele>
        <time>2015-09-06T15:49:46Z</time>
      </trkpt>
      <trkpt lat="45.05255" lon="5.92012">
        <ele>1958.5397</ele>
        <time>2015-09-06T15:49:56Z</time>
      </trkpt>
      <trkpt lat="45.05255" lon="5.92012">
        <ele>1958.5397</ele>
        <time>2015-09-06T15:50:01Z</time>
      </trkpt>
      <trkpt lat="45.05255" lon="5.92011">
        <ele>1953.4824</ele>
        <time>2015-09-06T15:50:11Z</time>
      </trkpt>
      <trkpt lat="45.05255" lon="5.92004">
        <ele>1953.4824</ele>
        <time>2015-09-06T15:50:16Z</time>
      </trkpt>
      <trkpt lat="45.05251" lon="5.91997">
        <ele>1948.307</ele>
        <time>2015-09-06T15:50:26Z</time>
      </trkpt>
      <trkpt lat="45.05251" lon="5.91993">
        <ele>1948.307</ele>
        <time>2015-09-06T15:50:31Z</time>
      </trkpt>
      <trkpt lat="45.05246" lon="5.91978">
        <ele>1942.4541</ele>
        <time>2015-09-06T15:50:46Z</time>
      </trkpt>
      <trkpt lat="45.05247" lon="5.91973">
        <ele>1942.4541</ele>
        <time>2015-09-06T15:50:51Z</time>
      </trkpt>
      <trkpt lat="45.05245" lon="5.91969">
        <ele>1942.4541</ele>
        <time>2015-09-06T15:51:01Z</time>
      </trkpt>
      <trkpt lat="45.05244" lon="5.91968">
        <ele>1942.4541</ele>
        <time>2015-09-06T15:51:06Z</time>
      </trkpt>
      <trkpt lat="45.05242" lon="5.91967">
        <ele>1935.2632</ele>
        <time>2015-09-06T15:51:16Z</time>
      </trkpt>
      <trkpt lat="45.05241" lon="5.91967">
        <ele>1935.2632</ele>
        <time>2015-09-06T15:51:21Z</time>
      </trkpt>
      <trkpt lat="45.05237" lon="5.91957">
        <ele>1935.2632</ele>
        <time>2015-09-06T15:51:31Z</time>
      </trkpt>
      <trkpt lat="45.05231" lon="5.91954">
        <ele>1929.0074</ele>
        <time>2015-09-06T15:51:36Z</time>
      </trkpt>
      <trkpt lat="45.05229" lon="5.9195">
        <ele>1929.0074</ele>
        <time>2015-09-06T15:51:46Z</time>
      </trkpt>
      <trkpt lat="45.05229" lon="5.9195">
        <ele>1929.0074</ele>
        <time>2015-09-06T15:51:51Z</time>
      </trkpt>
      <trkpt lat="45.05228" lon="5.91949">
        <ele>1929.0074</ele>
        <time>2015-09-06T15:52:01Z</time>
      </trkpt>
      <trkpt lat="45.05228" lon="5.91946">
        <ele>1929.0074</ele>
        <time>2015-09-06T15:52:06Z</time>
      </trkpt>
      <trkpt lat="45.05226" lon="5.91941">
        <ele>1922.7642</ele>
        <time>2015-09-06T15:52:16Z</time>
      </trkpt>
      <trkpt lat="45.05226" lon="5.91941">
        <ele>1922.7642</ele>
        <time>2015-09-06T15:52:21Z</time>
      </trkpt>
      <trkpt lat="45.05226" lon="5.91941">
        <ele>1922.7642</ele>
        <time>2015-09-06T15:52:36Z</time>
      </trkpt>
      <trkpt lat="45.05226" lon="5.91941">
        <ele>1922.7642</ele>
        <time>2015-09-06T15:52:41Z</time>
      </trkpt>
      <trkpt lat="45.05226" lon="5.91941">
        <ele>1922.7642</ele>
        <time>2015-09-06T15:52:51Z</time>
      </trkpt>
      <trkpt lat="45.05226" lon="5.9194">
        <ele>1922.7642</ele>
        <time>2015-09-06T15:52:56Z</time>
      </trkpt>
      <trkpt lat="45.05218" lon="5.91933">
        <ele>1916.5427</ele>
        <time>2015-09-06T15:53:06Z</time>
      </trkpt>
      <trkpt lat="45.05215" lon="5.9193">
        <ele>1916.5427</ele>
        <time>2015-09-06T15:53:11Z</time>
      </trkpt>
      <trkpt lat="45.05219" lon="5.91919">
        <ele>1910.7838</ele>
        <time>2015-09-06T15:53:21Z</time>
      </trkpt>
      <trkpt lat="45.05217" lon="5.91917">
        <ele>1910.7838</ele>
        <time>2015-09-06T15:53:26Z</time>
      </trkpt>
      <trkpt lat="45.05216" lon="5.91916">
        <ele>1910.7838</ele>
        <time>2015-09-06T15:53:36Z</time>
      </trkpt>
      <trkpt lat="45.05215" lon="5.91916">
        <ele>1910.7838</ele>
        <time>2015-09-06T15:53:41Z</time>
      </trkpt>
      <trkpt lat="45.0521" lon="5.91903">
        <ele>1905.6058</ele>
        <time>2015-09-06T15:53:51Z</time>
      </trkpt>
      <trkpt lat="45.05209" lon="5.91899">
        <ele>1905.6058</ele>
        <time>2015-09-06T15:53:56Z</time>
      </trkpt>
      <trkpt lat="45.05198" lon="5.91885">
        <ele>1899.6754</ele>
        <time>2015-09-06T15:54:31Z</time>
      </trkpt>
      <trkpt lat="45.05196" lon="5.91866">
        <ele>1893.9207</ele>
        <time>2015-09-06T15:54:36Z</time>
      </trkpt>
      <trkpt lat="45.05195" lon="5.91851">
        <ele>1887.9037</ele>
        <time>2015-09-06T15:54:46Z</time>
      </trkpt>
      <trkpt lat="45.05197" lon="5.91845">
        <ele>1887.9037</ele>
        <time>2015-09-06T15:54:51Z</time>
      </trkpt>
      <trkpt lat="45.05197" lon="5.91837">
        <ele>1881.7955</ele>
        <time>2015-09-06T15:55:01Z</time>
      </trkpt>
      <trkpt lat="45.05198" lon="5.91828">
        <ele>1881.7955</ele>
        <time>2015-09-06T15:55:06Z</time>
      </trkpt>
      <trkpt lat="45.05199" lon="5.91823">
        <ele>1876.4755</ele>
        <time>2015-09-06T15:55:16Z</time>
      </trkpt>
      <trkpt lat="45.05199" lon="5.91817">
        <ele>1876.4755</ele>
        <time>2015-09-06T15:55:21Z</time>
      </trkpt>
      <trkpt lat="45.052" lon="5.91806">
        <ele>1871.3142</ele>
        <time>2015-09-06T15:55:31Z</time>
      </trkpt>
      <trkpt lat="45.05199" lon="5.91804">
        <ele>1871.3142</ele>
        <time>2015-09-06T15:55:36Z</time>
      </trkpt>
      <trkpt lat="45.05199" lon="5.91804">
        <ele>1871.3142</ele>
        <time>2015-09-06T15:55:46Z</time>
      </trkpt>
      <trkpt lat="45.052" lon="5.91802">
        <ele>1871.3142</ele>
        <time>2015-09-06T15:55:51Z</time>
      </trkpt>
      <trkpt lat="45.05199" lon="5.91791">
        <ele>1866.0164</ele>
        <time>2015-09-06T15:56:01Z</time>
      </trkpt>
      <trkpt lat="45.05199" lon="5.91781">
        <ele>1866.0164</ele>
        <time>2015-09-06T15:56:06Z</time>
      </trkpt>
      <trkpt lat="45.05189" lon="5.91767">
        <ele>1860.7406</ele>
        <time>2015-09-06T15:56:21Z</time>
      </trkpt>
      <trkpt lat="45.0519" lon="5.91764">
        <ele>1860.7406</ele>
        <time>2015-09-06T15:56:26Z</time>
      </trkpt>
      <trkpt lat="45.0519" lon="5.91762">
        <ele>1860.7406</ele>
        <time>2015-09-06T15:56:36Z</time>
      </trkpt>
      <trkpt lat="45.0519" lon="5.91762">
        <ele>1860.7406</ele>
        <time>2015-09-06T15:56:41Z</time>
      </trkpt>
      <trkpt lat="45.05194" lon="5.9175">
        <ele>1855.6337</ele>
        <time>2015-09-06T15:56:51Z</time>
      </trkpt>
      <trkpt lat="45.05196" lon="5.91747">
        <ele>1855.6337</ele>
        <time>2015-09-06T15:56:56Z</time>
      </trkpt>
      <trkpt lat="45.05197" lon="5.91747">
        <ele>1855.6337</ele>
        <time>2015-09-06T15:57:06Z</time>
      </trkpt>
      <trkpt lat="45.05197" lon="5.91747">
        <ele>1855.6337</ele>
        <time>2015-09-06T15:57:11Z</time>
      </trkpt>
      <trkpt lat="45.05197" lon="5.91747">
        <ele>1855.6337</ele>
        <time>2015-09-06T15:57:21Z</time>
      </trkpt>
      <trkpt lat="45.05197" lon="5.91747">
        <ele>1855.6337</ele>
        <time>2015-09-06T15:57:26Z</time>
      </trkpt>
      <trkpt lat="45.05197" lon="5.91747">
        <ele>1855.6337</ele>
        <time>2015-09-06T15:57:36Z</time>
      </trkpt>
      <trkpt lat="45.05197" lon="5.91747">
        <ele>1855.6337</ele>
        <time>2015-09-06T15:57:41Z</time>
      </trkpt>
      <trkpt lat="45.05197" lon="5.91747">
        <ele>1855.6337</ele>
        <time>2015-09-06T15:57:51Z</time>
      </trkpt>
      <trkpt lat="45.05197" lon="5.91747">
        <ele>1855.6337</ele>
        <time>2015-09-06T15:57:56Z</time>
      </trkpt>
      <trkpt lat="45.05197" lon="5.91747">
        <ele>1855.6337</ele>
        <time>2015-09-06T15:58:06Z</time>
      </trkpt>
      <trkpt lat="45.05197" lon="5.91747">
        <ele>1855.6337</ele>
        <time>2015-09-06T15:58:11Z</time>
      </trkpt>
      <trkpt lat="45.05197" lon="5.91747">
        <ele>1855.6337</ele>
        <time>2015-09-06T15:58:21Z</time>
      </trkpt>
      <trkpt lat="45.05197" lon="5.91747">
        <ele>1855.6337</ele>
        <time>2015-09-06T15:58:26Z</time>
      </trkpt>
      <trkpt lat="45.05197" lon="5.91746">
        <ele>1855.6337</ele>
        <time>2015-09-06T15:58:41Z</time>
      </trkpt>
      <trkpt lat="45.05197" lon="5.91746">
        <ele>1855.6337</ele>
        <time>2015-09-06T15:58:46Z</time>
      </trkpt>
      <trkpt lat="45.05197" lon="5.91746">
        <ele>1855.6337</ele>
        <time>2015-09-06T15:58:56Z</time>
      </trkpt>
      <trkpt lat="45.05195" lon="5.91741">
        <ele>1855.6337</ele>
        <time>2015-09-06T15:59:01Z</time>
      </trkpt>
      <trkpt lat="45.05193" lon="5.9173">
        <ele>1849.6779</ele>
        <time>2015-09-06T15:59:11Z</time>
      </trkpt>
      <trkpt lat="45.05193" lon="5.91728">
        <ele>1849.6779</ele>
        <time>2015-09-06T15:59:16Z</time>
      </trkpt>
      <trkpt lat="45.05191" lon="5.91725">
        <ele>1849.6779</ele>
        <time>2015-09-06T15:59:26Z</time>
      </trkpt>
      <trkpt lat="45.05191" lon="5.91722">
        <ele>1849.6779</ele>
        <time>2015-09-06T15:59:31Z</time>
      </trkpt>
      <trkpt lat="45.05189" lon="5.91707">
        <ele>1843.8055</ele>
        <time>2015-09-06T15:59:41Z</time>
      </trkpt>
      <trkpt lat="45.05191" lon="5.917">
        <ele>1843.8055</ele>
        <time>2015-09-06T15:59:46Z</time>
      </trkpt>
      <trkpt lat="45.05191" lon="5.91681">
        <ele>1837.0072</ele>
        <time>2015-09-06T16:00:01Z</time>
      </trkpt>
      <trkpt lat="45.05189" lon="5.91675">
        <ele>1837.0072</ele>
        <time>2015-09-06T16:00:06Z</time>
      </trkpt>
      <trkpt lat="45.0519" lon="5.9167">
        <ele>1837.0072</ele>
        <time>2015-09-06T16:00:16Z</time>
      </trkpt>
      <trkpt lat="45.05189" lon="5.91669">
        <ele>1837.0072</ele>
        <time>2015-09-06T16:00:21Z</time>
      </trkpt>
      <trkpt lat="45.05184" lon="5.9165">
        <ele>1829.3579</ele>
        <time>2015-09-06T16:00:31Z</time>
      </trkpt>
      <trkpt lat="45.05184" lon="5.9164">
        <ele>1829.3579</ele>
        <time>2015-09-06T16:00:36Z</time>
      </trkpt>
      <trkpt lat="45.05182" lon="5.91626">
        <ele>1822.227</ele>
        <time>2015-09-06T16:00:46Z</time>
      </trkpt>
      <trkpt lat="45.05179" lon="5.91617">
        <ele>1822.227</ele>
        <time>2015-09-06T16:00:51Z</time>
      </trkpt>
      <trkpt lat="45.0518" lon="5.91611">
        <ele>1815.5841</ele>
        <time>2015-09-06T16:01:01Z</time>
      </trkpt>
      <trkpt lat="45.05178" lon="5.91603">
        <ele>1815.5841</ele>
        <time>2015-09-06T16:01:06Z</time>
      </trkpt>
      <trkpt lat="45.05175" lon="5.91589">
        <ele>1809.3994</ele>
        <time>2015-09-06T16:01:16Z</time>
      </trkpt>
      <trkpt lat="45.05176" lon="5.91581">
        <ele>1809.3994</ele>
        <time>2015-09-06T16:01:21Z</time>
      </trkpt>
      <trkpt lat="45.05177" lon="5.91569">
        <ele>1803.7882</ele>
        <time>2015-09-06T16:01:31Z</time>
      </trkpt>
      <trkpt lat="45.05177" lon="5.91567">
        <ele>1803.7882</ele>
        <time>2015-09-06T16:01:36Z</time>
      </trkpt>
      <trkpt lat="45.05177" lon="5.91566">
        <ele>1803.7882</ele>
        <time>2015-09-06T16:01:46Z</time>
      </trkpt>
      <trkpt lat="45.05177" lon="5.91566">
        <ele>1803.7882</ele>
        <time>2015-09-06T16:01:51Z</time>
      </trkpt>
      <trkpt lat="45.05173" lon="5.91555">
        <ele>1797.9905</ele>
        <time>2015-09-06T16:02:06Z</time>
      </trkpt>
      <trkpt lat="45.05171" lon="5.91551">
        <ele>1797.9905</ele>
        <time>2015-09-06T16:02:11Z</time>
      </trkpt>
      <trkpt lat="45.05169" lon="5.91538">
        <ele>1792.167</ele>
        <time>2015-09-06T16:02:21Z</time>
      </trkpt>
      <trkpt lat="45.05166" lon="5.91528">
        <ele>1792.167</ele>
        <time>2015-09-06T16:02:26Z</time>
      </trkpt>
      <trkpt lat="45.0516" lon="5.9151">
        <ele>1786.899</ele>
        <time>2015-09-06T16:02:36Z</time>
      </trkpt>
      <trkpt lat="45.05157" lon="5.91503">
        <ele>1786.899</ele>
        <time>2015-09-06T16:02:41Z</time>
      </trkpt>
      <trkpt lat="45.05158" lon="5.91491">
        <ele>1781.4263</ele>
        <time>2015-09-06T16:02:51Z</time>
      </trkpt>
      <trkpt lat="45.05158" lon="5.91487">
        <ele>1781.4263</ele>
        <time>2015-09-06T16:02:56Z</time>
      </trkpt>
      <trkpt lat="45.05158" lon="5.91478">
        <ele>1775.9092</ele>
        <time>2015-09-06T16:03:06Z</time>
      </trkpt>
      <trkpt lat="45.05157" lon="5.91469">
        <ele>1775.9092</ele>
        <time>2015-09-06T16:03:11Z</time>
      </trkpt>
      <trkpt lat="45.05159" lon="5.91454">
        <ele>1771.9379</ele>
        <time>2015-09-06T16:03:21Z</time>
      </trkpt>
      <trkpt lat="45.05159" lon="5.91444">
        <ele>1771.9379</ele>
        <time>2015-09-06T16:03:26Z</time>
      </trkpt>
      <trkpt lat="45.05153" lon="5.91427">
        <ele>1769.2512</ele>
        <time>2015-09-06T16:03:36Z</time>
      </trkpt>
      <trkpt lat="45.05153" lon="5.91421">
        <ele>1769.2512</ele>
        <time>2015-09-06T16:03:41Z</time>
      </trkpt>
      <trkpt lat="45.0515" lon="5.91414">
        <ele>1767.1716</ele>
        <time>2015-09-06T16:03:51Z</time>
      </trkpt>
      <trkpt lat="45.0515" lon="5.91413">
        <ele>1767.1716</ele>
        <time>2015-09-06T16:03:56Z</time>
      </trkpt>
      <trkpt lat="45.05134" lon="5.91397">
        <ele>1765.7898</ele>
        <time>2015-09-06T16:04:06Z</time>
      </trkpt>
      <trkpt lat="45.05135" lon="5.91396">
        <ele>1765.7898</ele>
        <time>2015-09-06T16:04:11Z</time>
      </trkpt>
      <trkpt lat="45.05136" lon="5.91391">
        <ele>1765.7898</ele>
        <time>2015-09-06T16:04:21Z</time>
      </trkpt>
      <trkpt lat="45.05135" lon="5.91391">
        <ele>1765.7898</ele>
        <time>2015-09-06T16:04:26Z</time>
      </trkpt>
      <trkpt lat="45.05126" lon="5.91385">
        <ele>1764.4672</ele>
        <time>2015-09-06T16:04:36Z</time>
      </trkpt>
      <trkpt lat="45.05125" lon="5.91384">
        <ele>1764.4672</ele>
        <time>2015-09-06T16:04:41Z</time>
      </trkpt>
      <trkpt lat="45.05124" lon="5.91381">
        <ele>1764.4672</ele>
        <time>2015-09-06T16:04:51Z</time>
      </trkpt>
      <trkpt lat="45.05124" lon="5.91381">
        <ele>1764.4672</ele>
        <time>2015-09-06T16:04:56Z</time>
      </trkpt>
      <trkpt lat="45.05118" lon="5.9138">
        <ele>1762.3237</ele>
        <time>2015-09-06T16:05:11Z</time>
      </trkpt>
      <trkpt lat="45.05112" lon="5.91375">
        <ele>1762.3237</ele>
        <time>2015-09-06T16:05:16Z</time>
      </trkpt>
      <trkpt lat="45.05104" lon="5.91361">
        <ele>1759.8434</ele>
        <time>2015-09-06T16:05:26Z</time>
      </trkpt>
      <trkpt lat="45.05102" lon="5.91359">
        <ele>1759.8434</ele>
        <time>2015-09-06T16:05:31Z</time>
      </trkpt>
      <trkpt lat="45.05101" lon="5.91357">
        <ele>1759.8434</ele>
        <time>2015-09-06T16:05:41Z</time>
      </trkpt>
      <trkpt lat="45.05101" lon="5.91357">
        <ele>1759.8434</ele>
        <time>2015-09-06T16:05:46Z</time>
      </trkpt>
      <trkpt lat="45.05088" lon="5.91343">
        <ele>1756.8988</ele>
        <time>2015-09-06T16:05:56Z</time>
      </trkpt>
      <trkpt lat="45.05082" lon="5.91337">
        <ele>1756.8988</ele>
        <time>2015-09-06T16:06:01Z</time>
      </trkpt>
      <trkpt lat="45.05082" lon="5.91313">
        <ele>1754.0941</ele>
        <time>2015-09-06T16:06:11Z</time>
      </trkpt>
      <trkpt lat="45.0508" lon="5.91307">
        <ele>1754.0941</ele>
        <time>2015-09-06T16:06:16Z</time>
      </trkpt>
      <trkpt lat="45.05069" lon="5.91298">
        <ele>1751.7006</ele>
        <time>2015-09-06T16:06:26Z</time>
      </trkpt>
      <trkpt lat="45.0507" lon="5.91296">
        <ele>1751.7006</ele>
        <time>2015-09-06T16:06:31Z</time>
      </trkpt>
      <trkpt lat="45.05067" lon="5.91295">
        <ele>1751.7006</ele>
        <time>2015-09-06T16:06:41Z</time>
      </trkpt>
      <trkpt lat="45.05067" lon="5.91294">
        <ele>1751.7006</ele>
        <time>2015-09-06T16:06:46Z</time>
      </trkpt>
      <trkpt lat="45.05067" lon="5.91294">
        <ele>1751.7006</ele>
        <time>2015-09-06T16:06:56Z</time>
      </trkpt>
      <trkpt lat="45.05069" lon="5.91285">
        <ele>1748.9592</ele>
        <time>2015-09-06T16:07:01Z</time>
      </trkpt>
      <trkpt lat="45.05066" lon="5.9128">
        <ele>1748.9592</ele>
        <time>2015-09-06T16:07:16Z</time>
      </trkpt>
      <trkpt lat="45.05064" lon="5.91274">
        <ele>1746.4653</ele>
        <time>2015-09-06T16:07:21Z</time>
      </trkpt>
      <trkpt lat="45.05058" lon="5.91256">
        <ele>1744.914</ele>
        <time>2015-09-06T16:07:31Z</time>
      </trkpt>
      <trkpt lat="45.05056" lon="5.91251">
        <ele>1744.914</ele>
        <time>2015-09-06T16:07:36Z</time>
      </trkpt>
      <trkpt lat="45.05053" lon="5.9124">
        <ele>1744.0814</ele>
        <time>2015-09-06T16:07:46Z</time>
      </trkpt>
      <trkpt lat="45.05052" lon="5.91237">
        <ele>1744.0814</ele>
        <time>2015-09-06T16:07:51Z</time>
      </trkpt>
      <trkpt lat="45.05054" lon="5.91228">
        <ele>1744.0814</ele>
        <time>2015-09-06T16:08:01Z</time>
      </trkpt>
      <trkpt lat="45.05053" lon="5.91227">
        <ele>1743.1829</ele>
        <time>2015-09-06T16:08:06Z</time>
      </trkpt>
      <trkpt lat="45.05053" lon="5.91227">
        <ele>1743.1829</ele>
        <time>2015-09-06T16:08:16Z</time>
      </trkpt>
      <trkpt lat="45.05053" lon="5.91226">
        <ele>1743.1829</ele>
        <time>2015-09-06T16:08:21Z</time>
      </trkpt>
      <trkpt lat="45.05053" lon="5.91226">
        <ele>1743.1829</ele>
        <time>2015-09-06T16:08:31Z</time>
      </trkpt>
      <trkpt lat="45.05053" lon="5.91226">
        <ele>1743.1829</ele>
        <time>2015-09-06T16:08:36Z</time>
      </trkpt>
      <trkpt lat="45.05052" lon="5.91214">
        <ele>1743.1829</ele>
        <time>2015-09-06T16:08:51Z</time>
      </trkpt>
      <trkpt lat="45.05053" lon="5.91213">
        <ele>1741.2025</ele>
        <time>2015-09-06T16:08:56Z</time>
      </trkpt>
      <trkpt lat="45.05053" lon="5.91213">
        <ele>1741.2025</ele>
        <time>2015-09-06T16:09:06Z</time>
      </trkpt>
      <trkpt lat="45.05053" lon="5.91213">
        <ele>1741.2025</ele>
        <time>2015-09-06T16:09:11Z</time>
      </trkpt>
      <trkpt lat="45.05053" lon="5.91213">
        <ele>1741.2025</ele>
        <time>2015-09-06T16:09:21Z</time>
      </trkpt>
      <trkpt lat="45.05054" lon="5.91206">
        <ele>1741.2025</ele>
        <time>2015-09-06T16:09:26Z</time>
      </trkpt>
      <trkpt lat="45.05053" lon="5.91203">
        <ele>1741.2025</ele>
        <time>2015-09-06T16:09:36Z</time>
      </trkpt>
      <trkpt lat="45.05053" lon="5.91203">
        <ele>1741.2025</ele>
        <time>2015-09-06T16:09:41Z</time>
      </trkpt>
      <trkpt lat="45.05052" lon="5.91189">
        <ele>1739.2206</ele>
        <time>2015-09-06T16:09:51Z</time>
      </trkpt>
      <trkpt lat="45.05052" lon="5.91188">
        <ele>1739.2206</ele>
        <time>2015-09-06T16:09:56Z</time>
      </trkpt>
      <trkpt lat="45.05051" lon="5.91186">
        <ele>1739.2206</ele>
        <time>2015-09-06T16:10:06Z</time>
      </trkpt>
      <trkpt lat="45.05051" lon="5.91181">
        <ele>1739.2206</ele>
        <time>2015-09-06T16:10:11Z</time>
      </trkpt>
      <trkpt lat="45.05039" lon="5.91166">
        <ele>1737.373</ele>
        <time>2015-09-06T16:10:21Z</time>
      </trkpt>
      <trkpt lat="45.05037" lon="5.91163">
        <ele>1737.373</ele>
        <time>2015-09-06T16:10:26Z</time>
      </trkpt>
      <trkpt lat="45.05037" lon="5.91159">
        <ele>1737.373</ele>
        <time>2015-09-06T16:10:36Z</time>
      </trkpt>
      <trkpt lat="45.05037" lon="5.91159">
        <ele>1737.373</ele>
        <time>2015-09-06T16:10:41Z</time>
      </trkpt>
      <trkpt lat="45.05031" lon="5.91143">
        <ele>1736.0741</ele>
        <time>2015-09-06T16:10:51Z</time>
      </trkpt>
      <trkpt lat="45.05031" lon="5.91138">
        <ele>1736.0741</ele>
        <time>2015-09-06T16:10:56Z</time>
      </trkpt>
      <trkpt lat="45.05032" lon="5.91138">
        <ele>1736.0741</ele>
        <time>2015-09-06T16:11:06Z</time>
      </trkpt>
      <trkpt lat="45.05032" lon="5.91138">
        <ele>1736.0741</ele>
        <time>2015-09-06T16:11:11Z</time>
      </trkpt>
      <trkpt lat="45.05032" lon="5.91138">
        <ele>1736.0741</ele>
        <time>2015-09-06T16:11:21Z</time>
      </trkpt>
      <trkpt lat="45.05032" lon="5.91138">
        <ele>1736.0741</ele>
        <time>2015-09-06T16:11:26Z</time>
      </trkpt>
      <trkpt lat="45.05032" lon="5.91138">
        <ele>1736.0741</ele>
        <time>2015-09-06T16:11:41Z</time>
      </trkpt>
      <trkpt lat="45.05031" lon="5.91132">
        <ele>1733.9768</ele>
        <time>2015-09-06T16:11:46Z</time>
      </trkpt>
      <trkpt lat="45.05032" lon="5.91126">
        <ele>1733.9768</ele>
        <time>2015-09-06T16:11:56Z</time>
      </trkpt>
      <trkpt lat="45.05033" lon="5.91124">
        <ele>1733.9768</ele>
        <time>2015-09-06T16:12:01Z</time>
      </trkpt>
      <trkpt lat="45.05035" lon="5.91118">
        <ele>1732.1416</ele>
        <time>2015-09-06T16:12:11Z</time>
      </trkpt>
      <trkpt lat="45.05035" lon="5.91116">
        <ele>1732.1416</ele>
        <time>2015-09-06T16:12:16Z</time>
      </trkpt>
      <trkpt lat="45.05039" lon="5.91102">
        <ele>1730.109</ele>
        <time>2015-09-06T16:12:26Z</time>
      </trkpt>
      <trkpt lat="45.05041" lon="5.91099">
        <ele>1730.109</ele>
        <time>2015-09-06T16:12:31Z</time>
      </trkpt>
      <trkpt lat="45.05042" lon="5.91097">
        <ele>1730.109</ele>
        <time>2015-09-06T16:12:41Z</time>
      </trkpt>
      <trkpt lat="45.05043" lon="5.91095">
        <ele>1730.109</ele>
        <time>2015-09-06T16:12:46Z</time>
      </trkpt>
      <trkpt lat="45.05047" lon="5.91083">
        <ele>1728.1752</ele>
        <time>2015-09-06T16:12:56Z</time>
      </trkpt>
      <trkpt lat="45.05052" lon="5.9108">
        <ele>1728.1752</ele>
        <time>2015-09-06T16:13:01Z</time>
      </trkpt>
      <trkpt lat="45.05056" lon="5.91066">
        <ele>1726.1815</ele>
        <time>2015-09-06T16:13:16Z</time>
      </trkpt>
      <trkpt lat="45.0506" lon="5.91058">
        <ele>1726.1815</ele>
        <time>2015-09-06T16:13:21Z</time>
      </trkpt>
      <trkpt lat="45.05061" lon="5.91048">
        <ele>1725.279</ele>
        <time>2015-09-06T16:13:31Z</time>
      </trkpt>
      <trkpt lat="45.05061" lon="5.9104">
        <ele>1725.279</ele>
        <time>2015-09-06T16:13:36Z</time>
      </trkpt>
      <trkpt lat="45.05061" lon="5.91033">
        <ele>1724.3695</ele>
        <time>2015-09-06T16:13:46Z</time>
      </trkpt>
      <trkpt lat="45.05058" lon="5.91022">
        <ele>1724.3695</ele>
        <time>2015-09-06T16:13:51Z</time>
      </trkpt>
      <trkpt lat="45.05057" lon="5.91007">
        <ele>1723.0121</ele>
        <time>2015-09-06T16:14:01Z</time>
      </trkpt>
      <trkpt lat="45.05059" lon="5.91004">
        <ele>1723.0121</ele>
        <time>2015-09-06T16:14:06Z</time>
      </trkpt>
      <trkpt lat="45.05061" lon="5.91002">
        <ele>1723.0121</ele>
        <time>2015-09-06T16:14:16Z</time>
      </trkpt>
      <trkpt lat="45.05063" lon="5.90993">
        <ele>1722.2408</ele>
        <time>2015-09-06T16:14:21Z</time>
      </trkpt>
      <trkpt lat="45.0507" lon="5.9097">
        <ele>1720.9951</ele>
        <time>2015-09-06T16:14:36Z</time>
      </trkpt>
      <trkpt lat="45.05073" lon="5.90961">
        <ele>1720.9951</ele>
        <time>2015-09-06T16:14:41Z</time>
      </trkpt>
      <trkpt lat="45.05075" lon="5.90947">
        <ele>1719.8789</ele>
        <time>2015-09-06T16:14:51Z</time>
      </trkpt>
      <trkpt lat="45.05078" lon="5.9094">
        <ele>1719.8789</ele>
        <time>2015-09-06T16:14:56Z</time>
      </trkpt>
      <trkpt lat="45.05078" lon="5.90926">
        <ele>1718.587</ele>
        <time>2015-09-06T16:15:06Z</time>
      </trkpt>
      <trkpt lat="45.0508" lon="5.90922">
        <ele>1718.587</ele>
        <time>2015-09-06T16:15:11Z</time>
      </trkpt>
      <trkpt lat="45.05081" lon="5.90921">
        <ele>1718.587</ele>
        <time>2015-09-06T16:15:21Z</time>
      </trkpt>
      <trkpt lat="45.05083" lon="5.90914">
        <ele>1716.9817</ele>
        <time>2015-09-06T16:15:26Z</time>
      </trkpt>
      <trkpt lat="45.05085" lon="5.90896">
        <ele>1715.8011</ele>
        <time>2015-09-06T16:15:36Z</time>
      </trkpt>
      <trkpt lat="45.05088" lon="5.90889">
        <ele>1715.8011</ele>
        <time>2015-09-06T16:15:41Z</time>
      </trkpt>
      <trkpt lat="45.0509" lon="5.90871">
        <ele>1713.9988</ele>
        <time>2015-09-06T16:15:51Z</time>
      </trkpt>
      <trkpt lat="45.05092" lon="5.90865">
        <ele>1713.9988</ele>
        <time>2015-09-06T16:15:56Z</time>
      </trkpt>
      <trkpt lat="45.05091" lon="5.90851">
        <ele>1712.6249</ele>
        <time>2015-09-06T16:16:06Z</time>
      </trkpt>
      <trkpt lat="45.05095" lon="5.90847">
        <ele>1712.6249</ele>
        <time>2015-09-06T16:16:11Z</time>
      </trkpt>
      <trkpt lat="45.051" lon="5.90835">
        <ele>1711.3542</ele>
        <time>2015-09-06T16:16:26Z</time>
      </trkpt>
      <trkpt lat="45.05097" lon="5.90828">
        <ele>1711.3542</ele>
        <time>2015-09-06T16:16:31Z</time>
      </trkpt>
      <trkpt lat="45.05096" lon="5.9082">
        <ele>1710.3182</ele>
        <time>2015-09-06T16:16:41Z</time>
      </trkpt>
      <trkpt lat="45.05096" lon="5.90817">
        <ele>1710.3182</ele>
        <time>2015-09-06T16:16:46Z</time>
      </trkpt>
      <trkpt lat="45.05097" lon="5.90816">
        <ele>1710.3182</ele>
        <time>2015-09-06T16:16:56Z</time>
      </trkpt>
      <trkpt lat="45.05097" lon="5.90816">
        <ele>1710.3182</ele>
        <time>2015-09-06T16:17:01Z</time>
      </trkpt>
      <trkpt lat="45.05096" lon="5.90795">
        <ele>1708.9172</ele>
        <time>2015-09-06T16:17:11Z</time>
      </trkpt>
      <trkpt lat="45.05105" lon="5.90783">
        <ele>1707.606</ele>
        <time>2015-09-06T16:17:16Z</time>
      </trkpt>
      <trkpt lat="45.05111" lon="5.90764">
        <ele>1705.941</ele>
        <time>2015-09-06T16:17:26Z</time>
      </trkpt>
      <trkpt lat="45.05109" lon="5.90754">
        <ele>1705.941</ele>
        <time>2015-09-06T16:17:31Z</time>
      </trkpt>
      <trkpt lat="45.05116" lon="5.90735">
        <ele>1704.0892</ele>
        <time>2015-09-06T16:17:41Z</time>
      </trkpt>
      <trkpt lat="45.05119" lon="5.90727">
        <ele>1704.0892</ele>
        <time>2015-09-06T16:17:46Z</time>
      </trkpt>
      <trkpt lat="45.05123" lon="5.9072">
        <ele>1702.206</ele>
        <time>2015-09-06T16:18:01Z</time>
      </trkpt>
      <trkpt lat="45.05122" lon="5.90721">
        <ele>1702.206</ele>
        <time>2015-09-06T16:18:06Z</time>
      </trkpt>
      <trkpt lat="45.05122" lon="5.90721">
        <ele>1702.206</ele>
        <time>2015-09-06T16:18:16Z</time>
      </trkpt>
      <trkpt lat="45.05122" lon="5.90721">
        <ele>1702.206</ele>
        <time>2015-09-06T16:18:21Z</time>
      </trkpt>
      <trkpt lat="45.05122" lon="5.90716">
        <ele>1702.206</ele>
        <time>2015-09-06T16:18:31Z</time>
      </trkpt>
      <trkpt lat="45.05122" lon="5.90715">
        <ele>1702.206</ele>
        <time>2015-09-06T16:18:36Z</time>
      </trkpt>
      <trkpt lat="45.05121" lon="5.90699">
        <ele>1700.2913</ele>
        <time>2015-09-06T16:18:46Z</time>
      </trkpt>
      <trkpt lat="45.05118" lon="5.90693">
        <ele>1700.2913</ele>
        <time>2015-09-06T16:18:51Z</time>
      </trkpt>
      <trkpt lat="45.05119" lon="5.90676">
        <ele>1698.2015</ele>
        <time>2015-09-06T16:19:01Z</time>
      </trkpt>
      <trkpt lat="45.05118" lon="5.90669">
        <ele>1698.2015</ele>
        <time>2015-09-06T16:19:06Z</time>
      </trkpt>
      <trkpt lat="45.05117" lon="5.90651">
        <ele>1696.5247</ele>
        <time>2015-09-06T16:19:16Z</time>
      </trkpt>
      <trkpt lat="45.0512" lon="5.90641">
        <ele>1696.5247</ele>
        <time>2015-09-06T16:19:21Z</time>
      </trkpt>
      <trkpt lat="45.05121" lon="5.90625">
        <ele>1694.796</ele>
        <time>2015-09-06T16:19:31Z</time>
      </trkpt>
      <trkpt lat="45.05121" lon="5.90616">
        <ele>1694.796</ele>
        <time>2015-09-06T16:19:36Z</time>
      </trkpt>
      <trkpt lat="45.05124" lon="5.90595">
        <ele>1693.0175</ele>
        <time>2015-09-06T16:19:46Z</time>
      </trkpt>
      <trkpt lat="45.05125" lon="5.90586">
        <ele>1693.0175</ele>
        <time>2015-09-06T16:19:51Z</time>
      </trkpt>
      <trkpt lat="45.0513" lon="5.90567">
        <ele>1690.903</ele>
        <time>2015-09-06T16:20:01Z</time>
      </trkpt>
      <trkpt lat="45.05133" lon="5.90558">
        <ele>1690.903</ele>
        <time>2015-09-06T16:20:06Z</time>
      </trkpt>
      <trkpt lat="45.05134" lon="5.9054">
        <ele>1688.909</ele>
        <time>2015-09-06T16:20:16Z</time>
      </trkpt>
      <trkpt lat="45.05134" lon="5.90532">
        <ele>1688.909</ele>
        <time>2015-09-06T16:20:21Z</time>
      </trkpt>
      <trkpt lat="45.05141" lon="5.90519">
        <ele>1686.738</ele>
        <time>2015-09-06T16:20:31Z</time>
      </trkpt>
      <trkpt lat="45.05144" lon="5.90509">
        <ele>1686.738</ele>
        <time>2015-09-06T16:20:36Z</time>
      </trkpt>
      <trkpt lat="45.05147" lon="5.9048">
        <ele>1684.4031</ele>
        <time>2015-09-06T16:20:51Z</time>
      </trkpt>
      <trkpt lat="45.05147" lon="5.90473">
        <ele>1684.4031</ele>
        <time>2015-09-06T16:20:56Z</time>
      </trkpt>
      <trkpt lat="45.05146" lon="5.90452">
        <ele>1682.6372</ele>
        <time>2015-09-06T16:21:06Z</time>
      </trkpt>
      <trkpt lat="45.0515" lon="5.90447">
        <ele>1682.6372</ele>
        <time>2015-09-06T16:21:11Z</time>
      </trkpt>
      <trkpt lat="45.05156" lon="5.90431">
        <ele>1680.5331</ele>
        <time>2015-09-06T16:21:21Z</time>
      </trkpt>
      <trkpt lat="45.05157" lon="5.90422">
        <ele>1680.5331</ele>
        <time>2015-09-06T16:21:26Z</time>
      </trkpt>
      <trkpt lat="45.05159" lon="5.90411">
        <ele>1678.5483</ele>
        <time>2015-09-06T16:21:36Z</time>
      </trkpt>
      <trkpt lat="45.05159" lon="5.90402">
        <ele>1678.5483</ele>
        <time>2015-09-06T16:21:41Z</time>
      </trkpt>
      <trkpt lat="45.05168" lon="5.90387">
        <ele>1676.0975</ele>
        <time>2015-09-06T16:21:51Z</time>
      </trkpt>
      <trkpt lat="45.05172" lon="5.9038">
        <ele>1676.0975</ele>
        <time>2015-09-06T16:21:56Z</time>
      </trkpt>
      <trkpt lat="45.05175" lon="5.90363">
        <ele>1673.6487</ele>
        <time>2015-09-06T16:22:06Z</time>
      </trkpt>
      <trkpt lat="45.05176" lon="5.90356">
        <ele>1673.6487</ele>
        <time>2015-09-06T16:22:11Z</time>
      </trkpt>
      <trkpt lat="45.05176" lon="5.90341">
        <ele>1671.6354</ele>
        <time>2015-09-06T16:22:21Z</time>
      </trkpt>
      <trkpt lat="45.05175" lon="5.90332">
        <ele>1671.6354</ele>
        <time>2015-09-06T16:22:26Z</time>
      </trkpt>
      <trkpt lat="45.05175" lon="5.90326">
        <ele>1670.1702</ele>
        <time>2015-09-06T16:22:31Z</time>
      </trkpt>
      <trkpt lat="45.05176" lon="5.90318">
        <ele>1670.1702</ele>
        <time>2015-09-06T16:22:36Z</time>
      </trkpt>
      <trkpt lat="45.05174" lon="5.90307">
        <ele>1668.491</ele>
        <time>2015-09-06T16:22:41Z</time>
      </trkpt>
      <trkpt lat="45.0517" lon="5.90292">
        <ele>1666.9014</ele>
        <time>2015-09-06T16:22:51Z</time>
      </trkpt>
      <trkpt lat="45.05168" lon="5.90286">
        <ele>1666.9014</ele>
        <time>2015-09-06T16:22:56Z</time>
      </trkpt>
      <trkpt lat="45.05166" lon="5.90281">
        <ele>1666.9014</ele>
        <time>2015-09-06T16:23:06Z</time>
      </trkpt>
      <trkpt lat="45.05166" lon="5.9028">
        <ele>1665.2498</ele>
        <time>2015-09-06T16:23:11Z</time>
      </trkpt>
      <trkpt lat="45.05155" lon="5.9025">
        <ele>1663.9729</ele>
        <time>2015-09-06T16:23:26Z</time>
      </trkpt>
      <trkpt lat="45.05152" lon="5.90244">
        <ele>1663.9729</ele>
        <time>2015-09-06T16:23:31Z</time>
      </trkpt>
      <trkpt lat="45.05152" lon="5.90245">
        <ele>1663.9729</ele>
        <time>2015-09-06T16:23:36Z</time>
      </trkpt>
      <trkpt lat="45.05153" lon="5.90245">
        <ele>1663.9729</ele>
        <time>2015-09-06T16:23:41Z</time>
      </trkpt>
      <trkpt lat="45.05152" lon="5.90245">
        <ele>1663.9729</ele>
        <time>2015-09-06T16:23:46Z</time>
      </trkpt>
      <trkpt lat="45.05152" lon="5.90245">
        <ele>1663.9729</ele>
        <time>2015-09-06T16:23:51Z</time>
      </trkpt>
      <trkpt lat="45.05153" lon="5.9024">
        <ele>1662.321</ele>
        <time>2015-09-06T16:23:56Z</time>
      </trkpt>
      <trkpt lat="45.05156" lon="5.90228">
        <ele>1662.321</ele>
        <time>2015-09-06T16:24:01Z</time>
      </trkpt>
      <trkpt lat="45.05156" lon="5.9022">
        <ele>1660.898</ele>
        <time>2015-09-06T16:24:06Z</time>
      </trkpt>
      <trkpt lat="45.05156" lon="5.90207">
        <ele>1660.898</ele>
        <time>2015-09-06T16:24:11Z</time>
      </trkpt>
      <trkpt lat="45.05156" lon="5.90196">
        <ele>1659.5417</ele>
        <time>2015-09-06T16:24:16Z</time>
      </trkpt>
      <trkpt lat="45.05153" lon="5.90192">
        <ele>1659.5417</ele>
        <time>2015-09-06T16:24:21Z</time>
      </trkpt>
      <trkpt lat="45.0515" lon="5.90185">
        <ele>1658.3906</ele>
        <time>2015-09-06T16:24:26Z</time>
      </trkpt>
      <trkpt lat="45.05151" lon="5.90181">
        <ele>1658.3906</ele>
        <time>2015-09-06T16:24:31Z</time>
      </trkpt>
      <trkpt lat="45.05149" lon="5.90181">
        <ele>1658.3906</ele>
        <time>2015-09-06T16:24:36Z</time>
      </trkpt>
      <trkpt lat="45.05142" lon="5.90183">
        <ele>1658.0044</ele>
        <time>2015-09-06T16:24:41Z</time>
      </trkpt>
      <trkpt lat="45.05141" lon="5.90183">
        <ele>1658.0044</ele>
        <time>2015-09-06T16:24:46Z</time>
      </trkpt>
      <trkpt lat="45.05139" lon="5.90182">
        <ele>1658.0044</ele>
        <time>2015-09-06T16:24:56Z</time>
      </trkpt>
      <trkpt lat="45.05135" lon="5.90173">
        <ele>1657.1703</ele>
        <time>2015-09-06T16:25:01Z</time>
      </trkpt>
      <trkpt lat="45.05131" lon="5.90156">
        <ele>1656.3512</ele>
        <time>2015-09-06T16:25:11Z</time>
      </trkpt>
      <trkpt lat="45.05129" lon="5.90148">
        <ele>1656.3512</ele>
        <time>2015-09-06T16:25:16Z</time>
      </trkpt>
      <trkpt lat="45.05134" lon="5.90136">
        <ele>1655.1113</ele>
        <time>2015-09-06T16:25:26Z</time>
      </trkpt>
      <trkpt lat="45.05136" lon="5.90129">
        <ele>1655.1113</ele>
        <time>2015-09-06T16:25:31Z</time>
      </trkpt>
      <trkpt lat="45.05136" lon="5.90112">
        <ele>1654.4893</ele>
        <time>2015-09-06T16:25:41Z</time>
      </trkpt>
      <trkpt lat="45.05139" lon="5.90104">
        <ele>1654.4893</ele>
        <time>2015-09-06T16:25:46Z</time>
      </trkpt>
      <trkpt lat="45.05148" lon="5.9009">
        <ele>1653.7164</ele>
        <time>2015-09-06T16:25:56Z</time>
      </trkpt>
      <trkpt lat="45.05151" lon="5.90084">
        <ele>1653.7164</ele>
        <time>2015-09-06T16:26:01Z</time>
      </trkpt>
      <trkpt lat="45.05172" lon="5.90013">
        <ele>1651.5045</ele>
        <time>2015-09-06T16:26:41Z</time>
      </trkpt>
      <trkpt lat="45.05176" lon="5.90018">
        <ele>1651.5045</ele>
        <time>2015-09-06T16:26:46Z</time>
      </trkpt>
      <trkpt lat="45.0518" lon="5.90011">
        <ele>1649.8346</ele>
        <time>2015-09-06T16:26:56Z</time>
      </trkpt>
      <trkpt lat="45.05184" lon="5.9001">
        <ele>1649.8346</ele>
        <time>2015-09-06T16:27:01Z</time>
      </trkpt>
      <trkpt lat="45.0519" lon="5.90021">
        <ele>1648.2347</ele>
        <time>2015-09-06T16:27:11Z</time>
      </trkpt>
      <trkpt lat="45.05191" lon="5.90022">
        <ele>1648.2347</ele>
        <time>2015-09-06T16:27:16Z</time>
      </trkpt>
      <trkpt lat="45.052" lon="5.90047">
        <ele>1647.4208</ele>
        <time>2015-09-06T16:27:26Z</time>
      </trkpt>
      <trkpt lat="45.05198" lon="5.90059">
        <ele>1647.4208</ele>
        <time>2015-09-06T16:27:31Z</time>
      </trkpt>
      <trkpt lat="45.05205" lon="5.90074">
        <ele>1647.3329</ele>
        <time>2015-09-06T16:27:41Z</time>
      </trkpt>
      <trkpt lat="45.05207" lon="5.90075">
        <ele>1647.3329</ele>
        <time>2015-09-06T16:27:46Z</time>
      </trkpt>
      <trkpt lat="45.05214" lon="5.90063">
        <ele>1646.9052</ele>
        <time>2015-09-06T16:27:56Z</time>
      </trkpt>
      <trkpt lat="45.05215" lon="5.90061">
        <ele>1646.9052</ele>
        <time>2015-09-06T16:28:01Z</time>
      </trkpt>
      <trkpt lat="45.05221" lon="5.9006">
        <ele>1646.9052</ele>
        <time>2015-09-06T16:28:11Z</time>
      </trkpt>
      <trkpt lat="45.05224" lon="5.90052">
        <ele>1646.4479</ele>
        <time>2015-09-06T16:28:16Z</time>
      </trkpt>
      <trkpt lat="45.05232" lon="5.90043">
        <ele>1645.6721</ele>
        <time>2015-09-06T16:28:26Z</time>
      </trkpt>
      <trkpt lat="45.05234" lon="5.90037">
        <ele>1645.6721</ele>
        <time>2015-09-06T16:28:31Z</time>
      </trkpt>
      <trkpt lat="45.05237" lon="5.90027">
        <ele>1644.5995</ele>
        <time>2015-09-06T16:28:41Z</time>
      </trkpt>
      <trkpt lat="45.05237" lon="5.9002">
        <ele>1644.5995</ele>
        <time>2015-09-06T16:28:46Z</time>
      </trkpt>
      <trkpt lat="45.05238" lon="5.90016">
        <ele>1644.5995</ele>
        <time>2015-09-06T16:29:01Z</time>
      </trkpt>
      <trkpt lat="45.05239" lon="5.90016">
        <ele>1644.5995</ele>
        <time>2015-09-06T16:29:06Z</time>
      </trkpt>
      <trkpt lat="45.05239" lon="5.90016">
        <ele>1644.5995</ele>
        <time>2015-09-06T16:29:16Z</time>
      </trkpt>
      <trkpt lat="45.05239" lon="5.90016">
        <ele>1644.5995</ele>
        <time>2015-09-06T16:29:21Z</time>
      </trkpt>
      <trkpt lat="45.05239" lon="5.90016">
        <ele>1644.5995</ele>
        <time>2015-09-06T16:29:31Z</time>
      </trkpt>
      <trkpt lat="45.05239" lon="5.90016">
        <ele>1644.5995</ele>
        <time>2015-09-06T16:29:36Z</time>
      </trkpt>
      <trkpt lat="45.05239" lon="5.90016">
        <ele>1644.5995</ele>
        <time>2015-09-06T16:29:46Z</time>
      </trkpt>
      <trkpt lat="45.05239" lon="5.90016">
        <ele>1644.5995</ele>
        <time>2015-09-06T16:29:51Z</time>
      </trkpt>
      <trkpt lat="45.05239" lon="5.90016">
        <ele>1644.5995</ele>
        <time>2015-09-06T16:30:01Z</time>
      </trkpt>
      <trkpt lat="45.05239" lon="5.90016">
        <ele>1644.5995</ele>
        <time>2015-09-06T16:30:06Z</time>
      </trkpt>
      <trkpt lat="45.05239" lon="5.90016">
        <ele>1644.5995</ele>
        <time>2015-09-06T16:30:16Z</time>
      </trkpt>
      <trkpt lat="45.05239" lon="5.90016">
        <ele>1644.5995</ele>
        <time>2015-09-06T16:30:21Z</time>
      </trkpt>
      <trkpt lat="45.05239" lon="5.90016">
        <ele>1644.5995</ele>
        <time>2015-09-06T16:30:31Z</time>
      </trkpt>
      <trkpt lat="45.05239" lon="5.90016">
        <ele>1644.5995</ele>
        <time>2015-09-06T16:30:36Z</time>
      </trkpt>
      <trkpt lat="45.05239" lon="5.90016">
        <ele>1644.5995</ele>
        <time>2015-09-06T16:30:51Z</time>
      </trkpt>
      <trkpt lat="45.05239" lon="5.90016">
        <ele>1644.5995</ele>
        <time>2015-09-06T16:30:56Z</time>
      </trkpt>
      <trkpt lat="45.05239" lon="5.90016">
        <ele>1644.5995</ele>
        <time>2015-09-06T16:31:06Z</time>
      </trkpt>
      <trkpt lat="45.05239" lon="5.90016">
        <ele>1644.5995</ele>
        <time>2015-09-06T16:31:11Z</time>
      </trkpt>
      <trkpt lat="45.05239" lon="5.90016">
        <ele>1644.5995</ele>
        <time>2015-09-06T16:31:21Z</time>
      </trkpt>
      <trkpt lat="45.05239" lon="5.90016">
        <ele>1644.5995</ele>
        <time>2015-09-06T16:31:26Z</time>
      </trkpt>
      <trkpt lat="45.05239" lon="5.90016">
        <ele>1644.5995</ele>
        <time>2015-09-06T16:31:36Z</time>
      </trkpt>
      <trkpt lat="45.05238" lon="5.90015">
        <ele>1643.5392</ele>
        <time>2015-09-06T16:31:41Z</time>
      </trkpt>
      <trkpt lat="45.05239" lon="5.90016">
        <ele>1643.5392</ele>
        <time>2015-09-06T16:31:51Z</time>
      </trkpt>
      <trkpt lat="45.05239" lon="5.90016">
        <ele>1643.5392</ele>
        <time>2015-09-06T16:31:56Z</time>
      </trkpt>
      <trkpt lat="45.0524" lon="5.90015">
        <ele>1643.5392</ele>
        <time>2015-09-06T16:32:06Z</time>
      </trkpt>
      <trkpt lat="45.05241" lon="5.90016">
        <ele>1643.5392</ele>
        <time>2015-09-06T16:32:11Z</time>
      </trkpt>
      <trkpt lat="45.05243" lon="5.90017">
        <ele>1643.5392</ele>
        <time>2015-09-06T16:32:21Z</time>
      </trkpt>
      <trkpt lat="45.05243" lon="5.90017">
        <ele>1643.5392</ele>
        <time>2015-09-06T16:32:26Z</time>
      </trkpt>
      <trkpt lat="45.05243" lon="5.90017">
        <ele>1643.5392</ele>
        <time>2015-09-06T16:32:36Z</time>
      </trkpt>
      <trkpt lat="45.05243" lon="5.90017">
        <ele>1643.5392</ele>
        <time>2015-09-06T16:32:41Z</time>
      </trkpt>
      <trkpt lat="45.05243" lon="5.90017">
        <ele>1643.5392</ele>
        <time>2015-09-06T16:32:51Z</time>
      </trkpt>
      <trkpt lat="45.05243" lon="5.90017">
        <ele>1643.5392</ele>
        <time>2015-09-06T16:32:56Z</time>
      </trkpt>
      <trkpt lat="45.05243" lon="5.90017">
        <ele>1643.5392</ele>
        <time>2015-09-06T16:33:11Z</time>
      </trkpt>
      <trkpt lat="45.05243" lon="5.90017">
        <ele>1643.5392</ele>
        <time>2015-09-06T16:33:16Z</time>
      </trkpt>
      <trkpt lat="45.05239" lon="5.90018">
        <ele>1642.6335</ele>
        <time>2015-09-06T16:33:26Z</time>
      </trkpt>
      <trkpt lat="45.05239" lon="5.90017">
        <ele>1642.6335</ele>
        <time>2015-09-06T16:33:31Z</time>
      </trkpt>
      <trkpt lat="45.05239" lon="5.90017">
        <ele>1642.6335</ele>
        <time>2015-09-06T16:33:41Z</time>
      </trkpt>
      <trkpt lat="45.05239" lon="5.90017">
        <ele>1642.6335</ele>
        <time>2015-09-06T16:33:46Z</time>
      </trkpt>
      <trkpt lat="45.05239" lon="5.90017">
        <ele>1642.6335</ele>
        <time>2015-09-06T16:33:56Z</time>
      </trkpt>
      <trkpt lat="45.05239" lon="5.90017">
        <ele>1642.6335</ele>
        <time>2015-09-06T16:34:01Z</time>
      </trkpt>
      <trkpt lat="45.05239" lon="5.90017">
        <ele>1642.6335</ele>
        <time>2015-09-06T16:34:16Z</time>
      </trkpt>
      <trkpt lat="45.05239" lon="5.90017">
        <ele>1642.6335</ele>
        <time>2015-09-06T16:34:21Z</time>
      </trkpt>
      <trkpt lat="45.05239" lon="5.90017">
        <ele>1642.6335</ele>
        <time>2015-09-06T16:34:31Z</time>
      </trkpt>
      <trkpt lat="45.05238" lon="5.90017">
        <ele>1642.6335</ele>
        <time>2015-09-06T16:34:36Z</time>
      </trkpt>
      <trkpt lat="45.05238" lon="5.90022">
        <ele>1642.6335</ele>
        <time>2015-09-06T16:34:46Z</time>
      </trkpt>
      <trkpt lat="45.05238" lon="5.90022">
        <ele>1642.6335</ele>
        <time>2015-09-06T16:34:51Z</time>
      </trkpt>
      <trkpt lat="45.05238" lon="5.90023">
        <ele>1642.6335</ele>
        <time>2015-09-06T16:35:01Z</time>
      </trkpt>
      <trkpt lat="45.05238" lon="5.90023">
        <ele>1642.6335</ele>
        <time>2015-09-06T16:35:06Z</time>
      </trkpt>
      <trkpt lat="45.05238" lon="5.90023">
        <ele>1642.6335</ele>
        <time>2015-09-06T16:35:16Z</time>
      </trkpt>
      <trkpt lat="45.05238" lon="5.90023">
        <ele>1642.6335</ele>
        <time>2015-09-06T16:35:21Z</time>
      </trkpt>
      <trkpt lat="45.05238" lon="5.90023">
        <ele>1642.6335</ele>
        <time>2015-09-06T16:35:31Z</time>
      </trkpt>
      <trkpt lat="45.05238" lon="5.90023">
        <ele>1642.6335</ele>
        <time>2015-09-06T16:35:36Z</time>
      </trkpt>
      <trkpt lat="45.05238" lon="5.90023">
        <ele>1642.6335</ele>
        <time>2015-09-06T16:35:46Z</time>
      </trkpt>
      <trkpt lat="45.05238" lon="5.90023">
        <ele>1642.6335</ele>
        <time>2015-09-06T16:35:51Z</time>
      </trkpt>
      <trkpt lat="45.05238" lon="5.90023">
        <ele>1642.6335</ele>
        <time>2015-09-06T16:36:01Z</time>
      </trkpt>
      <trkpt lat="45.05238" lon="5.90023">
        <ele>1642.6335</ele>
        <time>2015-09-06T16:36:06Z</time>
      </trkpt>
      <trkpt lat="45.05238" lon="5.90023">
        <ele>1642.6335</ele>
        <time>2015-09-06T16:36:21Z</time>
      </trkpt>
      <trkpt lat="45.05238" lon="5.90023">
        <ele>1642.6335</ele>
        <time>2015-09-06T16:36:26Z</time>
      </trkpt>
      <trkpt lat="45.05238" lon="5.90023">
        <ele>1642.6335</ele>
        <time>2015-09-06T16:36:36Z</time>
      </trkpt>
      <trkpt lat="45.05241" lon="5.90019">
        <ele>1642.7346</ele>
        <time>2015-09-06T16:36:41Z</time>
      </trkpt>
      <trkpt lat="45.05239" lon="5.90004">
        <ele>1642.6115</ele>
        <time>2015-09-06T16:36:51Z</time>
      </trkpt>
      <trkpt lat="45.05244" lon="5.89997">
        <ele>1642.6115</ele>
        <time>2015-09-06T16:36:56Z</time>
      </trkpt>
      <trkpt lat="45.05235" lon="5.89974">
        <ele>1642.1333</ele>
        <time>2015-09-06T16:37:06Z</time>
      </trkpt>
      <trkpt lat="45.05233" lon="5.89965">
        <ele>1642.1333</ele>
        <time>2015-09-06T16:37:11Z</time>
      </trkpt>
      <trkpt lat="45.05229" lon="5.89953">
        <ele>1642.1885</ele>
        <time>2015-09-06T16:37:21Z</time>
      </trkpt>
      <trkpt lat="45.05231" lon="5.89953">
        <ele>1642.1885</ele>
        <time>2015-09-06T16:37:26Z</time>
      </trkpt>
      <trkpt lat="45.05229" lon="5.89949">
        <ele>1642.1885</ele>
        <time>2015-09-06T16:37:36Z</time>
      </trkpt>
      <trkpt lat="45.05229" lon="5.89938">
        <ele>1642.4459</ele>
        <time>2015-09-06T16:37:41Z</time>
      </trkpt>
      <trkpt lat="45.0523" lon="5.89928">
        <ele>1642.4459</ele>
        <time>2015-09-06T16:37:51Z</time>
      </trkpt>
      <trkpt lat="45.05229" lon="5.89927">
        <ele>1642.4459</ele>
        <time>2015-09-06T16:37:56Z</time>
      </trkpt>
      <trkpt lat="45.05231" lon="5.89913">
        <ele>1643.8955</ele>
        <time>2015-09-06T16:38:06Z</time>
      </trkpt>
      <trkpt lat="45.05229" lon="5.899">
        <ele>1645.8657</ele>
        <time>2015-09-06T16:38:11Z</time>
      </trkpt>
      <trkpt lat="45.05227" lon="5.89893">
        <ele>1645.8657</ele>
        <time>2015-09-06T16:38:21Z</time>
      </trkpt>
      <trkpt lat="45.05228" lon="5.89892">
        <ele>1645.8657</ele>
        <time>2015-09-06T16:38:26Z</time>
      </trkpt>
      <trkpt lat="45.05227" lon="5.89883">
        <ele>1647.7333</ele>
        <time>2015-09-06T16:38:36Z</time>
      </trkpt>
      <trkpt lat="45.05229" lon="5.89875">
        <ele>1647.7333</ele>
        <time>2015-09-06T16:38:41Z</time>
      </trkpt>
      <trkpt lat="45.05235" lon="5.89853">
        <ele>1649.7854</ele>
        <time>2015-09-06T16:38:56Z</time>
      </trkpt>
      <trkpt lat="45.05233" lon="5.89844">
        <ele>1649.7854</ele>
        <time>2015-09-06T16:39:01Z</time>
      </trkpt>
      <trkpt lat="45.05233" lon="5.89829">
        <ele>1651.4235</ele>
        <time>2015-09-06T16:39:11Z</time>
      </trkpt>
      <trkpt lat="45.05235" lon="5.89823">
        <ele>1651.4235</ele>
        <time>2015-09-06T16:39:16Z</time>
      </trkpt>
      <trkpt lat="45.05238" lon="5.89805">
        <ele>1653.247</ele>
        <time>2015-09-06T16:39:26Z</time>
      </trkpt>
      <trkpt lat="45.05234" lon="5.89795">
        <ele>1653.247</ele>
        <time>2015-09-06T16:39:31Z</time>
      </trkpt>
      <trkpt lat="45.05234" lon="5.89783">
        <ele>1655.0902</ele>
        <time>2015-09-06T16:39:41Z</time>
      </trkpt>
      <trkpt lat="45.05233" lon="5.89779">
        <ele>1655.0902</ele>
        <time>2015-09-06T16:39:46Z</time>
      </trkpt>
      <trkpt lat="45.05237" lon="5.89759">
        <ele>1658.2413</ele>
        <time>2015-09-06T16:39:56Z</time>
      </trkpt>
      <trkpt lat="45.05234" lon="5.89749">
        <ele>1658.2413</ele>
        <time>2015-09-06T16:40:01Z</time>
      </trkpt>
      <trkpt lat="45.05233" lon="5.89737">
        <ele>1660.7195</ele>
        <time>2015-09-06T16:40:11Z</time>
      </trkpt>
      <trkpt lat="45.05236" lon="5.89732">
        <ele>1660.7195</ele>
        <time>2015-09-06T16:40:16Z</time>
      </trkpt>
      <trkpt lat="45.05235" lon="5.89713">
        <ele>1662.7092</ele>
        <time>2015-09-06T16:40:26Z</time>
      </trkpt>
      <trkpt lat="45.05234" lon="5.89706">
        <ele>1662.7092</ele>
        <time>2015-09-06T16:40:31Z</time>
      </trkpt>
      <trkpt lat="45.05233" lon="5.89689">
        <ele>1664.383</ele>
        <time>2015-09-06T16:40:41Z</time>
      </trkpt>
      <trkpt lat="45.05231" lon="5.89683">
        <ele>1664.383</ele>
        <time>2015-09-06T16:40:46Z</time>
      </trkpt>
      <trkpt lat="45.05227" lon="5.89675">
        <ele>1665.7579</ele>
        <time>2015-09-06T16:40:56Z</time>
      </trkpt>
      <trkpt lat="45.05224" lon="5.89668">
        <ele>1665.7579</ele>
        <time>2015-09-06T16:41:01Z</time>
      </trkpt>
      <trkpt lat="45.05214" lon="5.89646">
        <ele>1666.9945</ele>
        <time>2015-09-06T16:41:16Z</time>
      </trkpt>
      <trkpt lat="45.05214" lon="5.89639">
        <ele>1666.9945</ele>
        <time>2015-09-06T16:41:21Z</time>
      </trkpt>
      <trkpt lat="45.05213" lon="5.89622">
        <ele>1668.8188</ele>
        <time>2015-09-06T16:41:31Z</time>
      </trkpt>
      <trkpt lat="45.05215" lon="5.89611">
        <ele>1668.8188</ele>
        <time>2015-09-06T16:41:36Z</time>
      </trkpt>
      <trkpt lat="45.05211" lon="5.89596">
        <ele>1670.8934</ele>
        <time>2015-09-06T16:41:46Z</time>
      </trkpt>
      <trkpt lat="45.05207" lon="5.89587">
        <ele>1670.8934</ele>
        <time>2015-09-06T16:41:51Z</time>
      </trkpt>
      <trkpt lat="45.05202" lon="5.89571">
        <ele>1673.0492</ele>
        <time>2015-09-06T16:42:01Z</time>
      </trkpt>
      <trkpt lat="45.05203" lon="5.89563">
        <ele>1673.0492</ele>
        <time>2015-09-06T16:42:06Z</time>
      </trkpt>
      <trkpt lat="45.05201" lon="5.89557">
        <ele>1675.1294</ele>
        <time>2015-09-06T16:42:16Z</time>
      </trkpt>
      <trkpt lat="45.052" lon="5.89555">
        <ele>1675.1294</ele>
        <time>2015-09-06T16:42:21Z</time>
      </trkpt>
      <trkpt lat="45.05198" lon="5.89553">
        <ele>1675.1294</ele>
        <time>2015-09-06T16:42:31Z</time>
      </trkpt>
      <trkpt lat="45.05199" lon="5.89542">
        <ele>1677.1335</ele>
        <time>2015-09-06T16:42:36Z</time>
      </trkpt>
      <trkpt lat="45.05191" lon="5.8953">
        <ele>1678.485</ele>
        <time>2015-09-06T16:42:46Z</time>
      </trkpt>
      <trkpt lat="45.05188" lon="5.89517">
        <ele>1680.3809</ele>
        <time>2015-09-06T16:42:51Z</time>
      </trkpt>
      <trkpt lat="45.05186" lon="5.89494">
        <ele>1682.344</ele>
        <time>2015-09-06T16:43:06Z</time>
      </trkpt>
      <trkpt lat="45.05184" lon="5.89488">
        <ele>1682.344</ele>
        <time>2015-09-06T16:43:11Z</time>
      </trkpt>
      <trkpt lat="45.05183" lon="5.89487">
        <ele>1682.344</ele>
        <time>2015-09-06T16:43:21Z</time>
      </trkpt>
      <trkpt lat="45.0518" lon="5.89479">
        <ele>1685.2291</ele>
        <time>2015-09-06T16:43:26Z</time>
      </trkpt>
      <trkpt lat="45.05186" lon="5.89471">
        <ele>1685.2291</ele>
        <time>2015-09-06T16:43:36Z</time>
      </trkpt>
      <trkpt lat="45.05187" lon="5.89466">
        <ele>1687.9525</ele>
        <time>2015-09-06T16:43:41Z</time>
      </trkpt>
      <trkpt lat="45.05188" lon="5.8945">
        <ele>1691.2399</ele>
        <time>2015-09-06T16:43:51Z</time>
      </trkpt>
      <trkpt lat="45.05189" lon="5.89441">
        <ele>1691.2399</ele>
        <time>2015-09-06T16:43:56Z</time>
      </trkpt>
      <trkpt lat="45.05186" lon="5.89428">
        <ele>1693.7449</ele>
        <time>2015-09-06T16:44:06Z</time>
      </trkpt>
      <trkpt lat="45.05185" lon="5.89425">
        <ele>1693.7449</ele>
        <time>2015-09-06T16:44:11Z</time>
      </trkpt>
      <trkpt lat="45.05185" lon="5.89421">
        <ele>1693.7449</ele>
        <time>2015-09-06T16:44:21Z</time>
      </trkpt>
      <trkpt lat="45.05185" lon="5.89421">
        <ele>1693.7449</ele>
        <time>2015-09-06T16:44:26Z</time>
      </trkpt>
      <trkpt lat="45.05184" lon="5.8942">
        <ele>1693.7449</ele>
        <time>2015-09-06T16:44:36Z</time>
      </trkpt>
      <trkpt lat="45.05184" lon="5.89416">
        <ele>1695.3754</ele>
        <time>2015-09-06T16:44:41Z</time>
      </trkpt>
      <trkpt lat="45.0518" lon="5.89412">
        <ele>1695.3754</ele>
        <time>2015-09-06T16:44:51Z</time>
      </trkpt>
      <trkpt lat="45.05179" lon="5.89412">
        <ele>1695.3754</ele>
        <time>2015-09-06T16:44:56Z</time>
      </trkpt>
      <trkpt lat="45.05178" lon="5.8941">
        <ele>1695.3754</ele>
        <time>2015-09-06T16:45:06Z</time>
      </trkpt>
      <trkpt lat="45.05179" lon="5.8941">
        <ele>1695.3754</ele>
        <time>2015-09-06T16:45:11Z</time>
      </trkpt>
      <trkpt lat="45.05179" lon="5.8941">
        <ele>1695.3754</ele>
        <time>2015-09-06T16:45:21Z</time>
      </trkpt>
      <trkpt lat="45.05183" lon="5.89404">
        <ele>1696.769</ele>
        <time>2015-09-06T16:45:26Z</time>
      </trkpt>
      <trkpt lat="45.05191" lon="5.89386">
        <ele>1698.2297</ele>
        <time>2015-09-06T16:45:36Z</time>
      </trkpt>
      <trkpt lat="45.0519" lon="5.89379">
        <ele>1698.2297</ele>
        <time>2015-09-06T16:45:41Z</time>
      </trkpt>
      <trkpt lat="45.05188" lon="5.89358">
        <ele>1699.0298</ele>
        <time>2015-09-06T16:45:56Z</time>
      </trkpt>
      <trkpt lat="45.05184" lon="5.89349">
        <ele>1699.0298</ele>
        <time>2015-09-06T16:46:01Z</time>
      </trkpt>
      <trkpt lat="45.05182" lon="5.89334">
        <ele>1699.5062</ele>
        <time>2015-09-06T16:46:11Z</time>
      </trkpt>
      <trkpt lat="45.05179" lon="5.89328">
        <ele>1699.5062</ele>
        <time>2015-09-06T16:46:16Z</time>
      </trkpt>
      <trkpt lat="45.05182" lon="5.8931">
        <ele>1700.1163</ele>
        <time>2015-09-06T16:46:26Z</time>
      </trkpt>
      <trkpt lat="45.05178" lon="5.89302">
        <ele>1700.1163</ele>
        <time>2015-09-06T16:46:31Z</time>
      </trkpt>
      <trkpt lat="45.05178" lon="5.89282">
        <ele>1699.6984</ele>
        <time>2015-09-06T16:46:41Z</time>
      </trkpt>
      <trkpt lat="45.0518" lon="5.89274">
        <ele>1699.6984</ele>
        <time>2015-09-06T16:46:46Z</time>
      </trkpt>
      <trkpt lat="45.05182" lon="5.89262">
        <ele>1700.061</ele>
        <time>2015-09-06T16:46:56Z</time>
      </trkpt>
    </trkseg>
  </trk>
</gpx>